<?xml version="1.0" encoding="UTF-8" standalone="no" ?>
<gpx xmlns="http://www.topografix.com/GPX/1/1" xmlns:xsi="http://www.w3.org/2001/XMLSchema-instance" xsi:schemaLocation="http://www.topografix.com/GPX/1/1 http://www.topografix.com/GPX/1/1/gpx.xsd" version="1.1" creator="VisuGPX - https://www.visugpx.com">
  <metadata>
    <name>espinasses selonnet chabanon la grande cabanne </name>
    <desc><![CDATA[espinasses espinasses par selonnet chabanon la grande cabanne bayons turrier]]></desc>
  </metadata>
  <trk>
    <name><![CDATA[espinasses selonnet chabanon la grande cabanne _1]]></name>
    <trkseg>
      <trkpt lat="44.46233" lon="6.23646">
        <ele>704</ele>
        <time>2014-08-31T09:34:05.1Z</time>
      </trkpt>
      <trkpt lat="44.46135" lon="6.23695">
        <ele>704</ele>
        <time>2014-08-31T09:34:10.1Z</time>
      </trkpt>
      <trkpt lat="44.46035" lon="6.23741">
        <ele>706</ele>
        <time>2014-08-31T09:34:16.1Z</time>
      </trkpt>
      <trkpt lat="44.4594" lon="6.23794">
        <ele>708</ele>
        <time>2014-08-31T09:34:22.1Z</time>
      </trkpt>
      <trkpt lat="44.45853" lon="6.23868">
        <ele>712</ele>
        <time>2014-08-31T09:34:28.1Z</time>
      </trkpt>
      <trkpt lat="44.45787" lon="6.23934">
        <ele>713</ele>
        <time>2014-08-31T09:34:33.1Z</time>
      </trkpt>
      <trkpt lat="44.45729" lon="6.23927">
        <ele>712</ele>
        <time>2014-08-31T09:34:38.1Z</time>
      </trkpt>
      <trkpt lat="44.45666" lon="6.23866">
        <ele>714</ele>
        <time>2014-08-31T09:34:44.1Z</time>
      </trkpt>
      <trkpt lat="44.45604" lon="6.2384">
        <ele>717</ele>
        <time>2014-08-31T09:34:49.1Z</time>
      </trkpt>
      <trkpt lat="44.45522" lon="6.23838">
        <ele>721</ele>
        <time>2014-08-31T09:34:55.1Z</time>
      </trkpt>
      <trkpt lat="44.44965" lon="6.23994">
        <ele>749</ele>
        <time>2014-08-31T09:35:49.1Z</time>
      </trkpt>
      <trkpt lat="44.44763" lon="6.24059">
        <ele>761</ele>
        <time>2014-08-31T09:36:15.1Z</time>
      </trkpt>
      <trkpt lat="44.44767" lon="6.2413">
        <ele>763</ele>
        <time>2014-08-31T09:36:20.1Z</time>
      </trkpt>
      <trkpt lat="44.44777" lon="6.24209">
        <ele>767</ele>
        <time>2014-08-31T09:36:25.1Z</time>
      </trkpt>
      <trkpt lat="44.44768" lon="6.24283">
        <ele>770</ele>
        <time>2014-08-31T09:36:30.1Z</time>
      </trkpt>
      <trkpt lat="44.44467" lon="6.24475">
        <ele>788</ele>
        <time>2014-08-31T09:36:59.1Z</time>
      </trkpt>
      <trkpt lat="44.44413" lon="6.24518">
        <ele>790</ele>
        <time>2014-08-31T09:37:04.1Z</time>
      </trkpt>
      <trkpt lat="44.44374" lon="6.24612">
        <ele>791</ele>
        <time>2014-08-31T09:37:10.1Z</time>
      </trkpt>
      <trkpt lat="44.44357" lon="6.24656">
        <ele>790</ele>
        <time>2014-08-31T09:37:15.1Z</time>
      </trkpt>
      <trkpt lat="44.44307" lon="6.24687">
        <ele>790</ele>
        <time>2014-08-31T09:37:21.1Z</time>
      </trkpt>
      <trkpt lat="44.4427" lon="6.24764">
        <ele>791</ele>
        <time>2014-08-31T09:37:26.1Z</time>
      </trkpt>
      <trkpt lat="44.44233" lon="6.24831">
        <ele>791</ele>
        <time>2014-08-31T09:37:32.1Z</time>
      </trkpt>
      <trkpt lat="44.44175" lon="6.24832">
        <ele>790</ele>
        <time>2014-08-31T09:37:38.1Z</time>
      </trkpt>
      <trkpt lat="44.44113" lon="6.24821">
        <ele>790</ele>
        <time>2014-08-31T09:37:44.1Z</time>
      </trkpt>
      <trkpt lat="44.44061" lon="6.24826">
        <ele>790</ele>
        <time>2014-08-31T09:37:49.1Z</time>
      </trkpt>
      <trkpt lat="44.44021" lon="6.24887">
        <ele>789</ele>
        <time>2014-08-31T09:37:55.1Z</time>
      </trkpt>
      <trkpt lat="44.44012" lon="6.24972">
        <ele>792</ele>
        <time>2014-08-31T09:38:00.1Z</time>
      </trkpt>
      <trkpt lat="44.43977" lon="6.25031">
        <ele>794</ele>
        <time>2014-08-31T09:38:06.1Z</time>
      </trkpt>
      <trkpt lat="44.4395" lon="6.24987">
        <ele>796</ele>
        <time>2014-08-31T09:38:12.1Z</time>
      </trkpt>
      <trkpt lat="44.43945" lon="6.24957">
        <ele>799</ele>
        <time>2014-08-31T09:38:17.1Z</time>
      </trkpt>
      <trkpt lat="44.43896" lon="6.24999">
        <ele>801</ele>
        <time>2014-08-31T09:38:23.1Z</time>
      </trkpt>
      <trkpt lat="44.43844" lon="6.25024">
        <ele>805</ele>
        <time>2014-08-31T09:38:28.1Z</time>
      </trkpt>
      <trkpt lat="44.43769" lon="6.25036">
        <ele>808</ele>
        <time>2014-08-31T09:38:34.1Z</time>
      </trkpt>
      <trkpt lat="44.43705" lon="6.25062">
        <ele>811</ele>
        <time>2014-08-31T09:38:39.1Z</time>
      </trkpt>
      <trkpt lat="44.43641" lon="6.25097">
        <ele>816</ele>
        <time>2014-08-31T09:38:44.1Z</time>
      </trkpt>
      <trkpt lat="44.43589" lon="6.2517">
        <ele>818</ele>
        <time>2014-08-31T09:38:50.1Z</time>
      </trkpt>
      <trkpt lat="44.43594" lon="6.25231">
        <ele>819</ele>
        <time>2014-08-31T09:38:55.1Z</time>
      </trkpt>
      <trkpt lat="44.43547" lon="6.25281">
        <ele>819</ele>
        <time>2014-08-31T09:39:01.1Z</time>
      </trkpt>
      <trkpt lat="44.43495" lon="6.25315">
        <ele>822</ele>
        <time>2014-08-31T09:39:06.1Z</time>
      </trkpt>
      <trkpt lat="44.43444" lon="6.25346">
        <ele>823</ele>
        <time>2014-08-31T09:39:11.1Z</time>
      </trkpt>
      <trkpt lat="44.43367" lon="6.25396">
        <ele>826</ele>
        <time>2014-08-31T09:39:18.1Z</time>
      </trkpt>
      <trkpt lat="44.43257" lon="6.25335">
        <ele>828</ele>
        <time>2014-08-31T09:39:28.1Z</time>
      </trkpt>
      <trkpt lat="44.43192" lon="6.25308">
        <ele>828</ele>
        <time>2014-08-31T09:39:33.1Z</time>
      </trkpt>
      <trkpt lat="44.43115" lon="6.2535">
        <ele>829</ele>
        <time>2014-08-31T09:39:39.1Z</time>
      </trkpt>
      <trkpt lat="44.43055" lon="6.25424">
        <ele>831</ele>
        <time>2014-08-31T09:39:44.1Z</time>
      </trkpt>
      <trkpt lat="44.42985" lon="6.25483">
        <ele>831</ele>
        <time>2014-08-31T09:39:49.1Z</time>
      </trkpt>
      <trkpt lat="44.429" lon="6.255">
        <ele>832</ele>
        <time>2014-08-31T09:39:54.1Z</time>
      </trkpt>
      <trkpt lat="44.42818" lon="6.25521">
        <ele>833</ele>
        <time>2014-08-31T09:39:59.1Z</time>
      </trkpt>
      <trkpt lat="44.42733" lon="6.25595">
        <ele>835</ele>
        <time>2014-08-31T09:40:05.1Z</time>
      </trkpt>
      <trkpt lat="44.42659" lon="6.25661">
        <ele>837</ele>
        <time>2014-08-31T09:40:10.1Z</time>
      </trkpt>
      <trkpt lat="44.42582" lon="6.25724">
        <ele>839</ele>
        <time>2014-08-31T09:40:15.1Z</time>
      </trkpt>
      <trkpt lat="44.4251" lon="6.25817">
        <ele>841</ele>
        <time>2014-08-31T09:40:21.1Z</time>
      </trkpt>
      <trkpt lat="44.42442" lon="6.25906">
        <ele>843</ele>
        <time>2014-08-31T09:40:27.1Z</time>
      </trkpt>
      <trkpt lat="44.42373" lon="6.25963">
        <ele>845</ele>
        <time>2014-08-31T09:40:32.1Z</time>
      </trkpt>
      <trkpt lat="44.42284" lon="6.26022">
        <ele>847</ele>
        <time>2014-08-31T09:40:38.1Z</time>
      </trkpt>
      <trkpt lat="44.42205" lon="6.26073">
        <ele>849</ele>
        <time>2014-08-31T09:40:43.1Z</time>
      </trkpt>
      <trkpt lat="44.42102" lon="6.26085">
        <ele>852</ele>
        <time>2014-08-31T09:40:49.1Z</time>
      </trkpt>
      <trkpt lat="44.42002" lon="6.2607">
        <ele>855</ele>
        <time>2014-08-31T09:40:55.1Z</time>
      </trkpt>
      <trkpt lat="44.41908" lon="6.26103">
        <ele>859</ele>
        <time>2014-08-31T09:41:01.1Z</time>
      </trkpt>
      <trkpt lat="44.41823" lon="6.26145">
        <ele>862</ele>
        <time>2014-08-31T09:41:07.1Z</time>
      </trkpt>
      <trkpt lat="44.41753" lon="6.26227">
        <ele>867</ele>
        <time>2014-08-31T09:41:13.1Z</time>
      </trkpt>
      <trkpt lat="44.41662" lon="6.26266">
        <ele>869</ele>
        <time>2014-08-31T09:41:19.1Z</time>
      </trkpt>
      <trkpt lat="44.41588" lon="6.26302">
        <ele>872</ele>
        <time>2014-08-31T09:41:24.1Z</time>
      </trkpt>
      <trkpt lat="44.41518" lon="6.26269">
        <ele>876</ele>
        <time>2014-08-31T09:41:29.1Z</time>
      </trkpt>
      <trkpt lat="44.41451" lon="6.26265">
        <ele>879</ele>
        <time>2014-08-31T09:41:34.1Z</time>
      </trkpt>
      <trkpt lat="44.4138" lon="6.26329">
        <ele>884</ele>
        <time>2014-08-31T09:41:40.1Z</time>
      </trkpt>
      <trkpt lat="44.41326" lon="6.26431">
        <ele>887</ele>
        <time>2014-08-31T09:41:46.1Z</time>
      </trkpt>
      <trkpt lat="44.41275" lon="6.26494">
        <ele>887</ele>
        <time>2014-08-31T09:41:51.1Z</time>
      </trkpt>
      <trkpt lat="44.41194" lon="6.26508">
        <ele>887</ele>
        <time>2014-08-31T09:41:57.1Z</time>
      </trkpt>
      <trkpt lat="44.41124" lon="6.26531">
        <ele>888</ele>
        <time>2014-08-31T09:42:02.1Z</time>
      </trkpt>
      <trkpt lat="44.41046" lon="6.26551">
        <ele>890</ele>
        <time>2014-08-31T09:42:08.1Z</time>
      </trkpt>
      <trkpt lat="44.4099" lon="6.26517">
        <ele>891</ele>
        <time>2014-08-31T09:42:13.1Z</time>
      </trkpt>
      <trkpt lat="44.40937" lon="6.26496">
        <ele>892</ele>
        <time>2014-08-31T09:42:19.1Z</time>
      </trkpt>
      <trkpt lat="44.40923" lon="6.26552">
        <ele>894</ele>
        <time>2014-08-31T09:42:24.1Z</time>
      </trkpt>
      <trkpt lat="44.409" lon="6.26619">
        <ele>897</ele>
        <time>2014-08-31T09:42:29.1Z</time>
      </trkpt>
      <trkpt lat="44.40865" lon="6.26688">
        <ele>901</ele>
        <time>2014-08-31T09:42:34.1Z</time>
      </trkpt>
      <trkpt lat="44.40797" lon="6.26732">
        <ele>905</ele>
        <time>2014-08-31T09:42:40.1Z</time>
      </trkpt>
      <trkpt lat="44.40741" lon="6.26767">
        <ele>908</ele>
        <time>2014-08-31T09:42:45.1Z</time>
      </trkpt>
      <trkpt lat="44.40686" lon="6.26793">
        <ele>911</ele>
        <time>2014-08-31T09:42:50.1Z</time>
      </trkpt>
      <trkpt lat="44.40626" lon="6.26832">
        <ele>915</ele>
        <time>2014-08-31T09:42:56.1Z</time>
      </trkpt>
      <trkpt lat="44.40486" lon="6.26715">
        <ele>922</ele>
        <time>2014-08-31T09:43:10.1Z</time>
      </trkpt>
      <trkpt lat="44.40426" lon="6.26744">
        <ele>927</ele>
        <time>2014-08-31T09:43:16.1Z</time>
      </trkpt>
      <trkpt lat="44.40371" lon="6.26787">
        <ele>931</ele>
        <time>2014-08-31T09:43:21.1Z</time>
      </trkpt>
      <trkpt lat="44.40314" lon="6.26821">
        <ele>933</ele>
        <time>2014-08-31T09:43:27.1Z</time>
      </trkpt>
      <trkpt lat="44.40227" lon="6.26777">
        <ele>936</ele>
        <time>2014-08-31T09:43:35.1Z</time>
      </trkpt>
      <trkpt lat="44.40143" lon="6.26735">
        <ele>942</ele>
        <time>2014-08-31T09:43:44.1Z</time>
      </trkpt>
      <trkpt lat="44.40111" lon="6.26726">
        <ele>944</ele>
        <time>2014-08-31T09:43:49.1Z</time>
      </trkpt>
      <trkpt lat="44.40041" lon="6.26757">
        <ele>948</ele>
        <time>2014-08-31T09:43:56.1Z</time>
      </trkpt>
      <trkpt lat="44.3997" lon="6.26764">
        <ele>953</ele>
        <time>2014-08-31T09:44:02.1Z</time>
      </trkpt>
      <trkpt lat="44.39912" lon="6.2674">
        <ele>955</ele>
        <time>2014-08-31T09:44:07.1Z</time>
      </trkpt>
      <trkpt lat="44.39851" lon="6.26746">
        <ele>957</ele>
        <time>2014-08-31T09:44:13.1Z</time>
      </trkpt>
      <trkpt lat="44.39791" lon="6.268">
        <ele>959</ele>
        <time>2014-08-31T09:44:19.1Z</time>
      </trkpt>
      <trkpt lat="44.39745" lon="6.26853">
        <ele>962</ele>
        <time>2014-08-31T09:44:24.1Z</time>
      </trkpt>
      <trkpt lat="44.39696" lon="6.26895">
        <ele>966</ele>
        <time>2014-08-31T09:44:29.1Z</time>
      </trkpt>
      <trkpt lat="44.39638" lon="6.2696">
        <ele>970</ele>
        <time>2014-08-31T09:44:35.1Z</time>
      </trkpt>
      <trkpt lat="44.39589" lon="6.2704">
        <ele>975</ele>
        <time>2014-08-31T09:44:41.1Z</time>
      </trkpt>
      <trkpt lat="44.39542" lon="6.27083">
        <ele>979</ele>
        <time>2014-08-31T09:44:46.1Z</time>
      </trkpt>
      <trkpt lat="44.39521" lon="6.27156">
        <ele>981</ele>
        <time>2014-08-31T09:44:51.1Z</time>
      </trkpt>
      <trkpt lat="44.39493" lon="6.2724">
        <ele>983</ele>
        <time>2014-08-31T09:44:57.1Z</time>
      </trkpt>
      <trkpt lat="44.39442" lon="6.27273">
        <ele>985</ele>
        <time>2014-08-31T09:45:02.1Z</time>
      </trkpt>
      <trkpt lat="44.39374" lon="6.2726">
        <ele>989</ele>
        <time>2014-08-31T09:45:08.1Z</time>
      </trkpt>
      <trkpt lat="44.39326" lon="6.27224">
        <ele>993</ele>
        <time>2014-08-31T09:45:13.1Z</time>
      </trkpt>
      <trkpt lat="44.39282" lon="6.27192">
        <ele>996</ele>
        <time>2014-08-31T09:45:19.1Z</time>
      </trkpt>
      <trkpt lat="44.39249" lon="6.27242">
        <ele>999</ele>
        <time>2014-08-31T09:45:24.1Z</time>
      </trkpt>
      <trkpt lat="44.39199" lon="6.27303">
        <ele>1004</ele>
        <time>2014-08-31T09:45:30.1Z</time>
      </trkpt>
      <trkpt lat="44.39135" lon="6.27352">
        <ele>1010</ele>
        <time>2014-08-31T09:45:36.1Z</time>
      </trkpt>
      <trkpt lat="44.39074" lon="6.2738">
        <ele>1013</ele>
        <time>2014-08-31T09:45:41.1Z</time>
      </trkpt>
      <trkpt lat="44.39037" lon="6.27423">
        <ele>1015</ele>
        <time>2014-08-31T09:45:46.1Z</time>
      </trkpt>
      <trkpt lat="44.39036" lon="6.27509">
        <ele>1018</ele>
        <time>2014-08-31T09:45:52.1Z</time>
      </trkpt>
      <trkpt lat="44.39016" lon="6.2758">
        <ele>1022</ele>
        <time>2014-08-31T09:45:57.1Z</time>
      </trkpt>
      <trkpt lat="44.38964" lon="6.27643">
        <ele>1025</ele>
        <time>2014-08-31T09:46:03.1Z</time>
      </trkpt>
      <trkpt lat="44.38927" lon="6.2764">
        <ele>1026</ele>
        <time>2014-08-31T09:46:08.1Z</time>
      </trkpt>
      <trkpt lat="44.38897" lon="6.27636">
        <ele>1029</ele>
        <time>2014-08-31T09:46:13.1Z</time>
      </trkpt>
      <trkpt lat="44.38862" lon="6.27652">
        <ele>1034</ele>
        <time>2014-08-31T09:46:19.1Z</time>
      </trkpt>
      <trkpt lat="44.38819" lon="6.27701">
        <ele>1038</ele>
        <time>2014-08-31T09:46:25.1Z</time>
      </trkpt>
      <trkpt lat="44.38781" lon="6.27756">
        <ele>1041</ele>
        <time>2014-08-31T09:46:31.1Z</time>
      </trkpt>
      <trkpt lat="44.38785" lon="6.27831">
        <ele>1043</ele>
        <time>2014-08-31T09:46:37.1Z</time>
      </trkpt>
      <trkpt lat="44.38783" lon="6.27905">
        <ele>1046</ele>
        <time>2014-08-31T09:46:42.1Z</time>
      </trkpt>
      <trkpt lat="44.38761" lon="6.28009">
        <ele>1051</ele>
        <time>2014-08-31T09:46:48.1Z</time>
      </trkpt>
      <trkpt lat="44.38751" lon="6.28109">
        <ele>1053</ele>
        <time>2014-08-31T09:46:54.1Z</time>
      </trkpt>
      <trkpt lat="44.38712" lon="6.28148">
        <ele>1054</ele>
        <time>2014-08-31T09:47:00.1Z</time>
      </trkpt>
      <trkpt lat="44.38669" lon="6.28152">
        <ele>1055</ele>
        <time>2014-08-31T09:47:05.1Z</time>
      </trkpt>
      <trkpt lat="44.38658" lon="6.28219">
        <ele>1058</ele>
        <time>2014-08-31T09:47:11.1Z</time>
      </trkpt>
      <trkpt lat="44.38689" lon="6.28276">
        <ele>1060</ele>
        <time>2014-08-31T09:47:16.1Z</time>
      </trkpt>
      <trkpt lat="44.38684" lon="6.28328">
        <ele>1060</ele>
        <time>2014-08-31T09:47:21.1Z</time>
      </trkpt>
      <trkpt lat="44.3863" lon="6.28341">
        <ele>1059</ele>
        <time>2014-08-31T09:47:27.1Z</time>
      </trkpt>
      <trkpt lat="44.38593" lon="6.28395">
        <ele>1059</ele>
        <time>2014-08-31T09:47:32.1Z</time>
      </trkpt>
      <trkpt lat="44.38578" lon="6.2848">
        <ele>1059</ele>
        <time>2014-08-31T09:47:38.1Z</time>
      </trkpt>
      <trkpt lat="44.38611" lon="6.28527">
        <ele>1058</ele>
        <time>2014-08-31T09:47:43.1Z</time>
      </trkpt>
      <trkpt lat="44.38613" lon="6.28593">
        <ele>1058</ele>
        <time>2014-08-31T09:47:49.1Z</time>
      </trkpt>
      <trkpt lat="44.38575" lon="6.28645">
        <ele>1057</ele>
        <time>2014-08-31T09:47:54.1Z</time>
      </trkpt>
      <trkpt lat="44.38549" lon="6.28723">
        <ele>1056</ele>
        <time>2014-08-31T09:48:00.1Z</time>
      </trkpt>
      <trkpt lat="44.38599" lon="6.28753">
        <ele>1055</ele>
        <time>2014-08-31T09:48:06.1Z</time>
      </trkpt>
      <trkpt lat="44.38648" lon="6.288">
        <ele>1055</ele>
        <time>2014-08-31T09:48:12.1Z</time>
      </trkpt>
      <trkpt lat="44.38668" lon="6.28871">
        <ele>1055</ele>
        <time>2014-08-31T09:48:17.1Z</time>
      </trkpt>
      <trkpt lat="44.38644" lon="6.28961">
        <ele>1058</ele>
        <time>2014-08-31T09:48:23.1Z</time>
      </trkpt>
      <trkpt lat="44.38648" lon="6.29067">
        <ele>1060</ele>
        <time>2014-08-31T09:48:29.1Z</time>
      </trkpt>
      <trkpt lat="44.38687" lon="6.29146">
        <ele>1063</ele>
        <time>2014-08-31T09:48:34.1Z</time>
      </trkpt>
      <trkpt lat="44.38728" lon="6.29228">
        <ele>1066</ele>
        <time>2014-08-31T09:48:39.1Z</time>
      </trkpt>
      <trkpt lat="44.38752" lon="6.29346">
        <ele>1068</ele>
        <time>2014-08-31T09:48:45.1Z</time>
      </trkpt>
      <trkpt lat="44.38744" lon="6.29469">
        <ele>1072</ele>
        <time>2014-08-31T09:48:51.1Z</time>
      </trkpt>
      <trkpt lat="44.3872" lon="6.29588">
        <ele>1074</ele>
        <time>2014-08-31T09:48:57.1Z</time>
      </trkpt>
      <trkpt lat="44.38703" lon="6.29667">
        <ele>1074</ele>
        <time>2014-08-31T09:49:02.1Z</time>
      </trkpt>
      <trkpt lat="44.38712" lon="6.29744">
        <ele>1074</ele>
        <time>2014-08-31T09:49:08.1Z</time>
      </trkpt>
      <trkpt lat="44.38665" lon="6.29767">
        <ele>1075</ele>
        <time>2014-08-31T09:49:14.1Z</time>
      </trkpt>
      <trkpt lat="44.38607" lon="6.29767">
        <ele>1079</ele>
        <time>2014-08-31T09:49:20.1Z</time>
      </trkpt>
      <trkpt lat="44.38583" lon="6.29836">
        <ele>1082</ele>
        <time>2014-08-31T09:49:25.1Z</time>
      </trkpt>
      <trkpt lat="44.3857" lon="6.29947">
        <ele>1083</ele>
        <time>2014-08-31T09:49:31.1Z</time>
      </trkpt>
      <trkpt lat="44.38588" lon="6.30041">
        <ele>1084</ele>
        <time>2014-08-31T09:49:36.1Z</time>
      </trkpt>
      <trkpt lat="44.38611" lon="6.30138">
        <ele>1084</ele>
        <time>2014-08-31T09:49:41.1Z</time>
      </trkpt>
      <trkpt lat="44.3862" lon="6.30233">
        <ele>1082</ele>
        <time>2014-08-31T09:49:46.1Z</time>
      </trkpt>
      <trkpt lat="44.3858" lon="6.30313">
        <ele>1080</ele>
        <time>2014-08-31T09:49:51.1Z</time>
      </trkpt>
      <trkpt lat="44.38526" lon="6.30409">
        <ele>1080</ele>
        <time>2014-08-31T09:49:57.1Z</time>
      </trkpt>
      <trkpt lat="44.38474" lon="6.305">
        <ele>1084</ele>
        <time>2014-08-31T09:50:03.1Z</time>
      </trkpt>
      <trkpt lat="44.3842" lon="6.30593">
        <ele>1088</ele>
        <time>2014-08-31T09:50:09.1Z</time>
      </trkpt>
      <trkpt lat="44.38372" lon="6.30675">
        <ele>1091</ele>
        <time>2014-08-31T09:50:14.1Z</time>
      </trkpt>
      <trkpt lat="44.38311" lon="6.30775">
        <ele>1093</ele>
        <time>2014-08-31T09:50:20.1Z</time>
      </trkpt>
      <trkpt lat="44.38255" lon="6.30853">
        <ele>1095</ele>
        <time>2014-08-31T09:50:25.1Z</time>
      </trkpt>
      <trkpt lat="44.38184" lon="6.30908">
        <ele>1097</ele>
        <time>2014-08-31T09:50:30.1Z</time>
      </trkpt>
      <trkpt lat="44.38089" lon="6.30946">
        <ele>1099</ele>
        <time>2014-08-31T09:50:36.1Z</time>
      </trkpt>
      <trkpt lat="44.37984" lon="6.30962">
        <ele>1100</ele>
        <time>2014-08-31T09:50:42.1Z</time>
      </trkpt>
      <trkpt lat="44.37892" lon="6.30975">
        <ele>1100</ele>
        <time>2014-08-31T09:50:47.1Z</time>
      </trkpt>
      <trkpt lat="44.37787" lon="6.30988">
        <ele>1098</ele>
        <time>2014-08-31T09:50:53.1Z</time>
      </trkpt>
      <trkpt lat="44.37712" lon="6.31013">
        <ele>1095</ele>
        <time>2014-08-31T09:50:58.1Z</time>
      </trkpt>
      <trkpt lat="44.37632" lon="6.31091">
        <ele>1094</ele>
        <time>2014-08-31T09:51:04.1Z</time>
      </trkpt>
      <trkpt lat="44.37561" lon="6.31143">
        <ele>1093</ele>
        <time>2014-08-31T09:51:09.1Z</time>
      </trkpt>
      <trkpt lat="44.37462" lon="6.31177">
        <ele>1091</ele>
        <time>2014-08-31T09:51:15.1Z</time>
      </trkpt>
      <trkpt lat="44.37366" lon="6.31221">
        <ele>1087</ele>
        <time>2014-08-31T09:51:21.1Z</time>
      </trkpt>
      <trkpt lat="44.37287" lon="6.31258">
        <ele>1086</ele>
        <time>2014-08-31T09:51:26.1Z</time>
      </trkpt>
      <trkpt lat="44.37217" lon="6.31289">
        <ele>1086</ele>
        <time>2014-08-31T09:51:31.1Z</time>
      </trkpt>
      <trkpt lat="44.37175" lon="6.31299">
        <ele>1083</ele>
        <time>2014-08-31T09:51:36.1Z</time>
      </trkpt>
      <trkpt lat="44.37157" lon="6.3125">
        <ele>1082</ele>
        <time>2014-08-31T09:51:42.1Z</time>
      </trkpt>
      <trkpt lat="44.37128" lon="6.31208">
        <ele>1083</ele>
        <time>2014-08-31T09:51:47.1Z</time>
      </trkpt>
      <trkpt lat="44.37122" lon="6.31158">
        <ele>1083</ele>
        <time>2014-08-31T09:51:53.1Z</time>
      </trkpt>
      <trkpt lat="44.37122" lon="6.31108">
        <ele>1085</ele>
        <time>2014-08-31T09:51:58.1Z</time>
      </trkpt>
      <trkpt lat="44.3711" lon="6.3105">
        <ele>1089</ele>
        <time>2014-08-31T09:52:03.1Z</time>
      </trkpt>
      <trkpt lat="44.37092" lon="6.30985">
        <ele>1091</ele>
        <time>2014-08-31T09:52:09.1Z</time>
      </trkpt>
      <trkpt lat="44.37051" lon="6.30969">
        <ele>1092</ele>
        <time>2014-08-31T09:52:14.1Z</time>
      </trkpt>
      <trkpt lat="44.36997" lon="6.30931">
        <ele>1096</ele>
        <time>2014-08-31T09:52:20.1Z</time>
      </trkpt>
      <trkpt lat="44.36958" lon="6.30881">
        <ele>1099</ele>
        <time>2014-08-31T09:52:25.1Z</time>
      </trkpt>
      <trkpt lat="44.36914" lon="6.30805">
        <ele>1103</ele>
        <time>2014-08-31T09:52:31.1Z</time>
      </trkpt>
      <trkpt lat="44.36868" lon="6.30725">
        <ele>1107</ele>
        <time>2014-08-31T09:52:37.1Z</time>
      </trkpt>
      <trkpt lat="44.3683" lon="6.30657">
        <ele>1110</ele>
        <time>2014-08-31T09:52:42.1Z</time>
      </trkpt>
      <trkpt lat="44.36777" lon="6.30613">
        <ele>1113</ele>
        <time>2014-08-31T09:52:47.1Z</time>
      </trkpt>
      <trkpt lat="44.36719" lon="6.30556">
        <ele>1116</ele>
        <time>2014-08-31T09:52:53.1Z</time>
      </trkpt>
      <trkpt lat="44.36695" lon="6.30479">
        <ele>1120</ele>
        <time>2014-08-31T09:52:58.1Z</time>
      </trkpt>
      <trkpt lat="44.36658" lon="6.30385">
        <ele>1126</ele>
        <time>2014-08-31T09:53:04.1Z</time>
      </trkpt>
      <trkpt lat="44.3662" lon="6.30292">
        <ele>1130</ele>
        <time>2014-08-31T09:53:10.1Z</time>
      </trkpt>
      <trkpt lat="44.3659" lon="6.30199">
        <ele>1135</ele>
        <time>2014-08-31T09:53:16.1Z</time>
      </trkpt>
      <trkpt lat="44.36538" lon="6.30136">
        <ele>1137</ele>
        <time>2014-08-31T09:53:22.1Z</time>
      </trkpt>
      <trkpt lat="44.36484" lon="6.3007">
        <ele>1141</ele>
        <time>2014-08-31T09:53:28.1Z</time>
      </trkpt>
      <trkpt lat="44.36431" lon="6.30023">
        <ele>1146</ele>
        <time>2014-08-31T09:53:33.1Z</time>
      </trkpt>
      <trkpt lat="44.36365" lon="6.29978">
        <ele>1153</ele>
        <time>2014-08-31T09:53:39.1Z</time>
      </trkpt>
      <trkpt lat="44.36304" lon="6.29922">
        <ele>1159</ele>
        <time>2014-08-31T09:53:45.1Z</time>
      </trkpt>
      <trkpt lat="44.36246" lon="6.29862">
        <ele>1165</ele>
        <time>2014-08-31T09:53:51.1Z</time>
      </trkpt>
      <trkpt lat="44.36184" lon="6.2981">
        <ele>1171</ele>
        <time>2014-08-31T09:53:57.1Z</time>
      </trkpt>
      <trkpt lat="44.36123" lon="6.29746">
        <ele>1175</ele>
        <time>2014-08-31T09:54:03.1Z</time>
      </trkpt>
      <trkpt lat="44.36083" lon="6.29661">
        <ele>1183</ele>
        <time>2014-08-31T09:54:09.1Z</time>
      </trkpt>
      <trkpt lat="44.3606" lon="6.29595">
        <ele>1189</ele>
        <time>2014-08-31T09:54:14.1Z</time>
      </trkpt>
      <trkpt lat="44.36025" lon="6.29552">
        <ele>1193</ele>
        <time>2014-08-31T09:54:19.1Z</time>
      </trkpt>
      <trkpt lat="44.36008" lon="6.29507">
        <ele>1198</ele>
        <time>2014-08-31T09:54:25.1Z</time>
      </trkpt>
      <trkpt lat="44.36044" lon="6.29531">
        <ele>1201</ele>
        <time>2014-08-31T09:54:31.1Z</time>
      </trkpt>
      <trkpt lat="44.36087" lon="6.29511">
        <ele>1204</ele>
        <time>2014-08-31T09:54:37.1Z</time>
      </trkpt>
      <trkpt lat="44.36127" lon="6.29526">
        <ele>1208</ele>
        <time>2014-08-31T09:54:42.1Z</time>
      </trkpt>
      <trkpt lat="44.36175" lon="6.29538">
        <ele>1213</ele>
        <time>2014-08-31T09:54:48.1Z</time>
      </trkpt>
      <trkpt lat="44.36181" lon="6.29514">
        <ele>1215</ele>
        <time>2014-08-31T09:54:53.1Z</time>
      </trkpt>
      <trkpt lat="44.36159" lon="6.29507">
        <ele>1216</ele>
        <time>2014-08-31T09:54:58.1Z</time>
      </trkpt>
      <trkpt lat="44.36132" lon="6.29475">
        <ele>1220</ele>
        <time>2014-08-31T09:55:04.1Z</time>
      </trkpt>
      <trkpt lat="44.36107" lon="6.29439">
        <ele>1223</ele>
        <time>2014-08-31T09:55:09.1Z</time>
      </trkpt>
      <trkpt lat="44.36071" lon="6.2942">
        <ele>1227</ele>
        <time>2014-08-31T09:55:14.1Z</time>
      </trkpt>
      <trkpt lat="44.36028" lon="6.29386">
        <ele>1232</ele>
        <time>2014-08-31T09:55:20.1Z</time>
      </trkpt>
      <trkpt lat="44.36003" lon="6.2932">
        <ele>1237</ele>
        <time>2014-08-31T09:55:26.1Z</time>
      </trkpt>
      <trkpt lat="44.35962" lon="6.29308">
        <ele>1240</ele>
        <time>2014-08-31T09:55:31.1Z</time>
      </trkpt>
      <trkpt lat="44.35916" lon="6.29286">
        <ele>1244</ele>
        <time>2014-08-31T09:55:36.1Z</time>
      </trkpt>
      <trkpt lat="44.35867" lon="6.29232">
        <ele>1248</ele>
        <time>2014-08-31T09:55:42.1Z</time>
      </trkpt>
      <trkpt lat="44.35811" lon="6.2919">
        <ele>1255</ele>
        <time>2014-08-31T09:55:48.1Z</time>
      </trkpt>
      <trkpt lat="44.35752" lon="6.29151">
        <ele>1262</ele>
        <time>2014-08-31T09:55:54.1Z</time>
      </trkpt>
      <trkpt lat="44.35702" lon="6.29093">
        <ele>1268</ele>
        <time>2014-08-31T09:56:00.1Z</time>
      </trkpt>
      <trkpt lat="44.35652" lon="6.29048">
        <ele>1273</ele>
        <time>2014-08-31T09:56:06.1Z</time>
      </trkpt>
      <trkpt lat="44.35606" lon="6.29024">
        <ele>1277</ele>
        <time>2014-08-31T09:56:11.1Z</time>
      </trkpt>
      <trkpt lat="44.35553" lon="6.29004">
        <ele>1280</ele>
        <time>2014-08-31T09:56:17.1Z</time>
      </trkpt>
      <trkpt lat="44.35506" lon="6.29011">
        <ele>1285</ele>
        <time>2014-08-31T09:56:23.1Z</time>
      </trkpt>
      <trkpt lat="44.35498" lon="6.29046">
        <ele>1288</ele>
        <time>2014-08-31T09:56:28.1Z</time>
      </trkpt>
      <trkpt lat="44.3554" lon="6.29071">
        <ele>1291</ele>
        <time>2014-08-31T09:56:34.1Z</time>
      </trkpt>
      <trkpt lat="44.35578" lon="6.29109">
        <ele>1295</ele>
        <time>2014-08-31T09:56:39.1Z</time>
      </trkpt>
      <trkpt lat="44.35612" lon="6.29178">
        <ele>1300</ele>
        <time>2014-08-31T09:56:45.1Z</time>
      </trkpt>
      <trkpt lat="44.35628" lon="6.2924">
        <ele>1304</ele>
        <time>2014-08-31T09:56:50.1Z</time>
      </trkpt>
      <trkpt lat="44.35646" lon="6.29309">
        <ele>1308</ele>
        <time>2014-08-31T09:56:56.1Z</time>
      </trkpt>
      <trkpt lat="44.35632" lon="6.29381">
        <ele>1314</ele>
        <time>2014-08-31T09:57:02.1Z</time>
      </trkpt>
      <trkpt lat="44.35623" lon="6.29459">
        <ele>1320</ele>
        <time>2014-08-31T09:57:08.1Z</time>
      </trkpt>
      <trkpt lat="44.35613" lon="6.29543">
        <ele>1325</ele>
        <time>2014-08-31T09:57:14.1Z</time>
      </trkpt>
      <trkpt lat="44.35593" lon="6.29611">
        <ele>1329</ele>
        <time>2014-08-31T09:57:20.1Z</time>
      </trkpt>
      <trkpt lat="44.35574" lon="6.2958">
        <ele>1331</ele>
        <time>2014-08-31T09:57:26.1Z</time>
      </trkpt>
      <trkpt lat="44.35579" lon="6.29544">
        <ele>1334</ele>
        <time>2014-08-31T09:57:31.1Z</time>
      </trkpt>
      <trkpt lat="44.35573" lon="6.29493">
        <ele>1338</ele>
        <time>2014-08-31T09:57:37.1Z</time>
      </trkpt>
      <trkpt lat="44.35569" lon="6.2943">
        <ele>1341</ele>
        <time>2014-08-31T09:57:43.1Z</time>
      </trkpt>
      <trkpt lat="44.35556" lon="6.29375">
        <ele>1345</ele>
        <time>2014-08-31T09:57:48.1Z</time>
      </trkpt>
      <trkpt lat="44.35529" lon="6.29307">
        <ele>1351</ele>
        <time>2014-08-31T09:57:54.1Z</time>
      </trkpt>
      <trkpt lat="44.35497" lon="6.29236">
        <ele>1356</ele>
        <time>2014-08-31T09:58:00.1Z</time>
      </trkpt>
      <trkpt lat="44.35445" lon="6.2921">
        <ele>1360</ele>
        <time>2014-08-31T09:58:05.1Z</time>
      </trkpt>
      <trkpt lat="44.35392" lon="6.29186">
        <ele>1365</ele>
        <time>2014-08-31T09:58:11.1Z</time>
      </trkpt>
      <trkpt lat="44.35345" lon="6.29205">
        <ele>1367</ele>
        <time>2014-08-31T09:58:18.1Z</time>
      </trkpt>
      <trkpt lat="44.35371" lon="6.29236">
        <ele>1370</ele>
        <time>2014-08-31T09:58:23.1Z</time>
      </trkpt>
      <trkpt lat="44.35382" lon="6.29286">
        <ele>1374</ele>
        <time>2014-08-31T09:58:28.1Z</time>
      </trkpt>
      <trkpt lat="44.35375" lon="6.29352">
        <ele>1378</ele>
        <time>2014-08-31T09:58:34.1Z</time>
      </trkpt>
      <trkpt lat="44.3537" lon="6.29425">
        <ele>1383</ele>
        <time>2014-08-31T09:58:40.1Z</time>
      </trkpt>
      <trkpt lat="44.35371" lon="6.29506">
        <ele>1389</ele>
        <time>2014-08-31T09:58:46.1Z</time>
      </trkpt>
      <trkpt lat="44.3536" lon="6.29592">
        <ele>1394</ele>
        <time>2014-08-31T09:58:52.1Z</time>
      </trkpt>
      <trkpt lat="44.35347" lon="6.29678">
        <ele>1398</ele>
        <time>2014-08-31T09:58:58.1Z</time>
      </trkpt>
      <trkpt lat="44.35313" lon="6.29747">
        <ele>1404</ele>
        <time>2014-08-31T09:59:04.1Z</time>
      </trkpt>
      <trkpt lat="44.35265" lon="6.29801">
        <ele>1409</ele>
        <time>2014-08-31T09:59:10.1Z</time>
      </trkpt>
      <trkpt lat="44.35233" lon="6.29845">
        <ele>1413</ele>
        <time>2014-08-31T09:59:15.1Z</time>
      </trkpt>
      <trkpt lat="44.35245" lon="6.29884">
        <ele>1415</ele>
        <time>2014-08-31T09:59:20.1Z</time>
      </trkpt>
      <trkpt lat="44.35282" lon="6.2994">
        <ele>1419</ele>
        <time>2014-08-31T09:59:26.1Z</time>
      </trkpt>
      <trkpt lat="44.35307" lon="6.2999">
        <ele>1423</ele>
        <time>2014-08-31T09:59:31.1Z</time>
      </trkpt>
      <trkpt lat="44.35288" lon="6.29991">
        <ele>1427</ele>
        <time>2014-08-31T09:59:37.1Z</time>
      </trkpt>
      <trkpt lat="44.35264" lon="6.2997">
        <ele>1429</ele>
        <time>2014-08-31T09:59:42.1Z</time>
      </trkpt>
      <trkpt lat="44.35223" lon="6.29942">
        <ele>1433</ele>
        <time>2014-08-31T09:59:48.1Z</time>
      </trkpt>
      <trkpt lat="44.35188" lon="6.29918">
        <ele>1437</ele>
        <time>2014-08-31T09:59:53.1Z</time>
      </trkpt>
      <trkpt lat="44.35139" lon="6.29887">
        <ele>1443</ele>
        <time>2014-08-31T09:59:59.1Z</time>
      </trkpt>
      <trkpt lat="44.35096" lon="6.29867">
        <ele>1448</ele>
        <time>2014-08-31T10:00:04.1Z</time>
      </trkpt>
      <trkpt lat="44.35085" lon="6.29814">
        <ele>1451</ele>
        <time>2014-08-31T10:00:10.1Z</time>
      </trkpt>
      <trkpt lat="44.35112" lon="6.29763">
        <ele>1456</ele>
        <time>2014-08-31T10:00:16.1Z</time>
      </trkpt>
      <trkpt lat="44.35153" lon="6.29728">
        <ele>1462</ele>
        <time>2014-08-31T10:00:22.1Z</time>
      </trkpt>
      <trkpt lat="44.35191" lon="6.29677">
        <ele>1467</ele>
        <time>2014-08-31T10:00:28.1Z</time>
      </trkpt>
      <trkpt lat="44.3521" lon="6.29613">
        <ele>1471</ele>
        <time>2014-08-31T10:00:33.1Z</time>
      </trkpt>
      <trkpt lat="44.35192" lon="6.29543">
        <ele>1476</ele>
        <time>2014-08-31T10:00:39.1Z</time>
      </trkpt>
      <trkpt lat="44.35135" lon="6.29501">
        <ele>1481</ele>
        <time>2014-08-31T10:00:45.1Z</time>
      </trkpt>
      <trkpt lat="44.35083" lon="6.29452">
        <ele>1487</ele>
        <time>2014-08-31T10:00:51.1Z</time>
      </trkpt>
      <trkpt lat="44.35067" lon="6.29402">
        <ele>1491</ele>
        <time>2014-08-31T10:00:56.1Z</time>
      </trkpt>
      <trkpt lat="44.35039" lon="6.29403">
        <ele>1493</ele>
        <time>2014-08-31T10:01:02.1Z</time>
      </trkpt>
      <trkpt lat="44.35043" lon="6.29457">
        <ele>1497</ele>
        <time>2014-08-31T10:01:08.1Z</time>
      </trkpt>
      <trkpt lat="44.35072" lon="6.29516">
        <ele>1502</ele>
        <time>2014-08-31T10:01:14.1Z</time>
      </trkpt>
      <trkpt lat="44.35073" lon="6.29588">
        <ele>1506</ele>
        <time>2014-08-31T10:01:19.1Z</time>
      </trkpt>
      <trkpt lat="44.35027" lon="6.29633">
        <ele>1510</ele>
        <time>2014-08-31T10:01:25.1Z</time>
      </trkpt>
      <trkpt lat="44.34979" lon="6.29621">
        <ele>1514</ele>
        <time>2014-08-31T10:01:30.1Z</time>
      </trkpt>
      <trkpt lat="44.34935" lon="6.29604">
        <ele>1518</ele>
        <time>2014-08-31T10:01:35.1Z</time>
      </trkpt>
      <trkpt lat="44.34896" lon="6.29631">
        <ele>1522</ele>
        <time>2014-08-31T10:01:40.1Z</time>
      </trkpt>
      <trkpt lat="44.34889" lon="6.297">
        <ele>1525</ele>
        <time>2014-08-31T10:01:46.1Z</time>
      </trkpt>
      <trkpt lat="44.34877" lon="6.2977">
        <ele>1529</ele>
        <time>2014-08-31T10:01:52.1Z</time>
      </trkpt>
      <trkpt lat="44.34833" lon="6.29817">
        <ele>1534</ele>
        <time>2014-08-31T10:01:58.1Z</time>
      </trkpt>
      <trkpt lat="44.34802" lon="6.29881">
        <ele>1538</ele>
        <time>2014-08-31T10:02:04.1Z</time>
      </trkpt>
      <trkpt lat="44.34796" lon="6.29923">
        <ele>1540</ele>
        <time>2014-08-31T10:02:09.1Z</time>
      </trkpt>
      <trkpt lat="44.34835" lon="6.29959">
        <ele>1543</ele>
        <time>2014-08-31T10:02:15.1Z</time>
      </trkpt>
      <trkpt lat="44.34884" lon="6.30019">
        <ele>1548</ele>
        <time>2014-08-31T10:02:21.1Z</time>
      </trkpt>
      <trkpt lat="44.34935" lon="6.30076">
        <ele>1553</ele>
        <time>2014-08-31T10:02:27.1Z</time>
      </trkpt>
      <trkpt lat="44.34938" lon="6.30115">
        <ele>1556</ele>
        <time>2014-08-31T10:02:32.1Z</time>
      </trkpt>
      <trkpt lat="44.34914" lon="6.30096">
        <ele>1559</ele>
        <time>2014-08-31T10:02:38.1Z</time>
      </trkpt>
      <trkpt lat="44.34882" lon="6.30074">
        <ele>1562</ele>
        <time>2014-08-31T10:02:44.1Z</time>
      </trkpt>
      <trkpt lat="44.34842" lon="6.30055">
        <ele>1566</ele>
        <time>2014-08-31T10:02:50.1Z</time>
      </trkpt>
      <trkpt lat="44.34796" lon="6.30032">
        <ele>1572</ele>
        <time>2014-08-31T10:02:56.1Z</time>
      </trkpt>
      <trkpt lat="44.34745" lon="6.30003">
        <ele>1576</ele>
        <time>2014-08-31T10:03:02.1Z</time>
      </trkpt>
      <trkpt lat="44.34704" lon="6.29967">
        <ele>1580</ele>
        <time>2014-08-31T10:03:08.1Z</time>
      </trkpt>
      <trkpt lat="44.34675" lon="6.29898">
        <ele>1584</ele>
        <time>2014-08-31T10:03:14.1Z</time>
      </trkpt>
      <trkpt lat="44.34672" lon="6.29817">
        <ele>1588</ele>
        <time>2014-08-31T10:03:20.1Z</time>
      </trkpt>
      <trkpt lat="44.34674" lon="6.29748">
        <ele>1590</ele>
        <time>2014-08-31T10:03:25.1Z</time>
      </trkpt>
      <trkpt lat="44.34695" lon="6.29656">
        <ele>1593</ele>
        <time>2014-08-31T10:03:31.1Z</time>
      </trkpt>
      <trkpt lat="44.34724" lon="6.29559">
        <ele>1597</ele>
        <time>2014-08-31T10:03:37.1Z</time>
      </trkpt>
      <trkpt lat="44.34749" lon="6.29465">
        <ele>1599</ele>
        <time>2014-08-31T10:03:43.1Z</time>
      </trkpt>
      <trkpt lat="44.34763" lon="6.29401">
        <ele>1599</ele>
        <time>2014-08-31T10:03:48.1Z</time>
      </trkpt>
      <trkpt lat="44.34772" lon="6.29348">
        <ele>1598</ele>
        <time>2014-08-31T10:03:54.1Z</time>
      </trkpt>
      <trkpt lat="44.34785" lon="6.29297">
        <ele>1598</ele>
        <time>2014-08-31T10:03:59.1Z</time>
      </trkpt>
      <trkpt lat="44.34778" lon="6.29258">
        <ele>1598</ele>
        <time>2014-08-31T10:04:04.1Z</time>
      </trkpt>
      <trkpt lat="44.34741" lon="6.2923">
        <ele>1599</ele>
        <time>2014-08-31T10:04:10.1Z</time>
      </trkpt>
      <trkpt lat="44.34697" lon="6.29238">
        <ele>1600</ele>
        <time>2014-08-31T10:04:16.1Z</time>
      </trkpt>
      <trkpt lat="44.34661" lon="6.29259">
        <ele>1601</ele>
        <time>2014-08-31T10:04:22.1Z</time>
      </trkpt>
      <trkpt lat="44.34635" lon="6.29257">
        <ele>1600</ele>
        <time>2014-08-31T10:04:27.1Z</time>
      </trkpt>
      <trkpt lat="44.34621" lon="6.29207">
        <ele>1599</ele>
        <time>2014-08-31T10:04:33.1Z</time>
      </trkpt>
      <trkpt lat="44.34621" lon="6.2914">
        <ele>1599</ele>
        <time>2014-08-31T10:04:39.1Z</time>
      </trkpt>
      <trkpt lat="44.34621" lon="6.29093">
        <ele>1597</ele>
        <time>2014-08-31T10:04:44.1Z</time>
      </trkpt>
      <trkpt lat="44.34595" lon="6.29067">
        <ele>1595</ele>
        <time>2014-08-31T10:04:49.1Z</time>
      </trkpt>
      <trkpt lat="44.34558" lon="6.29051">
        <ele>1593</ele>
        <time>2014-08-31T10:04:54.1Z</time>
      </trkpt>
      <trkpt lat="44.34531" lon="6.29041">
        <ele>1591</ele>
        <time>2014-08-31T10:05:00.1Z</time>
      </trkpt>
      <trkpt lat="44.34505" lon="6.29031">
        <ele>1589</ele>
        <time>2014-08-31T10:05:05.1Z</time>
      </trkpt>
      <trkpt lat="44.34492" lon="6.29007">
        <ele>1588</ele>
        <time>2014-08-31T10:05:10.1Z</time>
      </trkpt>
      <trkpt lat="44.34501" lon="6.28986">
        <ele>1587</ele>
        <time>2014-08-31T10:05:15.1Z</time>
      </trkpt>
      <trkpt lat="44.34521" lon="6.28969">
        <ele>1585</ele>
        <time>2014-08-31T10:05:21.1Z</time>
      </trkpt>
      <trkpt lat="44.34531" lon="6.28958">
        <ele>1582</ele>
        <time>2014-08-31T10:05:26.1Z</time>
      </trkpt>
      <trkpt lat="44.34549" lon="6.28937">
        <ele>1581</ele>
        <time>2014-08-31T10:05:32.1Z</time>
      </trkpt>
      <trkpt lat="44.34552" lon="6.28897">
        <ele>1579</ele>
        <time>2014-08-31T10:05:38.1Z</time>
      </trkpt>
      <trkpt lat="44.34532" lon="6.28862">
        <ele>1577</ele>
        <time>2014-08-31T10:05:44.1Z</time>
      </trkpt>
      <trkpt lat="44.34507" lon="6.28835">
        <ele>1578</ele>
        <time>2014-08-31T10:05:50.1Z</time>
      </trkpt>
      <trkpt lat="44.34494" lon="6.2882">
        <ele>1577</ele>
        <time>2014-08-31T10:05:55.1Z</time>
      </trkpt>
      <trkpt lat="44.34491" lon="6.28794">
        <ele>1577</ele>
        <time>2014-08-31T10:06:00.1Z</time>
      </trkpt>
      <trkpt lat="44.34511" lon="6.28774">
        <ele>1578</ele>
        <time>2014-08-31T10:06:06.1Z</time>
      </trkpt>
      <trkpt lat="44.34528" lon="6.28772">
        <ele>1579</ele>
        <time>2014-08-31T10:06:12.1Z</time>
      </trkpt>
      <trkpt lat="44.34555" lon="6.2876">
        <ele>1580</ele>
        <time>2014-08-31T10:06:17.1Z</time>
      </trkpt>
      <trkpt lat="44.34579" lon="6.28743">
        <ele>1579</ele>
        <time>2014-08-31T10:06:23.1Z</time>
      </trkpt>
      <trkpt lat="44.34594" lon="6.28706">
        <ele>1579</ele>
        <time>2014-08-31T10:06:28.1Z</time>
      </trkpt>
      <trkpt lat="44.34623" lon="6.28669">
        <ele>1578</ele>
        <time>2014-08-31T10:06:34.1Z</time>
      </trkpt>
      <trkpt lat="44.34651" lon="6.28645">
        <ele>1580</ele>
        <time>2014-08-31T10:06:39.1Z</time>
      </trkpt>
      <trkpt lat="44.34677" lon="6.28622">
        <ele>1582</ele>
        <time>2014-08-31T10:06:44.1Z</time>
      </trkpt>
      <trkpt lat="44.34704" lon="6.28593">
        <ele>1585</ele>
        <time>2014-08-31T10:06:50.1Z</time>
      </trkpt>
      <trkpt lat="44.34714" lon="6.28555">
        <ele>1588</ele>
        <time>2014-08-31T10:06:56.1Z</time>
      </trkpt>
      <trkpt lat="44.34707" lon="6.28512">
        <ele>1589</ele>
        <time>2014-08-31T10:07:01.1Z</time>
      </trkpt>
      <trkpt lat="44.34701" lon="6.2846">
        <ele>1592</ele>
        <time>2014-08-31T10:07:07.1Z</time>
      </trkpt>
      <trkpt lat="44.34711" lon="6.28429">
        <ele>1594</ele>
        <time>2014-08-31T10:07:13.1Z</time>
      </trkpt>
      <trkpt lat="44.34729" lon="6.28426">
        <ele>1596</ele>
        <time>2014-08-31T10:07:18.1Z</time>
      </trkpt>
      <trkpt lat="44.34755" lon="6.28435">
        <ele>1600</ele>
        <time>2014-08-31T10:07:24.1Z</time>
      </trkpt>
      <trkpt lat="44.34779" lon="6.28445">
        <ele>1603</ele>
        <time>2014-08-31T10:07:30.1Z</time>
      </trkpt>
      <trkpt lat="44.34806" lon="6.28439">
        <ele>1607</ele>
        <time>2014-08-31T10:07:36.1Z</time>
      </trkpt>
      <trkpt lat="44.3483" lon="6.28425">
        <ele>1610</ele>
        <time>2014-08-31T10:07:42.1Z</time>
      </trkpt>
      <trkpt lat="44.34855" lon="6.28408">
        <ele>1612</ele>
        <time>2014-08-31T10:07:48.1Z</time>
      </trkpt>
      <trkpt lat="44.34882" lon="6.28397">
        <ele>1615</ele>
        <time>2014-08-31T10:07:54.1Z</time>
      </trkpt>
      <trkpt lat="44.34908" lon="6.28389">
        <ele>1615</ele>
        <time>2014-08-31T10:08:00.1Z</time>
      </trkpt>
      <trkpt lat="44.34935" lon="6.28381">
        <ele>1613</ele>
        <time>2014-08-31T10:08:06.1Z</time>
      </trkpt>
      <trkpt lat="44.34957" lon="6.28368">
        <ele>1611</ele>
        <time>2014-08-31T10:08:11.1Z</time>
      </trkpt>
      <trkpt lat="44.34968" lon="6.28342">
        <ele>1612</ele>
        <time>2014-08-31T10:08:17.1Z</time>
      </trkpt>
      <trkpt lat="44.34974" lon="6.28309">
        <ele>1612</ele>
        <time>2014-08-31T10:08:23.1Z</time>
      </trkpt>
      <trkpt lat="44.34975" lon="6.28281">
        <ele>1611</ele>
        <time>2014-08-31T10:08:29.1Z</time>
      </trkpt>
      <trkpt lat="44.34971" lon="6.28259">
        <ele>1610</ele>
        <time>2014-08-31T10:08:34.1Z</time>
      </trkpt>
      <trkpt lat="44.34964" lon="6.28243">
        <ele>1608</ele>
        <time>2014-08-31T10:08:39.1Z</time>
      </trkpt>
      <trkpt lat="44.34951" lon="6.28219">
        <ele>1607</ele>
        <time>2014-08-31T10:08:45.1Z</time>
      </trkpt>
      <trkpt lat="44.3494" lon="6.28199">
        <ele>1605</ele>
        <time>2014-08-31T10:08:50.1Z</time>
      </trkpt>
      <trkpt lat="44.3492" lon="6.28178">
        <ele>1604</ele>
        <time>2014-08-31T10:08:56.1Z</time>
      </trkpt>
      <trkpt lat="44.34893" lon="6.2816">
        <ele>1602</ele>
        <time>2014-08-31T10:09:02.1Z</time>
      </trkpt>
      <trkpt lat="44.34886" lon="6.28137">
        <ele>1599</ele>
        <time>2014-08-31T10:09:08.1Z</time>
      </trkpt>
      <trkpt lat="44.34881" lon="6.28122">
        <ele>1598</ele>
        <time>2014-08-31T10:09:13.1Z</time>
      </trkpt>
      <trkpt lat="44.34875" lon="6.28102">
        <ele>1597</ele>
        <time>2014-08-31T10:09:19.1Z</time>
      </trkpt>
      <trkpt lat="44.34868" lon="6.28076">
        <ele>1596</ele>
        <time>2014-08-31T10:09:24.1Z</time>
      </trkpt>
      <trkpt lat="44.34865" lon="6.28049">
        <ele>1595</ele>
        <time>2014-08-31T10:09:29.1Z</time>
      </trkpt>
      <trkpt lat="44.34859" lon="6.28028">
        <ele>1594</ele>
        <time>2014-08-31T10:09:34.1Z</time>
      </trkpt>
      <trkpt lat="44.34855" lon="6.28019">
        <ele>1592</ele>
        <time>2014-08-31T10:09:40.1Z</time>
      </trkpt>
      <trkpt lat="44.3487" lon="6.28017">
        <ele>1592</ele>
        <time>2014-08-31T10:09:45.1Z</time>
      </trkpt>
      <trkpt lat="44.3489" lon="6.28015">
        <ele>1592</ele>
        <time>2014-08-31T10:09:50.1Z</time>
      </trkpt>
      <trkpt lat="44.34905" lon="6.28004">
        <ele>1591</ele>
        <time>2014-08-31T10:09:55.1Z</time>
      </trkpt>
      <trkpt lat="44.34907" lon="6.27983">
        <ele>1591</ele>
        <time>2014-08-31T10:10:00.1Z</time>
      </trkpt>
      <trkpt lat="44.34907" lon="6.27946">
        <ele>1590</ele>
        <time>2014-08-31T10:10:06.1Z</time>
      </trkpt>
      <trkpt lat="44.3491" lon="6.27908">
        <ele>1589</ele>
        <time>2014-08-31T10:10:12.1Z</time>
      </trkpt>
      <trkpt lat="44.34911" lon="6.27886">
        <ele>1588</ele>
        <time>2014-08-31T10:10:17.1Z</time>
      </trkpt>
      <trkpt lat="44.34911" lon="6.27848">
        <ele>1587</ele>
        <time>2014-08-31T10:10:23.1Z</time>
      </trkpt>
      <trkpt lat="44.34909" lon="6.27817">
        <ele>1586</ele>
        <time>2014-08-31T10:10:28.1Z</time>
      </trkpt>
      <trkpt lat="44.34912" lon="6.27806">
        <ele>1585</ele>
        <time>2014-08-31T10:10:33.1Z</time>
      </trkpt>
      <trkpt lat="44.34919" lon="6.27813">
        <ele>1585</ele>
        <time>2014-08-31T10:10:39.1Z</time>
      </trkpt>
      <trkpt lat="44.34932" lon="6.27831">
        <ele>1586</ele>
        <time>2014-08-31T10:10:44.1Z</time>
      </trkpt>
      <trkpt lat="44.34944" lon="6.27857">
        <ele>1586</ele>
        <time>2014-08-31T10:10:50.1Z</time>
      </trkpt>
      <trkpt lat="44.34961" lon="6.27883">
        <ele>1586</ele>
        <time>2014-08-31T10:10:56.1Z</time>
      </trkpt>
      <trkpt lat="44.34977" lon="6.27903">
        <ele>1587</ele>
        <time>2014-08-31T10:11:02.1Z</time>
      </trkpt>
      <trkpt lat="44.34996" lon="6.27914">
        <ele>1586</ele>
        <time>2014-08-31T10:11:08.1Z</time>
      </trkpt>
      <trkpt lat="44.35022" lon="6.27923">
        <ele>1587</ele>
        <time>2014-08-31T10:11:14.1Z</time>
      </trkpt>
      <trkpt lat="44.35044" lon="6.2793">
        <ele>1587</ele>
        <time>2014-08-31T10:11:19.1Z</time>
      </trkpt>
      <trkpt lat="44.35065" lon="6.27931">
        <ele>1586</ele>
        <time>2014-08-31T10:11:25.1Z</time>
      </trkpt>
      <trkpt lat="44.35081" lon="6.27917">
        <ele>1585</ele>
        <time>2014-08-31T10:11:30.1Z</time>
      </trkpt>
      <trkpt lat="44.35095" lon="6.27893">
        <ele>1583</ele>
        <time>2014-08-31T10:11:36.1Z</time>
      </trkpt>
      <trkpt lat="44.35098" lon="6.27874">
        <ele>1582</ele>
        <time>2014-08-31T10:11:42.1Z</time>
      </trkpt>
      <trkpt lat="44.35101" lon="6.27856">
        <ele>1580</ele>
        <time>2014-08-31T10:11:47.1Z</time>
      </trkpt>
      <trkpt lat="44.35103" lon="6.27833">
        <ele>1578</ele>
        <time>2014-08-31T10:11:52.1Z</time>
      </trkpt>
      <trkpt lat="44.35115" lon="6.27805">
        <ele>1577</ele>
        <time>2014-08-31T10:11:58.1Z</time>
      </trkpt>
      <trkpt lat="44.3512" lon="6.27781">
        <ele>1575</ele>
        <time>2014-08-31T10:12:04.1Z</time>
      </trkpt>
      <trkpt lat="44.35125" lon="6.27752">
        <ele>1573</ele>
        <time>2014-08-31T10:12:10.1Z</time>
      </trkpt>
      <trkpt lat="44.35138" lon="6.27713">
        <ele>1571</ele>
        <time>2014-08-31T10:12:16.1Z</time>
      </trkpt>
      <trkpt lat="44.35148" lon="6.27679">
        <ele>1570</ele>
        <time>2014-08-31T10:12:21.1Z</time>
      </trkpt>
      <trkpt lat="44.35152" lon="6.27646">
        <ele>1569</ele>
        <time>2014-08-31T10:12:26.1Z</time>
      </trkpt>
      <trkpt lat="44.35161" lon="6.27615">
        <ele>1568</ele>
        <time>2014-08-31T10:12:31.1Z</time>
      </trkpt>
      <trkpt lat="44.35171" lon="6.27582">
        <ele>1567</ele>
        <time>2014-08-31T10:12:36.1Z</time>
      </trkpt>
      <trkpt lat="44.35179" lon="6.2755">
        <ele>1567</ele>
        <time>2014-08-31T10:12:42.1Z</time>
      </trkpt>
      <trkpt lat="44.35189" lon="6.27525">
        <ele>1566</ele>
        <time>2014-08-31T10:12:48.1Z</time>
      </trkpt>
      <trkpt lat="44.35196" lon="6.27519">
        <ele>1566</ele>
        <time>2014-08-31T10:12:54.1Z</time>
      </trkpt>
      <trkpt lat="44.352" lon="6.27516">
        <ele>1566</ele>
        <time>2014-08-31T10:13:00.1Z</time>
      </trkpt>
      <trkpt lat="44.35203" lon="6.27515">
        <ele>1566</ele>
        <time>2014-08-31T10:13:05.1Z</time>
      </trkpt>
      <trkpt lat="44.35202" lon="6.27513">
        <ele>1566</ele>
        <time>2014-08-31T10:13:11.1Z</time>
      </trkpt>
      <trkpt lat="44.352" lon="6.27511">
        <ele>1566</ele>
        <time>2014-08-31T10:13:17.1Z</time>
      </trkpt>
      <trkpt lat="44.35198" lon="6.27519">
        <ele>1566</ele>
        <time>2014-08-31T10:13:22.1Z</time>
      </trkpt>
      <trkpt lat="44.35194" lon="6.27533">
        <ele>1566</ele>
        <time>2014-08-31T10:13:28.1Z</time>
      </trkpt>
      <trkpt lat="44.35196" lon="6.27525">
        <ele>1567</ele>
        <time>2014-08-31T10:13:34.1Z</time>
      </trkpt>
      <trkpt lat="44.35196" lon="6.2752">
        <ele>1567</ele>
        <time>2014-08-31T10:13:39.1Z</time>
      </trkpt>
      <trkpt lat="44.35196" lon="6.2752">
        <ele>1567</ele>
        <time>2014-08-31T10:13:45.1Z</time>
      </trkpt>
      <trkpt lat="44.35197" lon="6.27523">
        <ele>1567</ele>
        <time>2014-08-31T10:13:51.1Z</time>
      </trkpt>
      <trkpt lat="44.35198" lon="6.27523">
        <ele>1567</ele>
        <time>2014-08-31T10:13:57.1Z</time>
      </trkpt>
      <trkpt lat="44.35199" lon="6.27521">
        <ele>1566</ele>
        <time>2014-08-31T10:14:02.1Z</time>
      </trkpt>
      <trkpt lat="44.35199" lon="6.27518">
        <ele>1567</ele>
        <time>2014-08-31T10:14:07.1Z</time>
      </trkpt>
      <trkpt lat="44.35198" lon="6.27515">
        <ele>1567</ele>
        <time>2014-08-31T10:14:12.1Z</time>
      </trkpt>
      <trkpt lat="44.35197" lon="6.27511">
        <ele>1567</ele>
        <time>2014-08-31T10:14:17.1Z</time>
      </trkpt>
      <trkpt lat="44.35196" lon="6.2751">
        <ele>1567</ele>
        <time>2014-08-31T10:14:23.1Z</time>
      </trkpt>
      <trkpt lat="44.35196" lon="6.2751">
        <ele>1567</ele>
        <time>2014-08-31T10:14:29.1Z</time>
      </trkpt>
      <trkpt lat="44.35195" lon="6.2751">
        <ele>1567</ele>
        <time>2014-08-31T10:14:34.1Z</time>
      </trkpt>
      <trkpt lat="44.35196" lon="6.27513">
        <ele>1567</ele>
        <time>2014-08-31T10:14:40.1Z</time>
      </trkpt>
      <trkpt lat="44.35195" lon="6.27514">
        <ele>1567</ele>
        <time>2014-08-31T10:14:45.1Z</time>
      </trkpt>
      <trkpt lat="44.35197" lon="6.27517">
        <ele>1567</ele>
        <time>2014-08-31T10:14:51.1Z</time>
      </trkpt>
      <trkpt lat="44.35196" lon="6.27517">
        <ele>1567</ele>
        <time>2014-08-31T10:14:56.1Z</time>
      </trkpt>
      <trkpt lat="44.35196" lon="6.27521">
        <ele>1567</ele>
        <time>2014-08-31T10:15:02.1Z</time>
      </trkpt>
      <trkpt lat="44.35196" lon="6.27521">
        <ele>1567</ele>
        <time>2014-08-31T10:15:08.1Z</time>
      </trkpt>
      <trkpt lat="44.35196" lon="6.27525">
        <ele>1567</ele>
        <time>2014-08-31T10:15:13.1Z</time>
      </trkpt>
      <trkpt lat="44.35197" lon="6.27526">
        <ele>1567</ele>
        <time>2014-08-31T10:15:19.1Z</time>
      </trkpt>
      <trkpt lat="44.35197" lon="6.27521">
        <ele>1567</ele>
        <time>2014-08-31T10:15:24.1Z</time>
      </trkpt>
      <trkpt lat="44.35197" lon="6.27519">
        <ele>1567</ele>
        <time>2014-08-31T10:15:30.1Z</time>
      </trkpt>
      <trkpt lat="44.35196" lon="6.27516">
        <ele>1567</ele>
        <time>2014-08-31T10:15:37.1Z</time>
      </trkpt>
      <trkpt lat="44.35195" lon="6.27516">
        <ele>1567</ele>
        <time>2014-08-31T10:15:42.1Z</time>
      </trkpt>
      <trkpt lat="44.35196" lon="6.27517">
        <ele>1567</ele>
        <time>2014-08-31T10:15:47.1Z</time>
      </trkpt>
      <trkpt lat="44.35197" lon="6.27517">
        <ele>1567</ele>
        <time>2014-08-31T10:15:53.1Z</time>
      </trkpt>
      <trkpt lat="44.35196" lon="6.27516">
        <ele>1567</ele>
        <time>2014-08-31T10:15:59.1Z</time>
      </trkpt>
      <trkpt lat="44.35196" lon="6.27516">
        <ele>1567</ele>
        <time>2014-08-31T10:16:04.1Z</time>
      </trkpt>
      <trkpt lat="44.35195" lon="6.27516">
        <ele>1567</ele>
        <time>2014-08-31T10:16:10.1Z</time>
      </trkpt>
      <trkpt lat="44.35194" lon="6.27516">
        <ele>1567</ele>
        <time>2014-08-31T10:16:15.1Z</time>
      </trkpt>
      <trkpt lat="44.35194" lon="6.27515">
        <ele>1567</ele>
        <time>2014-08-31T10:16:21.1Z</time>
      </trkpt>
      <trkpt lat="44.35194" lon="6.27514">
        <ele>1567</ele>
        <time>2014-08-31T10:16:27.1Z</time>
      </trkpt>
      <trkpt lat="44.35193" lon="6.27515">
        <ele>1568</ele>
        <time>2014-08-31T10:16:32.1Z</time>
      </trkpt>
      <trkpt lat="44.35193" lon="6.27516">
        <ele>1568</ele>
        <time>2014-08-31T10:16:37.1Z</time>
      </trkpt>
      <trkpt lat="44.35193" lon="6.27514">
        <ele>1568</ele>
        <time>2014-08-31T10:16:43.1Z</time>
      </trkpt>
      <trkpt lat="44.35193" lon="6.27514">
        <ele>1567</ele>
        <time>2014-08-31T10:16:49.1Z</time>
      </trkpt>
      <trkpt lat="44.35193" lon="6.27514">
        <ele>1567</ele>
        <time>2014-08-31T10:16:55.1Z</time>
      </trkpt>
      <trkpt lat="44.35194" lon="6.27515">
        <ele>1567</ele>
        <time>2014-08-31T10:17:00.1Z</time>
      </trkpt>
      <trkpt lat="44.35193" lon="6.27515">
        <ele>1567</ele>
        <time>2014-08-31T10:17:05.1Z</time>
      </trkpt>
      <trkpt lat="44.35192" lon="6.27514">
        <ele>1567</ele>
        <time>2014-08-31T10:17:10.1Z</time>
      </trkpt>
      <trkpt lat="44.35191" lon="6.27513">
        <ele>1567</ele>
        <time>2014-08-31T10:17:16.1Z</time>
      </trkpt>
      <trkpt lat="44.35191" lon="6.27512">
        <ele>1568</ele>
        <time>2014-08-31T10:17:22.1Z</time>
      </trkpt>
      <trkpt lat="44.35193" lon="6.2751">
        <ele>1567</ele>
        <time>2014-08-31T10:17:28.1Z</time>
      </trkpt>
      <trkpt lat="44.35196" lon="6.27509">
        <ele>1567</ele>
        <time>2014-08-31T10:17:33.1Z</time>
      </trkpt>
      <trkpt lat="44.35195" lon="6.27514">
        <ele>1568</ele>
        <time>2014-08-31T10:17:40.1Z</time>
      </trkpt>
      <trkpt lat="44.35195" lon="6.27515">
        <ele>1566</ele>
        <time>2014-08-31T10:17:46.1Z</time>
      </trkpt>
      <trkpt lat="44.35195" lon="6.27517">
        <ele>1567</ele>
        <time>2014-08-31T10:17:51.1Z</time>
      </trkpt>
      <trkpt lat="44.35194" lon="6.2752">
        <ele>1567</ele>
        <time>2014-08-31T10:17:57.1Z</time>
      </trkpt>
      <trkpt lat="44.35194" lon="6.2752">
        <ele>1567</ele>
        <time>2014-08-31T10:18:02.1Z</time>
      </trkpt>
      <trkpt lat="44.35194" lon="6.27521">
        <ele>1567</ele>
        <time>2014-08-31T10:18:08.1Z</time>
      </trkpt>
      <trkpt lat="44.35194" lon="6.27514">
        <ele>1567</ele>
        <time>2014-08-31T10:18:14.1Z</time>
      </trkpt>
      <trkpt lat="44.35193" lon="6.2751">
        <ele>1567</ele>
        <time>2014-08-31T10:18:20.1Z</time>
      </trkpt>
      <trkpt lat="44.35193" lon="6.27512">
        <ele>1568</ele>
        <time>2014-08-31T10:18:27.1Z</time>
      </trkpt>
      <trkpt lat="44.35193" lon="6.27512">
        <ele>1567</ele>
        <time>2014-08-31T10:18:34.1Z</time>
      </trkpt>
      <trkpt lat="44.35193" lon="6.27512">
        <ele>1567</ele>
        <time>2014-08-31T10:18:39.1Z</time>
      </trkpt>
      <trkpt lat="44.35193" lon="6.27513">
        <ele>1567</ele>
        <time>2014-08-31T10:18:45.1Z</time>
      </trkpt>
      <trkpt lat="44.35193" lon="6.27513">
        <ele>1568</ele>
        <time>2014-08-31T10:18:52.1Z</time>
      </trkpt>
      <trkpt lat="44.35193" lon="6.27514">
        <ele>1568</ele>
        <time>2014-08-31T10:18:58.1Z</time>
      </trkpt>
      <trkpt lat="44.35194" lon="6.27514">
        <ele>1567</ele>
        <time>2014-08-31T10:19:04.1Z</time>
      </trkpt>
      <trkpt lat="44.35194" lon="6.27514">
        <ele>1567</ele>
        <time>2014-08-31T10:19:18.1Z</time>
      </trkpt>
      <trkpt lat="44.35194" lon="6.27514">
        <ele>1568</ele>
        <time>2014-08-31T10:19:24.1Z</time>
      </trkpt>
      <trkpt lat="44.35195" lon="6.27515">
        <ele>1567</ele>
        <time>2014-08-31T10:19:30.1Z</time>
      </trkpt>
      <trkpt lat="44.35196" lon="6.27517">
        <ele>1567</ele>
        <time>2014-08-31T10:19:35.1Z</time>
      </trkpt>
      <trkpt lat="44.35196" lon="6.27517">
        <ele>1568</ele>
        <time>2014-08-31T10:19:44.1Z</time>
      </trkpt>
      <trkpt lat="44.35196" lon="6.27517">
        <ele>1567</ele>
        <time>2014-08-31T10:19:51.1Z</time>
      </trkpt>
      <trkpt lat="44.35196" lon="6.27517">
        <ele>1567</ele>
        <time>2014-08-31T10:19:56.1Z</time>
      </trkpt>
      <trkpt lat="44.35196" lon="6.27517">
        <ele>1567</ele>
        <time>2014-08-31T10:20:03.1Z</time>
      </trkpt>
      <trkpt lat="44.35196" lon="6.27517">
        <ele>1567</ele>
        <time>2014-08-31T10:20:09.1Z</time>
      </trkpt>
      <trkpt lat="44.35196" lon="6.27517">
        <ele>1568</ele>
        <time>2014-08-31T10:20:19.1Z</time>
      </trkpt>
      <trkpt lat="44.35197" lon="6.27517">
        <ele>1568</ele>
        <time>2014-08-31T10:20:25.1Z</time>
      </trkpt>
      <trkpt lat="44.35197" lon="6.27517">
        <ele>1567</ele>
        <time>2014-08-31T10:20:37.1Z</time>
      </trkpt>
      <trkpt lat="44.35197" lon="6.27517">
        <ele>1567</ele>
        <time>2014-08-31T10:20:46.1Z</time>
      </trkpt>
      <trkpt lat="44.35197" lon="6.27517">
        <ele>1568</ele>
        <time>2014-08-31T10:20:55.1Z</time>
      </trkpt>
      <trkpt lat="44.35204" lon="6.27518">
        <ele>1568</ele>
        <time>2014-08-31T10:21:00.1Z</time>
      </trkpt>
      <trkpt lat="44.35219" lon="6.2753">
        <ele>1567</ele>
        <time>2014-08-31T10:21:06.1Z</time>
      </trkpt>
      <trkpt lat="44.35228" lon="6.27543">
        <ele>1567</ele>
        <time>2014-08-31T10:21:12.1Z</time>
      </trkpt>
      <trkpt lat="44.35234" lon="6.2755">
        <ele>1568</ele>
        <time>2014-08-31T10:21:17.1Z</time>
      </trkpt>
      <trkpt lat="44.35243" lon="6.2756">
        <ele>1569</ele>
        <time>2014-08-31T10:21:23.1Z</time>
      </trkpt>
      <trkpt lat="44.35249" lon="6.27566">
        <ele>1570</ele>
        <time>2014-08-31T10:21:28.1Z</time>
      </trkpt>
      <trkpt lat="44.35258" lon="6.27573">
        <ele>1571</ele>
        <time>2014-08-31T10:21:34.1Z</time>
      </trkpt>
      <trkpt lat="44.35266" lon="6.2758">
        <ele>1571</ele>
        <time>2014-08-31T10:21:39.1Z</time>
      </trkpt>
      <trkpt lat="44.35275" lon="6.27589">
        <ele>1572</ele>
        <time>2014-08-31T10:21:45.1Z</time>
      </trkpt>
      <trkpt lat="44.35283" lon="6.27598">
        <ele>1573</ele>
        <time>2014-08-31T10:21:51.1Z</time>
      </trkpt>
      <trkpt lat="44.35289" lon="6.27608">
        <ele>1574</ele>
        <time>2014-08-31T10:21:56.1Z</time>
      </trkpt>
      <trkpt lat="44.35294" lon="6.27619">
        <ele>1574</ele>
        <time>2014-08-31T10:22:01.1Z</time>
      </trkpt>
      <trkpt lat="44.353" lon="6.27629">
        <ele>1575</ele>
        <time>2014-08-31T10:22:06.1Z</time>
      </trkpt>
      <trkpt lat="44.35309" lon="6.27641">
        <ele>1575</ele>
        <time>2014-08-31T10:22:12.1Z</time>
      </trkpt>
      <trkpt lat="44.35315" lon="6.27638">
        <ele>1575</ele>
        <time>2014-08-31T10:22:17.1Z</time>
      </trkpt>
      <trkpt lat="44.35316" lon="6.27628">
        <ele>1576</ele>
        <time>2014-08-31T10:22:23.1Z</time>
      </trkpt>
      <trkpt lat="44.35316" lon="6.27615">
        <ele>1577</ele>
        <time>2014-08-31T10:22:29.1Z</time>
      </trkpt>
      <trkpt lat="44.35312" lon="6.27603">
        <ele>1579</ele>
        <time>2014-08-31T10:22:35.1Z</time>
      </trkpt>
      <trkpt lat="44.35309" lon="6.27595">
        <ele>1580</ele>
        <time>2014-08-31T10:22:40.1Z</time>
      </trkpt>
      <trkpt lat="44.35308" lon="6.27583">
        <ele>1581</ele>
        <time>2014-08-31T10:22:46.1Z</time>
      </trkpt>
      <trkpt lat="44.35306" lon="6.27573">
        <ele>1581</ele>
        <time>2014-08-31T10:22:51.1Z</time>
      </trkpt>
      <trkpt lat="44.35304" lon="6.27563">
        <ele>1581</ele>
        <time>2014-08-31T10:22:57.1Z</time>
      </trkpt>
      <trkpt lat="44.35301" lon="6.27553">
        <ele>1582</ele>
        <time>2014-08-31T10:23:03.1Z</time>
      </trkpt>
      <trkpt lat="44.35299" lon="6.27543">
        <ele>1583</ele>
        <time>2014-08-31T10:23:09.1Z</time>
      </trkpt>
      <trkpt lat="44.35299" lon="6.27533">
        <ele>1584</ele>
        <time>2014-08-31T10:23:14.1Z</time>
      </trkpt>
      <trkpt lat="44.35297" lon="6.27522">
        <ele>1584</ele>
        <time>2014-08-31T10:23:20.1Z</time>
      </trkpt>
      <trkpt lat="44.35297" lon="6.27513">
        <ele>1585</ele>
        <time>2014-08-31T10:23:25.1Z</time>
      </trkpt>
      <trkpt lat="44.35296" lon="6.27503">
        <ele>1586</ele>
        <time>2014-08-31T10:23:30.1Z</time>
      </trkpt>
      <trkpt lat="44.35294" lon="6.27495">
        <ele>1586</ele>
        <time>2014-08-31T10:23:35.1Z</time>
      </trkpt>
      <trkpt lat="44.35291" lon="6.27485">
        <ele>1587</ele>
        <time>2014-08-31T10:23:41.1Z</time>
      </trkpt>
      <trkpt lat="44.35286" lon="6.27475">
        <ele>1587</ele>
        <time>2014-08-31T10:23:47.1Z</time>
      </trkpt>
      <trkpt lat="44.35282" lon="6.27466">
        <ele>1587</ele>
        <time>2014-08-31T10:23:53.1Z</time>
      </trkpt>
      <trkpt lat="44.35276" lon="6.2746">
        <ele>1588</ele>
        <time>2014-08-31T10:23:58.1Z</time>
      </trkpt>
      <trkpt lat="44.35265" lon="6.27453">
        <ele>1588</ele>
        <time>2014-08-31T10:24:04.1Z</time>
      </trkpt>
      <trkpt lat="44.35256" lon="6.27443">
        <ele>1588</ele>
        <time>2014-08-31T10:24:10.1Z</time>
      </trkpt>
      <trkpt lat="44.35249" lon="6.27435">
        <ele>1587</ele>
        <time>2014-08-31T10:24:15.1Z</time>
      </trkpt>
      <trkpt lat="44.35242" lon="6.27426">
        <ele>1588</ele>
        <time>2014-08-31T10:24:21.1Z</time>
      </trkpt>
      <trkpt lat="44.35237" lon="6.27418">
        <ele>1589</ele>
        <time>2014-08-31T10:24:26.1Z</time>
      </trkpt>
      <trkpt lat="44.35231" lon="6.27411">
        <ele>1590</ele>
        <time>2014-08-31T10:24:32.1Z</time>
      </trkpt>
      <trkpt lat="44.35225" lon="6.27403">
        <ele>1590</ele>
        <time>2014-08-31T10:24:38.1Z</time>
      </trkpt>
      <trkpt lat="44.35221" lon="6.27396">
        <ele>1591</ele>
        <time>2014-08-31T10:24:43.1Z</time>
      </trkpt>
      <trkpt lat="44.35217" lon="6.27388">
        <ele>1592</ele>
        <time>2014-08-31T10:24:49.1Z</time>
      </trkpt>
      <trkpt lat="44.35212" lon="6.2738">
        <ele>1593</ele>
        <time>2014-08-31T10:24:55.1Z</time>
      </trkpt>
      <trkpt lat="44.35208" lon="6.27372">
        <ele>1594</ele>
        <time>2014-08-31T10:25:01.1Z</time>
      </trkpt>
      <trkpt lat="44.35203" lon="6.27364">
        <ele>1595</ele>
        <time>2014-08-31T10:25:07.1Z</time>
      </trkpt>
      <trkpt lat="44.35199" lon="6.27357">
        <ele>1596</ele>
        <time>2014-08-31T10:25:12.1Z</time>
      </trkpt>
      <trkpt lat="44.35195" lon="6.27349">
        <ele>1596</ele>
        <time>2014-08-31T10:25:18.1Z</time>
      </trkpt>
      <trkpt lat="44.35192" lon="6.27341">
        <ele>1597</ele>
        <time>2014-08-31T10:25:23.1Z</time>
      </trkpt>
      <trkpt lat="44.35189" lon="6.27334">
        <ele>1597</ele>
        <time>2014-08-31T10:25:28.1Z</time>
      </trkpt>
      <trkpt lat="44.35185" lon="6.27324">
        <ele>1597</ele>
        <time>2014-08-31T10:25:34.1Z</time>
      </trkpt>
      <trkpt lat="44.35183" lon="6.27317">
        <ele>1598</ele>
        <time>2014-08-31T10:25:39.1Z</time>
      </trkpt>
      <trkpt lat="44.35178" lon="6.27308">
        <ele>1599</ele>
        <time>2014-08-31T10:25:45.1Z</time>
      </trkpt>
      <trkpt lat="44.35174" lon="6.27302">
        <ele>1599</ele>
        <time>2014-08-31T10:25:50.1Z</time>
      </trkpt>
      <trkpt lat="44.35167" lon="6.27298">
        <ele>1600</ele>
        <time>2014-08-31T10:25:56.1Z</time>
      </trkpt>
      <trkpt lat="44.3516" lon="6.27293">
        <ele>1601</ele>
        <time>2014-08-31T10:26:02.1Z</time>
      </trkpt>
      <trkpt lat="44.35155" lon="6.2729">
        <ele>1602</ele>
        <time>2014-08-31T10:26:07.1Z</time>
      </trkpt>
      <trkpt lat="44.35148" lon="6.27287">
        <ele>1603</ele>
        <time>2014-08-31T10:26:13.1Z</time>
      </trkpt>
      <trkpt lat="44.35141" lon="6.27286">
        <ele>1604</ele>
        <time>2014-08-31T10:26:19.1Z</time>
      </trkpt>
      <trkpt lat="44.35135" lon="6.27285">
        <ele>1605</ele>
        <time>2014-08-31T10:26:25.1Z</time>
      </trkpt>
      <trkpt lat="44.35128" lon="6.27284">
        <ele>1607</ele>
        <time>2014-08-31T10:26:31.1Z</time>
      </trkpt>
      <trkpt lat="44.35121" lon="6.27283">
        <ele>1609</ele>
        <time>2014-08-31T10:26:37.1Z</time>
      </trkpt>
      <trkpt lat="44.35115" lon="6.27282">
        <ele>1609</ele>
        <time>2014-08-31T10:26:42.1Z</time>
      </trkpt>
      <trkpt lat="44.35109" lon="6.2728">
        <ele>1610</ele>
        <time>2014-08-31T10:26:47.1Z</time>
      </trkpt>
      <trkpt lat="44.35103" lon="6.27277">
        <ele>1611</ele>
        <time>2014-08-31T10:26:53.1Z</time>
      </trkpt>
      <trkpt lat="44.35098" lon="6.27274">
        <ele>1611</ele>
        <time>2014-08-31T10:26:58.1Z</time>
      </trkpt>
      <trkpt lat="44.35093" lon="6.27271">
        <ele>1612</ele>
        <time>2014-08-31T10:27:03.1Z</time>
      </trkpt>
      <trkpt lat="44.35088" lon="6.27266">
        <ele>1612</ele>
        <time>2014-08-31T10:27:08.1Z</time>
      </trkpt>
      <trkpt lat="44.35083" lon="6.27261">
        <ele>1612</ele>
        <time>2014-08-31T10:27:14.1Z</time>
      </trkpt>
      <trkpt lat="44.35077" lon="6.27257">
        <ele>1613</ele>
        <time>2014-08-31T10:27:20.1Z</time>
      </trkpt>
      <trkpt lat="44.35066" lon="6.27253">
        <ele>1613</ele>
        <time>2014-08-31T10:27:26.1Z</time>
      </trkpt>
      <trkpt lat="44.3506" lon="6.27253">
        <ele>1614</ele>
        <time>2014-08-31T10:27:31.1Z</time>
      </trkpt>
      <trkpt lat="44.35054" lon="6.27255">
        <ele>1615</ele>
        <time>2014-08-31T10:27:36.1Z</time>
      </trkpt>
      <trkpt lat="44.35049" lon="6.27258">
        <ele>1615</ele>
        <time>2014-08-31T10:27:41.1Z</time>
      </trkpt>
      <trkpt lat="44.35044" lon="6.27262">
        <ele>1616</ele>
        <time>2014-08-31T10:27:46.1Z</time>
      </trkpt>
      <trkpt lat="44.3504" lon="6.27264">
        <ele>1617</ele>
        <time>2014-08-31T10:27:51.1Z</time>
      </trkpt>
      <trkpt lat="44.35033" lon="6.27268">
        <ele>1619</ele>
        <time>2014-08-31T10:27:57.1Z</time>
      </trkpt>
      <trkpt lat="44.35028" lon="6.27272">
        <ele>1619</ele>
        <time>2014-08-31T10:28:02.1Z</time>
      </trkpt>
      <trkpt lat="44.35023" lon="6.27277">
        <ele>1620</ele>
        <time>2014-08-31T10:28:08.1Z</time>
      </trkpt>
      <trkpt lat="44.35018" lon="6.27281">
        <ele>1621</ele>
        <time>2014-08-31T10:28:13.1Z</time>
      </trkpt>
      <trkpt lat="44.35012" lon="6.27283">
        <ele>1622</ele>
        <time>2014-08-31T10:28:18.1Z</time>
      </trkpt>
      <trkpt lat="44.35006" lon="6.27286">
        <ele>1624</ele>
        <time>2014-08-31T10:28:24.1Z</time>
      </trkpt>
      <trkpt lat="44.35002" lon="6.27288">
        <ele>1625</ele>
        <time>2014-08-31T10:28:29.1Z</time>
      </trkpt>
      <trkpt lat="44.34997" lon="6.27291">
        <ele>1625</ele>
        <time>2014-08-31T10:28:35.1Z</time>
      </trkpt>
      <trkpt lat="44.34992" lon="6.27293">
        <ele>1627</ele>
        <time>2014-08-31T10:28:40.1Z</time>
      </trkpt>
      <trkpt lat="44.34987" lon="6.27296">
        <ele>1627</ele>
        <time>2014-08-31T10:28:46.1Z</time>
      </trkpt>
      <trkpt lat="44.34982" lon="6.27299">
        <ele>1628</ele>
        <time>2014-08-31T10:28:51.1Z</time>
      </trkpt>
      <trkpt lat="44.34977" lon="6.27302">
        <ele>1628</ele>
        <time>2014-08-31T10:28:57.1Z</time>
      </trkpt>
      <trkpt lat="44.34972" lon="6.27305">
        <ele>1629</ele>
        <time>2014-08-31T10:29:02.1Z</time>
      </trkpt>
      <trkpt lat="44.34966" lon="6.27307">
        <ele>1630</ele>
        <time>2014-08-31T10:29:08.1Z</time>
      </trkpt>
      <trkpt lat="44.34962" lon="6.2731">
        <ele>1631</ele>
        <time>2014-08-31T10:29:13.1Z</time>
      </trkpt>
      <trkpt lat="44.34956" lon="6.27311">
        <ele>1631</ele>
        <time>2014-08-31T10:29:19.1Z</time>
      </trkpt>
      <trkpt lat="44.34952" lon="6.27314">
        <ele>1631</ele>
        <time>2014-08-31T10:29:24.1Z</time>
      </trkpt>
      <trkpt lat="44.34948" lon="6.27316">
        <ele>1633</ele>
        <time>2014-08-31T10:29:29.1Z</time>
      </trkpt>
      <trkpt lat="44.34943" lon="6.27319">
        <ele>1633</ele>
        <time>2014-08-31T10:29:34.1Z</time>
      </trkpt>
      <trkpt lat="44.34939" lon="6.27321">
        <ele>1634</ele>
        <time>2014-08-31T10:29:39.1Z</time>
      </trkpt>
      <trkpt lat="44.34934" lon="6.27324">
        <ele>1635</ele>
        <time>2014-08-31T10:29:44.1Z</time>
      </trkpt>
      <trkpt lat="44.34928" lon="6.27326">
        <ele>1636</ele>
        <time>2014-08-31T10:29:50.1Z</time>
      </trkpt>
      <trkpt lat="44.34924" lon="6.27328">
        <ele>1637</ele>
        <time>2014-08-31T10:29:55.1Z</time>
      </trkpt>
      <trkpt lat="44.3492" lon="6.27329">
        <ele>1637</ele>
        <time>2014-08-31T10:30:01.1Z</time>
      </trkpt>
      <trkpt lat="44.34916" lon="6.27331">
        <ele>1637</ele>
        <time>2014-08-31T10:30:06.1Z</time>
      </trkpt>
      <trkpt lat="44.34912" lon="6.27334">
        <ele>1638</ele>
        <time>2014-08-31T10:30:12.1Z</time>
      </trkpt>
      <trkpt lat="44.34908" lon="6.27336">
        <ele>1639</ele>
        <time>2014-08-31T10:30:18.1Z</time>
      </trkpt>
      <trkpt lat="44.34904" lon="6.27339">
        <ele>1639</ele>
        <time>2014-08-31T10:30:24.1Z</time>
      </trkpt>
      <trkpt lat="44.34901" lon="6.27343">
        <ele>1640</ele>
        <time>2014-08-31T10:30:29.1Z</time>
      </trkpt>
      <trkpt lat="44.34898" lon="6.27345">
        <ele>1641</ele>
        <time>2014-08-31T10:30:34.1Z</time>
      </trkpt>
      <trkpt lat="44.34896" lon="6.27346">
        <ele>1641</ele>
        <time>2014-08-31T10:30:39.1Z</time>
      </trkpt>
      <trkpt lat="44.34892" lon="6.27349">
        <ele>1641</ele>
        <time>2014-08-31T10:30:45.1Z</time>
      </trkpt>
      <trkpt lat="44.34888" lon="6.27352">
        <ele>1643</ele>
        <time>2014-08-31T10:30:51.1Z</time>
      </trkpt>
      <trkpt lat="44.34885" lon="6.27353">
        <ele>1644</ele>
        <time>2014-08-31T10:30:56.1Z</time>
      </trkpt>
      <trkpt lat="44.34882" lon="6.27353">
        <ele>1644</ele>
        <time>2014-08-31T10:31:01.1Z</time>
      </trkpt>
      <trkpt lat="44.34878" lon="6.27351">
        <ele>1645</ele>
        <time>2014-08-31T10:31:07.1Z</time>
      </trkpt>
      <trkpt lat="44.34875" lon="6.27352">
        <ele>1645</ele>
        <time>2014-08-31T10:31:12.1Z</time>
      </trkpt>
      <trkpt lat="44.34872" lon="6.27352">
        <ele>1646</ele>
        <time>2014-08-31T10:31:18.1Z</time>
      </trkpt>
      <trkpt lat="44.34869" lon="6.27353">
        <ele>1647</ele>
        <time>2014-08-31T10:31:23.1Z</time>
      </trkpt>
      <trkpt lat="44.34867" lon="6.27353">
        <ele>1648</ele>
        <time>2014-08-31T10:31:29.1Z</time>
      </trkpt>
      <trkpt lat="44.34866" lon="6.27353">
        <ele>1649</ele>
        <time>2014-08-31T10:31:34.1Z</time>
      </trkpt>
      <trkpt lat="44.34865" lon="6.27351">
        <ele>1649</ele>
        <time>2014-08-31T10:31:40.1Z</time>
      </trkpt>
      <trkpt lat="44.34865" lon="6.27351">
        <ele>1649</ele>
        <time>2014-08-31T10:31:46.1Z</time>
      </trkpt>
      <trkpt lat="44.34866" lon="6.27351">
        <ele>1649</ele>
        <time>2014-08-31T10:31:52.1Z</time>
      </trkpt>
      <trkpt lat="44.34866" lon="6.2735">
        <ele>1649</ele>
        <time>2014-08-31T10:31:57.1Z</time>
      </trkpt>
      <trkpt lat="44.34868" lon="6.27348">
        <ele>1649</ele>
        <time>2014-08-31T10:32:03.1Z</time>
      </trkpt>
      <trkpt lat="44.34868" lon="6.27349">
        <ele>1649</ele>
        <time>2014-08-31T10:32:08.1Z</time>
      </trkpt>
      <trkpt lat="44.34869" lon="6.27351">
        <ele>1649</ele>
        <time>2014-08-31T10:32:14.1Z</time>
      </trkpt>
      <trkpt lat="44.34872" lon="6.27354">
        <ele>1649</ele>
        <time>2014-08-31T10:32:19.1Z</time>
      </trkpt>
      <trkpt lat="44.3487" lon="6.27356">
        <ele>1649</ele>
        <time>2014-08-31T10:32:24.1Z</time>
      </trkpt>
      <trkpt lat="44.34866" lon="6.27357">
        <ele>1650</ele>
        <time>2014-08-31T10:32:30.1Z</time>
      </trkpt>
      <trkpt lat="44.34861" lon="6.27359">
        <ele>1651</ele>
        <time>2014-08-31T10:32:36.1Z</time>
      </trkpt>
      <trkpt lat="44.34857" lon="6.27362">
        <ele>1652</ele>
        <time>2014-08-31T10:32:42.1Z</time>
      </trkpt>
      <trkpt lat="44.34852" lon="6.27365">
        <ele>1652</ele>
        <time>2014-08-31T10:32:47.1Z</time>
      </trkpt>
      <trkpt lat="44.34848" lon="6.2737">
        <ele>1653</ele>
        <time>2014-08-31T10:32:53.1Z</time>
      </trkpt>
      <trkpt lat="44.34845" lon="6.27374">
        <ele>1654</ele>
        <time>2014-08-31T10:32:58.1Z</time>
      </trkpt>
      <trkpt lat="44.34842" lon="6.27378">
        <ele>1655</ele>
        <time>2014-08-31T10:33:03.1Z</time>
      </trkpt>
      <trkpt lat="44.3484" lon="6.27383">
        <ele>1655</ele>
        <time>2014-08-31T10:33:08.1Z</time>
      </trkpt>
      <trkpt lat="44.34838" lon="6.27388">
        <ele>1656</ele>
        <time>2014-08-31T10:33:13.1Z</time>
      </trkpt>
      <trkpt lat="44.34837" lon="6.27395">
        <ele>1656</ele>
        <time>2014-08-31T10:33:19.1Z</time>
      </trkpt>
      <trkpt lat="44.34837" lon="6.274">
        <ele>1657</ele>
        <time>2014-08-31T10:33:24.1Z</time>
      </trkpt>
      <trkpt lat="44.34837" lon="6.27407">
        <ele>1658</ele>
        <time>2014-08-31T10:33:29.1Z</time>
      </trkpt>
      <trkpt lat="44.34838" lon="6.27413">
        <ele>1658</ele>
        <time>2014-08-31T10:33:34.1Z</time>
      </trkpt>
      <trkpt lat="44.3484" lon="6.27418">
        <ele>1658</ele>
        <time>2014-08-31T10:33:39.1Z</time>
      </trkpt>
      <trkpt lat="44.34842" lon="6.27422">
        <ele>1659</ele>
        <time>2014-08-31T10:33:45.1Z</time>
      </trkpt>
      <trkpt lat="44.34843" lon="6.27427">
        <ele>1660</ele>
        <time>2014-08-31T10:33:50.1Z</time>
      </trkpt>
      <trkpt lat="44.34845" lon="6.27433">
        <ele>1660</ele>
        <time>2014-08-31T10:33:56.1Z</time>
      </trkpt>
      <trkpt lat="44.34847" lon="6.27437">
        <ele>1661</ele>
        <time>2014-08-31T10:34:01.1Z</time>
      </trkpt>
      <trkpt lat="44.3485" lon="6.27442">
        <ele>1661</ele>
        <time>2014-08-31T10:34:06.1Z</time>
      </trkpt>
      <trkpt lat="44.34853" lon="6.27445">
        <ele>1661</ele>
        <time>2014-08-31T10:34:11.1Z</time>
      </trkpt>
      <trkpt lat="44.34857" lon="6.2745">
        <ele>1661</ele>
        <time>2014-08-31T10:34:17.1Z</time>
      </trkpt>
      <trkpt lat="44.3486" lon="6.27454">
        <ele>1662</ele>
        <time>2014-08-31T10:34:23.1Z</time>
      </trkpt>
      <trkpt lat="44.34863" lon="6.2746">
        <ele>1663</ele>
        <time>2014-08-31T10:34:29.1Z</time>
      </trkpt>
      <trkpt lat="44.34865" lon="6.27464">
        <ele>1663</ele>
        <time>2014-08-31T10:34:34.1Z</time>
      </trkpt>
      <trkpt lat="44.34867" lon="6.2747">
        <ele>1664</ele>
        <time>2014-08-31T10:34:40.1Z</time>
      </trkpt>
      <trkpt lat="44.34871" lon="6.27475">
        <ele>1665</ele>
        <time>2014-08-31T10:34:45.1Z</time>
      </trkpt>
      <trkpt lat="44.34874" lon="6.2748">
        <ele>1665</ele>
        <time>2014-08-31T10:34:51.1Z</time>
      </trkpt>
      <trkpt lat="44.34876" lon="6.27485">
        <ele>1666</ele>
        <time>2014-08-31T10:34:56.1Z</time>
      </trkpt>
      <trkpt lat="44.34879" lon="6.27491">
        <ele>1667</ele>
        <time>2014-08-31T10:35:02.1Z</time>
      </trkpt>
      <trkpt lat="44.34881" lon="6.27497">
        <ele>1667</ele>
        <time>2014-08-31T10:35:08.1Z</time>
      </trkpt>
      <trkpt lat="44.34883" lon="6.27504">
        <ele>1668</ele>
        <time>2014-08-31T10:35:14.1Z</time>
      </trkpt>
      <trkpt lat="44.34885" lon="6.2751">
        <ele>1668</ele>
        <time>2014-08-31T10:35:19.1Z</time>
      </trkpt>
      <trkpt lat="44.34886" lon="6.27516">
        <ele>1669</ele>
        <time>2014-08-31T10:35:24.1Z</time>
      </trkpt>
      <trkpt lat="44.34887" lon="6.27522">
        <ele>1670</ele>
        <time>2014-08-31T10:35:29.1Z</time>
      </trkpt>
      <trkpt lat="44.34887" lon="6.27529">
        <ele>1671</ele>
        <time>2014-08-31T10:35:35.1Z</time>
      </trkpt>
      <trkpt lat="44.34887" lon="6.27535">
        <ele>1672</ele>
        <time>2014-08-31T10:35:40.1Z</time>
      </trkpt>
      <trkpt lat="44.34886" lon="6.27544">
        <ele>1672</ele>
        <time>2014-08-31T10:35:46.1Z</time>
      </trkpt>
      <trkpt lat="44.34885" lon="6.27558">
        <ele>1672</ele>
        <time>2014-08-31T10:35:52.1Z</time>
      </trkpt>
      <trkpt lat="44.34882" lon="6.27573">
        <ele>1673</ele>
        <time>2014-08-31T10:35:58.1Z</time>
      </trkpt>
      <trkpt lat="44.34875" lon="6.27585">
        <ele>1673</ele>
        <time>2014-08-31T10:36:04.1Z</time>
      </trkpt>
      <trkpt lat="44.34867" lon="6.2759">
        <ele>1674</ele>
        <time>2014-08-31T10:36:09.1Z</time>
      </trkpt>
      <trkpt lat="44.34859" lon="6.27594">
        <ele>1675</ele>
        <time>2014-08-31T10:36:15.1Z</time>
      </trkpt>
      <trkpt lat="44.34854" lon="6.27595">
        <ele>1675</ele>
        <time>2014-08-31T10:36:20.1Z</time>
      </trkpt>
      <trkpt lat="44.34848" lon="6.27596">
        <ele>1676</ele>
        <time>2014-08-31T10:36:25.1Z</time>
      </trkpt>
      <trkpt lat="44.34842" lon="6.27597">
        <ele>1677</ele>
        <time>2014-08-31T10:36:30.1Z</time>
      </trkpt>
      <trkpt lat="44.34836" lon="6.27597">
        <ele>1677</ele>
        <time>2014-08-31T10:36:35.1Z</time>
      </trkpt>
      <trkpt lat="44.3483" lon="6.27596">
        <ele>1677</ele>
        <time>2014-08-31T10:36:41.1Z</time>
      </trkpt>
      <trkpt lat="44.34824" lon="6.27597">
        <ele>1678</ele>
        <time>2014-08-31T10:36:46.1Z</time>
      </trkpt>
      <trkpt lat="44.34817" lon="6.27597">
        <ele>1678</ele>
        <time>2014-08-31T10:36:52.1Z</time>
      </trkpt>
      <trkpt lat="44.34812" lon="6.27598">
        <ele>1678</ele>
        <time>2014-08-31T10:36:57.1Z</time>
      </trkpt>
      <trkpt lat="44.34805" lon="6.27598">
        <ele>1680</ele>
        <time>2014-08-31T10:37:03.1Z</time>
      </trkpt>
      <trkpt lat="44.34799" lon="6.27598">
        <ele>1681</ele>
        <time>2014-08-31T10:37:09.1Z</time>
      </trkpt>
      <trkpt lat="44.34792" lon="6.27598">
        <ele>1681</ele>
        <time>2014-08-31T10:37:15.1Z</time>
      </trkpt>
      <trkpt lat="44.34786" lon="6.27599">
        <ele>1682</ele>
        <time>2014-08-31T10:37:20.1Z</time>
      </trkpt>
      <trkpt lat="44.34779" lon="6.276">
        <ele>1683</ele>
        <time>2014-08-31T10:37:25.1Z</time>
      </trkpt>
      <trkpt lat="44.34773" lon="6.276">
        <ele>1685</ele>
        <time>2014-08-31T10:37:30.1Z</time>
      </trkpt>
      <trkpt lat="44.34766" lon="6.27599">
        <ele>1685</ele>
        <time>2014-08-31T10:37:36.1Z</time>
      </trkpt>
      <trkpt lat="44.3476" lon="6.276">
        <ele>1686</ele>
        <time>2014-08-31T10:37:41.1Z</time>
      </trkpt>
      <trkpt lat="44.34753" lon="6.27599">
        <ele>1687</ele>
        <time>2014-08-31T10:37:47.1Z</time>
      </trkpt>
      <trkpt lat="44.34746" lon="6.27599">
        <ele>1687</ele>
        <time>2014-08-31T10:37:53.1Z</time>
      </trkpt>
      <trkpt lat="44.34739" lon="6.27597">
        <ele>1688</ele>
        <time>2014-08-31T10:37:59.1Z</time>
      </trkpt>
      <trkpt lat="44.34734" lon="6.27595">
        <ele>1688</ele>
        <time>2014-08-31T10:38:04.1Z</time>
      </trkpt>
      <trkpt lat="44.34727" lon="6.27594">
        <ele>1688</ele>
        <time>2014-08-31T10:38:10.1Z</time>
      </trkpt>
      <trkpt lat="44.34722" lon="6.27592">
        <ele>1689</ele>
        <time>2014-08-31T10:38:15.1Z</time>
      </trkpt>
      <trkpt lat="44.34715" lon="6.27592">
        <ele>1690</ele>
        <time>2014-08-31T10:38:21.1Z</time>
      </trkpt>
      <trkpt lat="44.34708" lon="6.27592">
        <ele>1691</ele>
        <time>2014-08-31T10:38:27.1Z</time>
      </trkpt>
      <trkpt lat="44.347" lon="6.27592">
        <ele>1691</ele>
        <time>2014-08-31T10:38:33.1Z</time>
      </trkpt>
      <trkpt lat="44.34691" lon="6.27595">
        <ele>1692</ele>
        <time>2014-08-31T10:38:39.1Z</time>
      </trkpt>
      <trkpt lat="44.34683" lon="6.27594">
        <ele>1692</ele>
        <time>2014-08-31T10:38:45.1Z</time>
      </trkpt>
      <trkpt lat="44.34675" lon="6.27594">
        <ele>1693</ele>
        <time>2014-08-31T10:38:51.1Z</time>
      </trkpt>
      <trkpt lat="44.34668" lon="6.27596">
        <ele>1694</ele>
        <time>2014-08-31T10:38:56.1Z</time>
      </trkpt>
      <trkpt lat="44.34661" lon="6.27598">
        <ele>1694</ele>
        <time>2014-08-31T10:39:02.1Z</time>
      </trkpt>
      <trkpt lat="44.34655" lon="6.27598">
        <ele>1694</ele>
        <time>2014-08-31T10:39:07.1Z</time>
      </trkpt>
      <trkpt lat="44.3465" lon="6.27598">
        <ele>1695</ele>
        <time>2014-08-31T10:39:12.1Z</time>
      </trkpt>
      <trkpt lat="44.34642" lon="6.276">
        <ele>1696</ele>
        <time>2014-08-31T10:39:18.1Z</time>
      </trkpt>
      <trkpt lat="44.34634" lon="6.27603">
        <ele>1696</ele>
        <time>2014-08-31T10:39:24.1Z</time>
      </trkpt>
      <trkpt lat="44.34628" lon="6.27606">
        <ele>1697</ele>
        <time>2014-08-31T10:39:29.1Z</time>
      </trkpt>
      <trkpt lat="44.34621" lon="6.27609">
        <ele>1698</ele>
        <time>2014-08-31T10:39:35.1Z</time>
      </trkpt>
      <trkpt lat="44.34615" lon="6.2761">
        <ele>1698</ele>
        <time>2014-08-31T10:39:41.1Z</time>
      </trkpt>
      <trkpt lat="44.3461" lon="6.27613">
        <ele>1698</ele>
        <time>2014-08-31T10:39:46.1Z</time>
      </trkpt>
      <trkpt lat="44.34606" lon="6.27616">
        <ele>1698</ele>
        <time>2014-08-31T10:39:51.1Z</time>
      </trkpt>
      <trkpt lat="44.346" lon="6.2762">
        <ele>1699</ele>
        <time>2014-08-31T10:39:57.1Z</time>
      </trkpt>
      <trkpt lat="44.34596" lon="6.27624">
        <ele>1700</ele>
        <time>2014-08-31T10:40:03.1Z</time>
      </trkpt>
      <trkpt lat="44.34591" lon="6.27627">
        <ele>1701</ele>
        <time>2014-08-31T10:40:09.1Z</time>
      </trkpt>
      <trkpt lat="44.34585" lon="6.27631">
        <ele>1701</ele>
        <time>2014-08-31T10:40:15.1Z</time>
      </trkpt>
      <trkpt lat="44.3458" lon="6.27634">
        <ele>1702</ele>
        <time>2014-08-31T10:40:21.1Z</time>
      </trkpt>
      <trkpt lat="44.34575" lon="6.27638">
        <ele>1703</ele>
        <time>2014-08-31T10:40:27.1Z</time>
      </trkpt>
      <trkpt lat="44.3457" lon="6.27643">
        <ele>1704</ele>
        <time>2014-08-31T10:40:33.1Z</time>
      </trkpt>
      <trkpt lat="44.34565" lon="6.27648">
        <ele>1706</ele>
        <time>2014-08-31T10:40:39.1Z</time>
      </trkpt>
      <trkpt lat="44.3456" lon="6.27652">
        <ele>1707</ele>
        <time>2014-08-31T10:40:44.1Z</time>
      </trkpt>
      <trkpt lat="44.34554" lon="6.27656">
        <ele>1708</ele>
        <time>2014-08-31T10:40:50.1Z</time>
      </trkpt>
      <trkpt lat="44.34548" lon="6.27658">
        <ele>1708</ele>
        <time>2014-08-31T10:40:55.1Z</time>
      </trkpt>
      <trkpt lat="44.34542" lon="6.27662">
        <ele>1709</ele>
        <time>2014-08-31T10:41:01.1Z</time>
      </trkpt>
      <trkpt lat="44.34537" lon="6.27664">
        <ele>1711</ele>
        <time>2014-08-31T10:41:06.1Z</time>
      </trkpt>
      <trkpt lat="44.34532" lon="6.27666">
        <ele>1711</ele>
        <time>2014-08-31T10:41:11.1Z</time>
      </trkpt>
      <trkpt lat="44.34525" lon="6.27669">
        <ele>1713</ele>
        <time>2014-08-31T10:41:17.1Z</time>
      </trkpt>
      <trkpt lat="44.34519" lon="6.27671">
        <ele>1713</ele>
        <time>2014-08-31T10:41:22.1Z</time>
      </trkpt>
      <trkpt lat="44.34512" lon="6.27674">
        <ele>1714</ele>
        <time>2014-08-31T10:41:28.1Z</time>
      </trkpt>
      <trkpt lat="44.34509" lon="6.27674">
        <ele>1714</ele>
        <time>2014-08-31T10:41:34.1Z</time>
      </trkpt>
      <trkpt lat="44.34508" lon="6.27674">
        <ele>1714</ele>
        <time>2014-08-31T10:41:39.1Z</time>
      </trkpt>
      <trkpt lat="44.34508" lon="6.27674">
        <ele>1714</ele>
        <time>2014-08-31T10:41:45.1Z</time>
      </trkpt>
      <trkpt lat="44.34508" lon="6.27674">
        <ele>1714</ele>
        <time>2014-08-31T10:41:50.1Z</time>
      </trkpt>
      <trkpt lat="44.34507" lon="6.27674">
        <ele>1714</ele>
        <time>2014-08-31T10:41:55.1Z</time>
      </trkpt>
      <trkpt lat="44.34507" lon="6.27674">
        <ele>1714</ele>
        <time>2014-08-31T10:42:02.1Z</time>
      </trkpt>
      <trkpt lat="44.34507" lon="6.27674">
        <ele>1714</ele>
        <time>2014-08-31T10:42:09.1Z</time>
      </trkpt>
      <trkpt lat="44.34506" lon="6.27675">
        <ele>1714</ele>
        <time>2014-08-31T10:42:15.1Z</time>
      </trkpt>
      <trkpt lat="44.34506" lon="6.27673">
        <ele>1714</ele>
        <time>2014-08-31T10:42:21.1Z</time>
      </trkpt>
      <trkpt lat="44.34506" lon="6.27674">
        <ele>1713</ele>
        <time>2014-08-31T10:42:31.1Z</time>
      </trkpt>
      <trkpt lat="44.34506" lon="6.27674">
        <ele>1713</ele>
        <time>2014-08-31T10:42:36.1Z</time>
      </trkpt>
      <trkpt lat="44.34506" lon="6.27674">
        <ele>1714</ele>
        <time>2014-08-31T10:42:44.1Z</time>
      </trkpt>
      <trkpt lat="44.34505" lon="6.27675">
        <ele>1715</ele>
        <time>2014-08-31T10:42:49.1Z</time>
      </trkpt>
      <trkpt lat="44.34499" lon="6.27679">
        <ele>1715</ele>
        <time>2014-08-31T10:42:55.1Z</time>
      </trkpt>
      <trkpt lat="44.34492" lon="6.27682">
        <ele>1716</ele>
        <time>2014-08-31T10:43:01.1Z</time>
      </trkpt>
      <trkpt lat="44.34485" lon="6.27686">
        <ele>1717</ele>
        <time>2014-08-31T10:43:07.1Z</time>
      </trkpt>
      <trkpt lat="44.34478" lon="6.27685">
        <ele>1718</ele>
        <time>2014-08-31T10:43:13.1Z</time>
      </trkpt>
      <trkpt lat="44.34471" lon="6.27682">
        <ele>1718</ele>
        <time>2014-08-31T10:43:18.1Z</time>
      </trkpt>
      <trkpt lat="44.34465" lon="6.27684">
        <ele>1718</ele>
        <time>2014-08-31T10:43:23.1Z</time>
      </trkpt>
      <trkpt lat="44.34458" lon="6.27688">
        <ele>1719</ele>
        <time>2014-08-31T10:43:29.1Z</time>
      </trkpt>
      <trkpt lat="44.3445" lon="6.27688">
        <ele>1720</ele>
        <time>2014-08-31T10:43:35.1Z</time>
      </trkpt>
      <trkpt lat="44.34443" lon="6.27692">
        <ele>1720</ele>
        <time>2014-08-31T10:43:41.1Z</time>
      </trkpt>
      <trkpt lat="44.34437" lon="6.277">
        <ele>1721</ele>
        <time>2014-08-31T10:43:47.1Z</time>
      </trkpt>
      <trkpt lat="44.34431" lon="6.27708">
        <ele>1722</ele>
        <time>2014-08-31T10:43:52.1Z</time>
      </trkpt>
      <trkpt lat="44.3442" lon="6.27716">
        <ele>1722</ele>
        <time>2014-08-31T10:43:58.1Z</time>
      </trkpt>
      <trkpt lat="44.34407" lon="6.27718">
        <ele>1723</ele>
        <time>2014-08-31T10:44:03.1Z</time>
      </trkpt>
      <trkpt lat="44.34389" lon="6.27719">
        <ele>1723</ele>
        <time>2014-08-31T10:44:08.1Z</time>
      </trkpt>
      <trkpt lat="44.34371" lon="6.27699">
        <ele>1721</ele>
        <time>2014-08-31T10:44:14.1Z</time>
      </trkpt>
      <trkpt lat="44.34351" lon="6.27684">
        <ele>1720</ele>
        <time>2014-08-31T10:44:20.1Z</time>
      </trkpt>
      <trkpt lat="44.34328" lon="6.27695">
        <ele>1721</ele>
        <time>2014-08-31T10:44:26.1Z</time>
      </trkpt>
      <trkpt lat="44.34305" lon="6.27714">
        <ele>1720</ele>
        <time>2014-08-31T10:44:32.1Z</time>
      </trkpt>
      <trkpt lat="44.34266" lon="6.27714">
        <ele>1717</ele>
        <time>2014-08-31T10:44:38.1Z</time>
      </trkpt>
      <trkpt lat="44.34223" lon="6.27701">
        <ele>1713</ele>
        <time>2014-08-31T10:44:43.1Z</time>
      </trkpt>
      <trkpt lat="44.34188" lon="6.27695">
        <ele>1710</ele>
        <time>2014-08-31T10:44:48.1Z</time>
      </trkpt>
      <trkpt lat="44.34165" lon="6.2767">
        <ele>1709</ele>
        <time>2014-08-31T10:44:53.1Z</time>
      </trkpt>
      <trkpt lat="44.34134" lon="6.27656">
        <ele>1708</ele>
        <time>2014-08-31T10:44:59.1Z</time>
      </trkpt>
      <trkpt lat="44.34099" lon="6.27628">
        <ele>1705</ele>
        <time>2014-08-31T10:45:04.1Z</time>
      </trkpt>
      <trkpt lat="44.34071" lon="6.27607">
        <ele>1701</ele>
        <time>2014-08-31T10:45:09.1Z</time>
      </trkpt>
      <trkpt lat="44.34032" lon="6.27591">
        <ele>1698</ele>
        <time>2014-08-31T10:45:15.1Z</time>
      </trkpt>
      <trkpt lat="44.34013" lon="6.27574">
        <ele>1695</ele>
        <time>2014-08-31T10:45:20.1Z</time>
      </trkpt>
      <trkpt lat="44.34006" lon="6.27566">
        <ele>1694</ele>
        <time>2014-08-31T10:45:25.1Z</time>
      </trkpt>
      <trkpt lat="44.33997" lon="6.27559">
        <ele>1693</ele>
        <time>2014-08-31T10:45:30.1Z</time>
      </trkpt>
      <trkpt lat="44.33983" lon="6.27548">
        <ele>1693</ele>
        <time>2014-08-31T10:45:35.1Z</time>
      </trkpt>
      <trkpt lat="44.33974" lon="6.27541">
        <ele>1691</ele>
        <time>2014-08-31T10:45:41.1Z</time>
      </trkpt>
      <trkpt lat="44.33965" lon="6.27533">
        <ele>1690</ele>
        <time>2014-08-31T10:45:46.1Z</time>
      </trkpt>
      <trkpt lat="44.33957" lon="6.27526">
        <ele>1690</ele>
        <time>2014-08-31T10:45:52.1Z</time>
      </trkpt>
      <trkpt lat="44.3395" lon="6.27518">
        <ele>1690</ele>
        <time>2014-08-31T10:45:57.1Z</time>
      </trkpt>
      <trkpt lat="44.3394" lon="6.27505">
        <ele>1690</ele>
        <time>2014-08-31T10:46:03.1Z</time>
      </trkpt>
      <trkpt lat="44.33934" lon="6.27498">
        <ele>1689</ele>
        <time>2014-08-31T10:46:08.1Z</time>
      </trkpt>
      <trkpt lat="44.33928" lon="6.27491">
        <ele>1689</ele>
        <time>2014-08-31T10:46:13.1Z</time>
      </trkpt>
      <trkpt lat="44.33923" lon="6.27482">
        <ele>1688</ele>
        <time>2014-08-31T10:46:18.1Z</time>
      </trkpt>
      <trkpt lat="44.33918" lon="6.27476">
        <ele>1688</ele>
        <time>2014-08-31T10:46:23.1Z</time>
      </trkpt>
      <trkpt lat="44.33914" lon="6.27471">
        <ele>1688</ele>
        <time>2014-08-31T10:46:28.1Z</time>
      </trkpt>
      <trkpt lat="44.33916" lon="6.27469">
        <ele>1688</ele>
        <time>2014-08-31T10:46:34.1Z</time>
      </trkpt>
      <trkpt lat="44.3392" lon="6.27465">
        <ele>1688</ele>
        <time>2014-08-31T10:46:40.1Z</time>
      </trkpt>
      <trkpt lat="44.33923" lon="6.27461">
        <ele>1688</ele>
        <time>2014-08-31T10:46:45.1Z</time>
      </trkpt>
      <trkpt lat="44.33926" lon="6.27458">
        <ele>1688</ele>
        <time>2014-08-31T10:46:51.1Z</time>
      </trkpt>
      <trkpt lat="44.3393" lon="6.27455">
        <ele>1688</ele>
        <time>2014-08-31T10:46:57.1Z</time>
      </trkpt>
      <trkpt lat="44.33937" lon="6.27445">
        <ele>1688</ele>
        <time>2014-08-31T10:47:03.1Z</time>
      </trkpt>
      <trkpt lat="44.33941" lon="6.2744">
        <ele>1688</ele>
        <time>2014-08-31T10:47:09.1Z</time>
      </trkpt>
      <trkpt lat="44.33942" lon="6.27438">
        <ele>1688</ele>
        <time>2014-08-31T10:47:15.1Z</time>
      </trkpt>
      <trkpt lat="44.33942" lon="6.27438">
        <ele>1688</ele>
        <time>2014-08-31T10:47:20.1Z</time>
      </trkpt>
      <trkpt lat="44.3394" lon="6.27439">
        <ele>1688</ele>
        <time>2014-08-31T10:47:26.1Z</time>
      </trkpt>
      <trkpt lat="44.33932" lon="6.27437">
        <ele>1687</ele>
        <time>2014-08-31T10:47:32.1Z</time>
      </trkpt>
      <trkpt lat="44.33912" lon="6.27428">
        <ele>1687</ele>
        <time>2014-08-31T10:47:38.1Z</time>
      </trkpt>
      <trkpt lat="44.33884" lon="6.27418">
        <ele>1686</ele>
        <time>2014-08-31T10:47:44.1Z</time>
      </trkpt>
      <trkpt lat="44.33875" lon="6.274">
        <ele>1686</ele>
        <time>2014-08-31T10:47:50.1Z</time>
      </trkpt>
      <trkpt lat="44.33874" lon="6.27383">
        <ele>1687</ele>
        <time>2014-08-31T10:47:56.1Z</time>
      </trkpt>
      <trkpt lat="44.33869" lon="6.27364">
        <ele>1686</ele>
        <time>2014-08-31T10:48:02.1Z</time>
      </trkpt>
      <trkpt lat="44.33865" lon="6.27346">
        <ele>1685</ele>
        <time>2014-08-31T10:48:07.1Z</time>
      </trkpt>
      <trkpt lat="44.33862" lon="6.27344">
        <ele>1686</ele>
        <time>2014-08-31T10:48:13.1Z</time>
      </trkpt>
      <trkpt lat="44.33861" lon="6.27346">
        <ele>1685</ele>
        <time>2014-08-31T10:48:19.1Z</time>
      </trkpt>
      <trkpt lat="44.3386" lon="6.27349">
        <ele>1686</ele>
        <time>2014-08-31T10:48:25.1Z</time>
      </trkpt>
      <trkpt lat="44.33859" lon="6.2735">
        <ele>1686</ele>
        <time>2014-08-31T10:48:30.1Z</time>
      </trkpt>
      <trkpt lat="44.33858" lon="6.27351">
        <ele>1685</ele>
        <time>2014-08-31T10:48:35.1Z</time>
      </trkpt>
      <trkpt lat="44.33857" lon="6.27352">
        <ele>1685</ele>
        <time>2014-08-31T10:48:41.1Z</time>
      </trkpt>
      <trkpt lat="44.33857" lon="6.27353">
        <ele>1686</ele>
        <time>2014-08-31T10:48:47.1Z</time>
      </trkpt>
      <trkpt lat="44.33857" lon="6.27355">
        <ele>1685</ele>
        <time>2014-08-31T10:48:52.1Z</time>
      </trkpt>
      <trkpt lat="44.33856" lon="6.27355">
        <ele>1686</ele>
        <time>2014-08-31T10:48:58.1Z</time>
      </trkpt>
      <trkpt lat="44.33855" lon="6.27355">
        <ele>1686</ele>
        <time>2014-08-31T10:49:04.1Z</time>
      </trkpt>
      <trkpt lat="44.33854" lon="6.27355">
        <ele>1686</ele>
        <time>2014-08-31T10:49:10.1Z</time>
      </trkpt>
      <trkpt lat="44.33846" lon="6.27335">
        <ele>1685</ele>
        <time>2014-08-31T10:49:15.1Z</time>
      </trkpt>
      <trkpt lat="44.33841" lon="6.27319">
        <ele>1684</ele>
        <time>2014-08-31T10:49:21.1Z</time>
      </trkpt>
      <trkpt lat="44.33838" lon="6.27304">
        <ele>1685</ele>
        <time>2014-08-31T10:49:26.1Z</time>
      </trkpt>
      <trkpt lat="44.33833" lon="6.27286">
        <ele>1686</ele>
        <time>2014-08-31T10:49:32.1Z</time>
      </trkpt>
      <trkpt lat="44.33829" lon="6.27272">
        <ele>1687</ele>
        <time>2014-08-31T10:49:37.1Z</time>
      </trkpt>
      <trkpt lat="44.33825" lon="6.27255">
        <ele>1687</ele>
        <time>2014-08-31T10:49:43.1Z</time>
      </trkpt>
      <trkpt lat="44.33818" lon="6.27222">
        <ele>1684</ele>
        <time>2014-08-31T10:49:49.1Z</time>
      </trkpt>
      <trkpt lat="44.3381" lon="6.27195">
        <ele>1681</ele>
        <time>2014-08-31T10:49:54.1Z</time>
      </trkpt>
      <trkpt lat="44.33805" lon="6.27176">
        <ele>1681</ele>
        <time>2014-08-31T10:49:59.1Z</time>
      </trkpt>
      <trkpt lat="44.33797" lon="6.27146">
        <ele>1679</ele>
        <time>2014-08-31T10:50:04.1Z</time>
      </trkpt>
      <trkpt lat="44.33786" lon="6.27127">
        <ele>1678</ele>
        <time>2014-08-31T10:50:10.1Z</time>
      </trkpt>
      <trkpt lat="44.33782" lon="6.27113">
        <ele>1679</ele>
        <time>2014-08-31T10:50:15.1Z</time>
      </trkpt>
      <trkpt lat="44.33787" lon="6.27096">
        <ele>1681</ele>
        <time>2014-08-31T10:50:21.1Z</time>
      </trkpt>
      <trkpt lat="44.33787" lon="6.27083">
        <ele>1682</ele>
        <time>2014-08-31T10:50:26.1Z</time>
      </trkpt>
      <trkpt lat="44.33778" lon="6.27074">
        <ele>1683</ele>
        <time>2014-08-31T10:50:31.1Z</time>
      </trkpt>
      <trkpt lat="44.33771" lon="6.27066">
        <ele>1683</ele>
        <time>2014-08-31T10:50:37.1Z</time>
      </trkpt>
      <trkpt lat="44.33771" lon="6.27051">
        <ele>1683</ele>
        <time>2014-08-31T10:50:43.1Z</time>
      </trkpt>
      <trkpt lat="44.33767" lon="6.27038">
        <ele>1683</ele>
        <time>2014-08-31T10:50:48.1Z</time>
      </trkpt>
      <trkpt lat="44.33762" lon="6.27025">
        <ele>1684</ele>
        <time>2014-08-31T10:50:54.1Z</time>
      </trkpt>
      <trkpt lat="44.33759" lon="6.27016">
        <ele>1685</ele>
        <time>2014-08-31T10:51:00.1Z</time>
      </trkpt>
      <trkpt lat="44.33759" lon="6.27016">
        <ele>1686</ele>
        <time>2014-08-31T10:51:05.1Z</time>
      </trkpt>
      <trkpt lat="44.33759" lon="6.27016">
        <ele>1686</ele>
        <time>2014-08-31T10:51:11.1Z</time>
      </trkpt>
      <trkpt lat="44.33759" lon="6.27016">
        <ele>1686</ele>
        <time>2014-08-31T10:51:16.1Z</time>
      </trkpt>
      <trkpt lat="44.33759" lon="6.27017">
        <ele>1686</ele>
        <time>2014-08-31T10:51:23.1Z</time>
      </trkpt>
      <trkpt lat="44.33759" lon="6.27017">
        <ele>1686</ele>
        <time>2014-08-31T10:51:30.1Z</time>
      </trkpt>
      <trkpt lat="44.33759" lon="6.27017">
        <ele>1686</ele>
        <time>2014-08-31T10:51:39.1Z</time>
      </trkpt>
      <trkpt lat="44.33759" lon="6.27018">
        <ele>1686</ele>
        <time>2014-08-31T10:51:44.1Z</time>
      </trkpt>
      <trkpt lat="44.33758" lon="6.27017">
        <ele>1686</ele>
        <time>2014-08-31T10:51:51.1Z</time>
      </trkpt>
      <trkpt lat="44.33753" lon="6.27007">
        <ele>1686</ele>
        <time>2014-08-31T10:51:57.1Z</time>
      </trkpt>
      <trkpt lat="44.33746" lon="6.27001">
        <ele>1687</ele>
        <time>2014-08-31T10:52:02.1Z</time>
      </trkpt>
      <trkpt lat="44.3374" lon="6.26994">
        <ele>1687</ele>
        <time>2014-08-31T10:52:07.1Z</time>
      </trkpt>
      <trkpt lat="44.33735" lon="6.26986">
        <ele>1688</ele>
        <time>2014-08-31T10:52:13.1Z</time>
      </trkpt>
      <trkpt lat="44.33729" lon="6.26978">
        <ele>1689</ele>
        <time>2014-08-31T10:52:18.1Z</time>
      </trkpt>
      <trkpt lat="44.33726" lon="6.26973">
        <ele>1690</ele>
        <time>2014-08-31T10:52:24.1Z</time>
      </trkpt>
      <trkpt lat="44.33723" lon="6.26968">
        <ele>1691</ele>
        <time>2014-08-31T10:52:30.1Z</time>
      </trkpt>
      <trkpt lat="44.3372" lon="6.26963">
        <ele>1692</ele>
        <time>2014-08-31T10:52:36.1Z</time>
      </trkpt>
      <trkpt lat="44.33716" lon="6.26954">
        <ele>1693</ele>
        <time>2014-08-31T10:52:41.1Z</time>
      </trkpt>
      <trkpt lat="44.33713" lon="6.26943">
        <ele>1693</ele>
        <time>2014-08-31T10:52:47.1Z</time>
      </trkpt>
      <trkpt lat="44.33709" lon="6.26932">
        <ele>1694</ele>
        <time>2014-08-31T10:52:53.1Z</time>
      </trkpt>
      <trkpt lat="44.33708" lon="6.26923">
        <ele>1694</ele>
        <time>2014-08-31T10:52:59.1Z</time>
      </trkpt>
      <trkpt lat="44.33711" lon="6.26912">
        <ele>1695</ele>
        <time>2014-08-31T10:53:05.1Z</time>
      </trkpt>
      <trkpt lat="44.33713" lon="6.26901">
        <ele>1697</ele>
        <time>2014-08-31T10:53:10.1Z</time>
      </trkpt>
      <trkpt lat="44.33713" lon="6.26899">
        <ele>1697</ele>
        <time>2014-08-31T10:53:16.1Z</time>
      </trkpt>
      <trkpt lat="44.33712" lon="6.26898">
        <ele>1697</ele>
        <time>2014-08-31T10:53:21.1Z</time>
      </trkpt>
      <trkpt lat="44.33712" lon="6.26889">
        <ele>1696</ele>
        <time>2014-08-31T10:53:26.1Z</time>
      </trkpt>
      <trkpt lat="44.33712" lon="6.26866">
        <ele>1695</ele>
        <time>2014-08-31T10:53:32.1Z</time>
      </trkpt>
      <trkpt lat="44.33712" lon="6.26861">
        <ele>1695</ele>
        <time>2014-08-31T10:53:37.1Z</time>
      </trkpt>
      <trkpt lat="44.33712" lon="6.26857">
        <ele>1695</ele>
        <time>2014-08-31T10:53:43.1Z</time>
      </trkpt>
      <trkpt lat="44.33712" lon="6.26847">
        <ele>1696</ele>
        <time>2014-08-31T10:53:50.1Z</time>
      </trkpt>
      <trkpt lat="44.33715" lon="6.26837">
        <ele>1696</ele>
        <time>2014-08-31T10:53:56.1Z</time>
      </trkpt>
      <trkpt lat="44.33719" lon="6.26828">
        <ele>1697</ele>
        <time>2014-08-31T10:54:02.1Z</time>
      </trkpt>
      <trkpt lat="44.33718" lon="6.26817">
        <ele>1698</ele>
        <time>2014-08-31T10:54:08.1Z</time>
      </trkpt>
      <trkpt lat="44.33718" lon="6.26807">
        <ele>1699</ele>
        <time>2014-08-31T10:54:13.1Z</time>
      </trkpt>
      <trkpt lat="44.33717" lon="6.26799">
        <ele>1699</ele>
        <time>2014-08-31T10:54:19.1Z</time>
      </trkpt>
      <trkpt lat="44.33714" lon="6.26791">
        <ele>1701</ele>
        <time>2014-08-31T10:54:25.1Z</time>
      </trkpt>
      <trkpt lat="44.3371" lon="6.26783">
        <ele>1701</ele>
        <time>2014-08-31T10:54:30.1Z</time>
      </trkpt>
      <trkpt lat="44.33707" lon="6.26776">
        <ele>1702</ele>
        <time>2014-08-31T10:54:35.1Z</time>
      </trkpt>
      <trkpt lat="44.33702" lon="6.26767">
        <ele>1704</ele>
        <time>2014-08-31T10:54:42.1Z</time>
      </trkpt>
      <trkpt lat="44.33699" lon="6.26762">
        <ele>1704</ele>
        <time>2014-08-31T10:54:48.1Z</time>
      </trkpt>
      <trkpt lat="44.33697" lon="6.26763">
        <ele>1704</ele>
        <time>2014-08-31T10:54:53.1Z</time>
      </trkpt>
      <trkpt lat="44.33696" lon="6.26767">
        <ele>1706</ele>
        <time>2014-08-31T10:55:00.1Z</time>
      </trkpt>
      <trkpt lat="44.33694" lon="6.2677">
        <ele>1706</ele>
        <time>2014-08-31T10:55:05.1Z</time>
      </trkpt>
      <trkpt lat="44.33692" lon="6.26775">
        <ele>1707</ele>
        <time>2014-08-31T10:55:11.1Z</time>
      </trkpt>
      <trkpt lat="44.3369" lon="6.26778">
        <ele>1708</ele>
        <time>2014-08-31T10:55:17.1Z</time>
      </trkpt>
      <trkpt lat="44.33687" lon="6.26781">
        <ele>1709</ele>
        <time>2014-08-31T10:55:22.1Z</time>
      </trkpt>
      <trkpt lat="44.33687" lon="6.2678">
        <ele>1710</ele>
        <time>2014-08-31T10:55:29.1Z</time>
      </trkpt>
      <trkpt lat="44.33687" lon="6.2678">
        <ele>1710</ele>
        <time>2014-08-31T10:55:34.1Z</time>
      </trkpt>
      <trkpt lat="44.33687" lon="6.2678">
        <ele>1710</ele>
        <time>2014-08-31T10:55:43.1Z</time>
      </trkpt>
      <trkpt lat="44.33685" lon="6.26777">
        <ele>1710</ele>
        <time>2014-08-31T10:55:49.1Z</time>
      </trkpt>
      <trkpt lat="44.33681" lon="6.26776">
        <ele>1710</ele>
        <time>2014-08-31T10:55:54.1Z</time>
      </trkpt>
      <trkpt lat="44.33679" lon="6.26773">
        <ele>1711</ele>
        <time>2014-08-31T10:56:00.1Z</time>
      </trkpt>
      <trkpt lat="44.33677" lon="6.26767">
        <ele>1712</ele>
        <time>2014-08-31T10:56:05.1Z</time>
      </trkpt>
      <trkpt lat="44.33674" lon="6.26762">
        <ele>1713</ele>
        <time>2014-08-31T10:56:10.1Z</time>
      </trkpt>
      <trkpt lat="44.33672" lon="6.26758">
        <ele>1712</ele>
        <time>2014-08-31T10:56:16.1Z</time>
      </trkpt>
      <trkpt lat="44.33672" lon="6.26752">
        <ele>1713</ele>
        <time>2014-08-31T10:56:21.1Z</time>
      </trkpt>
      <trkpt lat="44.33673" lon="6.26749">
        <ele>1714</ele>
        <time>2014-08-31T10:56:26.1Z</time>
      </trkpt>
      <trkpt lat="44.33674" lon="6.26745">
        <ele>1714</ele>
        <time>2014-08-31T10:56:31.1Z</time>
      </trkpt>
      <trkpt lat="44.33675" lon="6.26741">
        <ele>1715</ele>
        <time>2014-08-31T10:56:37.1Z</time>
      </trkpt>
      <trkpt lat="44.33677" lon="6.26736">
        <ele>1716</ele>
        <time>2014-08-31T10:56:42.1Z</time>
      </trkpt>
      <trkpt lat="44.33677" lon="6.2673">
        <ele>1717</ele>
        <time>2014-08-31T10:56:48.1Z</time>
      </trkpt>
      <trkpt lat="44.33678" lon="6.26726">
        <ele>1717</ele>
        <time>2014-08-31T10:56:54.1Z</time>
      </trkpt>
      <trkpt lat="44.33679" lon="6.26721">
        <ele>1718</ele>
        <time>2014-08-31T10:56:59.1Z</time>
      </trkpt>
      <trkpt lat="44.33681" lon="6.26716">
        <ele>1718</ele>
        <time>2014-08-31T10:57:05.1Z</time>
      </trkpt>
      <trkpt lat="44.33682" lon="6.26711">
        <ele>1719</ele>
        <time>2014-08-31T10:57:11.1Z</time>
      </trkpt>
      <trkpt lat="44.33683" lon="6.26707">
        <ele>1719</ele>
        <time>2014-08-31T10:57:16.1Z</time>
      </trkpt>
      <trkpt lat="44.33685" lon="6.26703">
        <ele>1719</ele>
        <time>2014-08-31T10:57:21.1Z</time>
      </trkpt>
      <trkpt lat="44.33684" lon="6.26698">
        <ele>1721</ele>
        <time>2014-08-31T10:57:28.1Z</time>
      </trkpt>
      <trkpt lat="44.33684" lon="6.26693">
        <ele>1722</ele>
        <time>2014-08-31T10:57:34.1Z</time>
      </trkpt>
      <trkpt lat="44.33683" lon="6.26688">
        <ele>1723</ele>
        <time>2014-08-31T10:57:39.1Z</time>
      </trkpt>
      <trkpt lat="44.33681" lon="6.26682">
        <ele>1724</ele>
        <time>2014-08-31T10:57:45.1Z</time>
      </trkpt>
      <trkpt lat="44.33679" lon="6.26678">
        <ele>1724</ele>
        <time>2014-08-31T10:57:51.1Z</time>
      </trkpt>
      <trkpt lat="44.33676" lon="6.26674">
        <ele>1725</ele>
        <time>2014-08-31T10:57:56.1Z</time>
      </trkpt>
      <trkpt lat="44.33673" lon="6.2667">
        <ele>1726</ele>
        <time>2014-08-31T10:58:02.1Z</time>
      </trkpt>
      <trkpt lat="44.3367" lon="6.26666">
        <ele>1727</ele>
        <time>2014-08-31T10:58:08.1Z</time>
      </trkpt>
      <trkpt lat="44.33667" lon="6.26662">
        <ele>1727</ele>
        <time>2014-08-31T10:58:13.1Z</time>
      </trkpt>
      <trkpt lat="44.33664" lon="6.26659">
        <ele>1727</ele>
        <time>2014-08-31T10:58:18.1Z</time>
      </trkpt>
      <trkpt lat="44.33664" lon="6.26658">
        <ele>1728</ele>
        <time>2014-08-31T10:58:23.1Z</time>
      </trkpt>
      <trkpt lat="44.33664" lon="6.26658">
        <ele>1728</ele>
        <time>2014-08-31T10:58:32.1Z</time>
      </trkpt>
      <trkpt lat="44.33661" lon="6.26656">
        <ele>1729</ele>
        <time>2014-08-31T10:58:38.1Z</time>
      </trkpt>
      <trkpt lat="44.33657" lon="6.26653">
        <ele>1729</ele>
        <time>2014-08-31T10:58:44.1Z</time>
      </trkpt>
      <trkpt lat="44.33654" lon="6.26651">
        <ele>1729</ele>
        <time>2014-08-31T10:58:50.1Z</time>
      </trkpt>
      <trkpt lat="44.3365" lon="6.26649">
        <ele>1730</ele>
        <time>2014-08-31T10:58:55.1Z</time>
      </trkpt>
      <trkpt lat="44.33646" lon="6.26646">
        <ele>1730</ele>
        <time>2014-08-31T10:59:01.1Z</time>
      </trkpt>
      <trkpt lat="44.33642" lon="6.26645">
        <ele>1731</ele>
        <time>2014-08-31T10:59:06.1Z</time>
      </trkpt>
      <trkpt lat="44.33638" lon="6.26642">
        <ele>1732</ele>
        <time>2014-08-31T10:59:11.1Z</time>
      </trkpt>
      <trkpt lat="44.33636" lon="6.2664">
        <ele>1732</ele>
        <time>2014-08-31T10:59:16.1Z</time>
      </trkpt>
      <trkpt lat="44.3363" lon="6.26635">
        <ele>1732</ele>
        <time>2014-08-31T10:59:22.1Z</time>
      </trkpt>
      <trkpt lat="44.33618" lon="6.26627">
        <ele>1732</ele>
        <time>2014-08-31T10:59:27.1Z</time>
      </trkpt>
      <trkpt lat="44.3361" lon="6.26619">
        <ele>1731</ele>
        <time>2014-08-31T10:59:33.1Z</time>
      </trkpt>
      <trkpt lat="44.33602" lon="6.2661">
        <ele>1732</ele>
        <time>2014-08-31T10:59:38.1Z</time>
      </trkpt>
      <trkpt lat="44.33595" lon="6.266">
        <ele>1733</ele>
        <time>2014-08-31T10:59:44.1Z</time>
      </trkpt>
      <trkpt lat="44.33588" lon="6.2659">
        <ele>1733</ele>
        <time>2014-08-31T10:59:49.1Z</time>
      </trkpt>
      <trkpt lat="44.33583" lon="6.26584">
        <ele>1734</ele>
        <time>2014-08-31T10:59:55.1Z</time>
      </trkpt>
      <trkpt lat="44.33575" lon="6.26575">
        <ele>1734</ele>
        <time>2014-08-31T11:00:00.1Z</time>
      </trkpt>
      <trkpt lat="44.3357" lon="6.26567">
        <ele>1734</ele>
        <time>2014-08-31T11:00:05.1Z</time>
      </trkpt>
      <trkpt lat="44.33564" lon="6.26559">
        <ele>1735</ele>
        <time>2014-08-31T11:00:10.1Z</time>
      </trkpt>
      <trkpt lat="44.33559" lon="6.26553">
        <ele>1736</ele>
        <time>2014-08-31T11:00:16.1Z</time>
      </trkpt>
      <trkpt lat="44.33551" lon="6.26547">
        <ele>1737</ele>
        <time>2014-08-31T11:00:21.1Z</time>
      </trkpt>
      <trkpt lat="44.33543" lon="6.26541">
        <ele>1737</ele>
        <time>2014-08-31T11:00:27.1Z</time>
      </trkpt>
      <trkpt lat="44.33536" lon="6.26533">
        <ele>1738</ele>
        <time>2014-08-31T11:00:33.1Z</time>
      </trkpt>
      <trkpt lat="44.33529" lon="6.26524">
        <ele>1738</ele>
        <time>2014-08-31T11:00:39.1Z</time>
      </trkpt>
      <trkpt lat="44.33523" lon="6.26518">
        <ele>1739</ele>
        <time>2014-08-31T11:00:44.1Z</time>
      </trkpt>
      <trkpt lat="44.33517" lon="6.26513">
        <ele>1740</ele>
        <time>2014-08-31T11:00:49.1Z</time>
      </trkpt>
      <trkpt lat="44.3351" lon="6.26506">
        <ele>1741</ele>
        <time>2014-08-31T11:00:55.1Z</time>
      </trkpt>
      <trkpt lat="44.33501" lon="6.265">
        <ele>1741</ele>
        <time>2014-08-31T11:01:01.1Z</time>
      </trkpt>
      <trkpt lat="44.33495" lon="6.26492">
        <ele>1742</ele>
        <time>2014-08-31T11:01:07.1Z</time>
      </trkpt>
      <trkpt lat="44.3349" lon="6.26481">
        <ele>1743</ele>
        <time>2014-08-31T11:01:12.1Z</time>
      </trkpt>
      <trkpt lat="44.33485" lon="6.26472">
        <ele>1744</ele>
        <time>2014-08-31T11:01:18.1Z</time>
      </trkpt>
      <trkpt lat="44.3348" lon="6.26466">
        <ele>1745</ele>
        <time>2014-08-31T11:01:24.1Z</time>
      </trkpt>
      <trkpt lat="44.33475" lon="6.2646">
        <ele>1746</ele>
        <time>2014-08-31T11:01:29.1Z</time>
      </trkpt>
      <trkpt lat="44.3347" lon="6.26455">
        <ele>1748</ele>
        <time>2014-08-31T11:01:34.1Z</time>
      </trkpt>
      <trkpt lat="44.33464" lon="6.26449">
        <ele>1749</ele>
        <time>2014-08-31T11:01:39.1Z</time>
      </trkpt>
      <trkpt lat="44.33455" lon="6.26444">
        <ele>1750</ele>
        <time>2014-08-31T11:01:45.1Z</time>
      </trkpt>
      <trkpt lat="44.33455" lon="6.26444">
        <ele>1750</ele>
        <time>2014-08-31T11:01:51.1Z</time>
      </trkpt>
      <trkpt lat="44.33455" lon="6.26444">
        <ele>1750</ele>
        <time>2014-08-31T11:01:57.1Z</time>
      </trkpt>
      <trkpt lat="44.33454" lon="6.26446">
        <ele>1750</ele>
        <time>2014-08-31T11:02:02.1Z</time>
      </trkpt>
      <trkpt lat="44.33453" lon="6.26448">
        <ele>1749</ele>
        <time>2014-08-31T11:02:08.1Z</time>
      </trkpt>
      <trkpt lat="44.33453" lon="6.26448">
        <ele>1749</ele>
        <time>2014-08-31T11:02:13.1Z</time>
      </trkpt>
      <trkpt lat="44.33453" lon="6.2645">
        <ele>1749</ele>
        <time>2014-08-31T11:02:18.1Z</time>
      </trkpt>
      <trkpt lat="44.33453" lon="6.2645">
        <ele>1749</ele>
        <time>2014-08-31T11:02:24.1Z</time>
      </trkpt>
      <trkpt lat="44.33454" lon="6.2645">
        <ele>1748</ele>
        <time>2014-08-31T11:02:31.1Z</time>
      </trkpt>
      <trkpt lat="44.33454" lon="6.26451">
        <ele>1748</ele>
        <time>2014-08-31T11:02:36.1Z</time>
      </trkpt>
      <trkpt lat="44.33455" lon="6.26451">
        <ele>1748</ele>
        <time>2014-08-31T11:02:43.1Z</time>
      </trkpt>
      <trkpt lat="44.33455" lon="6.26448">
        <ele>1748</ele>
        <time>2014-08-31T11:02:48.1Z</time>
      </trkpt>
      <trkpt lat="44.33455" lon="6.26446">
        <ele>1749</ele>
        <time>2014-08-31T11:02:59.1Z</time>
      </trkpt>
      <trkpt lat="44.33456" lon="6.26446">
        <ele>1749</ele>
        <time>2014-08-31T11:03:04.1Z</time>
      </trkpt>
      <trkpt lat="44.33455" lon="6.26446">
        <ele>1749</ele>
        <time>2014-08-31T11:03:12.1Z</time>
      </trkpt>
      <trkpt lat="44.33456" lon="6.26444">
        <ele>1749</ele>
        <time>2014-08-31T11:03:18.1Z</time>
      </trkpt>
      <trkpt lat="44.33456" lon="6.26445">
        <ele>1750</ele>
        <time>2014-08-31T11:03:23.1Z</time>
      </trkpt>
      <trkpt lat="44.33457" lon="6.26445">
        <ele>1750</ele>
        <time>2014-08-31T11:03:29.1Z</time>
      </trkpt>
      <trkpt lat="44.33456" lon="6.26445">
        <ele>1749</ele>
        <time>2014-08-31T11:03:35.1Z</time>
      </trkpt>
      <trkpt lat="44.33456" lon="6.26445">
        <ele>1749</ele>
        <time>2014-08-31T11:03:41.1Z</time>
      </trkpt>
      <trkpt lat="44.33456" lon="6.26445">
        <ele>1749</ele>
        <time>2014-08-31T11:03:47.1Z</time>
      </trkpt>
      <trkpt lat="44.33456" lon="6.26445">
        <ele>1749</ele>
        <time>2014-08-31T11:03:53.1Z</time>
      </trkpt>
      <trkpt lat="44.33456" lon="6.26445">
        <ele>1749</ele>
        <time>2014-08-31T11:04:03.1Z</time>
      </trkpt>
      <trkpt lat="44.33457" lon="6.26446">
        <ele>1750</ele>
        <time>2014-08-31T11:04:08.1Z</time>
      </trkpt>
      <trkpt lat="44.33455" lon="6.26445">
        <ele>1750</ele>
        <time>2014-08-31T11:04:13.1Z</time>
      </trkpt>
      <trkpt lat="44.33454" lon="6.26445">
        <ele>1750</ele>
        <time>2014-08-31T11:04:21.1Z</time>
      </trkpt>
      <trkpt lat="44.33454" lon="6.26445">
        <ele>1750</ele>
        <time>2014-08-31T11:04:26.1Z</time>
      </trkpt>
      <trkpt lat="44.33453" lon="6.26445">
        <ele>1750</ele>
        <time>2014-08-31T11:04:32.1Z</time>
      </trkpt>
      <trkpt lat="44.33444" lon="6.26439">
        <ele>1751</ele>
        <time>2014-08-31T11:04:38.1Z</time>
      </trkpt>
      <trkpt lat="44.33438" lon="6.26434">
        <ele>1751</ele>
        <time>2014-08-31T11:04:44.1Z</time>
      </trkpt>
      <trkpt lat="44.33434" lon="6.26432">
        <ele>1750</ele>
        <time>2014-08-31T11:04:50.1Z</time>
      </trkpt>
      <trkpt lat="44.3343" lon="6.26429">
        <ele>1751</ele>
        <time>2014-08-31T11:04:55.1Z</time>
      </trkpt>
      <trkpt lat="44.33427" lon="6.26425">
        <ele>1751</ele>
        <time>2014-08-31T11:05:00.1Z</time>
      </trkpt>
      <trkpt lat="44.33424" lon="6.26419">
        <ele>1752</ele>
        <time>2014-08-31T11:05:06.1Z</time>
      </trkpt>
      <trkpt lat="44.33422" lon="6.26415">
        <ele>1753</ele>
        <time>2014-08-31T11:05:11.1Z</time>
      </trkpt>
      <trkpt lat="44.33419" lon="6.26413">
        <ele>1754</ele>
        <time>2014-08-31T11:05:16.1Z</time>
      </trkpt>
      <trkpt lat="44.33414" lon="6.26412">
        <ele>1755</ele>
        <time>2014-08-31T11:05:22.1Z</time>
      </trkpt>
      <trkpt lat="44.3341" lon="6.26411">
        <ele>1755</ele>
        <time>2014-08-31T11:05:27.1Z</time>
      </trkpt>
      <trkpt lat="44.33406" lon="6.26409">
        <ele>1756</ele>
        <time>2014-08-31T11:05:32.1Z</time>
      </trkpt>
      <trkpt lat="44.33401" lon="6.26409">
        <ele>1756</ele>
        <time>2014-08-31T11:05:38.1Z</time>
      </trkpt>
      <trkpt lat="44.334" lon="6.26413">
        <ele>1756</ele>
        <time>2014-08-31T11:05:43.1Z</time>
      </trkpt>
      <trkpt lat="44.33397" lon="6.26417">
        <ele>1757</ele>
        <time>2014-08-31T11:05:48.1Z</time>
      </trkpt>
      <trkpt lat="44.33393" lon="6.2642">
        <ele>1758</ele>
        <time>2014-08-31T11:05:54.1Z</time>
      </trkpt>
      <trkpt lat="44.3339" lon="6.26419">
        <ele>1759</ele>
        <time>2014-08-31T11:05:59.1Z</time>
      </trkpt>
      <trkpt lat="44.33386" lon="6.26418">
        <ele>1759</ele>
        <time>2014-08-31T11:06:05.1Z</time>
      </trkpt>
      <trkpt lat="44.33382" lon="6.26418">
        <ele>1760</ele>
        <time>2014-08-31T11:06:11.1Z</time>
      </trkpt>
      <trkpt lat="44.33382" lon="6.26418">
        <ele>1760</ele>
        <time>2014-08-31T11:06:16.1Z</time>
      </trkpt>
      <trkpt lat="44.33378" lon="6.26419">
        <ele>1760</ele>
        <time>2014-08-31T11:06:22.1Z</time>
      </trkpt>
      <trkpt lat="44.33373" lon="6.26421">
        <ele>1761</ele>
        <time>2014-08-31T11:06:28.1Z</time>
      </trkpt>
      <trkpt lat="44.33369" lon="6.26421">
        <ele>1761</ele>
        <time>2014-08-31T11:06:34.1Z</time>
      </trkpt>
      <trkpt lat="44.33364" lon="6.26419">
        <ele>1762</ele>
        <time>2014-08-31T11:06:39.1Z</time>
      </trkpt>
      <trkpt lat="44.33358" lon="6.26418">
        <ele>1761</ele>
        <time>2014-08-31T11:06:45.1Z</time>
      </trkpt>
      <trkpt lat="44.33354" lon="6.26414">
        <ele>1762</ele>
        <time>2014-08-31T11:06:50.1Z</time>
      </trkpt>
      <trkpt lat="44.3335" lon="6.26413">
        <ele>1762</ele>
        <time>2014-08-31T11:06:56.1Z</time>
      </trkpt>
      <trkpt lat="44.33345" lon="6.26413">
        <ele>1763</ele>
        <time>2014-08-31T11:07:01.1Z</time>
      </trkpt>
      <trkpt lat="44.3334" lon="6.26414">
        <ele>1764</ele>
        <time>2014-08-31T11:07:07.1Z</time>
      </trkpt>
      <trkpt lat="44.33336" lon="6.26415">
        <ele>1765</ele>
        <time>2014-08-31T11:07:13.1Z</time>
      </trkpt>
      <trkpt lat="44.33332" lon="6.26416">
        <ele>1765</ele>
        <time>2014-08-31T11:07:18.1Z</time>
      </trkpt>
      <trkpt lat="44.33327" lon="6.26418">
        <ele>1766</ele>
        <time>2014-08-31T11:07:24.1Z</time>
      </trkpt>
      <trkpt lat="44.33323" lon="6.26419">
        <ele>1767</ele>
        <time>2014-08-31T11:07:30.1Z</time>
      </trkpt>
      <trkpt lat="44.33318" lon="6.26421">
        <ele>1768</ele>
        <time>2014-08-31T11:07:36.1Z</time>
      </trkpt>
      <trkpt lat="44.33313" lon="6.26422">
        <ele>1768</ele>
        <time>2014-08-31T11:07:42.1Z</time>
      </trkpt>
      <trkpt lat="44.33311" lon="6.26423">
        <ele>1769</ele>
        <time>2014-08-31T11:07:49.1Z</time>
      </trkpt>
      <trkpt lat="44.33311" lon="6.26422">
        <ele>1769</ele>
        <time>2014-08-31T11:08:03.1Z</time>
      </trkpt>
      <trkpt lat="44.33311" lon="6.26422">
        <ele>1770</ele>
        <time>2014-08-31T11:08:13.1Z</time>
      </trkpt>
      <trkpt lat="44.3331" lon="6.26423">
        <ele>1769</ele>
        <time>2014-08-31T11:08:19.1Z</time>
      </trkpt>
      <trkpt lat="44.33307" lon="6.26423">
        <ele>1769</ele>
        <time>2014-08-31T11:08:24.1Z</time>
      </trkpt>
      <trkpt lat="44.33296" lon="6.26427">
        <ele>1769</ele>
        <time>2014-08-31T11:08:29.1Z</time>
      </trkpt>
      <trkpt lat="44.33287" lon="6.26427">
        <ele>1770</ele>
        <time>2014-08-31T11:08:34.1Z</time>
      </trkpt>
      <trkpt lat="44.33278" lon="6.26427">
        <ele>1771</ele>
        <time>2014-08-31T11:08:40.1Z</time>
      </trkpt>
      <trkpt lat="44.33267" lon="6.2643">
        <ele>1771</ele>
        <time>2014-08-31T11:08:46.1Z</time>
      </trkpt>
      <trkpt lat="44.33259" lon="6.26429">
        <ele>1772</ele>
        <time>2014-08-31T11:08:51.1Z</time>
      </trkpt>
      <trkpt lat="44.33249" lon="6.26431">
        <ele>1772</ele>
        <time>2014-08-31T11:08:57.1Z</time>
      </trkpt>
      <trkpt lat="44.33239" lon="6.26436">
        <ele>1772</ele>
        <time>2014-08-31T11:09:03.1Z</time>
      </trkpt>
      <trkpt lat="44.33232" lon="6.26443">
        <ele>1773</ele>
        <time>2014-08-31T11:09:08.1Z</time>
      </trkpt>
      <trkpt lat="44.33232" lon="6.26452">
        <ele>1773</ele>
        <time>2014-08-31T11:09:14.1Z</time>
      </trkpt>
      <trkpt lat="44.33232" lon="6.26453">
        <ele>1774</ele>
        <time>2014-08-31T11:09:19.1Z</time>
      </trkpt>
      <trkpt lat="44.33231" lon="6.26454">
        <ele>1773</ele>
        <time>2014-08-31T11:09:24.1Z</time>
      </trkpt>
      <trkpt lat="44.33231" lon="6.26457">
        <ele>1773</ele>
        <time>2014-08-31T11:09:30.1Z</time>
      </trkpt>
      <trkpt lat="44.33231" lon="6.26461">
        <ele>1772</ele>
        <time>2014-08-31T11:09:36.1Z</time>
      </trkpt>
      <trkpt lat="44.33229" lon="6.26464">
        <ele>1772</ele>
        <time>2014-08-31T11:09:42.1Z</time>
      </trkpt>
      <trkpt lat="44.33228" lon="6.26467">
        <ele>1773</ele>
        <time>2014-08-31T11:09:47.1Z</time>
      </trkpt>
      <trkpt lat="44.33228" lon="6.2647">
        <ele>1773</ele>
        <time>2014-08-31T11:09:53.1Z</time>
      </trkpt>
      <trkpt lat="44.33228" lon="6.26473">
        <ele>1773</ele>
        <time>2014-08-31T11:09:59.1Z</time>
      </trkpt>
      <trkpt lat="44.33227" lon="6.26475">
        <ele>1773</ele>
        <time>2014-08-31T11:10:07.1Z</time>
      </trkpt>
      <trkpt lat="44.33227" lon="6.26477">
        <ele>1773</ele>
        <time>2014-08-31T11:10:12.1Z</time>
      </trkpt>
      <trkpt lat="44.33226" lon="6.26478">
        <ele>1772</ele>
        <time>2014-08-31T11:10:17.1Z</time>
      </trkpt>
      <trkpt lat="44.33224" lon="6.26478">
        <ele>1772</ele>
        <time>2014-08-31T11:10:23.1Z</time>
      </trkpt>
      <trkpt lat="44.33224" lon="6.26477">
        <ele>1771</ele>
        <time>2014-08-31T11:10:28.1Z</time>
      </trkpt>
      <trkpt lat="44.33226" lon="6.26477">
        <ele>1770</ele>
        <time>2014-08-31T11:10:34.1Z</time>
      </trkpt>
      <trkpt lat="44.33227" lon="6.26475">
        <ele>1771</ele>
        <time>2014-08-31T11:10:39.1Z</time>
      </trkpt>
      <trkpt lat="44.33228" lon="6.26473">
        <ele>1773</ele>
        <time>2014-08-31T11:10:44.1Z</time>
      </trkpt>
      <trkpt lat="44.33229" lon="6.26471">
        <ele>1773</ele>
        <time>2014-08-31T11:10:50.1Z</time>
      </trkpt>
      <trkpt lat="44.33228" lon="6.26474">
        <ele>1773</ele>
        <time>2014-08-31T11:10:55.1Z</time>
      </trkpt>
      <trkpt lat="44.33227" lon="6.26476">
        <ele>1773</ele>
        <time>2014-08-31T11:11:00.1Z</time>
      </trkpt>
      <trkpt lat="44.33226" lon="6.26477">
        <ele>1772</ele>
        <time>2014-08-31T11:11:05.1Z</time>
      </trkpt>
      <trkpt lat="44.33226" lon="6.26477">
        <ele>1771</ele>
        <time>2014-08-31T11:11:11.1Z</time>
      </trkpt>
      <trkpt lat="44.33225" lon="6.26477">
        <ele>1771</ele>
        <time>2014-08-31T11:11:16.1Z</time>
      </trkpt>
      <trkpt lat="44.33223" lon="6.26474">
        <ele>1771</ele>
        <time>2014-08-31T11:11:21.1Z</time>
      </trkpt>
      <trkpt lat="44.33221" lon="6.26472">
        <ele>1770</ele>
        <time>2014-08-31T11:11:27.1Z</time>
      </trkpt>
      <trkpt lat="44.33221" lon="6.26472">
        <ele>1771</ele>
        <time>2014-08-31T11:11:32.1Z</time>
      </trkpt>
      <trkpt lat="44.33221" lon="6.26471">
        <ele>1770</ele>
        <time>2014-08-31T11:11:38.1Z</time>
      </trkpt>
      <trkpt lat="44.3322" lon="6.2647">
        <ele>1770</ele>
        <time>2014-08-31T11:11:44.1Z</time>
      </trkpt>
      <trkpt lat="44.33218" lon="6.26468">
        <ele>1771</ele>
        <time>2014-08-31T11:11:49.1Z</time>
      </trkpt>
      <trkpt lat="44.33214" lon="6.26467">
        <ele>1772</ele>
        <time>2014-08-31T11:11:54.1Z</time>
      </trkpt>
      <trkpt lat="44.33214" lon="6.26466">
        <ele>1774</ele>
        <time>2014-08-31T11:12:02.1Z</time>
      </trkpt>
      <trkpt lat="44.33213" lon="6.26466">
        <ele>1773</ele>
        <time>2014-08-31T11:12:07.1Z</time>
      </trkpt>
      <trkpt lat="44.3321" lon="6.26466">
        <ele>1774</ele>
        <time>2014-08-31T11:12:12.1Z</time>
      </trkpt>
      <trkpt lat="44.33205" lon="6.26466">
        <ele>1775</ele>
        <time>2014-08-31T11:12:18.1Z</time>
      </trkpt>
      <trkpt lat="44.33202" lon="6.26467">
        <ele>1776</ele>
        <time>2014-08-31T11:12:25.1Z</time>
      </trkpt>
      <trkpt lat="44.332" lon="6.26468">
        <ele>1776</ele>
        <time>2014-08-31T11:12:31.1Z</time>
      </trkpt>
      <trkpt lat="44.33195" lon="6.26471">
        <ele>1774</ele>
        <time>2014-08-31T11:12:36.1Z</time>
      </trkpt>
      <trkpt lat="44.33192" lon="6.26472">
        <ele>1774</ele>
        <time>2014-08-31T11:12:42.1Z</time>
      </trkpt>
      <trkpt lat="44.33189" lon="6.26474">
        <ele>1774</ele>
        <time>2014-08-31T11:12:47.1Z</time>
      </trkpt>
      <trkpt lat="44.33184" lon="6.26471">
        <ele>1775</ele>
        <time>2014-08-31T11:12:52.1Z</time>
      </trkpt>
      <trkpt lat="44.33179" lon="6.26468">
        <ele>1775</ele>
        <time>2014-08-31T11:12:58.1Z</time>
      </trkpt>
      <trkpt lat="44.33173" lon="6.26468">
        <ele>1775</ele>
        <time>2014-08-31T11:13:04.1Z</time>
      </trkpt>
      <trkpt lat="44.33168" lon="6.2647">
        <ele>1776</ele>
        <time>2014-08-31T11:13:10.1Z</time>
      </trkpt>
      <trkpt lat="44.33162" lon="6.26471">
        <ele>1776</ele>
        <time>2014-08-31T11:13:16.1Z</time>
      </trkpt>
      <trkpt lat="44.33157" lon="6.26472">
        <ele>1776</ele>
        <time>2014-08-31T11:13:21.1Z</time>
      </trkpt>
      <trkpt lat="44.33152" lon="6.26472">
        <ele>1777</ele>
        <time>2014-08-31T11:13:27.1Z</time>
      </trkpt>
      <trkpt lat="44.33147" lon="6.26472">
        <ele>1778</ele>
        <time>2014-08-31T11:13:32.1Z</time>
      </trkpt>
      <trkpt lat="44.33147" lon="6.26471">
        <ele>1778</ele>
        <time>2014-08-31T11:13:37.1Z</time>
      </trkpt>
      <trkpt lat="44.33143" lon="6.26468">
        <ele>1778</ele>
        <time>2014-08-31T11:13:43.1Z</time>
      </trkpt>
      <trkpt lat="44.33142" lon="6.26465">
        <ele>1777</ele>
        <time>2014-08-31T11:13:48.1Z</time>
      </trkpt>
      <trkpt lat="44.3314" lon="6.26458">
        <ele>1778</ele>
        <time>2014-08-31T11:13:54.1Z</time>
      </trkpt>
      <trkpt lat="44.33139" lon="6.26452">
        <ele>1778</ele>
        <time>2014-08-31T11:13:59.1Z</time>
      </trkpt>
      <trkpt lat="44.33138" lon="6.26445">
        <ele>1778</ele>
        <time>2014-08-31T11:14:04.1Z</time>
      </trkpt>
      <trkpt lat="44.33136" lon="6.26439">
        <ele>1778</ele>
        <time>2014-08-31T11:14:10.1Z</time>
      </trkpt>
      <trkpt lat="44.33136" lon="6.26434">
        <ele>1778</ele>
        <time>2014-08-31T11:14:15.1Z</time>
      </trkpt>
      <trkpt lat="44.33135" lon="6.26429">
        <ele>1778</ele>
        <time>2014-08-31T11:14:20.1Z</time>
      </trkpt>
      <trkpt lat="44.33134" lon="6.26424">
        <ele>1779</ele>
        <time>2014-08-31T11:14:26.1Z</time>
      </trkpt>
      <trkpt lat="44.33133" lon="6.26419">
        <ele>1779</ele>
        <time>2014-08-31T11:14:32.1Z</time>
      </trkpt>
      <trkpt lat="44.33132" lon="6.26415">
        <ele>1779</ele>
        <time>2014-08-31T11:14:37.1Z</time>
      </trkpt>
      <trkpt lat="44.33131" lon="6.26412">
        <ele>1779</ele>
        <time>2014-08-31T11:14:43.1Z</time>
      </trkpt>
      <trkpt lat="44.33127" lon="6.26408">
        <ele>1779</ele>
        <time>2014-08-31T11:14:48.1Z</time>
      </trkpt>
      <trkpt lat="44.33123" lon="6.26404">
        <ele>1780</ele>
        <time>2014-08-31T11:14:53.1Z</time>
      </trkpt>
      <trkpt lat="44.33119" lon="6.26399">
        <ele>1781</ele>
        <time>2014-08-31T11:15:00.1Z</time>
      </trkpt>
      <trkpt lat="44.33114" lon="6.26395">
        <ele>1781</ele>
        <time>2014-08-31T11:15:05.1Z</time>
      </trkpt>
      <trkpt lat="44.33111" lon="6.26391">
        <ele>1782</ele>
        <time>2014-08-31T11:15:10.1Z</time>
      </trkpt>
      <trkpt lat="44.33109" lon="6.26388">
        <ele>1782</ele>
        <time>2014-08-31T11:15:15.1Z</time>
      </trkpt>
      <trkpt lat="44.33109" lon="6.26386">
        <ele>1782</ele>
        <time>2014-08-31T11:15:21.1Z</time>
      </trkpt>
      <trkpt lat="44.33106" lon="6.2638">
        <ele>1782</ele>
        <time>2014-08-31T11:15:27.1Z</time>
      </trkpt>
      <trkpt lat="44.33105" lon="6.26374">
        <ele>1783</ele>
        <time>2014-08-31T11:15:32.1Z</time>
      </trkpt>
      <trkpt lat="44.33104" lon="6.26368">
        <ele>1783</ele>
        <time>2014-08-31T11:15:37.1Z</time>
      </trkpt>
      <trkpt lat="44.33102" lon="6.2636">
        <ele>1783</ele>
        <time>2014-08-31T11:15:43.1Z</time>
      </trkpt>
      <trkpt lat="44.33101" lon="6.26352">
        <ele>1783</ele>
        <time>2014-08-31T11:15:48.1Z</time>
      </trkpt>
      <trkpt lat="44.33098" lon="6.26344">
        <ele>1783</ele>
        <time>2014-08-31T11:15:54.1Z</time>
      </trkpt>
      <trkpt lat="44.33097" lon="6.2634">
        <ele>1782</ele>
        <time>2014-08-31T11:15:59.1Z</time>
      </trkpt>
      <trkpt lat="44.33095" lon="6.26325">
        <ele>1782</ele>
        <time>2014-08-31T11:16:05.1Z</time>
      </trkpt>
      <trkpt lat="44.33091" lon="6.26307">
        <ele>1780</ele>
        <time>2014-08-31T11:16:11.1Z</time>
      </trkpt>
      <trkpt lat="44.33093" lon="6.2628">
        <ele>1779</ele>
        <time>2014-08-31T11:16:16.1Z</time>
      </trkpt>
      <trkpt lat="44.33091" lon="6.26241">
        <ele>1775</ele>
        <time>2014-08-31T11:16:21.1Z</time>
      </trkpt>
      <trkpt lat="44.33082" lon="6.26199">
        <ele>1772</ele>
        <time>2014-08-31T11:16:26.1Z</time>
      </trkpt>
      <trkpt lat="44.33081" lon="6.26179">
        <ele>1772</ele>
        <time>2014-08-31T11:16:32.1Z</time>
      </trkpt>
      <trkpt lat="44.33081" lon="6.26164">
        <ele>1772</ele>
        <time>2014-08-31T11:16:38.1Z</time>
      </trkpt>
      <trkpt lat="44.3308" lon="6.26149">
        <ele>1772</ele>
        <time>2014-08-31T11:16:44.1Z</time>
      </trkpt>
      <trkpt lat="44.33076" lon="6.26139">
        <ele>1772</ele>
        <time>2014-08-31T11:16:49.1Z</time>
      </trkpt>
      <trkpt lat="44.33071" lon="6.26127">
        <ele>1772</ele>
        <time>2014-08-31T11:16:55.1Z</time>
      </trkpt>
      <trkpt lat="44.33065" lon="6.26122">
        <ele>1773</ele>
        <time>2014-08-31T11:17:00.1Z</time>
      </trkpt>
      <trkpt lat="44.33059" lon="6.26122">
        <ele>1774</ele>
        <time>2014-08-31T11:17:06.1Z</time>
      </trkpt>
      <trkpt lat="44.33051" lon="6.26116">
        <ele>1774</ele>
        <time>2014-08-31T11:17:11.1Z</time>
      </trkpt>
      <trkpt lat="44.33046" lon="6.26109">
        <ele>1775</ele>
        <time>2014-08-31T11:17:16.1Z</time>
      </trkpt>
      <trkpt lat="44.33043" lon="6.26106">
        <ele>1775</ele>
        <time>2014-08-31T11:17:21.1Z</time>
      </trkpt>
      <trkpt lat="44.33043" lon="6.26105">
        <ele>1775</ele>
        <time>2014-08-31T11:17:27.1Z</time>
      </trkpt>
      <trkpt lat="44.33043" lon="6.26106">
        <ele>1775</ele>
        <time>2014-08-31T11:17:32.1Z</time>
      </trkpt>
      <trkpt lat="44.33043" lon="6.26106">
        <ele>1775</ele>
        <time>2014-08-31T11:17:39.1Z</time>
      </trkpt>
      <trkpt lat="44.33043" lon="6.26106">
        <ele>1775</ele>
        <time>2014-08-31T11:17:44.1Z</time>
      </trkpt>
      <trkpt lat="44.3304" lon="6.261">
        <ele>1776</ele>
        <time>2014-08-31T11:17:50.1Z</time>
      </trkpt>
      <trkpt lat="44.33036" lon="6.26094">
        <ele>1776</ele>
        <time>2014-08-31T11:17:56.1Z</time>
      </trkpt>
      <trkpt lat="44.33033" lon="6.2609">
        <ele>1777</ele>
        <time>2014-08-31T11:18:01.1Z</time>
      </trkpt>
      <trkpt lat="44.33031" lon="6.26085">
        <ele>1777</ele>
        <time>2014-08-31T11:18:06.1Z</time>
      </trkpt>
      <trkpt lat="44.33028" lon="6.26079">
        <ele>1777</ele>
        <time>2014-08-31T11:18:12.1Z</time>
      </trkpt>
      <trkpt lat="44.33026" lon="6.26076">
        <ele>1777</ele>
        <time>2014-08-31T11:18:17.1Z</time>
      </trkpt>
      <trkpt lat="44.33022" lon="6.26068">
        <ele>1778</ele>
        <time>2014-08-31T11:18:22.1Z</time>
      </trkpt>
      <trkpt lat="44.33015" lon="6.26061">
        <ele>1778</ele>
        <time>2014-08-31T11:18:28.1Z</time>
      </trkpt>
      <trkpt lat="44.33009" lon="6.26056">
        <ele>1778</ele>
        <time>2014-08-31T11:18:33.1Z</time>
      </trkpt>
      <trkpt lat="44.33002" lon="6.26047">
        <ele>1778</ele>
        <time>2014-08-31T11:18:38.1Z</time>
      </trkpt>
      <trkpt lat="44.32996" lon="6.26034">
        <ele>1778</ele>
        <time>2014-08-31T11:18:44.1Z</time>
      </trkpt>
      <trkpt lat="44.32989" lon="6.26024">
        <ele>1777</ele>
        <time>2014-08-31T11:18:49.1Z</time>
      </trkpt>
      <trkpt lat="44.32981" lon="6.26013">
        <ele>1778</ele>
        <time>2014-08-31T11:18:55.1Z</time>
      </trkpt>
      <trkpt lat="44.32975" lon="6.26004">
        <ele>1778</ele>
        <time>2014-08-31T11:19:00.1Z</time>
      </trkpt>
      <trkpt lat="44.32969" lon="6.25995">
        <ele>1779</ele>
        <time>2014-08-31T11:19:05.1Z</time>
      </trkpt>
      <trkpt lat="44.32962" lon="6.2599">
        <ele>1781</ele>
        <time>2014-08-31T11:19:11.1Z</time>
      </trkpt>
      <trkpt lat="44.32956" lon="6.25985">
        <ele>1781</ele>
        <time>2014-08-31T11:19:16.1Z</time>
      </trkpt>
      <trkpt lat="44.32951" lon="6.2598">
        <ele>1781</ele>
        <time>2014-08-31T11:19:22.1Z</time>
      </trkpt>
      <trkpt lat="44.32944" lon="6.25973">
        <ele>1782</ele>
        <time>2014-08-31T11:19:27.1Z</time>
      </trkpt>
      <trkpt lat="44.32938" lon="6.25967">
        <ele>1783</ele>
        <time>2014-08-31T11:19:33.1Z</time>
      </trkpt>
      <trkpt lat="44.32932" lon="6.25963">
        <ele>1784</ele>
        <time>2014-08-31T11:19:39.1Z</time>
      </trkpt>
      <trkpt lat="44.32925" lon="6.25961">
        <ele>1785</ele>
        <time>2014-08-31T11:19:44.1Z</time>
      </trkpt>
      <trkpt lat="44.32919" lon="6.25961">
        <ele>1785</ele>
        <time>2014-08-31T11:19:50.1Z</time>
      </trkpt>
      <trkpt lat="44.32911" lon="6.25962">
        <ele>1786</ele>
        <time>2014-08-31T11:19:56.1Z</time>
      </trkpt>
      <trkpt lat="44.32905" lon="6.25958">
        <ele>1786</ele>
        <time>2014-08-31T11:20:01.1Z</time>
      </trkpt>
      <trkpt lat="44.32899" lon="6.25954">
        <ele>1786</ele>
        <time>2014-08-31T11:20:06.1Z</time>
      </trkpt>
      <trkpt lat="44.32891" lon="6.25951">
        <ele>1787</ele>
        <time>2014-08-31T11:20:12.1Z</time>
      </trkpt>
      <trkpt lat="44.32884" lon="6.25947">
        <ele>1786</ele>
        <time>2014-08-31T11:20:18.1Z</time>
      </trkpt>
      <trkpt lat="44.32877" lon="6.25942">
        <ele>1786</ele>
        <time>2014-08-31T11:20:23.1Z</time>
      </trkpt>
      <trkpt lat="44.32869" lon="6.25939">
        <ele>1786</ele>
        <time>2014-08-31T11:20:29.1Z</time>
      </trkpt>
      <trkpt lat="44.32861" lon="6.25937">
        <ele>1787</ele>
        <time>2014-08-31T11:20:35.1Z</time>
      </trkpt>
      <trkpt lat="44.32855" lon="6.25932">
        <ele>1788</ele>
        <time>2014-08-31T11:20:41.1Z</time>
      </trkpt>
      <trkpt lat="44.32848" lon="6.25925">
        <ele>1788</ele>
        <time>2014-08-31T11:20:47.1Z</time>
      </trkpt>
      <trkpt lat="44.32843" lon="6.25919">
        <ele>1788</ele>
        <time>2014-08-31T11:20:52.1Z</time>
      </trkpt>
      <trkpt lat="44.32836" lon="6.25899">
        <ele>1788</ele>
        <time>2014-08-31T11:20:58.1Z</time>
      </trkpt>
      <trkpt lat="44.32833" lon="6.25888">
        <ele>1787</ele>
        <time>2014-08-31T11:21:03.1Z</time>
      </trkpt>
      <trkpt lat="44.32832" lon="6.25877">
        <ele>1788</ele>
        <time>2014-08-31T11:21:09.1Z</time>
      </trkpt>
      <trkpt lat="44.32832" lon="6.25868">
        <ele>1788</ele>
        <time>2014-08-31T11:21:14.1Z</time>
      </trkpt>
      <trkpt lat="44.32835" lon="6.25859">
        <ele>1789</ele>
        <time>2014-08-31T11:21:19.1Z</time>
      </trkpt>
      <trkpt lat="44.32836" lon="6.25851">
        <ele>1789</ele>
        <time>2014-08-31T11:21:25.1Z</time>
      </trkpt>
      <trkpt lat="44.32837" lon="6.25851">
        <ele>1791</ele>
        <time>2014-08-31T11:21:30.1Z</time>
      </trkpt>
      <trkpt lat="44.3284" lon="6.25845">
        <ele>1791</ele>
        <time>2014-08-31T11:21:36.1Z</time>
      </trkpt>
      <trkpt lat="44.32843" lon="6.25841">
        <ele>1790</ele>
        <time>2014-08-31T11:21:42.1Z</time>
      </trkpt>
      <trkpt lat="44.32848" lon="6.25837">
        <ele>1791</ele>
        <time>2014-08-31T11:21:47.1Z</time>
      </trkpt>
      <trkpt lat="44.32852" lon="6.25833">
        <ele>1791</ele>
        <time>2014-08-31T11:21:53.1Z</time>
      </trkpt>
      <trkpt lat="44.32856" lon="6.25833">
        <ele>1791</ele>
        <time>2014-08-31T11:21:58.1Z</time>
      </trkpt>
      <trkpt lat="44.32861" lon="6.25831">
        <ele>1792</ele>
        <time>2014-08-31T11:22:04.1Z</time>
      </trkpt>
      <trkpt lat="44.32862" lon="6.25826">
        <ele>1793</ele>
        <time>2014-08-31T11:22:10.1Z</time>
      </trkpt>
      <trkpt lat="44.32861" lon="6.2582">
        <ele>1794</ele>
        <time>2014-08-31T11:22:15.1Z</time>
      </trkpt>
      <trkpt lat="44.3286" lon="6.25813">
        <ele>1794</ele>
        <time>2014-08-31T11:22:21.1Z</time>
      </trkpt>
      <trkpt lat="44.3286" lon="6.25807">
        <ele>1794</ele>
        <time>2014-08-31T11:22:26.1Z</time>
      </trkpt>
      <trkpt lat="44.3286" lon="6.25799">
        <ele>1796</ele>
        <time>2014-08-31T11:22:32.1Z</time>
      </trkpt>
      <trkpt lat="44.3286" lon="6.25794">
        <ele>1796</ele>
        <time>2014-08-31T11:22:37.1Z</time>
      </trkpt>
      <trkpt lat="44.32859" lon="6.25787">
        <ele>1797</ele>
        <time>2014-08-31T11:22:43.1Z</time>
      </trkpt>
      <trkpt lat="44.32859" lon="6.25787">
        <ele>1797</ele>
        <time>2014-08-31T11:22:50.1Z</time>
      </trkpt>
      <trkpt lat="44.32859" lon="6.25787">
        <ele>1797</ele>
        <time>2014-08-31T11:22:55.1Z</time>
      </trkpt>
      <trkpt lat="44.32859" lon="6.25787">
        <ele>1797</ele>
        <time>2014-08-31T11:23:00.1Z</time>
      </trkpt>
      <trkpt lat="44.32859" lon="6.25787">
        <ele>1797</ele>
        <time>2014-08-31T11:23:06.1Z</time>
      </trkpt>
      <trkpt lat="44.32859" lon="6.25787">
        <ele>1796</ele>
        <time>2014-08-31T11:23:19.1Z</time>
      </trkpt>
      <trkpt lat="44.32859" lon="6.25787">
        <ele>1797</ele>
        <time>2014-08-31T11:23:34.1Z</time>
      </trkpt>
      <trkpt lat="44.32859" lon="6.25787">
        <ele>1797</ele>
        <time>2014-08-31T11:23:40.1Z</time>
      </trkpt>
      <trkpt lat="44.32859" lon="6.25787">
        <ele>1797</ele>
        <time>2014-08-31T11:23:49.1Z</time>
      </trkpt>
      <trkpt lat="44.32859" lon="6.25787">
        <ele>1797</ele>
        <time>2014-08-31T11:23:58.1Z</time>
      </trkpt>
      <trkpt lat="44.32857" lon="6.25783">
        <ele>1797</ele>
        <time>2014-08-31T11:24:04.1Z</time>
      </trkpt>
      <trkpt lat="44.32857" lon="6.25782">
        <ele>1798</ele>
        <time>2014-08-31T11:24:10.1Z</time>
      </trkpt>
      <trkpt lat="44.32853" lon="6.25781">
        <ele>1798</ele>
        <time>2014-08-31T11:24:16.1Z</time>
      </trkpt>
      <trkpt lat="44.32848" lon="6.25782">
        <ele>1798</ele>
        <time>2014-08-31T11:24:22.1Z</time>
      </trkpt>
      <trkpt lat="44.32844" lon="6.25782">
        <ele>1799</ele>
        <time>2014-08-31T11:24:27.1Z</time>
      </trkpt>
      <trkpt lat="44.32841" lon="6.25783">
        <ele>1800</ele>
        <time>2014-08-31T11:24:32.1Z</time>
      </trkpt>
      <trkpt lat="44.32838" lon="6.25783">
        <ele>1801</ele>
        <time>2014-08-31T11:24:37.1Z</time>
      </trkpt>
      <trkpt lat="44.32834" lon="6.25781">
        <ele>1802</ele>
        <time>2014-08-31T11:24:43.1Z</time>
      </trkpt>
      <trkpt lat="44.3283" lon="6.25779">
        <ele>1803</ele>
        <time>2014-08-31T11:24:48.1Z</time>
      </trkpt>
      <trkpt lat="44.32827" lon="6.25777">
        <ele>1804</ele>
        <time>2014-08-31T11:24:53.1Z</time>
      </trkpt>
      <trkpt lat="44.32824" lon="6.25774">
        <ele>1805</ele>
        <time>2014-08-31T11:24:59.1Z</time>
      </trkpt>
      <trkpt lat="44.3282" lon="6.25771">
        <ele>1805</ele>
        <time>2014-08-31T11:25:05.1Z</time>
      </trkpt>
      <trkpt lat="44.32817" lon="6.25768">
        <ele>1806</ele>
        <time>2014-08-31T11:25:11.1Z</time>
      </trkpt>
      <trkpt lat="44.32815" lon="6.25764">
        <ele>1807</ele>
        <time>2014-08-31T11:25:16.1Z</time>
      </trkpt>
      <trkpt lat="44.32811" lon="6.25759">
        <ele>1808</ele>
        <time>2014-08-31T11:25:22.1Z</time>
      </trkpt>
      <trkpt lat="44.32809" lon="6.25755">
        <ele>1809</ele>
        <time>2014-08-31T11:25:27.1Z</time>
      </trkpt>
      <trkpt lat="44.32806" lon="6.25751">
        <ele>1809</ele>
        <time>2014-08-31T11:25:32.1Z</time>
      </trkpt>
      <trkpt lat="44.32803" lon="6.25746">
        <ele>1810</ele>
        <time>2014-08-31T11:25:38.1Z</time>
      </trkpt>
      <trkpt lat="44.328" lon="6.25742">
        <ele>1810</ele>
        <time>2014-08-31T11:25:43.1Z</time>
      </trkpt>
      <trkpt lat="44.32797" lon="6.25738">
        <ele>1811</ele>
        <time>2014-08-31T11:25:49.1Z</time>
      </trkpt>
      <trkpt lat="44.32794" lon="6.25733">
        <ele>1812</ele>
        <time>2014-08-31T11:25:55.1Z</time>
      </trkpt>
      <trkpt lat="44.32791" lon="6.25728">
        <ele>1813</ele>
        <time>2014-08-31T11:26:00.1Z</time>
      </trkpt>
      <trkpt lat="44.32788" lon="6.25725">
        <ele>1813</ele>
        <time>2014-08-31T11:26:05.1Z</time>
      </trkpt>
      <trkpt lat="44.32784" lon="6.25721">
        <ele>1813</ele>
        <time>2014-08-31T11:26:11.1Z</time>
      </trkpt>
      <trkpt lat="44.3278" lon="6.25718">
        <ele>1813</ele>
        <time>2014-08-31T11:26:17.1Z</time>
      </trkpt>
      <trkpt lat="44.32775" lon="6.25717">
        <ele>1814</ele>
        <time>2014-08-31T11:26:22.1Z</time>
      </trkpt>
      <trkpt lat="44.32772" lon="6.25716">
        <ele>1814</ele>
        <time>2014-08-31T11:26:27.1Z</time>
      </trkpt>
      <trkpt lat="44.32768" lon="6.25713">
        <ele>1814</ele>
        <time>2014-08-31T11:26:32.1Z</time>
      </trkpt>
      <trkpt lat="44.32763" lon="6.25711">
        <ele>1814</ele>
        <time>2014-08-31T11:26:38.1Z</time>
      </trkpt>
      <trkpt lat="44.3276" lon="6.25711">
        <ele>1815</ele>
        <time>2014-08-31T11:26:43.1Z</time>
      </trkpt>
      <trkpt lat="44.3276" lon="6.25711">
        <ele>1815</ele>
        <time>2014-08-31T11:26:49.1Z</time>
      </trkpt>
      <trkpt lat="44.3276" lon="6.25711">
        <ele>1814</ele>
        <time>2014-08-31T11:26:54.1Z</time>
      </trkpt>
      <trkpt lat="44.32759" lon="6.25711">
        <ele>1814</ele>
        <time>2014-08-31T11:27:01.1Z</time>
      </trkpt>
      <trkpt lat="44.32759" lon="6.25712">
        <ele>1815</ele>
        <time>2014-08-31T11:27:08.1Z</time>
      </trkpt>
      <trkpt lat="44.32759" lon="6.25712">
        <ele>1815</ele>
        <time>2014-08-31T11:27:14.1Z</time>
      </trkpt>
      <trkpt lat="44.32758" lon="6.25707">
        <ele>1815</ele>
        <time>2014-08-31T11:27:20.1Z</time>
      </trkpt>
      <trkpt lat="44.32759" lon="6.25702">
        <ele>1815</ele>
        <time>2014-08-31T11:27:26.1Z</time>
      </trkpt>
      <trkpt lat="44.32756" lon="6.25699">
        <ele>1817</ele>
        <time>2014-08-31T11:27:31.1Z</time>
      </trkpt>
      <trkpt lat="44.32752" lon="6.25697">
        <ele>1818</ele>
        <time>2014-08-31T11:27:37.1Z</time>
      </trkpt>
      <trkpt lat="44.32749" lon="6.25697">
        <ele>1819</ele>
        <time>2014-08-31T11:27:42.1Z</time>
      </trkpt>
      <trkpt lat="44.32744" lon="6.25694">
        <ele>1819</ele>
        <time>2014-08-31T11:27:48.1Z</time>
      </trkpt>
      <trkpt lat="44.3274" lon="6.2569">
        <ele>1819</ele>
        <time>2014-08-31T11:27:54.1Z</time>
      </trkpt>
      <trkpt lat="44.32736" lon="6.25685">
        <ele>1821</ele>
        <time>2014-08-31T11:28:00.1Z</time>
      </trkpt>
      <trkpt lat="44.32733" lon="6.25679">
        <ele>1821</ele>
        <time>2014-08-31T11:28:06.1Z</time>
      </trkpt>
      <trkpt lat="44.3273" lon="6.25673">
        <ele>1821</ele>
        <time>2014-08-31T11:28:11.1Z</time>
      </trkpt>
      <trkpt lat="44.32728" lon="6.25666">
        <ele>1821</ele>
        <time>2014-08-31T11:28:17.1Z</time>
      </trkpt>
      <trkpt lat="44.32725" lon="6.2566">
        <ele>1822</ele>
        <time>2014-08-31T11:28:23.1Z</time>
      </trkpt>
      <trkpt lat="44.32722" lon="6.25655">
        <ele>1823</ele>
        <time>2014-08-31T11:28:29.1Z</time>
      </trkpt>
      <trkpt lat="44.32719" lon="6.25649">
        <ele>1823</ele>
        <time>2014-08-31T11:28:35.1Z</time>
      </trkpt>
      <trkpt lat="44.32717" lon="6.25643">
        <ele>1824</ele>
        <time>2014-08-31T11:28:41.1Z</time>
      </trkpt>
      <trkpt lat="44.32714" lon="6.25638">
        <ele>1825</ele>
        <time>2014-08-31T11:28:47.1Z</time>
      </trkpt>
      <trkpt lat="44.32711" lon="6.25633">
        <ele>1825</ele>
        <time>2014-08-31T11:28:52.1Z</time>
      </trkpt>
      <trkpt lat="44.32709" lon="6.25627">
        <ele>1826</ele>
        <time>2014-08-31T11:28:58.1Z</time>
      </trkpt>
      <trkpt lat="44.32707" lon="6.25622">
        <ele>1826</ele>
        <time>2014-08-31T11:29:03.1Z</time>
      </trkpt>
      <trkpt lat="44.32705" lon="6.25616">
        <ele>1827</ele>
        <time>2014-08-31T11:29:09.1Z</time>
      </trkpt>
      <trkpt lat="44.32703" lon="6.25611">
        <ele>1827</ele>
        <time>2014-08-31T11:29:14.1Z</time>
      </trkpt>
      <trkpt lat="44.32701" lon="6.25605">
        <ele>1828</ele>
        <time>2014-08-31T11:29:20.1Z</time>
      </trkpt>
      <trkpt lat="44.327" lon="6.256">
        <ele>1829</ele>
        <time>2014-08-31T11:29:25.1Z</time>
      </trkpt>
      <trkpt lat="44.32698" lon="6.25595">
        <ele>1830</ele>
        <time>2014-08-31T11:29:30.1Z</time>
      </trkpt>
      <trkpt lat="44.32695" lon="6.25591">
        <ele>1830</ele>
        <time>2014-08-31T11:29:35.1Z</time>
      </trkpt>
      <trkpt lat="44.32693" lon="6.25585">
        <ele>1831</ele>
        <time>2014-08-31T11:29:41.1Z</time>
      </trkpt>
      <trkpt lat="44.32692" lon="6.25581">
        <ele>1832</ele>
        <time>2014-08-31T11:29:46.1Z</time>
      </trkpt>
      <trkpt lat="44.32689" lon="6.25575">
        <ele>1833</ele>
        <time>2014-08-31T11:29:52.1Z</time>
      </trkpt>
      <trkpt lat="44.32688" lon="6.2557">
        <ele>1834</ele>
        <time>2014-08-31T11:29:58.1Z</time>
      </trkpt>
      <trkpt lat="44.32685" lon="6.25565">
        <ele>1834</ele>
        <time>2014-08-31T11:30:04.1Z</time>
      </trkpt>
      <trkpt lat="44.32683" lon="6.2556">
        <ele>1835</ele>
        <time>2014-08-31T11:30:10.1Z</time>
      </trkpt>
      <trkpt lat="44.32681" lon="6.25555">
        <ele>1836</ele>
        <time>2014-08-31T11:30:15.1Z</time>
      </trkpt>
      <trkpt lat="44.32679" lon="6.25549">
        <ele>1837</ele>
        <time>2014-08-31T11:30:21.1Z</time>
      </trkpt>
      <trkpt lat="44.32677" lon="6.25544">
        <ele>1838</ele>
        <time>2014-08-31T11:30:27.1Z</time>
      </trkpt>
      <trkpt lat="44.32675" lon="6.25539">
        <ele>1839</ele>
        <time>2014-08-31T11:30:33.1Z</time>
      </trkpt>
      <trkpt lat="44.32673" lon="6.25534">
        <ele>1839</ele>
        <time>2014-08-31T11:30:39.1Z</time>
      </trkpt>
      <trkpt lat="44.32672" lon="6.25531">
        <ele>1840</ele>
        <time>2014-08-31T11:30:44.1Z</time>
      </trkpt>
      <trkpt lat="44.3267" lon="6.25526">
        <ele>1841</ele>
        <time>2014-08-31T11:30:50.1Z</time>
      </trkpt>
      <trkpt lat="44.32668" lon="6.25522">
        <ele>1842</ele>
        <time>2014-08-31T11:30:56.1Z</time>
      </trkpt>
      <trkpt lat="44.32666" lon="6.25518">
        <ele>1843</ele>
        <time>2014-08-31T11:31:02.1Z</time>
      </trkpt>
      <trkpt lat="44.32664" lon="6.25515">
        <ele>1844</ele>
        <time>2014-08-31T11:31:07.1Z</time>
      </trkpt>
      <trkpt lat="44.32662" lon="6.25511">
        <ele>1844</ele>
        <time>2014-08-31T11:31:13.1Z</time>
      </trkpt>
      <trkpt lat="44.3266" lon="6.25507">
        <ele>1845</ele>
        <time>2014-08-31T11:31:18.1Z</time>
      </trkpt>
      <trkpt lat="44.32658" lon="6.25503">
        <ele>1845</ele>
        <time>2014-08-31T11:31:24.1Z</time>
      </trkpt>
      <trkpt lat="44.32657" lon="6.25497">
        <ele>1846</ele>
        <time>2014-08-31T11:31:30.1Z</time>
      </trkpt>
      <trkpt lat="44.32656" lon="6.25493">
        <ele>1847</ele>
        <time>2014-08-31T11:31:35.1Z</time>
      </trkpt>
      <trkpt lat="44.32656" lon="6.25488">
        <ele>1848</ele>
        <time>2014-08-31T11:31:40.1Z</time>
      </trkpt>
      <trkpt lat="44.32655" lon="6.25483">
        <ele>1848</ele>
        <time>2014-08-31T11:31:45.1Z</time>
      </trkpt>
      <trkpt lat="44.32654" lon="6.25478">
        <ele>1849</ele>
        <time>2014-08-31T11:31:51.1Z</time>
      </trkpt>
      <trkpt lat="44.32652" lon="6.25473">
        <ele>1849</ele>
        <time>2014-08-31T11:31:56.1Z</time>
      </trkpt>
      <trkpt lat="44.3265" lon="6.25467">
        <ele>1850</ele>
        <time>2014-08-31T11:32:02.1Z</time>
      </trkpt>
      <trkpt lat="44.32648" lon="6.25464">
        <ele>1851</ele>
        <time>2014-08-31T11:32:07.1Z</time>
      </trkpt>
      <trkpt lat="44.32645" lon="6.25459">
        <ele>1852</ele>
        <time>2014-08-31T11:32:13.1Z</time>
      </trkpt>
      <trkpt lat="44.32644" lon="6.25456">
        <ele>1853</ele>
        <time>2014-08-31T11:32:18.1Z</time>
      </trkpt>
      <trkpt lat="44.32641" lon="6.25454">
        <ele>1853</ele>
        <time>2014-08-31T11:32:23.1Z</time>
      </trkpt>
      <trkpt lat="44.32639" lon="6.2545">
        <ele>1854</ele>
        <time>2014-08-31T11:32:29.1Z</time>
      </trkpt>
      <trkpt lat="44.32637" lon="6.25447">
        <ele>1855</ele>
        <time>2014-08-31T11:32:35.1Z</time>
      </trkpt>
      <trkpt lat="44.32637" lon="6.25448">
        <ele>1856</ele>
        <time>2014-08-31T11:32:42.1Z</time>
      </trkpt>
      <trkpt lat="44.32637" lon="6.25448">
        <ele>1856</ele>
        <time>2014-08-31T11:32:51.1Z</time>
      </trkpt>
      <trkpt lat="44.32637" lon="6.25448">
        <ele>1857</ele>
        <time>2014-08-31T11:32:58.1Z</time>
      </trkpt>
      <trkpt lat="44.32635" lon="6.25449">
        <ele>1856</ele>
        <time>2014-08-31T11:33:03.1Z</time>
      </trkpt>
      <trkpt lat="44.32631" lon="6.25449">
        <ele>1857</ele>
        <time>2014-08-31T11:33:09.1Z</time>
      </trkpt>
      <trkpt lat="44.32627" lon="6.25448">
        <ele>1858</ele>
        <time>2014-08-31T11:33:14.1Z</time>
      </trkpt>
      <trkpt lat="44.32625" lon="6.25447">
        <ele>1858</ele>
        <time>2014-08-31T11:33:19.1Z</time>
      </trkpt>
      <trkpt lat="44.32621" lon="6.25446">
        <ele>1859</ele>
        <time>2014-08-31T11:33:25.1Z</time>
      </trkpt>
      <trkpt lat="44.32618" lon="6.25444">
        <ele>1859</ele>
        <time>2014-08-31T11:33:31.1Z</time>
      </trkpt>
      <trkpt lat="44.32616" lon="6.25443">
        <ele>1860</ele>
        <time>2014-08-31T11:33:39.1Z</time>
      </trkpt>
      <trkpt lat="44.32616" lon="6.25443">
        <ele>1860</ele>
        <time>2014-08-31T11:33:44.1Z</time>
      </trkpt>
      <trkpt lat="44.32616" lon="6.25443">
        <ele>1860</ele>
        <time>2014-08-31T11:33:51.1Z</time>
      </trkpt>
      <trkpt lat="44.32615" lon="6.25444">
        <ele>1860</ele>
        <time>2014-08-31T11:33:57.1Z</time>
      </trkpt>
      <trkpt lat="44.32615" lon="6.25444">
        <ele>1860</ele>
        <time>2014-08-31T11:34:02.1Z</time>
      </trkpt>
      <trkpt lat="44.32615" lon="6.25444">
        <ele>1860</ele>
        <time>2014-08-31T11:34:08.1Z</time>
      </trkpt>
      <trkpt lat="44.32614" lon="6.25445">
        <ele>1861</ele>
        <time>2014-08-31T11:34:17.1Z</time>
      </trkpt>
      <trkpt lat="44.32614" lon="6.25445">
        <ele>1860</ele>
        <time>2014-08-31T11:34:22.1Z</time>
      </trkpt>
      <trkpt lat="44.32614" lon="6.25445">
        <ele>1860</ele>
        <time>2014-08-31T11:34:28.1Z</time>
      </trkpt>
      <trkpt lat="44.32614" lon="6.25445">
        <ele>1860</ele>
        <time>2014-08-31T11:34:34.1Z</time>
      </trkpt>
      <trkpt lat="44.32614" lon="6.25446">
        <ele>1860</ele>
        <time>2014-08-31T11:34:40.1Z</time>
      </trkpt>
      <trkpt lat="44.32613" lon="6.25444">
        <ele>1860</ele>
        <time>2014-08-31T11:34:46.1Z</time>
      </trkpt>
      <trkpt lat="44.32611" lon="6.2544">
        <ele>1861</ele>
        <time>2014-08-31T11:34:51.1Z</time>
      </trkpt>
      <trkpt lat="44.3261" lon="6.25434">
        <ele>1861</ele>
        <time>2014-08-31T11:34:56.1Z</time>
      </trkpt>
      <trkpt lat="44.32609" lon="6.25429">
        <ele>1862</ele>
        <time>2014-08-31T11:35:01.1Z</time>
      </trkpt>
      <trkpt lat="44.32607" lon="6.25422">
        <ele>1863</ele>
        <time>2014-08-31T11:35:07.1Z</time>
      </trkpt>
      <trkpt lat="44.32605" lon="6.25415">
        <ele>1864</ele>
        <time>2014-08-31T11:35:13.1Z</time>
      </trkpt>
      <trkpt lat="44.32602" lon="6.2541">
        <ele>1864</ele>
        <time>2014-08-31T11:35:18.1Z</time>
      </trkpt>
      <trkpt lat="44.326" lon="6.25402">
        <ele>1865</ele>
        <time>2014-08-31T11:35:24.1Z</time>
      </trkpt>
      <trkpt lat="44.32597" lon="6.25397">
        <ele>1865</ele>
        <time>2014-08-31T11:35:29.1Z</time>
      </trkpt>
      <trkpt lat="44.32595" lon="6.25391">
        <ele>1866</ele>
        <time>2014-08-31T11:35:35.1Z</time>
      </trkpt>
      <trkpt lat="44.32594" lon="6.25384">
        <ele>1866</ele>
        <time>2014-08-31T11:35:41.1Z</time>
      </trkpt>
      <trkpt lat="44.32592" lon="6.25378">
        <ele>1866</ele>
        <time>2014-08-31T11:35:46.1Z</time>
      </trkpt>
      <trkpt lat="44.3259" lon="6.25372">
        <ele>1867</ele>
        <time>2014-08-31T11:35:51.1Z</time>
      </trkpt>
      <trkpt lat="44.32588" lon="6.25366">
        <ele>1867</ele>
        <time>2014-08-31T11:35:56.1Z</time>
      </trkpt>
      <trkpt lat="44.32586" lon="6.25359">
        <ele>1867</ele>
        <time>2014-08-31T11:36:02.1Z</time>
      </trkpt>
      <trkpt lat="44.32584" lon="6.25353">
        <ele>1867</ele>
        <time>2014-08-31T11:36:07.1Z</time>
      </trkpt>
      <trkpt lat="44.32583" lon="6.25348">
        <ele>1868</ele>
        <time>2014-08-31T11:36:12.1Z</time>
      </trkpt>
      <trkpt lat="44.32581" lon="6.25341">
        <ele>1870</ele>
        <time>2014-08-31T11:36:18.1Z</time>
      </trkpt>
      <trkpt lat="44.32579" lon="6.25336">
        <ele>1869</ele>
        <time>2014-08-31T11:36:24.1Z</time>
      </trkpt>
      <trkpt lat="44.32577" lon="6.25331">
        <ele>1870</ele>
        <time>2014-08-31T11:36:29.1Z</time>
      </trkpt>
      <trkpt lat="44.32575" lon="6.25324">
        <ele>1871</ele>
        <time>2014-08-31T11:36:35.1Z</time>
      </trkpt>
      <trkpt lat="44.32573" lon="6.25318">
        <ele>1871</ele>
        <time>2014-08-31T11:36:40.1Z</time>
      </trkpt>
      <trkpt lat="44.32571" lon="6.25312">
        <ele>1871</ele>
        <time>2014-08-31T11:36:45.1Z</time>
      </trkpt>
      <trkpt lat="44.32571" lon="6.25305">
        <ele>1871</ele>
        <time>2014-08-31T11:36:51.1Z</time>
      </trkpt>
      <trkpt lat="44.32571" lon="6.253">
        <ele>1872</ele>
        <time>2014-08-31T11:36:56.1Z</time>
      </trkpt>
      <trkpt lat="44.32569" lon="6.25294">
        <ele>1872</ele>
        <time>2014-08-31T11:37:02.1Z</time>
      </trkpt>
      <trkpt lat="44.32568" lon="6.25287">
        <ele>1873</ele>
        <time>2014-08-31T11:37:08.1Z</time>
      </trkpt>
      <trkpt lat="44.32566" lon="6.2528">
        <ele>1874</ele>
        <time>2014-08-31T11:37:14.1Z</time>
      </trkpt>
      <trkpt lat="44.32565" lon="6.25274">
        <ele>1874</ele>
        <time>2014-08-31T11:37:19.1Z</time>
      </trkpt>
      <trkpt lat="44.32566" lon="6.25267">
        <ele>1875</ele>
        <time>2014-08-31T11:37:25.1Z</time>
      </trkpt>
      <trkpt lat="44.32565" lon="6.2526">
        <ele>1876</ele>
        <time>2014-08-31T11:37:31.1Z</time>
      </trkpt>
      <trkpt lat="44.32563" lon="6.25253">
        <ele>1876</ele>
        <time>2014-08-31T11:37:37.1Z</time>
      </trkpt>
      <trkpt lat="44.3256" lon="6.25246">
        <ele>1876</ele>
        <time>2014-08-31T11:37:43.1Z</time>
      </trkpt>
      <trkpt lat="44.32558" lon="6.2524">
        <ele>1877</ele>
        <time>2014-08-31T11:37:48.1Z</time>
      </trkpt>
      <trkpt lat="44.32554" lon="6.25235">
        <ele>1878</ele>
        <time>2014-08-31T11:37:54.1Z</time>
      </trkpt>
      <trkpt lat="44.32552" lon="6.25234">
        <ele>1878</ele>
        <time>2014-08-31T11:38:00.1Z</time>
      </trkpt>
      <trkpt lat="44.32548" lon="6.25232">
        <ele>1878</ele>
        <time>2014-08-31T11:38:06.1Z</time>
      </trkpt>
      <trkpt lat="44.32544" lon="6.25229">
        <ele>1877</ele>
        <time>2014-08-31T11:38:11.1Z</time>
      </trkpt>
      <trkpt lat="44.32542" lon="6.25228">
        <ele>1876</ele>
        <time>2014-08-31T11:38:17.1Z</time>
      </trkpt>
      <trkpt lat="44.32536" lon="6.25224">
        <ele>1877</ele>
        <time>2014-08-31T11:38:23.1Z</time>
      </trkpt>
      <trkpt lat="44.32526" lon="6.25216">
        <ele>1877</ele>
        <time>2014-08-31T11:38:29.1Z</time>
      </trkpt>
      <trkpt lat="44.32517" lon="6.2521">
        <ele>1877</ele>
        <time>2014-08-31T11:38:34.1Z</time>
      </trkpt>
      <trkpt lat="44.32507" lon="6.25207">
        <ele>1877</ele>
        <time>2014-08-31T11:38:40.1Z</time>
      </trkpt>
      <trkpt lat="44.32498" lon="6.25205">
        <ele>1877</ele>
        <time>2014-08-31T11:38:45.1Z</time>
      </trkpt>
      <trkpt lat="44.32489" lon="6.25203">
        <ele>1877</ele>
        <time>2014-08-31T11:38:50.1Z</time>
      </trkpt>
      <trkpt lat="44.3248" lon="6.25199">
        <ele>1877</ele>
        <time>2014-08-31T11:38:55.1Z</time>
      </trkpt>
      <trkpt lat="44.32467" lon="6.25193">
        <ele>1877</ele>
        <time>2014-08-31T11:39:01.1Z</time>
      </trkpt>
      <trkpt lat="44.32448" lon="6.25183">
        <ele>1875</ele>
        <time>2014-08-31T11:39:07.1Z</time>
      </trkpt>
      <trkpt lat="44.32436" lon="6.25178">
        <ele>1876</ele>
        <time>2014-08-31T11:39:12.1Z</time>
      </trkpt>
      <trkpt lat="44.32424" lon="6.25172">
        <ele>1876</ele>
        <time>2014-08-31T11:39:18.1Z</time>
      </trkpt>
      <trkpt lat="44.32414" lon="6.25165">
        <ele>1877</ele>
        <time>2014-08-31T11:39:23.1Z</time>
      </trkpt>
      <trkpt lat="44.32404" lon="6.25156">
        <ele>1877</ele>
        <time>2014-08-31T11:39:28.1Z</time>
      </trkpt>
      <trkpt lat="44.32392" lon="6.25145">
        <ele>1878</ele>
        <time>2014-08-31T11:39:34.1Z</time>
      </trkpt>
      <trkpt lat="44.32381" lon="6.25137">
        <ele>1879</ele>
        <time>2014-08-31T11:39:40.1Z</time>
      </trkpt>
      <trkpt lat="44.3237" lon="6.25129">
        <ele>1878</ele>
        <time>2014-08-31T11:39:46.1Z</time>
      </trkpt>
      <trkpt lat="44.32365" lon="6.25125">
        <ele>1877</ele>
        <time>2014-08-31T11:39:52.1Z</time>
      </trkpt>
      <trkpt lat="44.32365" lon="6.25124">
        <ele>1876</ele>
        <time>2014-08-31T11:39:58.1Z</time>
      </trkpt>
      <trkpt lat="44.32365" lon="6.25125">
        <ele>1876</ele>
        <time>2014-08-31T11:40:04.1Z</time>
      </trkpt>
      <trkpt lat="44.32365" lon="6.25124">
        <ele>1876</ele>
        <time>2014-08-31T11:40:10.1Z</time>
      </trkpt>
      <trkpt lat="44.32365" lon="6.25124">
        <ele>1875</ele>
        <time>2014-08-31T11:40:15.1Z</time>
      </trkpt>
      <trkpt lat="44.32364" lon="6.25125">
        <ele>1875</ele>
        <time>2014-08-31T11:40:22.1Z</time>
      </trkpt>
      <trkpt lat="44.32364" lon="6.25125">
        <ele>1874</ele>
        <time>2014-08-31T11:40:29.1Z</time>
      </trkpt>
      <trkpt lat="44.32364" lon="6.25125">
        <ele>1874</ele>
        <time>2014-08-31T11:40:35.1Z</time>
      </trkpt>
      <trkpt lat="44.32364" lon="6.25125">
        <ele>1874</ele>
        <time>2014-08-31T11:40:40.1Z</time>
      </trkpt>
      <trkpt lat="44.32364" lon="6.25125">
        <ele>1875</ele>
        <time>2014-08-31T11:40:47.1Z</time>
      </trkpt>
      <trkpt lat="44.32363" lon="6.25125">
        <ele>1875</ele>
        <time>2014-08-31T11:40:56.1Z</time>
      </trkpt>
      <trkpt lat="44.32362" lon="6.25125">
        <ele>1875</ele>
        <time>2014-08-31T11:41:02.1Z</time>
      </trkpt>
      <trkpt lat="44.32363" lon="6.25126">
        <ele>1876</ele>
        <time>2014-08-31T11:41:07.1Z</time>
      </trkpt>
      <trkpt lat="44.32363" lon="6.25126">
        <ele>1875</ele>
        <time>2014-08-31T11:41:14.1Z</time>
      </trkpt>
      <trkpt lat="44.32364" lon="6.25125">
        <ele>1874</ele>
        <time>2014-08-31T11:41:20.1Z</time>
      </trkpt>
      <trkpt lat="44.32364" lon="6.25125">
        <ele>1874</ele>
        <time>2014-08-31T11:41:26.1Z</time>
      </trkpt>
      <trkpt lat="44.32365" lon="6.25125">
        <ele>1874</ele>
        <time>2014-08-31T11:41:34.1Z</time>
      </trkpt>
      <trkpt lat="44.32365" lon="6.25125">
        <ele>1875</ele>
        <time>2014-08-31T11:41:39.1Z</time>
      </trkpt>
      <trkpt lat="44.32365" lon="6.25125">
        <ele>1874</ele>
        <time>2014-08-31T11:41:45.1Z</time>
      </trkpt>
      <trkpt lat="44.32365" lon="6.25124">
        <ele>1874</ele>
        <time>2014-08-31T11:41:55.1Z</time>
      </trkpt>
      <trkpt lat="44.32365" lon="6.25124">
        <ele>1875</ele>
        <time>2014-08-31T11:42:04.1Z</time>
      </trkpt>
      <trkpt lat="44.32365" lon="6.25124">
        <ele>1874</ele>
        <time>2014-08-31T11:42:10.1Z</time>
      </trkpt>
      <trkpt lat="44.32365" lon="6.25124">
        <ele>1875</ele>
        <time>2014-08-31T11:42:17.1Z</time>
      </trkpt>
      <trkpt lat="44.32365" lon="6.25123">
        <ele>1875</ele>
        <time>2014-08-31T11:42:27.1Z</time>
      </trkpt>
      <trkpt lat="44.32365" lon="6.25123">
        <ele>1876</ele>
        <time>2014-08-31T11:42:32.1Z</time>
      </trkpt>
      <trkpt lat="44.32365" lon="6.25123">
        <ele>1876</ele>
        <time>2014-08-31T11:42:38.1Z</time>
      </trkpt>
      <trkpt lat="44.32363" lon="6.25125">
        <ele>1875</ele>
        <time>2014-08-31T11:42:43.1Z</time>
      </trkpt>
      <trkpt lat="44.32355" lon="6.25119">
        <ele>1875</ele>
        <time>2014-08-31T11:42:49.1Z</time>
      </trkpt>
      <trkpt lat="44.32348" lon="6.25109">
        <ele>1873</ele>
        <time>2014-08-31T11:42:54.1Z</time>
      </trkpt>
      <trkpt lat="44.32341" lon="6.25102">
        <ele>1870</ele>
        <time>2014-08-31T11:42:59.1Z</time>
      </trkpt>
      <trkpt lat="44.32331" lon="6.25095">
        <ele>1867</ele>
        <time>2014-08-31T11:43:05.1Z</time>
      </trkpt>
      <trkpt lat="44.32319" lon="6.25088">
        <ele>1864</ele>
        <time>2014-08-31T11:43:10.1Z</time>
      </trkpt>
      <trkpt lat="44.3231" lon="6.25075">
        <ele>1858</ele>
        <time>2014-08-31T11:43:16.1Z</time>
      </trkpt>
      <trkpt lat="44.32313" lon="6.25057">
        <ele>1853</ele>
        <time>2014-08-31T11:43:22.1Z</time>
      </trkpt>
      <trkpt lat="44.32314" lon="6.25041">
        <ele>1850</ele>
        <time>2014-08-31T11:43:27.1Z</time>
      </trkpt>
      <trkpt lat="44.32311" lon="6.25013">
        <ele>1845</ele>
        <time>2014-08-31T11:43:33.1Z</time>
      </trkpt>
      <trkpt lat="44.32306" lon="6.24985">
        <ele>1841</ele>
        <time>2014-08-31T11:43:38.1Z</time>
      </trkpt>
      <trkpt lat="44.32304" lon="6.24976">
        <ele>1840</ele>
        <time>2014-08-31T11:43:43.1Z</time>
      </trkpt>
      <trkpt lat="44.32304" lon="6.24976">
        <ele>1840</ele>
        <time>2014-08-31T11:43:50.1Z</time>
      </trkpt>
      <trkpt lat="44.32304" lon="6.24976">
        <ele>1841</ele>
        <time>2014-08-31T11:43:56.1Z</time>
      </trkpt>
      <trkpt lat="44.32304" lon="6.24975">
        <ele>1841</ele>
        <time>2014-08-31T11:44:01.1Z</time>
      </trkpt>
      <trkpt lat="44.32304" lon="6.24974">
        <ele>1841</ele>
        <time>2014-08-31T11:44:07.1Z</time>
      </trkpt>
      <trkpt lat="44.32304" lon="6.24973">
        <ele>1840</ele>
        <time>2014-08-31T11:44:12.1Z</time>
      </trkpt>
      <trkpt lat="44.32304" lon="6.24973">
        <ele>1840</ele>
        <time>2014-08-31T11:44:17.1Z</time>
      </trkpt>
      <trkpt lat="44.32302" lon="6.2496">
        <ele>1840</ele>
        <time>2014-08-31T11:44:23.1Z</time>
      </trkpt>
      <trkpt lat="44.32303" lon="6.24954">
        <ele>1838</ele>
        <time>2014-08-31T11:44:28.1Z</time>
      </trkpt>
      <trkpt lat="44.32303" lon="6.24953">
        <ele>1838</ele>
        <time>2014-08-31T11:44:33.1Z</time>
      </trkpt>
      <trkpt lat="44.32302" lon="6.24952">
        <ele>1837</ele>
        <time>2014-08-31T11:44:38.1Z</time>
      </trkpt>
      <trkpt lat="44.32303" lon="6.24951">
        <ele>1837</ele>
        <time>2014-08-31T11:44:44.1Z</time>
      </trkpt>
      <trkpt lat="44.32303" lon="6.2495">
        <ele>1837</ele>
        <time>2014-08-31T11:44:50.1Z</time>
      </trkpt>
      <trkpt lat="44.32304" lon="6.2495">
        <ele>1837</ele>
        <time>2014-08-31T11:44:56.1Z</time>
      </trkpt>
      <trkpt lat="44.32304" lon="6.2495">
        <ele>1837</ele>
        <time>2014-08-31T11:45:02.1Z</time>
      </trkpt>
      <trkpt lat="44.32306" lon="6.24945">
        <ele>1837</ele>
        <time>2014-08-31T11:45:08.1Z</time>
      </trkpt>
      <trkpt lat="44.32305" lon="6.24945">
        <ele>1837</ele>
        <time>2014-08-31T11:45:14.1Z</time>
      </trkpt>
      <trkpt lat="44.32305" lon="6.24943">
        <ele>1836</ele>
        <time>2014-08-31T11:45:20.1Z</time>
      </trkpt>
      <trkpt lat="44.32303" lon="6.24947">
        <ele>1837</ele>
        <time>2014-08-31T11:45:25.1Z</time>
      </trkpt>
      <trkpt lat="44.32302" lon="6.2495">
        <ele>1837</ele>
        <time>2014-08-31T11:45:31.1Z</time>
      </trkpt>
      <trkpt lat="44.32301" lon="6.24942">
        <ele>1837</ele>
        <time>2014-08-31T11:45:37.1Z</time>
      </trkpt>
      <trkpt lat="44.32297" lon="6.24929">
        <ele>1834</ele>
        <time>2014-08-31T11:45:43.1Z</time>
      </trkpt>
      <trkpt lat="44.32294" lon="6.24913">
        <ele>1831</ele>
        <time>2014-08-31T11:45:49.1Z</time>
      </trkpt>
      <trkpt lat="44.32295" lon="6.24897">
        <ele>1829</ele>
        <time>2014-08-31T11:45:54.1Z</time>
      </trkpt>
      <trkpt lat="44.32293" lon="6.24879">
        <ele>1827</ele>
        <time>2014-08-31T11:45:59.1Z</time>
      </trkpt>
      <trkpt lat="44.32292" lon="6.24866">
        <ele>1824</ele>
        <time>2014-08-31T11:46:05.1Z</time>
      </trkpt>
      <trkpt lat="44.3229" lon="6.24862">
        <ele>1824</ele>
        <time>2014-08-31T11:46:10.1Z</time>
      </trkpt>
      <trkpt lat="44.32288" lon="6.24854">
        <ele>1823</ele>
        <time>2014-08-31T11:46:15.1Z</time>
      </trkpt>
      <trkpt lat="44.32286" lon="6.24847">
        <ele>1822</ele>
        <time>2014-08-31T11:46:20.1Z</time>
      </trkpt>
      <trkpt lat="44.32285" lon="6.24841">
        <ele>1822</ele>
        <time>2014-08-31T11:46:25.1Z</time>
      </trkpt>
      <trkpt lat="44.32284" lon="6.24834">
        <ele>1821</ele>
        <time>2014-08-31T11:46:31.1Z</time>
      </trkpt>
      <trkpt lat="44.32284" lon="6.24834">
        <ele>1820</ele>
        <time>2014-08-31T11:46:39.1Z</time>
      </trkpt>
      <trkpt lat="44.32284" lon="6.24833">
        <ele>1821</ele>
        <time>2014-08-31T11:46:46.1Z</time>
      </trkpt>
      <trkpt lat="44.3228" lon="6.24833">
        <ele>1820</ele>
        <time>2014-08-31T11:46:52.1Z</time>
      </trkpt>
      <trkpt lat="44.32275" lon="6.2483">
        <ele>1818</ele>
        <time>2014-08-31T11:46:58.1Z</time>
      </trkpt>
      <trkpt lat="44.32271" lon="6.24828">
        <ele>1816</ele>
        <time>2014-08-31T11:47:03.1Z</time>
      </trkpt>
      <trkpt lat="44.32267" lon="6.24826">
        <ele>1814</ele>
        <time>2014-08-31T11:47:09.1Z</time>
      </trkpt>
      <trkpt lat="44.32263" lon="6.24823">
        <ele>1813</ele>
        <time>2014-08-31T11:47:14.1Z</time>
      </trkpt>
      <trkpt lat="44.32257" lon="6.24822">
        <ele>1810</ele>
        <time>2014-08-31T11:47:20.1Z</time>
      </trkpt>
      <trkpt lat="44.32252" lon="6.24821">
        <ele>1808</ele>
        <time>2014-08-31T11:47:25.1Z</time>
      </trkpt>
      <trkpt lat="44.32248" lon="6.2482">
        <ele>1805</ele>
        <time>2014-08-31T11:47:30.1Z</time>
      </trkpt>
      <trkpt lat="44.32242" lon="6.24819">
        <ele>1803</ele>
        <time>2014-08-31T11:47:35.1Z</time>
      </trkpt>
      <trkpt lat="44.32237" lon="6.24817">
        <ele>1801</ele>
        <time>2014-08-31T11:47:41.1Z</time>
      </trkpt>
      <trkpt lat="44.32232" lon="6.24816">
        <ele>1798</ele>
        <time>2014-08-31T11:47:46.1Z</time>
      </trkpt>
      <trkpt lat="44.32226" lon="6.24814">
        <ele>1796</ele>
        <time>2014-08-31T11:47:52.1Z</time>
      </trkpt>
      <trkpt lat="44.32221" lon="6.24813">
        <ele>1794</ele>
        <time>2014-08-31T11:47:57.1Z</time>
      </trkpt>
      <trkpt lat="44.32216" lon="6.2481">
        <ele>1792</ele>
        <time>2014-08-31T11:48:03.1Z</time>
      </trkpt>
      <trkpt lat="44.32211" lon="6.24807">
        <ele>1790</ele>
        <time>2014-08-31T11:48:08.1Z</time>
      </trkpt>
      <trkpt lat="44.32208" lon="6.24803">
        <ele>1788</ele>
        <time>2014-08-31T11:48:13.1Z</time>
      </trkpt>
      <trkpt lat="44.32206" lon="6.24802">
        <ele>1787</ele>
        <time>2014-08-31T11:48:20.1Z</time>
      </trkpt>
      <trkpt lat="44.32206" lon="6.24801">
        <ele>1786</ele>
        <time>2014-08-31T11:48:26.1Z</time>
      </trkpt>
      <trkpt lat="44.32205" lon="6.24801">
        <ele>1786</ele>
        <time>2014-08-31T11:48:32.1Z</time>
      </trkpt>
      <trkpt lat="44.32202" lon="6.24798">
        <ele>1786</ele>
        <time>2014-08-31T11:48:38.1Z</time>
      </trkpt>
      <trkpt lat="44.32198" lon="6.24797">
        <ele>1785</ele>
        <time>2014-08-31T11:48:43.1Z</time>
      </trkpt>
      <trkpt lat="44.32197" lon="6.24796">
        <ele>1783</ele>
        <time>2014-08-31T11:48:49.1Z</time>
      </trkpt>
      <trkpt lat="44.32195" lon="6.24799">
        <ele>1783</ele>
        <time>2014-08-31T11:48:54.1Z</time>
      </trkpt>
      <trkpt lat="44.3219" lon="6.24799">
        <ele>1782</ele>
        <time>2014-08-31T11:49:00.1Z</time>
      </trkpt>
      <trkpt lat="44.32185" lon="6.24797">
        <ele>1780</ele>
        <time>2014-08-31T11:49:06.1Z</time>
      </trkpt>
      <trkpt lat="44.32182" lon="6.24791">
        <ele>1778</ele>
        <time>2014-08-31T11:49:12.1Z</time>
      </trkpt>
      <trkpt lat="44.32181" lon="6.24788">
        <ele>1776</ele>
        <time>2014-08-31T11:49:18.1Z</time>
      </trkpt>
      <trkpt lat="44.32181" lon="6.24788">
        <ele>1776</ele>
        <time>2014-08-31T11:49:23.1Z</time>
      </trkpt>
      <trkpt lat="44.32178" lon="6.2479">
        <ele>1776</ele>
        <time>2014-08-31T11:49:29.1Z</time>
      </trkpt>
      <trkpt lat="44.32175" lon="6.24795">
        <ele>1775</ele>
        <time>2014-08-31T11:49:34.1Z</time>
      </trkpt>
      <trkpt lat="44.32171" lon="6.24797">
        <ele>1774</ele>
        <time>2014-08-31T11:49:39.1Z</time>
      </trkpt>
      <trkpt lat="44.32171" lon="6.24797">
        <ele>1774</ele>
        <time>2014-08-31T11:49:44.1Z</time>
      </trkpt>
      <trkpt lat="44.32172" lon="6.24797">
        <ele>1773</ele>
        <time>2014-08-31T11:49:52.1Z</time>
      </trkpt>
      <trkpt lat="44.32172" lon="6.24797">
        <ele>1773</ele>
        <time>2014-08-31T11:49:57.1Z</time>
      </trkpt>
      <trkpt lat="44.32172" lon="6.24797">
        <ele>1773</ele>
        <time>2014-08-31T11:50:04.1Z</time>
      </trkpt>
      <trkpt lat="44.32172" lon="6.24797">
        <ele>1773</ele>
        <time>2014-08-31T11:50:10.1Z</time>
      </trkpt>
      <trkpt lat="44.32172" lon="6.24797">
        <ele>1773</ele>
        <time>2014-08-31T11:50:15.1Z</time>
      </trkpt>
      <trkpt lat="44.3217" lon="6.24795">
        <ele>1773</ele>
        <time>2014-08-31T11:50:21.1Z</time>
      </trkpt>
      <trkpt lat="44.3217" lon="6.24795">
        <ele>1773</ele>
        <time>2014-08-31T11:50:27.1Z</time>
      </trkpt>
      <trkpt lat="44.32169" lon="6.24795">
        <ele>1773</ele>
        <time>2014-08-31T11:50:33.1Z</time>
      </trkpt>
      <trkpt lat="44.32168" lon="6.24794">
        <ele>1773</ele>
        <time>2014-08-31T11:50:38.1Z</time>
      </trkpt>
      <trkpt lat="44.32169" lon="6.24792">
        <ele>1773</ele>
        <time>2014-08-31T11:50:43.1Z</time>
      </trkpt>
      <trkpt lat="44.32168" lon="6.24791">
        <ele>1772</ele>
        <time>2014-08-31T11:50:49.1Z</time>
      </trkpt>
      <trkpt lat="44.32169" lon="6.24791">
        <ele>1772</ele>
        <time>2014-08-31T11:50:54.1Z</time>
      </trkpt>
      <trkpt lat="44.32169" lon="6.24791">
        <ele>1771</ele>
        <time>2014-08-31T11:51:01.1Z</time>
      </trkpt>
      <trkpt lat="44.3217" lon="6.24791">
        <ele>1771</ele>
        <time>2014-08-31T11:51:07.1Z</time>
      </trkpt>
      <trkpt lat="44.3217" lon="6.24791">
        <ele>1772</ele>
        <time>2014-08-31T11:51:13.1Z</time>
      </trkpt>
      <trkpt lat="44.3217" lon="6.24792">
        <ele>1772</ele>
        <time>2014-08-31T11:51:18.1Z</time>
      </trkpt>
      <trkpt lat="44.3217" lon="6.24792">
        <ele>1771</ele>
        <time>2014-08-31T11:51:25.1Z</time>
      </trkpt>
      <trkpt lat="44.32171" lon="6.24792">
        <ele>1772</ele>
        <time>2014-08-31T11:51:32.1Z</time>
      </trkpt>
      <trkpt lat="44.32171" lon="6.24792">
        <ele>1772</ele>
        <time>2014-08-31T11:51:38.1Z</time>
      </trkpt>
      <trkpt lat="44.32172" lon="6.24792">
        <ele>1772</ele>
        <time>2014-08-31T11:51:46.1Z</time>
      </trkpt>
      <trkpt lat="44.32172" lon="6.24792">
        <ele>1772</ele>
        <time>2014-08-31T11:51:53.1Z</time>
      </trkpt>
      <trkpt lat="44.32172" lon="6.24792">
        <ele>1771</ele>
        <time>2014-08-31T11:52:07.1Z</time>
      </trkpt>
      <trkpt lat="44.32171" lon="6.24792">
        <ele>1772</ele>
        <time>2014-08-31T11:52:12.1Z</time>
      </trkpt>
      <trkpt lat="44.32171" lon="6.24792">
        <ele>1771</ele>
        <time>2014-08-31T11:52:18.1Z</time>
      </trkpt>
      <trkpt lat="44.32171" lon="6.24792">
        <ele>1772</ele>
        <time>2014-08-31T11:52:24.1Z</time>
      </trkpt>
      <trkpt lat="44.32171" lon="6.24792">
        <ele>1772</ele>
        <time>2014-08-31T11:52:30.1Z</time>
      </trkpt>
      <trkpt lat="44.32171" lon="6.24792">
        <ele>1772</ele>
        <time>2014-08-31T11:52:36.1Z</time>
      </trkpt>
      <trkpt lat="44.32171" lon="6.24792">
        <ele>1772</ele>
        <time>2014-08-31T11:52:43.1Z</time>
      </trkpt>
      <trkpt lat="44.32171" lon="6.24792">
        <ele>1771</ele>
        <time>2014-08-31T11:52:51.1Z</time>
      </trkpt>
      <trkpt lat="44.32171" lon="6.24792">
        <ele>1772</ele>
        <time>2014-08-31T11:53:06.1Z</time>
      </trkpt>
      <trkpt lat="44.32171" lon="6.24792">
        <ele>1772</ele>
        <time>2014-08-31T11:53:14.1Z</time>
      </trkpt>
      <trkpt lat="44.32171" lon="6.24792">
        <ele>1771</ele>
        <time>2014-08-31T11:53:19.1Z</time>
      </trkpt>
      <trkpt lat="44.32171" lon="6.24792">
        <ele>1772</ele>
        <time>2014-08-31T11:53:25.1Z</time>
      </trkpt>
      <trkpt lat="44.32171" lon="6.24792">
        <ele>1772</ele>
        <time>2014-08-31T11:53:30.1Z</time>
      </trkpt>
      <trkpt lat="44.32171" lon="6.24792">
        <ele>1771</ele>
        <time>2014-08-31T11:53:36.1Z</time>
      </trkpt>
      <trkpt lat="44.32171" lon="6.24792">
        <ele>1771</ele>
        <time>2014-08-31T11:53:43.1Z</time>
      </trkpt>
      <trkpt lat="44.3217" lon="6.24792">
        <ele>1771</ele>
        <time>2014-08-31T11:53:51.1Z</time>
      </trkpt>
      <trkpt lat="44.32171" lon="6.24792">
        <ele>1772</ele>
        <time>2014-08-31T11:53:56.1Z</time>
      </trkpt>
      <trkpt lat="44.32171" lon="6.24792">
        <ele>1772</ele>
        <time>2014-08-31T11:54:02.1Z</time>
      </trkpt>
      <trkpt lat="44.32171" lon="6.24792">
        <ele>1772</ele>
        <time>2014-08-31T11:54:08.1Z</time>
      </trkpt>
      <trkpt lat="44.32171" lon="6.24793">
        <ele>1772</ele>
        <time>2014-08-31T11:54:13.1Z</time>
      </trkpt>
      <trkpt lat="44.32171" lon="6.24793">
        <ele>1772</ele>
        <time>2014-08-31T11:54:19.1Z</time>
      </trkpt>
      <trkpt lat="44.32172" lon="6.24793">
        <ele>1772</ele>
        <time>2014-08-31T11:54:24.1Z</time>
      </trkpt>
      <trkpt lat="44.32172" lon="6.24793">
        <ele>1772</ele>
        <time>2014-08-31T11:54:29.1Z</time>
      </trkpt>
      <trkpt lat="44.32172" lon="6.24793">
        <ele>1772</ele>
        <time>2014-08-31T11:54:35.1Z</time>
      </trkpt>
      <trkpt lat="44.32172" lon="6.24793">
        <ele>1772</ele>
        <time>2014-08-31T11:54:40.1Z</time>
      </trkpt>
      <trkpt lat="44.32172" lon="6.24792">
        <ele>1772</ele>
        <time>2014-08-31T11:54:46.1Z</time>
      </trkpt>
      <trkpt lat="44.32174" lon="6.2479">
        <ele>1772</ele>
        <time>2014-08-31T11:54:51.1Z</time>
      </trkpt>
      <trkpt lat="44.32174" lon="6.24789">
        <ele>1772</ele>
        <time>2014-08-31T11:54:56.1Z</time>
      </trkpt>
      <trkpt lat="44.32174" lon="6.24789">
        <ele>1772</ele>
        <time>2014-08-31T11:55:03.1Z</time>
      </trkpt>
      <trkpt lat="44.32174" lon="6.24789">
        <ele>1772</ele>
        <time>2014-08-31T11:55:10.1Z</time>
      </trkpt>
      <trkpt lat="44.32174" lon="6.24789">
        <ele>1772</ele>
        <time>2014-08-31T11:55:15.1Z</time>
      </trkpt>
      <trkpt lat="44.32174" lon="6.24789">
        <ele>1772</ele>
        <time>2014-08-31T11:55:20.1Z</time>
      </trkpt>
      <trkpt lat="44.32173" lon="6.24789">
        <ele>1772</ele>
        <time>2014-08-31T11:55:25.1Z</time>
      </trkpt>
      <trkpt lat="44.32172" lon="6.24789">
        <ele>1772</ele>
        <time>2014-08-31T11:55:31.1Z</time>
      </trkpt>
      <trkpt lat="44.32172" lon="6.2479">
        <ele>1772</ele>
        <time>2014-08-31T11:55:36.1Z</time>
      </trkpt>
      <trkpt lat="44.32172" lon="6.24789">
        <ele>1772</ele>
        <time>2014-08-31T11:55:43.1Z</time>
      </trkpt>
      <trkpt lat="44.32172" lon="6.2479">
        <ele>1772</ele>
        <time>2014-08-31T11:55:49.1Z</time>
      </trkpt>
      <trkpt lat="44.32172" lon="6.2479">
        <ele>1772</ele>
        <time>2014-08-31T11:55:55.1Z</time>
      </trkpt>
      <trkpt lat="44.32171" lon="6.24791">
        <ele>1772</ele>
        <time>2014-08-31T11:56:01.1Z</time>
      </trkpt>
      <trkpt lat="44.32172" lon="6.24791">
        <ele>1772</ele>
        <time>2014-08-31T11:56:08.1Z</time>
      </trkpt>
      <trkpt lat="44.32172" lon="6.24791">
        <ele>1772</ele>
        <time>2014-08-31T11:56:15.1Z</time>
      </trkpt>
      <trkpt lat="44.32172" lon="6.24791">
        <ele>1772</ele>
        <time>2014-08-31T11:56:22.1Z</time>
      </trkpt>
      <trkpt lat="44.32172" lon="6.2479">
        <ele>1772</ele>
        <time>2014-08-31T11:56:27.1Z</time>
      </trkpt>
      <trkpt lat="44.32173" lon="6.2479">
        <ele>1773</ele>
        <time>2014-08-31T11:56:33.1Z</time>
      </trkpt>
      <trkpt lat="44.32173" lon="6.24789">
        <ele>1772</ele>
        <time>2014-08-31T11:56:39.1Z</time>
      </trkpt>
      <trkpt lat="44.32172" lon="6.24789">
        <ele>1772</ele>
        <time>2014-08-31T11:56:45.1Z</time>
      </trkpt>
      <trkpt lat="44.32172" lon="6.2479">
        <ele>1772</ele>
        <time>2014-08-31T11:56:50.1Z</time>
      </trkpt>
      <trkpt lat="44.32171" lon="6.24791">
        <ele>1772</ele>
        <time>2014-08-31T11:56:57.1Z</time>
      </trkpt>
      <trkpt lat="44.32171" lon="6.24792">
        <ele>1772</ele>
        <time>2014-08-31T11:57:03.1Z</time>
      </trkpt>
      <trkpt lat="44.32171" lon="6.24792">
        <ele>1772</ele>
        <time>2014-08-31T11:57:08.1Z</time>
      </trkpt>
      <trkpt lat="44.32171" lon="6.24792">
        <ele>1772</ele>
        <time>2014-08-31T11:57:15.1Z</time>
      </trkpt>
      <trkpt lat="44.32171" lon="6.24792">
        <ele>1772</ele>
        <time>2014-08-31T11:57:22.1Z</time>
      </trkpt>
      <trkpt lat="44.32171" lon="6.24792">
        <ele>1772</ele>
        <time>2014-08-31T11:57:27.1Z</time>
      </trkpt>
      <trkpt lat="44.3217" lon="6.24792">
        <ele>1772</ele>
        <time>2014-08-31T11:57:35.1Z</time>
      </trkpt>
      <trkpt lat="44.3217" lon="6.24793">
        <ele>1772</ele>
        <time>2014-08-31T11:57:41.1Z</time>
      </trkpt>
      <trkpt lat="44.32169" lon="6.24792">
        <ele>1772</ele>
        <time>2014-08-31T11:57:47.1Z</time>
      </trkpt>
      <trkpt lat="44.32169" lon="6.24792">
        <ele>1771</ele>
        <time>2014-08-31T11:57:53.1Z</time>
      </trkpt>
      <trkpt lat="44.32169" lon="6.24792">
        <ele>1771</ele>
        <time>2014-08-31T11:57:58.1Z</time>
      </trkpt>
      <trkpt lat="44.32168" lon="6.24791">
        <ele>1772</ele>
        <time>2014-08-31T11:58:04.1Z</time>
      </trkpt>
      <trkpt lat="44.32168" lon="6.24791">
        <ele>1772</ele>
        <time>2014-08-31T11:58:09.1Z</time>
      </trkpt>
      <trkpt lat="44.32168" lon="6.24792">
        <ele>1772</ele>
        <time>2014-08-31T11:58:14.1Z</time>
      </trkpt>
      <trkpt lat="44.32167" lon="6.24792">
        <ele>1772</ele>
        <time>2014-08-31T11:58:21.1Z</time>
      </trkpt>
      <trkpt lat="44.32167" lon="6.24792">
        <ele>1772</ele>
        <time>2014-08-31T11:58:28.1Z</time>
      </trkpt>
      <trkpt lat="44.32168" lon="6.24791">
        <ele>1772</ele>
        <time>2014-08-31T11:58:33.1Z</time>
      </trkpt>
      <trkpt lat="44.32169" lon="6.24791">
        <ele>1772</ele>
        <time>2014-08-31T11:58:39.1Z</time>
      </trkpt>
      <trkpt lat="44.3217" lon="6.24791">
        <ele>1772</ele>
        <time>2014-08-31T11:58:46.1Z</time>
      </trkpt>
      <trkpt lat="44.3217" lon="6.24792">
        <ele>1771</ele>
        <time>2014-08-31T11:58:51.1Z</time>
      </trkpt>
      <trkpt lat="44.3217" lon="6.24793">
        <ele>1772</ele>
        <time>2014-08-31T11:58:57.1Z</time>
      </trkpt>
      <trkpt lat="44.3217" lon="6.24794">
        <ele>1772</ele>
        <time>2014-08-31T11:59:03.1Z</time>
      </trkpt>
      <trkpt lat="44.3217" lon="6.24794">
        <ele>1771</ele>
        <time>2014-08-31T11:59:11.1Z</time>
      </trkpt>
      <trkpt lat="44.32171" lon="6.24794">
        <ele>1772</ele>
        <time>2014-08-31T11:59:17.1Z</time>
      </trkpt>
      <trkpt lat="44.32171" lon="6.24795">
        <ele>1772</ele>
        <time>2014-08-31T11:59:26.1Z</time>
      </trkpt>
      <trkpt lat="44.32171" lon="6.24795">
        <ele>1772</ele>
        <time>2014-08-31T11:59:31.1Z</time>
      </trkpt>
      <trkpt lat="44.32172" lon="6.24794">
        <ele>1772</ele>
        <time>2014-08-31T11:59:37.1Z</time>
      </trkpt>
      <trkpt lat="44.32173" lon="6.24793">
        <ele>1772</ele>
        <time>2014-08-31T11:59:44.1Z</time>
      </trkpt>
      <trkpt lat="44.32173" lon="6.24793">
        <ele>1772</ele>
        <time>2014-08-31T11:59:49.1Z</time>
      </trkpt>
      <trkpt lat="44.32173" lon="6.24792">
        <ele>1772</ele>
        <time>2014-08-31T11:59:55.1Z</time>
      </trkpt>
      <trkpt lat="44.32173" lon="6.24792">
        <ele>1772</ele>
        <time>2014-08-31T12:00:01.1Z</time>
      </trkpt>
      <trkpt lat="44.32173" lon="6.24793">
        <ele>1772</ele>
        <time>2014-08-31T12:00:07.1Z</time>
      </trkpt>
      <trkpt lat="44.32173" lon="6.24792">
        <ele>1771</ele>
        <time>2014-08-31T12:00:13.1Z</time>
      </trkpt>
      <trkpt lat="44.32173" lon="6.24792">
        <ele>1772</ele>
        <time>2014-08-31T12:00:20.1Z</time>
      </trkpt>
      <trkpt lat="44.32173" lon="6.24792">
        <ele>1772</ele>
        <time>2014-08-31T12:00:27.1Z</time>
      </trkpt>
      <trkpt lat="44.32173" lon="6.24792">
        <ele>1772</ele>
        <time>2014-08-31T12:00:34.1Z</time>
      </trkpt>
      <trkpt lat="44.32173" lon="6.24792">
        <ele>1772</ele>
        <time>2014-08-31T12:00:42.1Z</time>
      </trkpt>
      <trkpt lat="44.32172" lon="6.24792">
        <ele>1773</ele>
        <time>2014-08-31T12:00:50.1Z</time>
      </trkpt>
      <trkpt lat="44.32172" lon="6.24792">
        <ele>1773</ele>
        <time>2014-08-31T12:00:57.1Z</time>
      </trkpt>
      <trkpt lat="44.32172" lon="6.24792">
        <ele>1773</ele>
        <time>2014-08-31T12:01:02.1Z</time>
      </trkpt>
      <trkpt lat="44.32172" lon="6.24792">
        <ele>1772</ele>
        <time>2014-08-31T12:01:08.1Z</time>
      </trkpt>
      <trkpt lat="44.32173" lon="6.24792">
        <ele>1772</ele>
        <time>2014-08-31T12:01:14.1Z</time>
      </trkpt>
      <trkpt lat="44.32172" lon="6.24792">
        <ele>1772</ele>
        <time>2014-08-31T12:01:19.1Z</time>
      </trkpt>
      <trkpt lat="44.32171" lon="6.24793">
        <ele>1772</ele>
        <time>2014-08-31T12:01:26.1Z</time>
      </trkpt>
      <trkpt lat="44.32171" lon="6.24793">
        <ele>1772</ele>
        <time>2014-08-31T12:01:32.1Z</time>
      </trkpt>
      <trkpt lat="44.32171" lon="6.24793">
        <ele>1773</ele>
        <time>2014-08-31T12:01:40.1Z</time>
      </trkpt>
      <trkpt lat="44.32171" lon="6.24792">
        <ele>1773</ele>
        <time>2014-08-31T12:01:47.1Z</time>
      </trkpt>
      <trkpt lat="44.32171" lon="6.24792">
        <ele>1773</ele>
        <time>2014-08-31T12:01:54.1Z</time>
      </trkpt>
      <trkpt lat="44.3217" lon="6.24792">
        <ele>1773</ele>
        <time>2014-08-31T12:02:03.1Z</time>
      </trkpt>
      <trkpt lat="44.3217" lon="6.24792">
        <ele>1773</ele>
        <time>2014-08-31T12:02:10.1Z</time>
      </trkpt>
      <trkpt lat="44.3217" lon="6.24792">
        <ele>1773</ele>
        <time>2014-08-31T12:02:17.1Z</time>
      </trkpt>
      <trkpt lat="44.3217" lon="6.24792">
        <ele>1773</ele>
        <time>2014-08-31T12:02:22.1Z</time>
      </trkpt>
      <trkpt lat="44.3217" lon="6.24792">
        <ele>1773</ele>
        <time>2014-08-31T12:02:30.1Z</time>
      </trkpt>
      <trkpt lat="44.3217" lon="6.24792">
        <ele>1772</ele>
        <time>2014-08-31T12:02:39.1Z</time>
      </trkpt>
      <trkpt lat="44.3217" lon="6.24792">
        <ele>1772</ele>
        <time>2014-08-31T12:02:46.1Z</time>
      </trkpt>
      <trkpt lat="44.3217" lon="6.24792">
        <ele>1773</ele>
        <time>2014-08-31T12:02:52.1Z</time>
      </trkpt>
      <trkpt lat="44.3217" lon="6.24792">
        <ele>1773</ele>
        <time>2014-08-31T12:02:58.1Z</time>
      </trkpt>
      <trkpt lat="44.3217" lon="6.24791">
        <ele>1773</ele>
        <time>2014-08-31T12:03:03.1Z</time>
      </trkpt>
      <trkpt lat="44.3217" lon="6.24791">
        <ele>1773</ele>
        <time>2014-08-31T12:03:10.1Z</time>
      </trkpt>
      <trkpt lat="44.3217" lon="6.2479">
        <ele>1774</ele>
        <time>2014-08-31T12:03:17.1Z</time>
      </trkpt>
      <trkpt lat="44.32171" lon="6.2479">
        <ele>1774</ele>
        <time>2014-08-31T12:03:24.1Z</time>
      </trkpt>
      <trkpt lat="44.32171" lon="6.24789">
        <ele>1773</ele>
        <time>2014-08-31T12:03:29.1Z</time>
      </trkpt>
      <trkpt lat="44.32171" lon="6.24789">
        <ele>1773</ele>
        <time>2014-08-31T12:03:44.1Z</time>
      </trkpt>
      <trkpt lat="44.3217" lon="6.24789">
        <ele>1773</ele>
        <time>2014-08-31T12:03:57.1Z</time>
      </trkpt>
      <trkpt lat="44.3217" lon="6.24789">
        <ele>1774</ele>
        <time>2014-08-31T12:04:06.1Z</time>
      </trkpt>
      <trkpt lat="44.3217" lon="6.24789">
        <ele>1773</ele>
        <time>2014-08-31T12:04:20.1Z</time>
      </trkpt>
      <trkpt lat="44.3217" lon="6.24789">
        <ele>1773</ele>
        <time>2014-08-31T12:04:30.1Z</time>
      </trkpt>
      <trkpt lat="44.3217" lon="6.2479">
        <ele>1773</ele>
        <time>2014-08-31T12:04:38.1Z</time>
      </trkpt>
      <trkpt lat="44.3217" lon="6.2479">
        <ele>1773</ele>
        <time>2014-08-31T12:04:44.1Z</time>
      </trkpt>
      <trkpt lat="44.3217" lon="6.2479">
        <ele>1772</ele>
        <time>2014-08-31T12:04:49.1Z</time>
      </trkpt>
      <trkpt lat="44.3217" lon="6.2479">
        <ele>1772</ele>
        <time>2014-08-31T12:04:54.1Z</time>
      </trkpt>
      <trkpt lat="44.3217" lon="6.2479">
        <ele>1772</ele>
        <time>2014-08-31T12:04:59.1Z</time>
      </trkpt>
      <trkpt lat="44.3217" lon="6.24791">
        <ele>1772</ele>
        <time>2014-08-31T12:05:05.1Z</time>
      </trkpt>
      <trkpt lat="44.3217" lon="6.24791">
        <ele>1772</ele>
        <time>2014-08-31T12:05:12.1Z</time>
      </trkpt>
      <trkpt lat="44.3217" lon="6.24791">
        <ele>1773</ele>
        <time>2014-08-31T12:05:17.1Z</time>
      </trkpt>
      <trkpt lat="44.3217" lon="6.24791">
        <ele>1773</ele>
        <time>2014-08-31T12:05:23.1Z</time>
      </trkpt>
      <trkpt lat="44.3217" lon="6.24792">
        <ele>1773</ele>
        <time>2014-08-31T12:05:30.1Z</time>
      </trkpt>
      <trkpt lat="44.3217" lon="6.24792">
        <ele>1772</ele>
        <time>2014-08-31T12:05:36.1Z</time>
      </trkpt>
      <trkpt lat="44.3217" lon="6.24792">
        <ele>1772</ele>
        <time>2014-08-31T12:05:44.1Z</time>
      </trkpt>
      <trkpt lat="44.3217" lon="6.24793">
        <ele>1773</ele>
        <time>2014-08-31T12:05:51.1Z</time>
      </trkpt>
      <trkpt lat="44.3217" lon="6.24793">
        <ele>1772</ele>
        <time>2014-08-31T12:05:56.1Z</time>
      </trkpt>
      <trkpt lat="44.3217" lon="6.24793">
        <ele>1772</ele>
        <time>2014-08-31T12:06:02.1Z</time>
      </trkpt>
      <trkpt lat="44.32169" lon="6.24792">
        <ele>1772</ele>
        <time>2014-08-31T12:06:08.1Z</time>
      </trkpt>
      <trkpt lat="44.32169" lon="6.24791">
        <ele>1772</ele>
        <time>2014-08-31T12:06:14.1Z</time>
      </trkpt>
      <trkpt lat="44.32167" lon="6.24792">
        <ele>1773</ele>
        <time>2014-08-31T12:06:20.1Z</time>
      </trkpt>
      <trkpt lat="44.32168" lon="6.24791">
        <ele>1772</ele>
        <time>2014-08-31T12:06:26.1Z</time>
      </trkpt>
      <trkpt lat="44.32168" lon="6.24791">
        <ele>1773</ele>
        <time>2014-08-31T12:06:32.1Z</time>
      </trkpt>
      <trkpt lat="44.32168" lon="6.24789">
        <ele>1772</ele>
        <time>2014-08-31T12:06:37.1Z</time>
      </trkpt>
      <trkpt lat="44.32169" lon="6.24789">
        <ele>1772</ele>
        <time>2014-08-31T12:06:43.1Z</time>
      </trkpt>
      <trkpt lat="44.32169" lon="6.2479">
        <ele>1772</ele>
        <time>2014-08-31T12:06:48.1Z</time>
      </trkpt>
      <trkpt lat="44.3217" lon="6.2479">
        <ele>1773</ele>
        <time>2014-08-31T12:06:53.1Z</time>
      </trkpt>
      <trkpt lat="44.32172" lon="6.2479">
        <ele>1772</ele>
        <time>2014-08-31T12:06:59.1Z</time>
      </trkpt>
      <trkpt lat="44.32173" lon="6.2479">
        <ele>1772</ele>
        <time>2014-08-31T12:07:04.1Z</time>
      </trkpt>
      <trkpt lat="44.32174" lon="6.24791">
        <ele>1772</ele>
        <time>2014-08-31T12:07:10.1Z</time>
      </trkpt>
      <trkpt lat="44.32175" lon="6.24791">
        <ele>1772</ele>
        <time>2014-08-31T12:07:16.1Z</time>
      </trkpt>
      <trkpt lat="44.32175" lon="6.24792">
        <ele>1772</ele>
        <time>2014-08-31T12:07:23.1Z</time>
      </trkpt>
      <trkpt lat="44.32174" lon="6.24792">
        <ele>1772</ele>
        <time>2014-08-31T12:07:29.1Z</time>
      </trkpt>
      <trkpt lat="44.32174" lon="6.24793">
        <ele>1772</ele>
        <time>2014-08-31T12:07:35.1Z</time>
      </trkpt>
      <trkpt lat="44.32174" lon="6.24793">
        <ele>1772</ele>
        <time>2014-08-31T12:07:40.1Z</time>
      </trkpt>
      <trkpt lat="44.32174" lon="6.24793">
        <ele>1773</ele>
        <time>2014-08-31T12:07:46.1Z</time>
      </trkpt>
      <trkpt lat="44.32175" lon="6.24793">
        <ele>1772</ele>
        <time>2014-08-31T12:07:51.1Z</time>
      </trkpt>
      <trkpt lat="44.32174" lon="6.24793">
        <ele>1772</ele>
        <time>2014-08-31T12:07:57.1Z</time>
      </trkpt>
      <trkpt lat="44.32174" lon="6.24792">
        <ele>1772</ele>
        <time>2014-08-31T12:08:04.1Z</time>
      </trkpt>
      <trkpt lat="44.32173" lon="6.24792">
        <ele>1772</ele>
        <time>2014-08-31T12:08:11.1Z</time>
      </trkpt>
      <trkpt lat="44.32173" lon="6.24792">
        <ele>1772</ele>
        <time>2014-08-31T12:08:16.1Z</time>
      </trkpt>
      <trkpt lat="44.32172" lon="6.24792">
        <ele>1773</ele>
        <time>2014-08-31T12:08:22.1Z</time>
      </trkpt>
      <trkpt lat="44.32172" lon="6.24792">
        <ele>1773</ele>
        <time>2014-08-31T12:08:28.1Z</time>
      </trkpt>
      <trkpt lat="44.32171" lon="6.24792">
        <ele>1773</ele>
        <time>2014-08-31T12:08:34.1Z</time>
      </trkpt>
      <trkpt lat="44.32171" lon="6.24792">
        <ele>1773</ele>
        <time>2014-08-31T12:08:40.1Z</time>
      </trkpt>
      <trkpt lat="44.32171" lon="6.24792">
        <ele>1773</ele>
        <time>2014-08-31T12:08:45.1Z</time>
      </trkpt>
      <trkpt lat="44.32171" lon="6.24792">
        <ele>1772</ele>
        <time>2014-08-31T12:08:51.1Z</time>
      </trkpt>
      <trkpt lat="44.32172" lon="6.24792">
        <ele>1772</ele>
        <time>2014-08-31T12:08:57.1Z</time>
      </trkpt>
      <trkpt lat="44.32173" lon="6.24791">
        <ele>1772</ele>
        <time>2014-08-31T12:09:02.1Z</time>
      </trkpt>
      <trkpt lat="44.32174" lon="6.24791">
        <ele>1773</ele>
        <time>2014-08-31T12:09:08.1Z</time>
      </trkpt>
      <trkpt lat="44.32174" lon="6.24789">
        <ele>1772</ele>
        <time>2014-08-31T12:09:16.1Z</time>
      </trkpt>
      <trkpt lat="44.32173" lon="6.2479">
        <ele>1771</ele>
        <time>2014-08-31T12:09:21.1Z</time>
      </trkpt>
      <trkpt lat="44.32172" lon="6.2479">
        <ele>1771</ele>
        <time>2014-08-31T12:09:28.1Z</time>
      </trkpt>
      <trkpt lat="44.32171" lon="6.2479">
        <ele>1772</ele>
        <time>2014-08-31T12:09:36.1Z</time>
      </trkpt>
      <trkpt lat="44.32171" lon="6.2479">
        <ele>1772</ele>
        <time>2014-08-31T12:09:41.1Z</time>
      </trkpt>
      <trkpt lat="44.32171" lon="6.24789">
        <ele>1772</ele>
        <time>2014-08-31T12:09:48.1Z</time>
      </trkpt>
      <trkpt lat="44.32171" lon="6.24789">
        <ele>1772</ele>
        <time>2014-08-31T12:09:56.1Z</time>
      </trkpt>
      <trkpt lat="44.32171" lon="6.24789">
        <ele>1772</ele>
        <time>2014-08-31T12:10:06.1Z</time>
      </trkpt>
      <trkpt lat="44.32171" lon="6.24789">
        <ele>1772</ele>
        <time>2014-08-31T12:10:12.1Z</time>
      </trkpt>
      <trkpt lat="44.32171" lon="6.24789">
        <ele>1772</ele>
        <time>2014-08-31T12:10:17.1Z</time>
      </trkpt>
      <trkpt lat="44.32171" lon="6.24789">
        <ele>1772</ele>
        <time>2014-08-31T12:10:26.1Z</time>
      </trkpt>
      <trkpt lat="44.32171" lon="6.24788">
        <ele>1772</ele>
        <time>2014-08-31T12:10:31.1Z</time>
      </trkpt>
      <trkpt lat="44.32172" lon="6.24788">
        <ele>1772</ele>
        <time>2014-08-31T12:10:37.1Z</time>
      </trkpt>
      <trkpt lat="44.32172" lon="6.24788">
        <ele>1772</ele>
        <time>2014-08-31T12:10:42.1Z</time>
      </trkpt>
      <trkpt lat="44.32172" lon="6.24788">
        <ele>1772</ele>
        <time>2014-08-31T12:10:49.1Z</time>
      </trkpt>
      <trkpt lat="44.32172" lon="6.24789">
        <ele>1772</ele>
        <time>2014-08-31T12:10:55.1Z</time>
      </trkpt>
      <trkpt lat="44.32171" lon="6.24789">
        <ele>1773</ele>
        <time>2014-08-31T12:11:00.1Z</time>
      </trkpt>
      <trkpt lat="44.32171" lon="6.24789">
        <ele>1773</ele>
        <time>2014-08-31T12:11:06.1Z</time>
      </trkpt>
      <trkpt lat="44.32171" lon="6.2479">
        <ele>1773</ele>
        <time>2014-08-31T12:11:11.1Z</time>
      </trkpt>
      <trkpt lat="44.32171" lon="6.24791">
        <ele>1774</ele>
        <time>2014-08-31T12:11:17.1Z</time>
      </trkpt>
      <trkpt lat="44.32171" lon="6.24793">
        <ele>1774</ele>
        <time>2014-08-31T12:11:23.1Z</time>
      </trkpt>
      <trkpt lat="44.3217" lon="6.24794">
        <ele>1773</ele>
        <time>2014-08-31T12:11:28.1Z</time>
      </trkpt>
      <trkpt lat="44.3217" lon="6.24793">
        <ele>1773</ele>
        <time>2014-08-31T12:11:36.1Z</time>
      </trkpt>
      <trkpt lat="44.3217" lon="6.24793">
        <ele>1774</ele>
        <time>2014-08-31T12:11:43.1Z</time>
      </trkpt>
      <trkpt lat="44.3217" lon="6.24793">
        <ele>1774</ele>
        <time>2014-08-31T12:11:50.1Z</time>
      </trkpt>
      <trkpt lat="44.3217" lon="6.24793">
        <ele>1774</ele>
        <time>2014-08-31T12:11:56.1Z</time>
      </trkpt>
      <trkpt lat="44.3217" lon="6.24792">
        <ele>1775</ele>
        <time>2014-08-31T12:12:03.1Z</time>
      </trkpt>
      <trkpt lat="44.32167" lon="6.2479">
        <ele>1774</ele>
        <time>2014-08-31T12:12:09.1Z</time>
      </trkpt>
      <trkpt lat="44.32156" lon="6.24774">
        <ele>1772</ele>
        <time>2014-08-31T12:12:15.1Z</time>
      </trkpt>
      <trkpt lat="44.32142" lon="6.24758">
        <ele>1770</ele>
        <time>2014-08-31T12:12:21.1Z</time>
      </trkpt>
      <trkpt lat="44.3213" lon="6.24741">
        <ele>1768</ele>
        <time>2014-08-31T12:12:27.1Z</time>
      </trkpt>
      <trkpt lat="44.3211" lon="6.24727">
        <ele>1765</ele>
        <time>2014-08-31T12:12:32.1Z</time>
      </trkpt>
      <trkpt lat="44.32087" lon="6.24712">
        <ele>1761</ele>
        <time>2014-08-31T12:12:37.1Z</time>
      </trkpt>
      <trkpt lat="44.32069" lon="6.24696">
        <ele>1759</ele>
        <time>2014-08-31T12:12:43.1Z</time>
      </trkpt>
      <trkpt lat="44.32062" lon="6.24689">
        <ele>1759</ele>
        <time>2014-08-31T12:12:48.1Z</time>
      </trkpt>
      <trkpt lat="44.32055" lon="6.24681">
        <ele>1759</ele>
        <time>2014-08-31T12:12:54.1Z</time>
      </trkpt>
      <trkpt lat="44.3205" lon="6.24671">
        <ele>1757</ele>
        <time>2014-08-31T12:13:00.1Z</time>
      </trkpt>
      <trkpt lat="44.32045" lon="6.24667">
        <ele>1756</ele>
        <time>2014-08-31T12:13:06.1Z</time>
      </trkpt>
      <trkpt lat="44.32044" lon="6.24667">
        <ele>1755</ele>
        <time>2014-08-31T12:13:13.1Z</time>
      </trkpt>
      <trkpt lat="44.32044" lon="6.24667">
        <ele>1754</ele>
        <time>2014-08-31T12:13:20.1Z</time>
      </trkpt>
      <trkpt lat="44.32043" lon="6.24667">
        <ele>1754</ele>
        <time>2014-08-31T12:13:26.1Z</time>
      </trkpt>
      <trkpt lat="44.32035" lon="6.24664">
        <ele>1754</ele>
        <time>2014-08-31T12:13:31.1Z</time>
      </trkpt>
      <trkpt lat="44.32025" lon="6.24663">
        <ele>1752</ele>
        <time>2014-08-31T12:13:36.1Z</time>
      </trkpt>
      <trkpt lat="44.32013" lon="6.24657">
        <ele>1749</ele>
        <time>2014-08-31T12:13:42.1Z</time>
      </trkpt>
      <trkpt lat="44.32" lon="6.24647">
        <ele>1745</ele>
        <time>2014-08-31T12:13:48.1Z</time>
      </trkpt>
      <trkpt lat="44.31992" lon="6.24625">
        <ele>1740</ele>
        <time>2014-08-31T12:13:54.1Z</time>
      </trkpt>
      <trkpt lat="44.31991" lon="6.24607">
        <ele>1737</ele>
        <time>2014-08-31T12:13:59.1Z</time>
      </trkpt>
      <trkpt lat="44.31979" lon="6.24564">
        <ele>1735</ele>
        <time>2014-08-31T12:14:05.1Z</time>
      </trkpt>
      <trkpt lat="44.31973" lon="6.24534">
        <ele>1733</ele>
        <time>2014-08-31T12:14:11.1Z</time>
      </trkpt>
      <trkpt lat="44.31972" lon="6.24524">
        <ele>1733</ele>
        <time>2014-08-31T12:14:16.1Z</time>
      </trkpt>
      <trkpt lat="44.31975" lon="6.2452">
        <ele>1733</ele>
        <time>2014-08-31T12:14:22.1Z</time>
      </trkpt>
      <trkpt lat="44.31972" lon="6.24526">
        <ele>1733</ele>
        <time>2014-08-31T12:14:27.1Z</time>
      </trkpt>
      <trkpt lat="44.31971" lon="6.24525">
        <ele>1733</ele>
        <time>2014-08-31T12:14:38.1Z</time>
      </trkpt>
      <trkpt lat="44.31972" lon="6.24525">
        <ele>1734</ele>
        <time>2014-08-31T12:14:50.1Z</time>
      </trkpt>
      <trkpt lat="44.31972" lon="6.24526">
        <ele>1734</ele>
        <time>2014-08-31T12:14:58.1Z</time>
      </trkpt>
      <trkpt lat="44.31972" lon="6.24526">
        <ele>1734</ele>
        <time>2014-08-31T12:15:05.1Z</time>
      </trkpt>
      <trkpt lat="44.31972" lon="6.24523">
        <ele>1733</ele>
        <time>2014-08-31T12:15:11.1Z</time>
      </trkpt>
      <trkpt lat="44.31973" lon="6.2451">
        <ele>1734</ele>
        <time>2014-08-31T12:15:17.1Z</time>
      </trkpt>
      <trkpt lat="44.31972" lon="6.24497">
        <ele>1734</ele>
        <time>2014-08-31T12:15:23.1Z</time>
      </trkpt>
      <trkpt lat="44.31972" lon="6.24485">
        <ele>1735</ele>
        <time>2014-08-31T12:15:29.1Z</time>
      </trkpt>
      <trkpt lat="44.31969" lon="6.24473">
        <ele>1736</ele>
        <time>2014-08-31T12:15:35.1Z</time>
      </trkpt>
      <trkpt lat="44.31969" lon="6.24468">
        <ele>1736</ele>
        <time>2014-08-31T12:15:40.1Z</time>
      </trkpt>
      <trkpt lat="44.31968" lon="6.24463">
        <ele>1738</ele>
        <time>2014-08-31T12:15:45.1Z</time>
      </trkpt>
      <trkpt lat="44.31966" lon="6.24457">
        <ele>1739</ele>
        <time>2014-08-31T12:15:51.1Z</time>
      </trkpt>
      <trkpt lat="44.31964" lon="6.24451">
        <ele>1739</ele>
        <time>2014-08-31T12:15:57.1Z</time>
      </trkpt>
      <trkpt lat="44.31963" lon="6.24447">
        <ele>1739</ele>
        <time>2014-08-31T12:16:03.1Z</time>
      </trkpt>
      <trkpt lat="44.31963" lon="6.24446">
        <ele>1740</ele>
        <time>2014-08-31T12:16:09.1Z</time>
      </trkpt>
      <trkpt lat="44.31962" lon="6.24441">
        <ele>1740</ele>
        <time>2014-08-31T12:16:15.1Z</time>
      </trkpt>
      <trkpt lat="44.31962" lon="6.24435">
        <ele>1741</ele>
        <time>2014-08-31T12:16:21.1Z</time>
      </trkpt>
      <trkpt lat="44.31961" lon="6.24428">
        <ele>1742</ele>
        <time>2014-08-31T12:16:27.1Z</time>
      </trkpt>
      <trkpt lat="44.3196" lon="6.24422">
        <ele>1743</ele>
        <time>2014-08-31T12:16:33.1Z</time>
      </trkpt>
      <trkpt lat="44.3196" lon="6.24417">
        <ele>1744</ele>
        <time>2014-08-31T12:16:38.1Z</time>
      </trkpt>
      <trkpt lat="44.3196" lon="6.24412">
        <ele>1744</ele>
        <time>2014-08-31T12:16:43.1Z</time>
      </trkpt>
      <trkpt lat="44.31961" lon="6.24407">
        <ele>1745</ele>
        <time>2014-08-31T12:16:48.1Z</time>
      </trkpt>
      <trkpt lat="44.31963" lon="6.24402">
        <ele>1746</ele>
        <time>2014-08-31T12:16:54.1Z</time>
      </trkpt>
      <trkpt lat="44.31962" lon="6.24396">
        <ele>1747</ele>
        <time>2014-08-31T12:17:00.1Z</time>
      </trkpt>
      <trkpt lat="44.31961" lon="6.2439">
        <ele>1748</ele>
        <time>2014-08-31T12:17:06.1Z</time>
      </trkpt>
      <trkpt lat="44.3196" lon="6.24384">
        <ele>1749</ele>
        <time>2014-08-31T12:17:12.1Z</time>
      </trkpt>
      <trkpt lat="44.31958" lon="6.2438">
        <ele>1750</ele>
        <time>2014-08-31T12:17:18.1Z</time>
      </trkpt>
      <trkpt lat="44.31956" lon="6.24375">
        <ele>1751</ele>
        <time>2014-08-31T12:17:24.1Z</time>
      </trkpt>
      <trkpt lat="44.31953" lon="6.24371">
        <ele>1752</ele>
        <time>2014-08-31T12:17:30.1Z</time>
      </trkpt>
      <trkpt lat="44.31952" lon="6.24366">
        <ele>1752</ele>
        <time>2014-08-31T12:17:35.1Z</time>
      </trkpt>
      <trkpt lat="44.31953" lon="6.24361">
        <ele>1754</ele>
        <time>2014-08-31T12:17:40.1Z</time>
      </trkpt>
      <trkpt lat="44.31955" lon="6.24357">
        <ele>1755</ele>
        <time>2014-08-31T12:17:46.1Z</time>
      </trkpt>
      <trkpt lat="44.31956" lon="6.24353">
        <ele>1755</ele>
        <time>2014-08-31T12:17:51.1Z</time>
      </trkpt>
      <trkpt lat="44.31954" lon="6.24349">
        <ele>1755</ele>
        <time>2014-08-31T12:17:56.1Z</time>
      </trkpt>
      <trkpt lat="44.31951" lon="6.24346">
        <ele>1756</ele>
        <time>2014-08-31T12:18:01.1Z</time>
      </trkpt>
      <trkpt lat="44.31948" lon="6.24342">
        <ele>1756</ele>
        <time>2014-08-31T12:18:07.1Z</time>
      </trkpt>
      <trkpt lat="44.31944" lon="6.24338">
        <ele>1756</ele>
        <time>2014-08-31T12:18:13.1Z</time>
      </trkpt>
      <trkpt lat="44.3194" lon="6.24332">
        <ele>1757</ele>
        <time>2014-08-31T12:18:19.1Z</time>
      </trkpt>
      <trkpt lat="44.31937" lon="6.24326">
        <ele>1757</ele>
        <time>2014-08-31T12:18:25.1Z</time>
      </trkpt>
      <trkpt lat="44.31933" lon="6.24322">
        <ele>1757</ele>
        <time>2014-08-31T12:18:31.1Z</time>
      </trkpt>
      <trkpt lat="44.31932" lon="6.24321">
        <ele>1757</ele>
        <time>2014-08-31T12:18:36.1Z</time>
      </trkpt>
      <trkpt lat="44.31929" lon="6.24318">
        <ele>1758</ele>
        <time>2014-08-31T12:18:41.1Z</time>
      </trkpt>
      <trkpt lat="44.31925" lon="6.24309">
        <ele>1758</ele>
        <time>2014-08-31T12:18:47.1Z</time>
      </trkpt>
      <trkpt lat="44.31923" lon="6.24298">
        <ele>1758</ele>
        <time>2014-08-31T12:18:53.1Z</time>
      </trkpt>
      <trkpt lat="44.31919" lon="6.24293">
        <ele>1759</ele>
        <time>2014-08-31T12:18:59.1Z</time>
      </trkpt>
      <trkpt lat="44.31917" lon="6.24286">
        <ele>1758</ele>
        <time>2014-08-31T12:19:05.1Z</time>
      </trkpt>
      <trkpt lat="44.31914" lon="6.24281">
        <ele>1758</ele>
        <time>2014-08-31T12:19:11.1Z</time>
      </trkpt>
      <trkpt lat="44.31912" lon="6.24278">
        <ele>1758</ele>
        <time>2014-08-31T12:19:17.1Z</time>
      </trkpt>
      <trkpt lat="44.31909" lon="6.24273">
        <ele>1758</ele>
        <time>2014-08-31T12:19:22.1Z</time>
      </trkpt>
      <trkpt lat="44.31908" lon="6.24271">
        <ele>1759</ele>
        <time>2014-08-31T12:19:28.1Z</time>
      </trkpt>
      <trkpt lat="44.31907" lon="6.2427">
        <ele>1759</ele>
        <time>2014-08-31T12:19:33.1Z</time>
      </trkpt>
      <trkpt lat="44.31904" lon="6.24266">
        <ele>1760</ele>
        <time>2014-08-31T12:19:39.1Z</time>
      </trkpt>
      <trkpt lat="44.319" lon="6.2426">
        <ele>1759</ele>
        <time>2014-08-31T12:19:45.1Z</time>
      </trkpt>
      <trkpt lat="44.31897" lon="6.24255">
        <ele>1758</ele>
        <time>2014-08-31T12:19:50.1Z</time>
      </trkpt>
      <trkpt lat="44.31896" lon="6.2425">
        <ele>1758</ele>
        <time>2014-08-31T12:19:55.1Z</time>
      </trkpt>
      <trkpt lat="44.31895" lon="6.24244">
        <ele>1758</ele>
        <time>2014-08-31T12:20:00.1Z</time>
      </trkpt>
      <trkpt lat="44.31894" lon="6.24236">
        <ele>1758</ele>
        <time>2014-08-31T12:20:06.1Z</time>
      </trkpt>
      <trkpt lat="44.31893" lon="6.24232">
        <ele>1758</ele>
        <time>2014-08-31T12:20:12.1Z</time>
      </trkpt>
      <trkpt lat="44.31893" lon="6.24229">
        <ele>1757</ele>
        <time>2014-08-31T12:20:17.1Z</time>
      </trkpt>
      <trkpt lat="44.3189" lon="6.24218">
        <ele>1756</ele>
        <time>2014-08-31T12:20:22.1Z</time>
      </trkpt>
      <trkpt lat="44.31893" lon="6.24213">
        <ele>1753</ele>
        <time>2014-08-31T12:20:28.1Z</time>
      </trkpt>
      <trkpt lat="44.31894" lon="6.24212">
        <ele>1752</ele>
        <time>2014-08-31T12:20:33.1Z</time>
      </trkpt>
      <trkpt lat="44.31897" lon="6.24211">
        <ele>1752</ele>
        <time>2014-08-31T12:20:38.1Z</time>
      </trkpt>
      <trkpt lat="44.31897" lon="6.24208">
        <ele>1752</ele>
        <time>2014-08-31T12:20:43.1Z</time>
      </trkpt>
      <trkpt lat="44.31897" lon="6.24207">
        <ele>1751</ele>
        <time>2014-08-31T12:20:48.1Z</time>
      </trkpt>
      <trkpt lat="44.31897" lon="6.24206">
        <ele>1752</ele>
        <time>2014-08-31T12:20:56.1Z</time>
      </trkpt>
      <trkpt lat="44.31896" lon="6.24205">
        <ele>1752</ele>
        <time>2014-08-31T12:21:02.1Z</time>
      </trkpt>
      <trkpt lat="44.31888" lon="6.24199">
        <ele>1751</ele>
        <time>2014-08-31T12:21:07.1Z</time>
      </trkpt>
      <trkpt lat="44.31874" lon="6.24181">
        <ele>1749</ele>
        <time>2014-08-31T12:21:13.1Z</time>
      </trkpt>
      <trkpt lat="44.31862" lon="6.24159">
        <ele>1748</ele>
        <time>2014-08-31T12:21:18.1Z</time>
      </trkpt>
      <trkpt lat="44.31855" lon="6.24138">
        <ele>1747</ele>
        <time>2014-08-31T12:21:23.1Z</time>
      </trkpt>
      <trkpt lat="44.31855" lon="6.24115">
        <ele>1747</ele>
        <time>2014-08-31T12:21:29.1Z</time>
      </trkpt>
      <trkpt lat="44.31855" lon="6.24093">
        <ele>1746</ele>
        <time>2014-08-31T12:21:34.1Z</time>
      </trkpt>
      <trkpt lat="44.31853" lon="6.24072">
        <ele>1747</ele>
        <time>2014-08-31T12:21:39.1Z</time>
      </trkpt>
      <trkpt lat="44.31842" lon="6.24049">
        <ele>1745</ele>
        <time>2014-08-31T12:21:45.1Z</time>
      </trkpt>
      <trkpt lat="44.31827" lon="6.24031">
        <ele>1745</ele>
        <time>2014-08-31T12:21:50.1Z</time>
      </trkpt>
      <trkpt lat="44.31815" lon="6.24012">
        <ele>1744</ele>
        <time>2014-08-31T12:21:55.1Z</time>
      </trkpt>
      <trkpt lat="44.31818" lon="6.23983">
        <ele>1742</ele>
        <time>2014-08-31T12:22:01.1Z</time>
      </trkpt>
      <trkpt lat="44.31818" lon="6.23959">
        <ele>1741</ele>
        <time>2014-08-31T12:22:07.1Z</time>
      </trkpt>
      <trkpt lat="44.31816" lon="6.23933">
        <ele>1739</ele>
        <time>2014-08-31T12:22:12.1Z</time>
      </trkpt>
      <trkpt lat="44.31816" lon="6.23909">
        <ele>1737</ele>
        <time>2014-08-31T12:22:17.1Z</time>
      </trkpt>
      <trkpt lat="44.31813" lon="6.23886">
        <ele>1735</ele>
        <time>2014-08-31T12:22:22.1Z</time>
      </trkpt>
      <trkpt lat="44.31806" lon="6.2385">
        <ele>1734</ele>
        <time>2014-08-31T12:22:28.1Z</time>
      </trkpt>
      <trkpt lat="44.31799" lon="6.23815">
        <ele>1733</ele>
        <time>2014-08-31T12:22:33.1Z</time>
      </trkpt>
      <trkpt lat="44.31794" lon="6.23773">
        <ele>1730</ele>
        <time>2014-08-31T12:22:39.1Z</time>
      </trkpt>
      <trkpt lat="44.31793" lon="6.23747">
        <ele>1731</ele>
        <time>2014-08-31T12:22:45.1Z</time>
      </trkpt>
      <trkpt lat="44.31788" lon="6.23724">
        <ele>1732</ele>
        <time>2014-08-31T12:22:51.1Z</time>
      </trkpt>
      <trkpt lat="44.31788" lon="6.2372">
        <ele>1731</ele>
        <time>2014-08-31T12:22:56.1Z</time>
      </trkpt>
      <trkpt lat="44.31788" lon="6.23722">
        <ele>1730</ele>
        <time>2014-08-31T12:23:02.1Z</time>
      </trkpt>
      <trkpt lat="44.31789" lon="6.23722">
        <ele>1730</ele>
        <time>2014-08-31T12:23:07.1Z</time>
      </trkpt>
      <trkpt lat="44.31789" lon="6.23722">
        <ele>1731</ele>
        <time>2014-08-31T12:23:12.1Z</time>
      </trkpt>
      <trkpt lat="44.31789" lon="6.23723">
        <ele>1731</ele>
        <time>2014-08-31T12:23:17.1Z</time>
      </trkpt>
      <trkpt lat="44.31788" lon="6.23721">
        <ele>1731</ele>
        <time>2014-08-31T12:23:24.1Z</time>
      </trkpt>
      <trkpt lat="44.31788" lon="6.23722">
        <ele>1731</ele>
        <time>2014-08-31T12:23:31.1Z</time>
      </trkpt>
      <trkpt lat="44.31788" lon="6.23722">
        <ele>1731</ele>
        <time>2014-08-31T12:23:36.1Z</time>
      </trkpt>
      <trkpt lat="44.31788" lon="6.23722">
        <ele>1730</ele>
        <time>2014-08-31T12:23:43.1Z</time>
      </trkpt>
      <trkpt lat="44.31787" lon="6.23721">
        <ele>1730</ele>
        <time>2014-08-31T12:23:48.1Z</time>
      </trkpt>
      <trkpt lat="44.31787" lon="6.23721">
        <ele>1730</ele>
        <time>2014-08-31T12:23:53.1Z</time>
      </trkpt>
      <trkpt lat="44.31787" lon="6.23721">
        <ele>1731</ele>
        <time>2014-08-31T12:24:00.1Z</time>
      </trkpt>
      <trkpt lat="44.31787" lon="6.2372">
        <ele>1731</ele>
        <time>2014-08-31T12:24:07.1Z</time>
      </trkpt>
      <trkpt lat="44.31787" lon="6.2372">
        <ele>1731</ele>
        <time>2014-08-31T12:24:12.1Z</time>
      </trkpt>
      <trkpt lat="44.31787" lon="6.2372">
        <ele>1731</ele>
        <time>2014-08-31T12:24:18.1Z</time>
      </trkpt>
      <trkpt lat="44.31787" lon="6.2372">
        <ele>1731</ele>
        <time>2014-08-31T12:24:23.1Z</time>
      </trkpt>
      <trkpt lat="44.31787" lon="6.23721">
        <ele>1731</ele>
        <time>2014-08-31T12:24:29.1Z</time>
      </trkpt>
      <trkpt lat="44.31788" lon="6.23717">
        <ele>1731</ele>
        <time>2014-08-31T12:24:34.1Z</time>
      </trkpt>
      <trkpt lat="44.31787" lon="6.2371">
        <ele>1731</ele>
        <time>2014-08-31T12:24:39.1Z</time>
      </trkpt>
      <trkpt lat="44.31785" lon="6.23706">
        <ele>1730</ele>
        <time>2014-08-31T12:24:44.1Z</time>
      </trkpt>
      <trkpt lat="44.31784" lon="6.23703">
        <ele>1730</ele>
        <time>2014-08-31T12:24:53.1Z</time>
      </trkpt>
      <trkpt lat="44.31783" lon="6.23701">
        <ele>1730</ele>
        <time>2014-08-31T12:25:00.1Z</time>
      </trkpt>
      <trkpt lat="44.31783" lon="6.23701">
        <ele>1730</ele>
        <time>2014-08-31T12:25:05.1Z</time>
      </trkpt>
      <trkpt lat="44.31783" lon="6.23701">
        <ele>1730</ele>
        <time>2014-08-31T12:25:11.1Z</time>
      </trkpt>
      <trkpt lat="44.31781" lon="6.23701">
        <ele>1730</ele>
        <time>2014-08-31T12:25:16.1Z</time>
      </trkpt>
      <trkpt lat="44.31783" lon="6.23701">
        <ele>1730</ele>
        <time>2014-08-31T12:25:22.1Z</time>
      </trkpt>
      <trkpt lat="44.31785" lon="6.23704">
        <ele>1730</ele>
        <time>2014-08-31T12:25:28.1Z</time>
      </trkpt>
      <trkpt lat="44.31786" lon="6.23706">
        <ele>1730</ele>
        <time>2014-08-31T12:25:34.1Z</time>
      </trkpt>
      <trkpt lat="44.31787" lon="6.23708">
        <ele>1730</ele>
        <time>2014-08-31T12:25:40.1Z</time>
      </trkpt>
      <trkpt lat="44.31786" lon="6.23711">
        <ele>1730</ele>
        <time>2014-08-31T12:25:46.1Z</time>
      </trkpt>
      <trkpt lat="44.31787" lon="6.23711">
        <ele>1730</ele>
        <time>2014-08-31T12:25:51.1Z</time>
      </trkpt>
      <trkpt lat="44.31791" lon="6.23712">
        <ele>1730</ele>
        <time>2014-08-31T12:25:56.1Z</time>
      </trkpt>
      <trkpt lat="44.31792" lon="6.23712">
        <ele>1731</ele>
        <time>2014-08-31T12:26:03.1Z</time>
      </trkpt>
      <trkpt lat="44.31791" lon="6.23712">
        <ele>1730</ele>
        <time>2014-08-31T12:26:10.1Z</time>
      </trkpt>
      <trkpt lat="44.31792" lon="6.23712">
        <ele>1730</ele>
        <time>2014-08-31T12:26:15.1Z</time>
      </trkpt>
      <trkpt lat="44.31791" lon="6.23712">
        <ele>1730</ele>
        <time>2014-08-31T12:26:21.1Z</time>
      </trkpt>
      <trkpt lat="44.31791" lon="6.23712">
        <ele>1731</ele>
        <time>2014-08-31T12:26:26.1Z</time>
      </trkpt>
      <trkpt lat="44.31789" lon="6.23714">
        <ele>1731</ele>
        <time>2014-08-31T12:26:31.1Z</time>
      </trkpt>
      <trkpt lat="44.31787" lon="6.23714">
        <ele>1731</ele>
        <time>2014-08-31T12:26:36.1Z</time>
      </trkpt>
      <trkpt lat="44.31787" lon="6.23714">
        <ele>1731</ele>
        <time>2014-08-31T12:26:41.1Z</time>
      </trkpt>
      <trkpt lat="44.31787" lon="6.23713">
        <ele>1731</ele>
        <time>2014-08-31T12:26:47.1Z</time>
      </trkpt>
      <trkpt lat="44.31788" lon="6.23717">
        <ele>1731</ele>
        <time>2014-08-31T12:26:52.1Z</time>
      </trkpt>
      <trkpt lat="44.31789" lon="6.23721">
        <ele>1731</ele>
        <time>2014-08-31T12:26:58.1Z</time>
      </trkpt>
      <trkpt lat="44.31788" lon="6.23722">
        <ele>1731</ele>
        <time>2014-08-31T12:27:04.1Z</time>
      </trkpt>
      <trkpt lat="44.31787" lon="6.23721">
        <ele>1731</ele>
        <time>2014-08-31T12:27:10.1Z</time>
      </trkpt>
      <trkpt lat="44.31787" lon="6.2372">
        <ele>1731</ele>
        <time>2014-08-31T12:27:15.1Z</time>
      </trkpt>
      <trkpt lat="44.31787" lon="6.23717">
        <ele>1731</ele>
        <time>2014-08-31T12:27:21.1Z</time>
      </trkpt>
      <trkpt lat="44.31788" lon="6.23709">
        <ele>1731</ele>
        <time>2014-08-31T12:27:26.1Z</time>
      </trkpt>
      <trkpt lat="44.31788" lon="6.2371">
        <ele>1731</ele>
        <time>2014-08-31T12:27:32.1Z</time>
      </trkpt>
      <trkpt lat="44.31787" lon="6.23709">
        <ele>1731</ele>
        <time>2014-08-31T12:27:37.1Z</time>
      </trkpt>
      <trkpt lat="44.31786" lon="6.23709">
        <ele>1731</ele>
        <time>2014-08-31T12:27:43.1Z</time>
      </trkpt>
      <trkpt lat="44.31786" lon="6.23709">
        <ele>1731</ele>
        <time>2014-08-31T12:27:49.1Z</time>
      </trkpt>
      <trkpt lat="44.31785" lon="6.23708">
        <ele>1731</ele>
        <time>2014-08-31T12:27:55.1Z</time>
      </trkpt>
      <trkpt lat="44.31785" lon="6.23707">
        <ele>1731</ele>
        <time>2014-08-31T12:28:01.1Z</time>
      </trkpt>
      <trkpt lat="44.31785" lon="6.23706">
        <ele>1731</ele>
        <time>2014-08-31T12:28:16.1Z</time>
      </trkpt>
      <trkpt lat="44.31783" lon="6.23699">
        <ele>1731</ele>
        <time>2014-08-31T12:28:21.1Z</time>
      </trkpt>
      <trkpt lat="44.31779" lon="6.23685">
        <ele>1730</ele>
        <time>2014-08-31T12:28:26.1Z</time>
      </trkpt>
      <trkpt lat="44.31776" lon="6.23677">
        <ele>1729</ele>
        <time>2014-08-31T12:28:32.1Z</time>
      </trkpt>
      <trkpt lat="44.31776" lon="6.23679">
        <ele>1729</ele>
        <time>2014-08-31T12:28:38.1Z</time>
      </trkpt>
      <trkpt lat="44.31774" lon="6.23682">
        <ele>1728</ele>
        <time>2014-08-31T12:28:43.1Z</time>
      </trkpt>
      <trkpt lat="44.31773" lon="6.23682">
        <ele>1728</ele>
        <time>2014-08-31T12:28:49.1Z</time>
      </trkpt>
      <trkpt lat="44.31773" lon="6.23682">
        <ele>1729</ele>
        <time>2014-08-31T12:28:56.1Z</time>
      </trkpt>
      <trkpt lat="44.31774" lon="6.23682">
        <ele>1728</ele>
        <time>2014-08-31T12:29:02.1Z</time>
      </trkpt>
      <trkpt lat="44.31775" lon="6.23683">
        <ele>1728</ele>
        <time>2014-08-31T12:29:08.1Z</time>
      </trkpt>
      <trkpt lat="44.31774" lon="6.23683">
        <ele>1729</ele>
        <time>2014-08-31T12:29:13.1Z</time>
      </trkpt>
      <trkpt lat="44.3177" lon="6.23671">
        <ele>1728</ele>
        <time>2014-08-31T12:29:19.1Z</time>
      </trkpt>
      <trkpt lat="44.31766" lon="6.23648">
        <ele>1726</ele>
        <time>2014-08-31T12:29:25.1Z</time>
      </trkpt>
      <trkpt lat="44.31755" lon="6.23606">
        <ele>1724</ele>
        <time>2014-08-31T12:29:31.1Z</time>
      </trkpt>
      <trkpt lat="44.31741" lon="6.23565">
        <ele>1717</ele>
        <time>2014-08-31T12:29:37.1Z</time>
      </trkpt>
      <trkpt lat="44.31731" lon="6.23535">
        <ele>1712</ele>
        <time>2014-08-31T12:29:43.1Z</time>
      </trkpt>
      <trkpt lat="44.3172" lon="6.23509">
        <ele>1711</ele>
        <time>2014-08-31T12:29:49.1Z</time>
      </trkpt>
      <trkpt lat="44.31709" lon="6.23493">
        <ele>1712</ele>
        <time>2014-08-31T12:29:55.1Z</time>
      </trkpt>
      <trkpt lat="44.31699" lon="6.23479">
        <ele>1713</ele>
        <time>2014-08-31T12:30:01.1Z</time>
      </trkpt>
      <trkpt lat="44.31691" lon="6.23467">
        <ele>1713</ele>
        <time>2014-08-31T12:30:07.1Z</time>
      </trkpt>
      <trkpt lat="44.31684" lon="6.23458">
        <ele>1714</ele>
        <time>2014-08-31T12:30:12.1Z</time>
      </trkpt>
      <trkpt lat="44.31677" lon="6.2345">
        <ele>1715</ele>
        <time>2014-08-31T12:30:17.1Z</time>
      </trkpt>
      <trkpt lat="44.31669" lon="6.2344">
        <ele>1715</ele>
        <time>2014-08-31T12:30:23.1Z</time>
      </trkpt>
      <trkpt lat="44.31659" lon="6.23435">
        <ele>1717</ele>
        <time>2014-08-31T12:30:29.1Z</time>
      </trkpt>
      <trkpt lat="44.31651" lon="6.23431">
        <ele>1719</ele>
        <time>2014-08-31T12:30:35.1Z</time>
      </trkpt>
      <trkpt lat="44.31644" lon="6.23427">
        <ele>1720</ele>
        <time>2014-08-31T12:30:40.1Z</time>
      </trkpt>
      <trkpt lat="44.31638" lon="6.2342">
        <ele>1721</ele>
        <time>2014-08-31T12:30:46.1Z</time>
      </trkpt>
      <trkpt lat="44.31632" lon="6.23415">
        <ele>1721</ele>
        <time>2014-08-31T12:30:51.1Z</time>
      </trkpt>
      <trkpt lat="44.31625" lon="6.23409">
        <ele>1722</ele>
        <time>2014-08-31T12:30:57.1Z</time>
      </trkpt>
      <trkpt lat="44.31617" lon="6.234">
        <ele>1722</ele>
        <time>2014-08-31T12:31:03.1Z</time>
      </trkpt>
      <trkpt lat="44.31609" lon="6.23396">
        <ele>1722</ele>
        <time>2014-08-31T12:31:08.1Z</time>
      </trkpt>
      <trkpt lat="44.316" lon="6.23393">
        <ele>1723</ele>
        <time>2014-08-31T12:31:14.1Z</time>
      </trkpt>
      <trkpt lat="44.31594" lon="6.2339">
        <ele>1724</ele>
        <time>2014-08-31T12:31:19.1Z</time>
      </trkpt>
      <trkpt lat="44.31587" lon="6.23384">
        <ele>1724</ele>
        <time>2014-08-31T12:31:25.1Z</time>
      </trkpt>
      <trkpt lat="44.31582" lon="6.23378">
        <ele>1724</ele>
        <time>2014-08-31T12:31:30.1Z</time>
      </trkpt>
      <trkpt lat="44.31576" lon="6.23368">
        <ele>1724</ele>
        <time>2014-08-31T12:31:36.1Z</time>
      </trkpt>
      <trkpt lat="44.31572" lon="6.23361">
        <ele>1724</ele>
        <time>2014-08-31T12:31:41.1Z</time>
      </trkpt>
      <trkpt lat="44.31569" lon="6.23355">
        <ele>1724</ele>
        <time>2014-08-31T12:31:46.1Z</time>
      </trkpt>
      <trkpt lat="44.31566" lon="6.23347">
        <ele>1725</ele>
        <time>2014-08-31T12:31:52.1Z</time>
      </trkpt>
      <trkpt lat="44.31562" lon="6.2334">
        <ele>1725</ele>
        <time>2014-08-31T12:31:57.1Z</time>
      </trkpt>
      <trkpt lat="44.31559" lon="6.23333">
        <ele>1726</ele>
        <time>2014-08-31T12:32:03.1Z</time>
      </trkpt>
      <trkpt lat="44.31556" lon="6.23324">
        <ele>1727</ele>
        <time>2014-08-31T12:32:09.1Z</time>
      </trkpt>
      <trkpt lat="44.31552" lon="6.23318">
        <ele>1728</ele>
        <time>2014-08-31T12:32:15.1Z</time>
      </trkpt>
      <trkpt lat="44.3155" lon="6.23311">
        <ele>1729</ele>
        <time>2014-08-31T12:32:20.1Z</time>
      </trkpt>
      <trkpt lat="44.3155" lon="6.23304">
        <ele>1729</ele>
        <time>2014-08-31T12:32:25.1Z</time>
      </trkpt>
      <trkpt lat="44.31546" lon="6.233">
        <ele>1730</ele>
        <time>2014-08-31T12:32:30.1Z</time>
      </trkpt>
      <trkpt lat="44.31541" lon="6.23296">
        <ele>1731</ele>
        <time>2014-08-31T12:32:36.1Z</time>
      </trkpt>
      <trkpt lat="44.3154" lon="6.23288">
        <ele>1732</ele>
        <time>2014-08-31T12:32:42.1Z</time>
      </trkpt>
      <trkpt lat="44.31537" lon="6.23283">
        <ele>1733</ele>
        <time>2014-08-31T12:32:48.1Z</time>
      </trkpt>
      <trkpt lat="44.31535" lon="6.23279">
        <ele>1733</ele>
        <time>2014-08-31T12:32:54.1Z</time>
      </trkpt>
      <trkpt lat="44.31535" lon="6.23273">
        <ele>1733</ele>
        <time>2014-08-31T12:33:00.1Z</time>
      </trkpt>
      <trkpt lat="44.31534" lon="6.23269">
        <ele>1734</ele>
        <time>2014-08-31T12:33:05.1Z</time>
      </trkpt>
      <trkpt lat="44.31532" lon="6.23264">
        <ele>1735</ele>
        <time>2014-08-31T12:33:11.1Z</time>
      </trkpt>
      <trkpt lat="44.31531" lon="6.23261">
        <ele>1735</ele>
        <time>2014-08-31T12:33:17.1Z</time>
      </trkpt>
      <trkpt lat="44.3153" lon="6.23262">
        <ele>1735</ele>
        <time>2014-08-31T12:33:22.1Z</time>
      </trkpt>
      <trkpt lat="44.31529" lon="6.23258">
        <ele>1735</ele>
        <time>2014-08-31T12:33:28.1Z</time>
      </trkpt>
      <trkpt lat="44.31526" lon="6.23253">
        <ele>1736</ele>
        <time>2014-08-31T12:33:34.1Z</time>
      </trkpt>
      <trkpt lat="44.31523" lon="6.23249">
        <ele>1737</ele>
        <time>2014-08-31T12:33:40.1Z</time>
      </trkpt>
      <trkpt lat="44.31522" lon="6.23246">
        <ele>1737</ele>
        <time>2014-08-31T12:33:45.1Z</time>
      </trkpt>
      <trkpt lat="44.31519" lon="6.23243">
        <ele>1738</ele>
        <time>2014-08-31T12:33:50.1Z</time>
      </trkpt>
      <trkpt lat="44.31517" lon="6.23241">
        <ele>1738</ele>
        <time>2014-08-31T12:33:55.1Z</time>
      </trkpt>
      <trkpt lat="44.31514" lon="6.23238">
        <ele>1739</ele>
        <time>2014-08-31T12:34:01.1Z</time>
      </trkpt>
      <trkpt lat="44.31512" lon="6.23236">
        <ele>1740</ele>
        <time>2014-08-31T12:34:06.1Z</time>
      </trkpt>
      <trkpt lat="44.31509" lon="6.23233">
        <ele>1741</ele>
        <time>2014-08-31T12:34:11.1Z</time>
      </trkpt>
      <trkpt lat="44.31508" lon="6.2323">
        <ele>1741</ele>
        <time>2014-08-31T12:34:16.1Z</time>
      </trkpt>
      <trkpt lat="44.31506" lon="6.23226">
        <ele>1742</ele>
        <time>2014-08-31T12:34:22.1Z</time>
      </trkpt>
      <trkpt lat="44.31505" lon="6.23222">
        <ele>1743</ele>
        <time>2014-08-31T12:34:27.1Z</time>
      </trkpt>
      <trkpt lat="44.31503" lon="6.23219">
        <ele>1744</ele>
        <time>2014-08-31T12:34:32.1Z</time>
      </trkpt>
      <trkpt lat="44.31501" lon="6.23216">
        <ele>1745</ele>
        <time>2014-08-31T12:34:38.1Z</time>
      </trkpt>
      <trkpt lat="44.31499" lon="6.23211">
        <ele>1745</ele>
        <time>2014-08-31T12:34:44.1Z</time>
      </trkpt>
      <trkpt lat="44.31497" lon="6.23208">
        <ele>1746</ele>
        <time>2014-08-31T12:34:49.1Z</time>
      </trkpt>
      <trkpt lat="44.31495" lon="6.23204">
        <ele>1747</ele>
        <time>2014-08-31T12:34:55.1Z</time>
      </trkpt>
      <trkpt lat="44.31493" lon="6.232">
        <ele>1748</ele>
        <time>2014-08-31T12:35:00.1Z</time>
      </trkpt>
      <trkpt lat="44.31491" lon="6.23196">
        <ele>1749</ele>
        <time>2014-08-31T12:35:06.1Z</time>
      </trkpt>
      <trkpt lat="44.31488" lon="6.23192">
        <ele>1749</ele>
        <time>2014-08-31T12:35:12.1Z</time>
      </trkpt>
      <trkpt lat="44.31487" lon="6.23188">
        <ele>1750</ele>
        <time>2014-08-31T12:35:18.1Z</time>
      </trkpt>
      <trkpt lat="44.31485" lon="6.23183">
        <ele>1751</ele>
        <time>2014-08-31T12:35:24.1Z</time>
      </trkpt>
      <trkpt lat="44.31483" lon="6.23179">
        <ele>1752</ele>
        <time>2014-08-31T12:35:29.1Z</time>
      </trkpt>
      <trkpt lat="44.31482" lon="6.23175">
        <ele>1753</ele>
        <time>2014-08-31T12:35:35.1Z</time>
      </trkpt>
      <trkpt lat="44.31481" lon="6.23171">
        <ele>1754</ele>
        <time>2014-08-31T12:35:40.1Z</time>
      </trkpt>
      <trkpt lat="44.3148" lon="6.23166">
        <ele>1754</ele>
        <time>2014-08-31T12:35:46.1Z</time>
      </trkpt>
      <trkpt lat="44.31479" lon="6.23161">
        <ele>1755</ele>
        <time>2014-08-31T12:35:51.1Z</time>
      </trkpt>
      <trkpt lat="44.31477" lon="6.23156">
        <ele>1757</ele>
        <time>2014-08-31T12:35:57.1Z</time>
      </trkpt>
      <trkpt lat="44.31476" lon="6.23151">
        <ele>1757</ele>
        <time>2014-08-31T12:36:02.1Z</time>
      </trkpt>
      <trkpt lat="44.31475" lon="6.23146">
        <ele>1758</ele>
        <time>2014-08-31T12:36:08.1Z</time>
      </trkpt>
      <trkpt lat="44.31473" lon="6.23141">
        <ele>1758</ele>
        <time>2014-08-31T12:36:14.1Z</time>
      </trkpt>
      <trkpt lat="44.31472" lon="6.23138">
        <ele>1759</ele>
        <time>2014-08-31T12:36:19.1Z</time>
      </trkpt>
      <trkpt lat="44.31471" lon="6.23133">
        <ele>1760</ele>
        <time>2014-08-31T12:36:24.1Z</time>
      </trkpt>
      <trkpt lat="44.31469" lon="6.23128">
        <ele>1760</ele>
        <time>2014-08-31T12:36:30.1Z</time>
      </trkpt>
      <trkpt lat="44.31466" lon="6.23124">
        <ele>1760</ele>
        <time>2014-08-31T12:36:36.1Z</time>
      </trkpt>
      <trkpt lat="44.31464" lon="6.23119">
        <ele>1761</ele>
        <time>2014-08-31T12:36:41.1Z</time>
      </trkpt>
      <trkpt lat="44.31463" lon="6.23113">
        <ele>1762</ele>
        <time>2014-08-31T12:36:47.1Z</time>
      </trkpt>
      <trkpt lat="44.31461" lon="6.23108">
        <ele>1762</ele>
        <time>2014-08-31T12:36:52.1Z</time>
      </trkpt>
      <trkpt lat="44.3146" lon="6.23103">
        <ele>1763</ele>
        <time>2014-08-31T12:36:57.1Z</time>
      </trkpt>
      <trkpt lat="44.31458" lon="6.23097">
        <ele>1764</ele>
        <time>2014-08-31T12:37:03.1Z</time>
      </trkpt>
      <trkpt lat="44.31456" lon="6.2309">
        <ele>1764</ele>
        <time>2014-08-31T12:37:09.1Z</time>
      </trkpt>
      <trkpt lat="44.31456" lon="6.23084">
        <ele>1764</ele>
        <time>2014-08-31T12:37:14.1Z</time>
      </trkpt>
      <trkpt lat="44.31455" lon="6.23077">
        <ele>1764</ele>
        <time>2014-08-31T12:37:20.1Z</time>
      </trkpt>
      <trkpt lat="44.31454" lon="6.23071">
        <ele>1764</ele>
        <time>2014-08-31T12:37:25.1Z</time>
      </trkpt>
      <trkpt lat="44.31452" lon="6.23068">
        <ele>1764</ele>
        <time>2014-08-31T12:37:30.1Z</time>
      </trkpt>
      <trkpt lat="44.31452" lon="6.23068">
        <ele>1765</ele>
        <time>2014-08-31T12:37:36.1Z</time>
      </trkpt>
      <trkpt lat="44.31452" lon="6.23067">
        <ele>1765</ele>
        <time>2014-08-31T12:37:43.1Z</time>
      </trkpt>
      <trkpt lat="44.31452" lon="6.23067">
        <ele>1764</ele>
        <time>2014-08-31T12:37:48.1Z</time>
      </trkpt>
      <trkpt lat="44.31451" lon="6.23067">
        <ele>1764</ele>
        <time>2014-08-31T12:37:54.1Z</time>
      </trkpt>
      <trkpt lat="44.31451" lon="6.23068">
        <ele>1764</ele>
        <time>2014-08-31T12:38:01.1Z</time>
      </trkpt>
      <trkpt lat="44.31451" lon="6.23068">
        <ele>1764</ele>
        <time>2014-08-31T12:38:07.1Z</time>
      </trkpt>
      <trkpt lat="44.3145" lon="6.23068">
        <ele>1764</ele>
        <time>2014-08-31T12:38:13.1Z</time>
      </trkpt>
      <trkpt lat="44.3145" lon="6.23065">
        <ele>1764</ele>
        <time>2014-08-31T12:38:19.1Z</time>
      </trkpt>
      <trkpt lat="44.31447" lon="6.23056">
        <ele>1765</ele>
        <time>2014-08-31T12:38:25.1Z</time>
      </trkpt>
      <trkpt lat="44.31445" lon="6.23047">
        <ele>1765</ele>
        <time>2014-08-31T12:38:30.1Z</time>
      </trkpt>
      <trkpt lat="44.31441" lon="6.23037">
        <ele>1765</ele>
        <time>2014-08-31T12:38:36.1Z</time>
      </trkpt>
      <trkpt lat="44.31437" lon="6.23026">
        <ele>1766</ele>
        <time>2014-08-31T12:38:42.1Z</time>
      </trkpt>
      <trkpt lat="44.31434" lon="6.2302">
        <ele>1766</ele>
        <time>2014-08-31T12:38:47.1Z</time>
      </trkpt>
      <trkpt lat="44.31432" lon="6.23014">
        <ele>1765</ele>
        <time>2014-08-31T12:38:52.1Z</time>
      </trkpt>
      <trkpt lat="44.31428" lon="6.23005">
        <ele>1766</ele>
        <time>2014-08-31T12:38:58.1Z</time>
      </trkpt>
      <trkpt lat="44.31426" lon="6.22997">
        <ele>1766</ele>
        <time>2014-08-31T12:39:03.1Z</time>
      </trkpt>
      <trkpt lat="44.31422" lon="6.22988">
        <ele>1766</ele>
        <time>2014-08-31T12:39:09.1Z</time>
      </trkpt>
      <trkpt lat="44.31419" lon="6.22978">
        <ele>1767</ele>
        <time>2014-08-31T12:39:15.1Z</time>
      </trkpt>
      <trkpt lat="44.31417" lon="6.22971">
        <ele>1767</ele>
        <time>2014-08-31T12:39:20.1Z</time>
      </trkpt>
      <trkpt lat="44.31413" lon="6.22962">
        <ele>1768</ele>
        <time>2014-08-31T12:39:26.1Z</time>
      </trkpt>
      <trkpt lat="44.31411" lon="6.22954">
        <ele>1768</ele>
        <time>2014-08-31T12:39:31.1Z</time>
      </trkpt>
      <trkpt lat="44.31408" lon="6.22944">
        <ele>1768</ele>
        <time>2014-08-31T12:39:37.1Z</time>
      </trkpt>
      <trkpt lat="44.31406" lon="6.22936">
        <ele>1769</ele>
        <time>2014-08-31T12:39:42.1Z</time>
      </trkpt>
      <trkpt lat="44.31403" lon="6.22926">
        <ele>1769</ele>
        <time>2014-08-31T12:39:48.1Z</time>
      </trkpt>
      <trkpt lat="44.31403" lon="6.22917">
        <ele>1770</ele>
        <time>2014-08-31T12:39:53.1Z</time>
      </trkpt>
      <trkpt lat="44.314" lon="6.22906">
        <ele>1772</ele>
        <time>2014-08-31T12:39:59.1Z</time>
      </trkpt>
      <trkpt lat="44.31397" lon="6.22898">
        <ele>1772</ele>
        <time>2014-08-31T12:40:04.1Z</time>
      </trkpt>
      <trkpt lat="44.31395" lon="6.22889">
        <ele>1772</ele>
        <time>2014-08-31T12:40:09.1Z</time>
      </trkpt>
      <trkpt lat="44.31393" lon="6.22878">
        <ele>1773</ele>
        <time>2014-08-31T12:40:15.1Z</time>
      </trkpt>
      <trkpt lat="44.31391" lon="6.2287">
        <ele>1773</ele>
        <time>2014-08-31T12:40:20.1Z</time>
      </trkpt>
      <trkpt lat="44.3139" lon="6.22862">
        <ele>1774</ele>
        <time>2014-08-31T12:40:25.1Z</time>
      </trkpt>
      <trkpt lat="44.31388" lon="6.22855">
        <ele>1774</ele>
        <time>2014-08-31T12:40:30.1Z</time>
      </trkpt>
      <trkpt lat="44.31384" lon="6.22847">
        <ele>1774</ele>
        <time>2014-08-31T12:40:36.1Z</time>
      </trkpt>
      <trkpt lat="44.31384" lon="6.22846">
        <ele>1775</ele>
        <time>2014-08-31T12:40:42.1Z</time>
      </trkpt>
      <trkpt lat="44.31384" lon="6.22846">
        <ele>1775</ele>
        <time>2014-08-31T12:40:48.1Z</time>
      </trkpt>
      <trkpt lat="44.31385" lon="6.22846">
        <ele>1776</ele>
        <time>2014-08-31T12:40:56.1Z</time>
      </trkpt>
      <trkpt lat="44.31385" lon="6.22846">
        <ele>1775</ele>
        <time>2014-08-31T12:41:02.1Z</time>
      </trkpt>
      <trkpt lat="44.31386" lon="6.22847">
        <ele>1775</ele>
        <time>2014-08-31T12:41:08.1Z</time>
      </trkpt>
      <trkpt lat="44.31384" lon="6.22838">
        <ele>1775</ele>
        <time>2014-08-31T12:41:14.1Z</time>
      </trkpt>
      <trkpt lat="44.31383" lon="6.2283">
        <ele>1775</ele>
        <time>2014-08-31T12:41:20.1Z</time>
      </trkpt>
      <trkpt lat="44.31382" lon="6.22822">
        <ele>1776</ele>
        <time>2014-08-31T12:41:26.1Z</time>
      </trkpt>
      <trkpt lat="44.3138" lon="6.22815">
        <ele>1777</ele>
        <time>2014-08-31T12:41:31.1Z</time>
      </trkpt>
      <trkpt lat="44.3138" lon="6.22809">
        <ele>1778</ele>
        <time>2014-08-31T12:41:36.1Z</time>
      </trkpt>
      <trkpt lat="44.3138" lon="6.22809">
        <ele>1778</ele>
        <time>2014-08-31T12:41:42.1Z</time>
      </trkpt>
      <trkpt lat="44.3138" lon="6.22809">
        <ele>1777</ele>
        <time>2014-08-31T12:41:47.1Z</time>
      </trkpt>
      <trkpt lat="44.31379" lon="6.22809">
        <ele>1778</ele>
        <time>2014-08-31T12:41:53.1Z</time>
      </trkpt>
      <trkpt lat="44.3138" lon="6.22809">
        <ele>1778</ele>
        <time>2014-08-31T12:41:58.1Z</time>
      </trkpt>
      <trkpt lat="44.31379" lon="6.22806">
        <ele>1778</ele>
        <time>2014-08-31T12:42:04.1Z</time>
      </trkpt>
      <trkpt lat="44.31377" lon="6.228">
        <ele>1779</ele>
        <time>2014-08-31T12:42:09.1Z</time>
      </trkpt>
      <trkpt lat="44.31375" lon="6.2279">
        <ele>1780</ele>
        <time>2014-08-31T12:42:15.1Z</time>
      </trkpt>
      <trkpt lat="44.31373" lon="6.22782">
        <ele>1781</ele>
        <time>2014-08-31T12:42:20.1Z</time>
      </trkpt>
      <trkpt lat="44.31371" lon="6.22772">
        <ele>1783</ele>
        <time>2014-08-31T12:42:26.1Z</time>
      </trkpt>
      <trkpt lat="44.31369" lon="6.22764">
        <ele>1784</ele>
        <time>2014-08-31T12:42:31.1Z</time>
      </trkpt>
      <trkpt lat="44.31366" lon="6.22754">
        <ele>1785</ele>
        <time>2014-08-31T12:42:37.1Z</time>
      </trkpt>
      <trkpt lat="44.31365" lon="6.22746">
        <ele>1786</ele>
        <time>2014-08-31T12:42:42.1Z</time>
      </trkpt>
      <trkpt lat="44.31361" lon="6.2274">
        <ele>1788</ele>
        <time>2014-08-31T12:42:47.1Z</time>
      </trkpt>
      <trkpt lat="44.31359" lon="6.2273">
        <ele>1789</ele>
        <time>2014-08-31T12:42:53.1Z</time>
      </trkpt>
      <trkpt lat="44.3136" lon="6.22727">
        <ele>1790</ele>
        <time>2014-08-31T12:42:58.1Z</time>
      </trkpt>
      <trkpt lat="44.31363" lon="6.22724">
        <ele>1790</ele>
        <time>2014-08-31T12:43:04.1Z</time>
      </trkpt>
      <trkpt lat="44.31363" lon="6.22724">
        <ele>1790</ele>
        <time>2014-08-31T12:43:10.1Z</time>
      </trkpt>
      <trkpt lat="44.31364" lon="6.22724">
        <ele>1790</ele>
        <time>2014-08-31T12:43:16.1Z</time>
      </trkpt>
      <trkpt lat="44.31365" lon="6.22724">
        <ele>1790</ele>
        <time>2014-08-31T12:43:22.1Z</time>
      </trkpt>
      <trkpt lat="44.31365" lon="6.22724">
        <ele>1790</ele>
        <time>2014-08-31T12:43:27.1Z</time>
      </trkpt>
      <trkpt lat="44.31367" lon="6.22728">
        <ele>1790</ele>
        <time>2014-08-31T12:43:33.1Z</time>
      </trkpt>
      <trkpt lat="44.31377" lon="6.22731">
        <ele>1789</ele>
        <time>2014-08-31T12:43:38.1Z</time>
      </trkpt>
      <trkpt lat="44.31385" lon="6.2273">
        <ele>1789</ele>
        <time>2014-08-31T12:43:43.1Z</time>
      </trkpt>
      <trkpt lat="44.31396" lon="6.22725">
        <ele>1788</ele>
        <time>2014-08-31T12:43:48.1Z</time>
      </trkpt>
      <trkpt lat="44.31405" lon="6.22721">
        <ele>1788</ele>
        <time>2014-08-31T12:43:53.1Z</time>
      </trkpt>
      <trkpt lat="44.31415" lon="6.22715">
        <ele>1789</ele>
        <time>2014-08-31T12:43:59.1Z</time>
      </trkpt>
      <trkpt lat="44.31425" lon="6.2271">
        <ele>1789</ele>
        <time>2014-08-31T12:44:05.1Z</time>
      </trkpt>
      <trkpt lat="44.31432" lon="6.22706">
        <ele>1789</ele>
        <time>2014-08-31T12:44:10.1Z</time>
      </trkpt>
      <trkpt lat="44.3144" lon="6.22699">
        <ele>1789</ele>
        <time>2014-08-31T12:44:15.1Z</time>
      </trkpt>
      <trkpt lat="44.3145" lon="6.22695">
        <ele>1789</ele>
        <time>2014-08-31T12:44:21.1Z</time>
      </trkpt>
      <trkpt lat="44.31466" lon="6.22695">
        <ele>1786</ele>
        <time>2014-08-31T12:44:27.1Z</time>
      </trkpt>
      <trkpt lat="44.31472" lon="6.22693">
        <ele>1785</ele>
        <time>2014-08-31T12:44:33.1Z</time>
      </trkpt>
      <trkpt lat="44.31472" lon="6.22693">
        <ele>1785</ele>
        <time>2014-08-31T12:44:38.1Z</time>
      </trkpt>
      <trkpt lat="44.31474" lon="6.22693">
        <ele>1785</ele>
        <time>2014-08-31T12:44:43.1Z</time>
      </trkpt>
      <trkpt lat="44.31474" lon="6.22693">
        <ele>1785</ele>
        <time>2014-08-31T12:44:48.1Z</time>
      </trkpt>
      <trkpt lat="44.31475" lon="6.22692">
        <ele>1785</ele>
        <time>2014-08-31T12:44:54.1Z</time>
      </trkpt>
      <trkpt lat="44.31475" lon="6.22691">
        <ele>1785</ele>
        <time>2014-08-31T12:45:00.1Z</time>
      </trkpt>
      <trkpt lat="44.31474" lon="6.22688">
        <ele>1785</ele>
        <time>2014-08-31T12:45:06.1Z</time>
      </trkpt>
      <trkpt lat="44.31475" lon="6.22689">
        <ele>1784</ele>
        <time>2014-08-31T12:45:14.1Z</time>
      </trkpt>
      <trkpt lat="44.31476" lon="6.22689">
        <ele>1785</ele>
        <time>2014-08-31T12:45:19.1Z</time>
      </trkpt>
      <trkpt lat="44.31482" lon="6.22693">
        <ele>1783</ele>
        <time>2014-08-31T12:45:24.1Z</time>
      </trkpt>
      <trkpt lat="44.31487" lon="6.22692">
        <ele>1781</ele>
        <time>2014-08-31T12:45:29.1Z</time>
      </trkpt>
      <trkpt lat="44.31487" lon="6.22692">
        <ele>1780</ele>
        <time>2014-08-31T12:45:35.1Z</time>
      </trkpt>
      <trkpt lat="44.31488" lon="6.22692">
        <ele>1781</ele>
        <time>2014-08-31T12:45:41.1Z</time>
      </trkpt>
      <trkpt lat="44.3149" lon="6.22691">
        <ele>1781</ele>
        <time>2014-08-31T12:45:46.1Z</time>
      </trkpt>
      <trkpt lat="44.31496" lon="6.22684">
        <ele>1781</ele>
        <time>2014-08-31T12:45:51.1Z</time>
      </trkpt>
      <trkpt lat="44.31506" lon="6.22673">
        <ele>1781</ele>
        <time>2014-08-31T12:45:57.1Z</time>
      </trkpt>
      <trkpt lat="44.31513" lon="6.22665">
        <ele>1781</ele>
        <time>2014-08-31T12:46:03.1Z</time>
      </trkpt>
      <trkpt lat="44.31515" lon="6.22668">
        <ele>1782</ele>
        <time>2014-08-31T12:46:09.1Z</time>
      </trkpt>
      <trkpt lat="44.31519" lon="6.22669">
        <ele>1781</ele>
        <time>2014-08-31T12:46:14.1Z</time>
      </trkpt>
      <trkpt lat="44.31521" lon="6.22666">
        <ele>1779</ele>
        <time>2014-08-31T12:46:20.1Z</time>
      </trkpt>
      <trkpt lat="44.31524" lon="6.22662">
        <ele>1779</ele>
        <time>2014-08-31T12:46:25.1Z</time>
      </trkpt>
      <trkpt lat="44.31525" lon="6.22662">
        <ele>1779</ele>
        <time>2014-08-31T12:46:31.1Z</time>
      </trkpt>
      <trkpt lat="44.31525" lon="6.22662">
        <ele>1779</ele>
        <time>2014-08-31T12:46:37.1Z</time>
      </trkpt>
      <trkpt lat="44.31523" lon="6.22661">
        <ele>1779</ele>
        <time>2014-08-31T12:46:42.1Z</time>
      </trkpt>
      <trkpt lat="44.31524" lon="6.22661">
        <ele>1779</ele>
        <time>2014-08-31T12:46:50.1Z</time>
      </trkpt>
      <trkpt lat="44.31526" lon="6.22659">
        <ele>1779</ele>
        <time>2014-08-31T12:46:56.1Z</time>
      </trkpt>
      <trkpt lat="44.31528" lon="6.22652">
        <ele>1779</ele>
        <time>2014-08-31T12:47:02.1Z</time>
      </trkpt>
      <trkpt lat="44.31532" lon="6.22646">
        <ele>1778</ele>
        <time>2014-08-31T12:47:08.1Z</time>
      </trkpt>
      <trkpt lat="44.31537" lon="6.22642">
        <ele>1779</ele>
        <time>2014-08-31T12:47:13.1Z</time>
      </trkpt>
      <trkpt lat="44.31542" lon="6.2264">
        <ele>1779</ele>
        <time>2014-08-31T12:47:19.1Z</time>
      </trkpt>
      <trkpt lat="44.31543" lon="6.2264">
        <ele>1779</ele>
        <time>2014-08-31T12:47:24.1Z</time>
      </trkpt>
      <trkpt lat="44.31546" lon="6.22635">
        <ele>1779</ele>
        <time>2014-08-31T12:47:30.1Z</time>
      </trkpt>
      <trkpt lat="44.31547" lon="6.2263">
        <ele>1779</ele>
        <time>2014-08-31T12:47:36.1Z</time>
      </trkpt>
      <trkpt lat="44.31546" lon="6.22622">
        <ele>1778</ele>
        <time>2014-08-31T12:47:42.1Z</time>
      </trkpt>
      <trkpt lat="44.31549" lon="6.22619">
        <ele>1778</ele>
        <time>2014-08-31T12:47:47.1Z</time>
      </trkpt>
      <trkpt lat="44.31554" lon="6.22619">
        <ele>1777</ele>
        <time>2014-08-31T12:47:53.1Z</time>
      </trkpt>
      <trkpt lat="44.31557" lon="6.22619">
        <ele>1776</ele>
        <time>2014-08-31T12:47:58.1Z</time>
      </trkpt>
      <trkpt lat="44.31558" lon="6.22619">
        <ele>1776</ele>
        <time>2014-08-31T12:48:03.1Z</time>
      </trkpt>
      <trkpt lat="44.3156" lon="6.2262">
        <ele>1776</ele>
        <time>2014-08-31T12:48:08.1Z</time>
      </trkpt>
      <trkpt lat="44.31562" lon="6.22621">
        <ele>1775</ele>
        <time>2014-08-31T12:48:14.1Z</time>
      </trkpt>
      <trkpt lat="44.31564" lon="6.22622">
        <ele>1774</ele>
        <time>2014-08-31T12:48:19.1Z</time>
      </trkpt>
      <trkpt lat="44.31566" lon="6.22622">
        <ele>1773</ele>
        <time>2014-08-31T12:48:24.1Z</time>
      </trkpt>
      <trkpt lat="44.31567" lon="6.22621">
        <ele>1772</ele>
        <time>2014-08-31T12:48:30.1Z</time>
      </trkpt>
      <trkpt lat="44.3157" lon="6.22621">
        <ele>1770</ele>
        <time>2014-08-31T12:48:36.1Z</time>
      </trkpt>
      <trkpt lat="44.31574" lon="6.2262">
        <ele>1768</ele>
        <time>2014-08-31T12:48:41.1Z</time>
      </trkpt>
      <trkpt lat="44.31578" lon="6.22618">
        <ele>1766</ele>
        <time>2014-08-31T12:48:47.1Z</time>
      </trkpt>
      <trkpt lat="44.31582" lon="6.22616">
        <ele>1765</ele>
        <time>2014-08-31T12:48:52.1Z</time>
      </trkpt>
      <trkpt lat="44.31586" lon="6.22613">
        <ele>1764</ele>
        <time>2014-08-31T12:48:58.1Z</time>
      </trkpt>
      <trkpt lat="44.31587" lon="6.22614">
        <ele>1764</ele>
        <time>2014-08-31T12:49:03.1Z</time>
      </trkpt>
      <trkpt lat="44.3159" lon="6.22613">
        <ele>1764</ele>
        <time>2014-08-31T12:49:09.1Z</time>
      </trkpt>
      <trkpt lat="44.31594" lon="6.22612">
        <ele>1763</ele>
        <time>2014-08-31T12:49:15.1Z</time>
      </trkpt>
      <trkpt lat="44.31598" lon="6.22611">
        <ele>1761</ele>
        <time>2014-08-31T12:49:20.1Z</time>
      </trkpt>
      <trkpt lat="44.31602" lon="6.22609">
        <ele>1759</ele>
        <time>2014-08-31T12:49:26.1Z</time>
      </trkpt>
      <trkpt lat="44.31604" lon="6.22609">
        <ele>1758</ele>
        <time>2014-08-31T12:49:31.1Z</time>
      </trkpt>
      <trkpt lat="44.31606" lon="6.22612">
        <ele>1758</ele>
        <time>2014-08-31T12:49:36.1Z</time>
      </trkpt>
      <trkpt lat="44.31608" lon="6.22613">
        <ele>1756</ele>
        <time>2014-08-31T12:49:41.1Z</time>
      </trkpt>
      <trkpt lat="44.3161" lon="6.22614">
        <ele>1754</ele>
        <time>2014-08-31T12:49:47.1Z</time>
      </trkpt>
      <trkpt lat="44.3161" lon="6.22614">
        <ele>1754</ele>
        <time>2014-08-31T12:49:52.1Z</time>
      </trkpt>
      <trkpt lat="44.31612" lon="6.22615">
        <ele>1753</ele>
        <time>2014-08-31T12:49:58.1Z</time>
      </trkpt>
      <trkpt lat="44.31614" lon="6.22618">
        <ele>1752</ele>
        <time>2014-08-31T12:50:03.1Z</time>
      </trkpt>
      <trkpt lat="44.31615" lon="6.22622">
        <ele>1751</ele>
        <time>2014-08-31T12:50:08.1Z</time>
      </trkpt>
      <trkpt lat="44.31617" lon="6.22625">
        <ele>1749</ele>
        <time>2014-08-31T12:50:14.1Z</time>
      </trkpt>
      <trkpt lat="44.31617" lon="6.22627">
        <ele>1748</ele>
        <time>2014-08-31T12:50:19.1Z</time>
      </trkpt>
      <trkpt lat="44.31619" lon="6.2263">
        <ele>1748</ele>
        <time>2014-08-31T12:50:24.1Z</time>
      </trkpt>
      <trkpt lat="44.31622" lon="6.22632">
        <ele>1746</ele>
        <time>2014-08-31T12:50:30.1Z</time>
      </trkpt>
      <trkpt lat="44.31625" lon="6.2263">
        <ele>1744</ele>
        <time>2014-08-31T12:50:36.1Z</time>
      </trkpt>
      <trkpt lat="44.3163" lon="6.22627">
        <ele>1742</ele>
        <time>2014-08-31T12:50:42.1Z</time>
      </trkpt>
      <trkpt lat="44.31633" lon="6.22626">
        <ele>1740</ele>
        <time>2014-08-31T12:50:47.1Z</time>
      </trkpt>
      <trkpt lat="44.31637" lon="6.22624">
        <ele>1738</ele>
        <time>2014-08-31T12:50:53.1Z</time>
      </trkpt>
      <trkpt lat="44.31638" lon="6.22626">
        <ele>1737</ele>
        <time>2014-08-31T12:50:58.1Z</time>
      </trkpt>
      <trkpt lat="44.31638" lon="6.22626">
        <ele>1737</ele>
        <time>2014-08-31T12:51:04.1Z</time>
      </trkpt>
      <trkpt lat="44.31638" lon="6.22627">
        <ele>1737</ele>
        <time>2014-08-31T12:51:10.1Z</time>
      </trkpt>
      <trkpt lat="44.3164" lon="6.22632">
        <ele>1737</ele>
        <time>2014-08-31T12:51:15.1Z</time>
      </trkpt>
      <trkpt lat="44.31642" lon="6.22639">
        <ele>1735</ele>
        <time>2014-08-31T12:51:21.1Z</time>
      </trkpt>
      <trkpt lat="44.31645" lon="6.2264">
        <ele>1733</ele>
        <time>2014-08-31T12:51:26.1Z</time>
      </trkpt>
      <trkpt lat="44.31649" lon="6.22635">
        <ele>1731</ele>
        <time>2014-08-31T12:51:32.1Z</time>
      </trkpt>
      <trkpt lat="44.31653" lon="6.22633">
        <ele>1730</ele>
        <time>2014-08-31T12:51:37.1Z</time>
      </trkpt>
      <trkpt lat="44.31658" lon="6.22631">
        <ele>1727</ele>
        <time>2014-08-31T12:51:43.1Z</time>
      </trkpt>
      <trkpt lat="44.3166" lon="6.22634">
        <ele>1726</ele>
        <time>2014-08-31T12:51:48.1Z</time>
      </trkpt>
      <trkpt lat="44.31663" lon="6.22639">
        <ele>1724</ele>
        <time>2014-08-31T12:51:54.1Z</time>
      </trkpt>
      <trkpt lat="44.31665" lon="6.22644">
        <ele>1722</ele>
        <time>2014-08-31T12:51:59.1Z</time>
      </trkpt>
      <trkpt lat="44.3167" lon="6.22643">
        <ele>1720</ele>
        <time>2014-08-31T12:52:05.1Z</time>
      </trkpt>
      <trkpt lat="44.31673" lon="6.2264">
        <ele>1718</ele>
        <time>2014-08-31T12:52:10.1Z</time>
      </trkpt>
      <trkpt lat="44.31678" lon="6.22639">
        <ele>1717</ele>
        <time>2014-08-31T12:52:16.1Z</time>
      </trkpt>
      <trkpt lat="44.31679" lon="6.22645">
        <ele>1715</ele>
        <time>2014-08-31T12:52:22.1Z</time>
      </trkpt>
      <trkpt lat="44.31682" lon="6.22648">
        <ele>1713</ele>
        <time>2014-08-31T12:52:27.1Z</time>
      </trkpt>
      <trkpt lat="44.31686" lon="6.22647">
        <ele>1711</ele>
        <time>2014-08-31T12:52:33.1Z</time>
      </trkpt>
      <trkpt lat="44.31691" lon="6.22646">
        <ele>1710</ele>
        <time>2014-08-31T12:52:39.1Z</time>
      </trkpt>
      <trkpt lat="44.31692" lon="6.22645">
        <ele>1709</ele>
        <time>2014-08-31T12:52:46.1Z</time>
      </trkpt>
      <trkpt lat="44.31693" lon="6.22645">
        <ele>1709</ele>
        <time>2014-08-31T12:52:51.1Z</time>
      </trkpt>
      <trkpt lat="44.31693" lon="6.22644">
        <ele>1708</ele>
        <time>2014-08-31T12:52:58.1Z</time>
      </trkpt>
      <trkpt lat="44.31692" lon="6.22644">
        <ele>1708</ele>
        <time>2014-08-31T12:53:04.1Z</time>
      </trkpt>
      <trkpt lat="44.31692" lon="6.22644">
        <ele>1709</ele>
        <time>2014-08-31T12:53:10.1Z</time>
      </trkpt>
      <trkpt lat="44.31694" lon="6.22644">
        <ele>1708</ele>
        <time>2014-08-31T12:53:15.1Z</time>
      </trkpt>
      <trkpt lat="44.31695" lon="6.22645">
        <ele>1706</ele>
        <time>2014-08-31T12:53:21.1Z</time>
      </trkpt>
      <trkpt lat="44.317" lon="6.22645">
        <ele>1706</ele>
        <time>2014-08-31T12:53:27.1Z</time>
      </trkpt>
      <trkpt lat="44.31704" lon="6.22645">
        <ele>1704</ele>
        <time>2014-08-31T12:53:32.1Z</time>
      </trkpt>
      <trkpt lat="44.31707" lon="6.2265">
        <ele>1702</ele>
        <time>2014-08-31T12:53:38.1Z</time>
      </trkpt>
      <trkpt lat="44.31709" lon="6.22656">
        <ele>1700</ele>
        <time>2014-08-31T12:53:43.1Z</time>
      </trkpt>
      <trkpt lat="44.31713" lon="6.22658">
        <ele>1698</ele>
        <time>2014-08-31T12:53:48.1Z</time>
      </trkpt>
      <trkpt lat="44.31717" lon="6.22656">
        <ele>1696</ele>
        <time>2014-08-31T12:53:54.1Z</time>
      </trkpt>
      <trkpt lat="44.3172" lon="6.22653">
        <ele>1695</ele>
        <time>2014-08-31T12:53:59.1Z</time>
      </trkpt>
      <trkpt lat="44.31724" lon="6.2265">
        <ele>1693</ele>
        <time>2014-08-31T12:54:05.1Z</time>
      </trkpt>
      <trkpt lat="44.31728" lon="6.2265">
        <ele>1691</ele>
        <time>2014-08-31T12:54:10.1Z</time>
      </trkpt>
      <trkpt lat="44.31731" lon="6.22655">
        <ele>1689</ele>
        <time>2014-08-31T12:54:16.1Z</time>
      </trkpt>
      <trkpt lat="44.31735" lon="6.22656">
        <ele>1687</ele>
        <time>2014-08-31T12:54:22.1Z</time>
      </trkpt>
      <trkpt lat="44.3174" lon="6.22656">
        <ele>1684</ele>
        <time>2014-08-31T12:54:28.1Z</time>
      </trkpt>
      <trkpt lat="44.31744" lon="6.22656">
        <ele>1682</ele>
        <time>2014-08-31T12:54:33.1Z</time>
      </trkpt>
      <trkpt lat="44.31746" lon="6.22654">
        <ele>1681</ele>
        <time>2014-08-31T12:54:39.1Z</time>
      </trkpt>
      <trkpt lat="44.31749" lon="6.22651">
        <ele>1680</ele>
        <time>2014-08-31T12:54:45.1Z</time>
      </trkpt>
      <trkpt lat="44.31752" lon="6.22653">
        <ele>1679</ele>
        <time>2014-08-31T12:54:51.1Z</time>
      </trkpt>
      <trkpt lat="44.31755" lon="6.22653">
        <ele>1677</ele>
        <time>2014-08-31T12:54:57.1Z</time>
      </trkpt>
      <trkpt lat="44.31758" lon="6.22652">
        <ele>1676</ele>
        <time>2014-08-31T12:55:02.1Z</time>
      </trkpt>
      <trkpt lat="44.3176" lon="6.22653">
        <ele>1674</ele>
        <time>2014-08-31T12:55:07.1Z</time>
      </trkpt>
      <trkpt lat="44.31762" lon="6.22658">
        <ele>1673</ele>
        <time>2014-08-31T12:55:12.1Z</time>
      </trkpt>
      <trkpt lat="44.31766" lon="6.22662">
        <ele>1672</ele>
        <time>2014-08-31T12:55:18.1Z</time>
      </trkpt>
      <trkpt lat="44.31771" lon="6.22666">
        <ele>1669</ele>
        <time>2014-08-31T12:55:24.1Z</time>
      </trkpt>
      <trkpt lat="44.31775" lon="6.22667">
        <ele>1668</ele>
        <time>2014-08-31T12:55:29.1Z</time>
      </trkpt>
      <trkpt lat="44.31779" lon="6.22671">
        <ele>1666</ele>
        <time>2014-08-31T12:55:35.1Z</time>
      </trkpt>
      <trkpt lat="44.31781" lon="6.22674">
        <ele>1664</ele>
        <time>2014-08-31T12:55:40.1Z</time>
      </trkpt>
      <trkpt lat="44.31784" lon="6.22676">
        <ele>1662</ele>
        <time>2014-08-31T12:55:46.1Z</time>
      </trkpt>
      <trkpt lat="44.31787" lon="6.22677">
        <ele>1662</ele>
        <time>2014-08-31T12:55:51.1Z</time>
      </trkpt>
      <trkpt lat="44.3179" lon="6.22681">
        <ele>1660</ele>
        <time>2014-08-31T12:55:57.1Z</time>
      </trkpt>
      <trkpt lat="44.31792" lon="6.22685">
        <ele>1659</ele>
        <time>2014-08-31T12:56:03.1Z</time>
      </trkpt>
      <trkpt lat="44.31795" lon="6.22687">
        <ele>1657</ele>
        <time>2014-08-31T12:56:08.1Z</time>
      </trkpt>
      <trkpt lat="44.31797" lon="6.22689">
        <ele>1656</ele>
        <time>2014-08-31T12:56:14.1Z</time>
      </trkpt>
      <trkpt lat="44.31798" lon="6.22689">
        <ele>1654</ele>
        <time>2014-08-31T12:56:20.1Z</time>
      </trkpt>
      <trkpt lat="44.31802" lon="6.2269">
        <ele>1654</ele>
        <time>2014-08-31T12:56:26.1Z</time>
      </trkpt>
      <trkpt lat="44.31806" lon="6.22688">
        <ele>1652</ele>
        <time>2014-08-31T12:56:32.1Z</time>
      </trkpt>
      <trkpt lat="44.3181" lon="6.22687">
        <ele>1651</ele>
        <time>2014-08-31T12:56:38.1Z</time>
      </trkpt>
      <trkpt lat="44.3181" lon="6.22687">
        <ele>1651</ele>
        <time>2014-08-31T12:56:44.1Z</time>
      </trkpt>
      <trkpt lat="44.3181" lon="6.22687">
        <ele>1651</ele>
        <time>2014-08-31T12:56:49.1Z</time>
      </trkpt>
      <trkpt lat="44.3181" lon="6.22688">
        <ele>1650</ele>
        <time>2014-08-31T12:56:59.1Z</time>
      </trkpt>
      <trkpt lat="44.3181" lon="6.22688">
        <ele>1650</ele>
        <time>2014-08-31T12:57:04.1Z</time>
      </trkpt>
      <trkpt lat="44.31812" lon="6.22688">
        <ele>1650</ele>
        <time>2014-08-31T12:57:09.1Z</time>
      </trkpt>
      <trkpt lat="44.31813" lon="6.22689">
        <ele>1651</ele>
        <time>2014-08-31T12:57:15.1Z</time>
      </trkpt>
      <trkpt lat="44.31813" lon="6.22689">
        <ele>1651</ele>
        <time>2014-08-31T12:57:21.1Z</time>
      </trkpt>
      <trkpt lat="44.31814" lon="6.22689">
        <ele>1651</ele>
        <time>2014-08-31T12:57:26.1Z</time>
      </trkpt>
      <trkpt lat="44.31815" lon="6.2269">
        <ele>1651</ele>
        <time>2014-08-31T12:57:32.1Z</time>
      </trkpt>
      <trkpt lat="44.31815" lon="6.22689">
        <ele>1650</ele>
        <time>2014-08-31T12:57:40.1Z</time>
      </trkpt>
      <trkpt lat="44.31815" lon="6.2269">
        <ele>1650</ele>
        <time>2014-08-31T12:57:45.1Z</time>
      </trkpt>
      <trkpt lat="44.31816" lon="6.22689">
        <ele>1650</ele>
        <time>2014-08-31T12:57:51.1Z</time>
      </trkpt>
      <trkpt lat="44.31817" lon="6.22689">
        <ele>1650</ele>
        <time>2014-08-31T12:57:56.1Z</time>
      </trkpt>
      <trkpt lat="44.31822" lon="6.22687">
        <ele>1649</ele>
        <time>2014-08-31T12:58:01.1Z</time>
      </trkpt>
      <trkpt lat="44.31829" lon="6.2268">
        <ele>1647</ele>
        <time>2014-08-31T12:58:07.1Z</time>
      </trkpt>
      <trkpt lat="44.31837" lon="6.22681">
        <ele>1644</ele>
        <time>2014-08-31T12:58:12.1Z</time>
      </trkpt>
      <trkpt lat="44.31842" lon="6.22679">
        <ele>1642</ele>
        <time>2014-08-31T12:58:17.1Z</time>
      </trkpt>
      <trkpt lat="44.31851" lon="6.2268">
        <ele>1640</ele>
        <time>2014-08-31T12:58:23.1Z</time>
      </trkpt>
      <trkpt lat="44.3186" lon="6.22682">
        <ele>1635</ele>
        <time>2014-08-31T12:58:29.1Z</time>
      </trkpt>
      <trkpt lat="44.31865" lon="6.22688">
        <ele>1632</ele>
        <time>2014-08-31T12:58:34.1Z</time>
      </trkpt>
      <trkpt lat="44.31866" lon="6.22689">
        <ele>1630</ele>
        <time>2014-08-31T12:58:41.1Z</time>
      </trkpt>
      <trkpt lat="44.31866" lon="6.22689">
        <ele>1629</ele>
        <time>2014-08-31T12:58:50.1Z</time>
      </trkpt>
      <trkpt lat="44.31867" lon="6.22689">
        <ele>1629</ele>
        <time>2014-08-31T12:58:58.1Z</time>
      </trkpt>
      <trkpt lat="44.31874" lon="6.22688">
        <ele>1628</ele>
        <time>2014-08-31T12:59:03.1Z</time>
      </trkpt>
      <trkpt lat="44.31882" lon="6.22689">
        <ele>1626</ele>
        <time>2014-08-31T12:59:08.1Z</time>
      </trkpt>
      <trkpt lat="44.3189" lon="6.22693">
        <ele>1623</ele>
        <time>2014-08-31T12:59:14.1Z</time>
      </trkpt>
      <trkpt lat="44.31897" lon="6.22699">
        <ele>1621</ele>
        <time>2014-08-31T12:59:19.1Z</time>
      </trkpt>
      <trkpt lat="44.31906" lon="6.22703">
        <ele>1618</ele>
        <time>2014-08-31T12:59:25.1Z</time>
      </trkpt>
      <trkpt lat="44.31912" lon="6.22709">
        <ele>1615</ele>
        <time>2014-08-31T12:59:30.1Z</time>
      </trkpt>
      <trkpt lat="44.31919" lon="6.22716">
        <ele>1611</ele>
        <time>2014-08-31T12:59:36.1Z</time>
      </trkpt>
      <trkpt lat="44.31927" lon="6.22724">
        <ele>1609</ele>
        <time>2014-08-31T12:59:41.1Z</time>
      </trkpt>
      <trkpt lat="44.31937" lon="6.22731">
        <ele>1604</ele>
        <time>2014-08-31T12:59:47.1Z</time>
      </trkpt>
      <trkpt lat="44.31942" lon="6.22738">
        <ele>1601</ele>
        <time>2014-08-31T12:59:52.1Z</time>
      </trkpt>
      <trkpt lat="44.31943" lon="6.22739">
        <ele>1599</ele>
        <time>2014-08-31T13:00:01.1Z</time>
      </trkpt>
      <trkpt lat="44.31943" lon="6.2274">
        <ele>1599</ele>
        <time>2014-08-31T13:00:07.1Z</time>
      </trkpt>
      <trkpt lat="44.31943" lon="6.22739">
        <ele>1599</ele>
        <time>2014-08-31T13:00:14.1Z</time>
      </trkpt>
      <trkpt lat="44.31944" lon="6.22739">
        <ele>1599</ele>
        <time>2014-08-31T13:00:19.1Z</time>
      </trkpt>
      <trkpt lat="44.31943" lon="6.22739">
        <ele>1598</ele>
        <time>2014-08-31T13:00:24.1Z</time>
      </trkpt>
      <trkpt lat="44.31943" lon="6.22738">
        <ele>1599</ele>
        <time>2014-08-31T13:00:30.1Z</time>
      </trkpt>
      <trkpt lat="44.31944" lon="6.22739">
        <ele>1599</ele>
        <time>2014-08-31T13:00:36.1Z</time>
      </trkpt>
      <trkpt lat="44.31944" lon="6.22738">
        <ele>1598</ele>
        <time>2014-08-31T13:00:41.1Z</time>
      </trkpt>
      <trkpt lat="44.31943" lon="6.22737">
        <ele>1598</ele>
        <time>2014-08-31T13:00:47.1Z</time>
      </trkpt>
      <trkpt lat="44.31943" lon="6.22737">
        <ele>1598</ele>
        <time>2014-08-31T13:00:53.1Z</time>
      </trkpt>
      <trkpt lat="44.31943" lon="6.22737">
        <ele>1598</ele>
        <time>2014-08-31T13:01:02.1Z</time>
      </trkpt>
      <trkpt lat="44.31943" lon="6.22737">
        <ele>1598</ele>
        <time>2014-08-31T13:01:11.1Z</time>
      </trkpt>
      <trkpt lat="44.31943" lon="6.22738">
        <ele>1598</ele>
        <time>2014-08-31T13:01:17.1Z</time>
      </trkpt>
      <trkpt lat="44.31944" lon="6.22739">
        <ele>1599</ele>
        <time>2014-08-31T13:01:22.1Z</time>
      </trkpt>
      <trkpt lat="44.31948" lon="6.22741">
        <ele>1597</ele>
        <time>2014-08-31T13:01:28.1Z</time>
      </trkpt>
      <trkpt lat="44.31957" lon="6.2274">
        <ele>1595</ele>
        <time>2014-08-31T13:01:34.1Z</time>
      </trkpt>
      <trkpt lat="44.31962" lon="6.22731">
        <ele>1592</ele>
        <time>2014-08-31T13:01:40.1Z</time>
      </trkpt>
      <trkpt lat="44.31962" lon="6.22724">
        <ele>1590</ele>
        <time>2014-08-31T13:01:46.1Z</time>
      </trkpt>
      <trkpt lat="44.31962" lon="6.22719">
        <ele>1589</ele>
        <time>2014-08-31T13:01:52.1Z</time>
      </trkpt>
      <trkpt lat="44.31955" lon="6.22694">
        <ele>1588</ele>
        <time>2014-08-31T13:01:57.1Z</time>
      </trkpt>
      <trkpt lat="44.31962" lon="6.22679">
        <ele>1587</ele>
        <time>2014-08-31T13:02:03.1Z</time>
      </trkpt>
      <trkpt lat="44.31962" lon="6.22679">
        <ele>1588</ele>
        <time>2014-08-31T13:02:09.1Z</time>
      </trkpt>
      <trkpt lat="44.31962" lon="6.22678">
        <ele>1588</ele>
        <time>2014-08-31T13:02:16.1Z</time>
      </trkpt>
      <trkpt lat="44.31962" lon="6.22678">
        <ele>1588</ele>
        <time>2014-08-31T13:02:23.1Z</time>
      </trkpt>
      <trkpt lat="44.31962" lon="6.22678">
        <ele>1588</ele>
        <time>2014-08-31T13:02:28.1Z</time>
      </trkpt>
      <trkpt lat="44.31963" lon="6.22678">
        <ele>1587</ele>
        <time>2014-08-31T13:02:33.1Z</time>
      </trkpt>
      <trkpt lat="44.31966" lon="6.22674">
        <ele>1587</ele>
        <time>2014-08-31T13:02:38.1Z</time>
      </trkpt>
      <trkpt lat="44.31969" lon="6.22662">
        <ele>1588</ele>
        <time>2014-08-31T13:02:44.1Z</time>
      </trkpt>
      <trkpt lat="44.31975" lon="6.22655">
        <ele>1589</ele>
        <time>2014-08-31T13:02:49.1Z</time>
      </trkpt>
      <trkpt lat="44.31981" lon="6.22648">
        <ele>1589</ele>
        <time>2014-08-31T13:02:55.1Z</time>
      </trkpt>
      <trkpt lat="44.31986" lon="6.22642">
        <ele>1590</ele>
        <time>2014-08-31T13:03:00.1Z</time>
      </trkpt>
      <trkpt lat="44.31989" lon="6.22634">
        <ele>1591</ele>
        <time>2014-08-31T13:03:05.1Z</time>
      </trkpt>
      <trkpt lat="44.3199" lon="6.22624">
        <ele>1592</ele>
        <time>2014-08-31T13:03:11.1Z</time>
      </trkpt>
      <trkpt lat="44.31992" lon="6.22616">
        <ele>1593</ele>
        <time>2014-08-31T13:03:16.1Z</time>
      </trkpt>
      <trkpt lat="44.31994" lon="6.22606">
        <ele>1593</ele>
        <time>2014-08-31T13:03:22.1Z</time>
      </trkpt>
      <trkpt lat="44.31998" lon="6.22596">
        <ele>1594</ele>
        <time>2014-08-31T13:03:28.1Z</time>
      </trkpt>
      <trkpt lat="44.32001" lon="6.22587">
        <ele>1594</ele>
        <time>2014-08-31T13:03:34.1Z</time>
      </trkpt>
      <trkpt lat="44.32004" lon="6.22579">
        <ele>1595</ele>
        <time>2014-08-31T13:03:39.1Z</time>
      </trkpt>
      <trkpt lat="44.32006" lon="6.2257">
        <ele>1596</ele>
        <time>2014-08-31T13:03:45.1Z</time>
      </trkpt>
      <trkpt lat="44.3201" lon="6.22561">
        <ele>1596</ele>
        <time>2014-08-31T13:03:51.1Z</time>
      </trkpt>
      <trkpt lat="44.32012" lon="6.22553">
        <ele>1597</ele>
        <time>2014-08-31T13:03:56.1Z</time>
      </trkpt>
      <trkpt lat="44.32014" lon="6.22545">
        <ele>1597</ele>
        <time>2014-08-31T13:04:01.1Z</time>
      </trkpt>
      <trkpt lat="44.32015" lon="6.22536">
        <ele>1598</ele>
        <time>2014-08-31T13:04:07.1Z</time>
      </trkpt>
      <trkpt lat="44.32017" lon="6.22528">
        <ele>1599</ele>
        <time>2014-08-31T13:04:12.1Z</time>
      </trkpt>
      <trkpt lat="44.32019" lon="6.2252">
        <ele>1599</ele>
        <time>2014-08-31T13:04:17.1Z</time>
      </trkpt>
      <trkpt lat="44.32022" lon="6.22511">
        <ele>1599</ele>
        <time>2014-08-31T13:04:23.1Z</time>
      </trkpt>
      <trkpt lat="44.32024" lon="6.22504">
        <ele>1600</ele>
        <time>2014-08-31T13:04:28.1Z</time>
      </trkpt>
      <trkpt lat="44.32025" lon="6.22494">
        <ele>1601</ele>
        <time>2014-08-31T13:04:34.1Z</time>
      </trkpt>
      <trkpt lat="44.32027" lon="6.22485">
        <ele>1601</ele>
        <time>2014-08-31T13:04:39.1Z</time>
      </trkpt>
      <trkpt lat="44.32029" lon="6.22475">
        <ele>1602</ele>
        <time>2014-08-31T13:04:45.1Z</time>
      </trkpt>
      <trkpt lat="44.32032" lon="6.22468">
        <ele>1602</ele>
        <time>2014-08-31T13:04:50.1Z</time>
      </trkpt>
      <trkpt lat="44.3204" lon="6.22465">
        <ele>1602</ele>
        <time>2014-08-31T13:04:56.1Z</time>
      </trkpt>
      <trkpt lat="44.32046" lon="6.22469">
        <ele>1602</ele>
        <time>2014-08-31T13:05:01.1Z</time>
      </trkpt>
      <trkpt lat="44.32051" lon="6.22472">
        <ele>1601</ele>
        <time>2014-08-31T13:05:06.1Z</time>
      </trkpt>
      <trkpt lat="44.32058" lon="6.22475">
        <ele>1601</ele>
        <time>2014-08-31T13:05:11.1Z</time>
      </trkpt>
      <trkpt lat="44.3207" lon="6.22482">
        <ele>1600</ele>
        <time>2014-08-31T13:05:17.1Z</time>
      </trkpt>
      <trkpt lat="44.32077" lon="6.22486">
        <ele>1599</ele>
        <time>2014-08-31T13:05:22.1Z</time>
      </trkpt>
      <trkpt lat="44.32089" lon="6.22492">
        <ele>1598</ele>
        <time>2014-08-31T13:05:28.1Z</time>
      </trkpt>
      <trkpt lat="44.32102" lon="6.22496">
        <ele>1597</ele>
        <time>2014-08-31T13:05:33.1Z</time>
      </trkpt>
      <trkpt lat="44.32115" lon="6.22501">
        <ele>1596</ele>
        <time>2014-08-31T13:05:39.1Z</time>
      </trkpt>
      <trkpt lat="44.32132" lon="6.22507">
        <ele>1594</ele>
        <time>2014-08-31T13:05:45.1Z</time>
      </trkpt>
      <trkpt lat="44.3215" lon="6.22513">
        <ele>1593</ele>
        <time>2014-08-31T13:05:51.1Z</time>
      </trkpt>
      <trkpt lat="44.32166" lon="6.22518">
        <ele>1592</ele>
        <time>2014-08-31T13:05:56.1Z</time>
      </trkpt>
      <trkpt lat="44.32184" lon="6.22518">
        <ele>1590</ele>
        <time>2014-08-31T13:06:02.1Z</time>
      </trkpt>
      <trkpt lat="44.322" lon="6.22511">
        <ele>1589</ele>
        <time>2014-08-31T13:06:07.1Z</time>
      </trkpt>
      <trkpt lat="44.32221" lon="6.22497">
        <ele>1587</ele>
        <time>2014-08-31T13:06:13.1Z</time>
      </trkpt>
      <trkpt lat="44.32238" lon="6.22487">
        <ele>1586</ele>
        <time>2014-08-31T13:06:18.1Z</time>
      </trkpt>
      <trkpt lat="44.32255" lon="6.22474">
        <ele>1585</ele>
        <time>2014-08-31T13:06:24.1Z</time>
      </trkpt>
      <trkpt lat="44.3227" lon="6.22459">
        <ele>1583</ele>
        <time>2014-08-31T13:06:29.1Z</time>
      </trkpt>
      <trkpt lat="44.32275" lon="6.22429">
        <ele>1581</ele>
        <time>2014-08-31T13:06:34.1Z</time>
      </trkpt>
      <trkpt lat="44.32278" lon="6.2239">
        <ele>1579</ele>
        <time>2014-08-31T13:06:40.1Z</time>
      </trkpt>
      <trkpt lat="44.32294" lon="6.22352">
        <ele>1578</ele>
        <time>2014-08-31T13:06:46.1Z</time>
      </trkpt>
      <trkpt lat="44.32326" lon="6.22331">
        <ele>1576</ele>
        <time>2014-08-31T13:06:52.1Z</time>
      </trkpt>
      <trkpt lat="44.32355" lon="6.22332">
        <ele>1574</ele>
        <time>2014-08-31T13:06:57.1Z</time>
      </trkpt>
      <trkpt lat="44.32383" lon="6.22357">
        <ele>1569</ele>
        <time>2014-08-31T13:07:03.1Z</time>
      </trkpt>
      <trkpt lat="44.32417" lon="6.22374">
        <ele>1565</ele>
        <time>2014-08-31T13:07:09.1Z</time>
      </trkpt>
      <trkpt lat="44.32451" lon="6.22396">
        <ele>1562</ele>
        <time>2014-08-31T13:07:15.1Z</time>
      </trkpt>
      <trkpt lat="44.32478" lon="6.22409">
        <ele>1557</ele>
        <time>2014-08-31T13:07:20.1Z</time>
      </trkpt>
      <trkpt lat="44.32505" lon="6.22407">
        <ele>1555</ele>
        <time>2014-08-31T13:07:26.1Z</time>
      </trkpt>
      <trkpt lat="44.32533" lon="6.22388">
        <ele>1551</ele>
        <time>2014-08-31T13:07:32.1Z</time>
      </trkpt>
      <trkpt lat="44.32555" lon="6.22355">
        <ele>1548</ele>
        <time>2014-08-31T13:07:38.1Z</time>
      </trkpt>
      <trkpt lat="44.32562" lon="6.22328">
        <ele>1545</ele>
        <time>2014-08-31T13:07:43.1Z</time>
      </trkpt>
      <trkpt lat="44.3256" lon="6.223">
        <ele>1543</ele>
        <time>2014-08-31T13:07:48.1Z</time>
      </trkpt>
      <trkpt lat="44.32564" lon="6.22263">
        <ele>1541</ele>
        <time>2014-08-31T13:07:54.1Z</time>
      </trkpt>
      <trkpt lat="44.32572" lon="6.22234">
        <ele>1538</ele>
        <time>2014-08-31T13:07:59.1Z</time>
      </trkpt>
      <trkpt lat="44.3258" lon="6.22209">
        <ele>1536</ele>
        <time>2014-08-31T13:08:04.1Z</time>
      </trkpt>
      <trkpt lat="44.32597" lon="6.22181">
        <ele>1534</ele>
        <time>2014-08-31T13:08:10.1Z</time>
      </trkpt>
      <trkpt lat="44.326" lon="6.22159">
        <ele>1532</ele>
        <time>2014-08-31T13:08:15.1Z</time>
      </trkpt>
      <trkpt lat="44.32598" lon="6.22133">
        <ele>1530</ele>
        <time>2014-08-31T13:08:20.1Z</time>
      </trkpt>
      <trkpt lat="44.32607" lon="6.22113">
        <ele>1528</ele>
        <time>2014-08-31T13:08:26.1Z</time>
      </trkpt>
      <trkpt lat="44.32616" lon="6.22109">
        <ele>1526</ele>
        <time>2014-08-31T13:08:31.1Z</time>
      </trkpt>
      <trkpt lat="44.32624" lon="6.22098">
        <ele>1525</ele>
        <time>2014-08-31T13:08:37.1Z</time>
      </trkpt>
      <trkpt lat="44.32627" lon="6.2208">
        <ele>1523</ele>
        <time>2014-08-31T13:08:42.1Z</time>
      </trkpt>
      <trkpt lat="44.3263" lon="6.22056">
        <ele>1521</ele>
        <time>2014-08-31T13:08:48.1Z</time>
      </trkpt>
      <trkpt lat="44.32632" lon="6.22034">
        <ele>1520</ele>
        <time>2014-08-31T13:08:53.1Z</time>
      </trkpt>
      <trkpt lat="44.32651" lon="6.22018">
        <ele>1517</ele>
        <time>2014-08-31T13:08:59.1Z</time>
      </trkpt>
      <trkpt lat="44.3267" lon="6.22016">
        <ele>1515</ele>
        <time>2014-08-31T13:09:04.1Z</time>
      </trkpt>
      <trkpt lat="44.32693" lon="6.22031">
        <ele>1513</ele>
        <time>2014-08-31T13:09:10.1Z</time>
      </trkpt>
      <trkpt lat="44.32722" lon="6.22037">
        <ele>1510</ele>
        <time>2014-08-31T13:09:16.1Z</time>
      </trkpt>
      <trkpt lat="44.32744" lon="6.22041">
        <ele>1507</ele>
        <time>2014-08-31T13:09:21.1Z</time>
      </trkpt>
      <trkpt lat="44.32766" lon="6.22048">
        <ele>1504</ele>
        <time>2014-08-31T13:09:26.1Z</time>
      </trkpt>
      <trkpt lat="44.32785" lon="6.22053">
        <ele>1501</ele>
        <time>2014-08-31T13:09:31.1Z</time>
      </trkpt>
      <trkpt lat="44.32809" lon="6.22046">
        <ele>1499</ele>
        <time>2014-08-31T13:09:37.1Z</time>
      </trkpt>
      <trkpt lat="44.32828" lon="6.22027">
        <ele>1496</ele>
        <time>2014-08-31T13:09:43.1Z</time>
      </trkpt>
      <trkpt lat="44.3284" lon="6.22003">
        <ele>1494</ele>
        <time>2014-08-31T13:09:48.1Z</time>
      </trkpt>
      <trkpt lat="44.32856" lon="6.21977">
        <ele>1492</ele>
        <time>2014-08-31T13:09:53.1Z</time>
      </trkpt>
      <trkpt lat="44.32877" lon="6.21966">
        <ele>1489</ele>
        <time>2014-08-31T13:09:59.1Z</time>
      </trkpt>
      <trkpt lat="44.32894" lon="6.21964">
        <ele>1486</ele>
        <time>2014-08-31T13:10:04.1Z</time>
      </trkpt>
      <trkpt lat="44.32918" lon="6.21954">
        <ele>1484</ele>
        <time>2014-08-31T13:10:10.1Z</time>
      </trkpt>
      <trkpt lat="44.32939" lon="6.21937">
        <ele>1481</ele>
        <time>2014-08-31T13:10:16.1Z</time>
      </trkpt>
      <trkpt lat="44.32959" lon="6.21908">
        <ele>1477</ele>
        <time>2014-08-31T13:10:21.1Z</time>
      </trkpt>
      <trkpt lat="44.32983" lon="6.21888">
        <ele>1474</ele>
        <time>2014-08-31T13:10:27.1Z</time>
      </trkpt>
      <trkpt lat="44.33006" lon="6.21887">
        <ele>1471</ele>
        <time>2014-08-31T13:10:33.1Z</time>
      </trkpt>
      <trkpt lat="44.33031" lon="6.21882">
        <ele>1468</ele>
        <time>2014-08-31T13:10:38.1Z</time>
      </trkpt>
      <trkpt lat="44.33044" lon="6.21879">
        <ele>1467</ele>
        <time>2014-08-31T13:10:43.1Z</time>
      </trkpt>
      <trkpt lat="44.33049" lon="6.21876">
        <ele>1467</ele>
        <time>2014-08-31T13:10:49.1Z</time>
      </trkpt>
      <trkpt lat="44.33052" lon="6.21872">
        <ele>1466</ele>
        <time>2014-08-31T13:10:54.1Z</time>
      </trkpt>
      <trkpt lat="44.33053" lon="6.21874">
        <ele>1466</ele>
        <time>2014-08-31T13:11:00.1Z</time>
      </trkpt>
      <trkpt lat="44.33053" lon="6.21876">
        <ele>1467</ele>
        <time>2014-08-31T13:11:07.1Z</time>
      </trkpt>
      <trkpt lat="44.33055" lon="6.21875">
        <ele>1467</ele>
        <time>2014-08-31T13:11:12.1Z</time>
      </trkpt>
      <trkpt lat="44.33056" lon="6.21874">
        <ele>1466</ele>
        <time>2014-08-31T13:11:18.1Z</time>
      </trkpt>
      <trkpt lat="44.3306" lon="6.21873">
        <ele>1466</ele>
        <time>2014-08-31T13:11:23.1Z</time>
      </trkpt>
      <trkpt lat="44.33075" lon="6.21868">
        <ele>1464</ele>
        <time>2014-08-31T13:11:28.1Z</time>
      </trkpt>
      <trkpt lat="44.33111" lon="6.21861">
        <ele>1462</ele>
        <time>2014-08-31T13:11:34.1Z</time>
      </trkpt>
      <trkpt lat="44.33127" lon="6.21865">
        <ele>1459</ele>
        <time>2014-08-31T13:11:39.1Z</time>
      </trkpt>
      <trkpt lat="44.33156" lon="6.21873">
        <ele>1457</ele>
        <time>2014-08-31T13:11:45.1Z</time>
      </trkpt>
      <trkpt lat="44.33193" lon="6.21899">
        <ele>1453</ele>
        <time>2014-08-31T13:11:50.1Z</time>
      </trkpt>
      <trkpt lat="44.33239" lon="6.21928">
        <ele>1447</ele>
        <time>2014-08-31T13:11:56.1Z</time>
      </trkpt>
      <trkpt lat="44.33271" lon="6.21926">
        <ele>1444</ele>
        <time>2014-08-31T13:12:01.1Z</time>
      </trkpt>
      <trkpt lat="44.33308" lon="6.21902">
        <ele>1439</ele>
        <time>2014-08-31T13:12:07.1Z</time>
      </trkpt>
      <trkpt lat="44.33327" lon="6.21861">
        <ele>1434</ele>
        <time>2014-08-31T13:12:13.1Z</time>
      </trkpt>
      <trkpt lat="44.33318" lon="6.21825">
        <ele>1431</ele>
        <time>2014-08-31T13:12:18.1Z</time>
      </trkpt>
      <trkpt lat="44.33308" lon="6.21787">
        <ele>1429</ele>
        <time>2014-08-31T13:12:23.1Z</time>
      </trkpt>
      <trkpt lat="44.33296" lon="6.21749">
        <ele>1426</ele>
        <time>2014-08-31T13:12:29.1Z</time>
      </trkpt>
      <trkpt lat="44.33285" lon="6.21726">
        <ele>1424</ele>
        <time>2014-08-31T13:12:35.1Z</time>
      </trkpt>
      <trkpt lat="44.33283" lon="6.21723">
        <ele>1422</ele>
        <time>2014-08-31T13:12:41.1Z</time>
      </trkpt>
      <trkpt lat="44.33281" lon="6.21724">
        <ele>1422</ele>
        <time>2014-08-31T13:12:47.1Z</time>
      </trkpt>
      <trkpt lat="44.33279" lon="6.21724">
        <ele>1422</ele>
        <time>2014-08-31T13:12:53.1Z</time>
      </trkpt>
      <trkpt lat="44.33281" lon="6.21723">
        <ele>1422</ele>
        <time>2014-08-31T13:12:58.1Z</time>
      </trkpt>
      <trkpt lat="44.33284" lon="6.21721">
        <ele>1422</ele>
        <time>2014-08-31T13:13:04.1Z</time>
      </trkpt>
      <trkpt lat="44.33287" lon="6.21719">
        <ele>1422</ele>
        <time>2014-08-31T13:13:09.1Z</time>
      </trkpt>
      <trkpt lat="44.33288" lon="6.21718">
        <ele>1422</ele>
        <time>2014-08-31T13:13:14.1Z</time>
      </trkpt>
      <trkpt lat="44.33289" lon="6.21716">
        <ele>1422</ele>
        <time>2014-08-31T13:13:19.1Z</time>
      </trkpt>
      <trkpt lat="44.3329" lon="6.21714">
        <ele>1422</ele>
        <time>2014-08-31T13:13:25.1Z</time>
      </trkpt>
      <trkpt lat="44.33291" lon="6.21712">
        <ele>1422</ele>
        <time>2014-08-31T13:13:30.1Z</time>
      </trkpt>
      <trkpt lat="44.33293" lon="6.21711">
        <ele>1422</ele>
        <time>2014-08-31T13:13:35.1Z</time>
      </trkpt>
      <trkpt lat="44.33296" lon="6.2171">
        <ele>1422</ele>
        <time>2014-08-31T13:13:40.1Z</time>
      </trkpt>
      <trkpt lat="44.33297" lon="6.2171">
        <ele>1423</ele>
        <time>2014-08-31T13:13:46.1Z</time>
      </trkpt>
      <trkpt lat="44.33298" lon="6.21712">
        <ele>1423</ele>
        <time>2014-08-31T13:13:51.1Z</time>
      </trkpt>
      <trkpt lat="44.33298" lon="6.21712">
        <ele>1423</ele>
        <time>2014-08-31T13:13:57.1Z</time>
      </trkpt>
      <trkpt lat="44.33303" lon="6.21711">
        <ele>1423</ele>
        <time>2014-08-31T13:14:02.1Z</time>
      </trkpt>
      <trkpt lat="44.33309" lon="6.2171">
        <ele>1423</ele>
        <time>2014-08-31T13:14:08.1Z</time>
      </trkpt>
      <trkpt lat="44.33313" lon="6.2171">
        <ele>1422</ele>
        <time>2014-08-31T13:14:13.1Z</time>
      </trkpt>
      <trkpt lat="44.33314" lon="6.21708">
        <ele>1422</ele>
        <time>2014-08-31T13:14:19.1Z</time>
      </trkpt>
      <trkpt lat="44.33313" lon="6.21711">
        <ele>1422</ele>
        <time>2014-08-31T13:14:24.1Z</time>
      </trkpt>
      <trkpt lat="44.33317" lon="6.21712">
        <ele>1422</ele>
        <time>2014-08-31T13:14:30.1Z</time>
      </trkpt>
      <trkpt lat="44.33317" lon="6.2171">
        <ele>1422</ele>
        <time>2014-08-31T13:14:35.1Z</time>
      </trkpt>
      <trkpt lat="44.33308" lon="6.21703">
        <ele>1422</ele>
        <time>2014-08-31T13:14:41.1Z</time>
      </trkpt>
      <trkpt lat="44.33294" lon="6.21688">
        <ele>1420</ele>
        <time>2014-08-31T13:14:46.1Z</time>
      </trkpt>
      <trkpt lat="44.3329" lon="6.21673">
        <ele>1418</ele>
        <time>2014-08-31T13:14:52.1Z</time>
      </trkpt>
      <trkpt lat="44.33301" lon="6.21664">
        <ele>1416</ele>
        <time>2014-08-31T13:14:58.1Z</time>
      </trkpt>
      <trkpt lat="44.33318" lon="6.21657">
        <ele>1414</ele>
        <time>2014-08-31T13:15:03.1Z</time>
      </trkpt>
      <trkpt lat="44.33341" lon="6.21655">
        <ele>1411</ele>
        <time>2014-08-31T13:15:09.1Z</time>
      </trkpt>
      <trkpt lat="44.33359" lon="6.21652">
        <ele>1408</ele>
        <time>2014-08-31T13:15:14.1Z</time>
      </trkpt>
      <trkpt lat="44.33375" lon="6.21637">
        <ele>1406</ele>
        <time>2014-08-31T13:15:19.1Z</time>
      </trkpt>
      <trkpt lat="44.33393" lon="6.21617">
        <ele>1403</ele>
        <time>2014-08-31T13:15:24.1Z</time>
      </trkpt>
      <trkpt lat="44.33412" lon="6.21598">
        <ele>1401</ele>
        <time>2014-08-31T13:15:29.1Z</time>
      </trkpt>
      <trkpt lat="44.33442" lon="6.21594">
        <ele>1397</ele>
        <time>2014-08-31T13:15:35.1Z</time>
      </trkpt>
      <trkpt lat="44.33468" lon="6.21596">
        <ele>1395</ele>
        <time>2014-08-31T13:15:40.1Z</time>
      </trkpt>
      <trkpt lat="44.33494" lon="6.21595">
        <ele>1393</ele>
        <time>2014-08-31T13:15:45.1Z</time>
      </trkpt>
      <trkpt lat="44.33512" lon="6.2159">
        <ele>1390</ele>
        <time>2014-08-31T13:15:50.1Z</time>
      </trkpt>
      <trkpt lat="44.33535" lon="6.21575">
        <ele>1388</ele>
        <time>2014-08-31T13:15:56.1Z</time>
      </trkpt>
      <trkpt lat="44.3354" lon="6.21544">
        <ele>1386</ele>
        <time>2014-08-31T13:16:02.1Z</time>
      </trkpt>
      <trkpt lat="44.33533" lon="6.21522">
        <ele>1383</ele>
        <time>2014-08-31T13:16:07.1Z</time>
      </trkpt>
      <trkpt lat="44.33519" lon="6.21486">
        <ele>1380</ele>
        <time>2014-08-31T13:16:13.1Z</time>
      </trkpt>
      <trkpt lat="44.33526" lon="6.21438">
        <ele>1376</ele>
        <time>2014-08-31T13:16:19.1Z</time>
      </trkpt>
      <trkpt lat="44.33532" lon="6.21403">
        <ele>1374</ele>
        <time>2014-08-31T13:16:24.1Z</time>
      </trkpt>
      <trkpt lat="44.3355" lon="6.21382">
        <ele>1371</ele>
        <time>2014-08-31T13:16:30.1Z</time>
      </trkpt>
      <trkpt lat="44.33569" lon="6.21385">
        <ele>1368</ele>
        <time>2014-08-31T13:16:35.1Z</time>
      </trkpt>
      <trkpt lat="44.33594" lon="6.21372">
        <ele>1367</ele>
        <time>2014-08-31T13:16:41.1Z</time>
      </trkpt>
      <trkpt lat="44.33601" lon="6.21344">
        <ele>1365</ele>
        <time>2014-08-31T13:16:46.1Z</time>
      </trkpt>
      <trkpt lat="44.33612" lon="6.21317">
        <ele>1364</ele>
        <time>2014-08-31T13:16:51.1Z</time>
      </trkpt>
      <trkpt lat="44.33637" lon="6.21315">
        <ele>1362</ele>
        <time>2014-08-31T13:16:56.1Z</time>
      </trkpt>
      <trkpt lat="44.33663" lon="6.21305">
        <ele>1361</ele>
        <time>2014-08-31T13:17:01.1Z</time>
      </trkpt>
      <trkpt lat="44.33687" lon="6.21303">
        <ele>1359</ele>
        <time>2014-08-31T13:17:06.1Z</time>
      </trkpt>
      <trkpt lat="44.33714" lon="6.21302">
        <ele>1356</ele>
        <time>2014-08-31T13:17:12.1Z</time>
      </trkpt>
      <trkpt lat="44.33728" lon="6.21297">
        <ele>1353</ele>
        <time>2014-08-31T13:17:17.1Z</time>
      </trkpt>
      <trkpt lat="44.33734" lon="6.21273">
        <ele>1352</ele>
        <time>2014-08-31T13:17:22.1Z</time>
      </trkpt>
      <trkpt lat="44.3374" lon="6.21239">
        <ele>1350</ele>
        <time>2014-08-31T13:17:27.1Z</time>
      </trkpt>
      <trkpt lat="44.33752" lon="6.21207">
        <ele>1347</ele>
        <time>2014-08-31T13:17:33.1Z</time>
      </trkpt>
      <trkpt lat="44.33756" lon="6.21177">
        <ele>1346</ele>
        <time>2014-08-31T13:17:39.1Z</time>
      </trkpt>
      <trkpt lat="44.3376" lon="6.21147">
        <ele>1344</ele>
        <time>2014-08-31T13:17:44.1Z</time>
      </trkpt>
      <trkpt lat="44.3376" lon="6.21111">
        <ele>1341</ele>
        <time>2014-08-31T13:17:50.1Z</time>
      </trkpt>
      <trkpt lat="44.3376" lon="6.21076">
        <ele>1339</ele>
        <time>2014-08-31T13:17:55.1Z</time>
      </trkpt>
      <trkpt lat="44.33779" lon="6.21055">
        <ele>1335</ele>
        <time>2014-08-31T13:18:00.1Z</time>
      </trkpt>
      <trkpt lat="44.338" lon="6.21041">
        <ele>1332</ele>
        <time>2014-08-31T13:18:05.1Z</time>
      </trkpt>
      <trkpt lat="44.33817" lon="6.21021">
        <ele>1330</ele>
        <time>2014-08-31T13:18:10.1Z</time>
      </trkpt>
      <trkpt lat="44.33841" lon="6.21001">
        <ele>1327</ele>
        <time>2014-08-31T13:18:16.1Z</time>
      </trkpt>
      <trkpt lat="44.33849" lon="6.20972">
        <ele>1324</ele>
        <time>2014-08-31T13:18:22.1Z</time>
      </trkpt>
      <trkpt lat="44.33848" lon="6.20944">
        <ele>1322</ele>
        <time>2014-08-31T13:18:27.1Z</time>
      </trkpt>
      <trkpt lat="44.33847" lon="6.20913">
        <ele>1321</ele>
        <time>2014-08-31T13:18:32.1Z</time>
      </trkpt>
      <trkpt lat="44.33857" lon="6.20879">
        <ele>1318</ele>
        <time>2014-08-31T13:18:38.1Z</time>
      </trkpt>
      <trkpt lat="44.33873" lon="6.20858">
        <ele>1315</ele>
        <time>2014-08-31T13:18:43.1Z</time>
      </trkpt>
      <trkpt lat="44.33894" lon="6.20841">
        <ele>1313</ele>
        <time>2014-08-31T13:18:48.1Z</time>
      </trkpt>
      <trkpt lat="44.33904" lon="6.20806">
        <ele>1310</ele>
        <time>2014-08-31T13:18:54.1Z</time>
      </trkpt>
      <trkpt lat="44.33901" lon="6.20764">
        <ele>1308</ele>
        <time>2014-08-31T13:19:00.1Z</time>
      </trkpt>
      <trkpt lat="44.33893" lon="6.2073">
        <ele>1305</ele>
        <time>2014-08-31T13:19:05.1Z</time>
      </trkpt>
      <trkpt lat="44.33889" lon="6.20691">
        <ele>1303</ele>
        <time>2014-08-31T13:19:11.1Z</time>
      </trkpt>
      <trkpt lat="44.33917" lon="6.20674">
        <ele>1300</ele>
        <time>2014-08-31T13:19:17.1Z</time>
      </trkpt>
      <trkpt lat="44.33945" lon="6.20663">
        <ele>1296</ele>
        <time>2014-08-31T13:19:22.1Z</time>
      </trkpt>
      <trkpt lat="44.33968" lon="6.20651">
        <ele>1294</ele>
        <time>2014-08-31T13:19:27.1Z</time>
      </trkpt>
      <trkpt lat="44.33976" lon="6.2063">
        <ele>1292</ele>
        <time>2014-08-31T13:19:32.1Z</time>
      </trkpt>
      <trkpt lat="44.33972" lon="6.206">
        <ele>1290</ele>
        <time>2014-08-31T13:19:38.1Z</time>
      </trkpt>
      <trkpt lat="44.33967" lon="6.20574">
        <ele>1288</ele>
        <time>2014-08-31T13:19:43.1Z</time>
      </trkpt>
      <trkpt lat="44.33969" lon="6.20547">
        <ele>1285</ele>
        <time>2014-08-31T13:19:48.1Z</time>
      </trkpt>
      <trkpt lat="44.33993" lon="6.2053">
        <ele>1282</ele>
        <time>2014-08-31T13:19:54.1Z</time>
      </trkpt>
      <trkpt lat="44.34015" lon="6.20518">
        <ele>1280</ele>
        <time>2014-08-31T13:19:59.1Z</time>
      </trkpt>
      <trkpt lat="44.3403" lon="6.20486">
        <ele>1278</ele>
        <time>2014-08-31T13:20:05.1Z</time>
      </trkpt>
      <trkpt lat="44.34041" lon="6.20459">
        <ele>1275</ele>
        <time>2014-08-31T13:20:10.1Z</time>
      </trkpt>
      <trkpt lat="44.34067" lon="6.20462">
        <ele>1272</ele>
        <time>2014-08-31T13:20:16.1Z</time>
      </trkpt>
      <trkpt lat="44.34088" lon="6.20472">
        <ele>1270</ele>
        <time>2014-08-31T13:20:21.1Z</time>
      </trkpt>
      <trkpt lat="44.34111" lon="6.20482">
        <ele>1268</ele>
        <time>2014-08-31T13:20:27.1Z</time>
      </trkpt>
      <trkpt lat="44.34127" lon="6.20476">
        <ele>1265</ele>
        <time>2014-08-31T13:20:32.1Z</time>
      </trkpt>
      <trkpt lat="44.34154" lon="6.20457">
        <ele>1262</ele>
        <time>2014-08-31T13:20:38.1Z</time>
      </trkpt>
      <trkpt lat="44.34172" lon="6.20441">
        <ele>1259</ele>
        <time>2014-08-31T13:20:44.1Z</time>
      </trkpt>
      <trkpt lat="44.34174" lon="6.20416">
        <ele>1258</ele>
        <time>2014-08-31T13:20:49.1Z</time>
      </trkpt>
      <trkpt lat="44.3418" lon="6.20387">
        <ele>1255</ele>
        <time>2014-08-31T13:20:55.1Z</time>
      </trkpt>
      <trkpt lat="44.34185" lon="6.20358">
        <ele>1252</ele>
        <time>2014-08-31T13:21:00.1Z</time>
      </trkpt>
      <trkpt lat="44.34193" lon="6.20328">
        <ele>1250</ele>
        <time>2014-08-31T13:21:05.1Z</time>
      </trkpt>
      <trkpt lat="44.34198" lon="6.20299">
        <ele>1248</ele>
        <time>2014-08-31T13:21:10.1Z</time>
      </trkpt>
      <trkpt lat="44.34198" lon="6.20273">
        <ele>1246</ele>
        <time>2014-08-31T13:21:15.1Z</time>
      </trkpt>
      <trkpt lat="44.34203" lon="6.20237">
        <ele>1243</ele>
        <time>2014-08-31T13:21:21.1Z</time>
      </trkpt>
      <trkpt lat="44.34221" lon="6.20208">
        <ele>1240</ele>
        <time>2014-08-31T13:21:27.1Z</time>
      </trkpt>
      <trkpt lat="44.34237" lon="6.20178">
        <ele>1237</ele>
        <time>2014-08-31T13:21:32.1Z</time>
      </trkpt>
      <trkpt lat="44.34257" lon="6.20148">
        <ele>1233</ele>
        <time>2014-08-31T13:21:38.1Z</time>
      </trkpt>
      <trkpt lat="44.34266" lon="6.20119">
        <ele>1231</ele>
        <time>2014-08-31T13:21:43.1Z</time>
      </trkpt>
      <trkpt lat="44.34261" lon="6.2009">
        <ele>1228</ele>
        <time>2014-08-31T13:21:49.1Z</time>
      </trkpt>
      <trkpt lat="44.34248" lon="6.20076">
        <ele>1227</ele>
        <time>2014-08-31T13:21:54.1Z</time>
      </trkpt>
      <trkpt lat="44.34256" lon="6.20063">
        <ele>1225</ele>
        <time>2014-08-31T13:21:59.1Z</time>
      </trkpt>
      <trkpt lat="44.34274" lon="6.20078">
        <ele>1224</ele>
        <time>2014-08-31T13:22:05.1Z</time>
      </trkpt>
      <trkpt lat="44.34289" lon="6.20105">
        <ele>1222</ele>
        <time>2014-08-31T13:22:10.1Z</time>
      </trkpt>
      <trkpt lat="44.34306" lon="6.2015">
        <ele>1220</ele>
        <time>2014-08-31T13:22:16.1Z</time>
      </trkpt>
      <trkpt lat="44.34306" lon="6.20203">
        <ele>1218</ele>
        <time>2014-08-31T13:22:22.1Z</time>
      </trkpt>
      <trkpt lat="44.34309" lon="6.20246">
        <ele>1215</ele>
        <time>2014-08-31T13:22:27.1Z</time>
      </trkpt>
      <trkpt lat="44.34326" lon="6.20279">
        <ele>1213</ele>
        <time>2014-08-31T13:22:33.1Z</time>
      </trkpt>
      <trkpt lat="44.34321" lon="6.20305">
        <ele>1211</ele>
        <time>2014-08-31T13:22:38.1Z</time>
      </trkpt>
      <trkpt lat="44.34306" lon="6.20317">
        <ele>1210</ele>
        <time>2014-08-31T13:22:43.1Z</time>
      </trkpt>
      <trkpt lat="44.34285" lon="6.2033">
        <ele>1207</ele>
        <time>2014-08-31T13:22:49.1Z</time>
      </trkpt>
      <trkpt lat="44.34274" lon="6.20362">
        <ele>1204</ele>
        <time>2014-08-31T13:22:54.1Z</time>
      </trkpt>
      <trkpt lat="44.34267" lon="6.20408">
        <ele>1202</ele>
        <time>2014-08-31T13:23:00.1Z</time>
      </trkpt>
      <trkpt lat="44.34258" lon="6.20456">
        <ele>1198</ele>
        <time>2014-08-31T13:23:06.1Z</time>
      </trkpt>
      <trkpt lat="44.34264" lon="6.20467">
        <ele>1196</ele>
        <time>2014-08-31T13:23:12.1Z</time>
      </trkpt>
      <trkpt lat="44.3427" lon="6.20454">
        <ele>1195</ele>
        <time>2014-08-31T13:23:17.1Z</time>
      </trkpt>
      <trkpt lat="44.34277" lon="6.20433">
        <ele>1194</ele>
        <time>2014-08-31T13:23:23.1Z</time>
      </trkpt>
      <trkpt lat="44.34291" lon="6.20422">
        <ele>1192</ele>
        <time>2014-08-31T13:23:29.1Z</time>
      </trkpt>
      <trkpt lat="44.34314" lon="6.20423">
        <ele>1189</ele>
        <time>2014-08-31T13:23:35.1Z</time>
      </trkpt>
      <trkpt lat="44.34307" lon="6.2044">
        <ele>1187</ele>
        <time>2014-08-31T13:23:40.1Z</time>
      </trkpt>
      <trkpt lat="44.34296" lon="6.2046">
        <ele>1186</ele>
        <time>2014-08-31T13:23:45.1Z</time>
      </trkpt>
      <trkpt lat="44.34284" lon="6.20493">
        <ele>1183</ele>
        <time>2014-08-31T13:23:51.1Z</time>
      </trkpt>
      <trkpt lat="44.34272" lon="6.2052">
        <ele>1180</ele>
        <time>2014-08-31T13:23:56.1Z</time>
      </trkpt>
      <trkpt lat="44.34263" lon="6.20551">
        <ele>1176</ele>
        <time>2014-08-31T13:24:02.1Z</time>
      </trkpt>
      <trkpt lat="44.34273" lon="6.20553">
        <ele>1176</ele>
        <time>2014-08-31T13:24:08.1Z</time>
      </trkpt>
      <trkpt lat="44.3428" lon="6.20532">
        <ele>1174</ele>
        <time>2014-08-31T13:24:13.1Z</time>
      </trkpt>
      <trkpt lat="44.343" lon="6.2052">
        <ele>1171</ele>
        <time>2014-08-31T13:24:19.1Z</time>
      </trkpt>
      <trkpt lat="44.34295" lon="6.20541">
        <ele>1170</ele>
        <time>2014-08-31T13:24:24.1Z</time>
      </trkpt>
      <trkpt lat="44.34288" lon="6.20561">
        <ele>1168</ele>
        <time>2014-08-31T13:24:29.1Z</time>
      </trkpt>
      <trkpt lat="44.34279" lon="6.20588">
        <ele>1166</ele>
        <time>2014-08-31T13:24:35.1Z</time>
      </trkpt>
      <trkpt lat="44.34271" lon="6.20608">
        <ele>1163</ele>
        <time>2014-08-31T13:24:41.1Z</time>
      </trkpt>
      <trkpt lat="44.34284" lon="6.20599">
        <ele>1162</ele>
        <time>2014-08-31T13:24:47.1Z</time>
      </trkpt>
      <trkpt lat="44.34305" lon="6.20586">
        <ele>1159</ele>
        <time>2014-08-31T13:24:53.1Z</time>
      </trkpt>
      <trkpt lat="44.34328" lon="6.20581">
        <ele>1155</ele>
        <time>2014-08-31T13:24:58.1Z</time>
      </trkpt>
      <trkpt lat="44.34352" lon="6.20557">
        <ele>1152</ele>
        <time>2014-08-31T13:25:04.1Z</time>
      </trkpt>
      <trkpt lat="44.34373" lon="6.20541">
        <ele>1150</ele>
        <time>2014-08-31T13:25:10.1Z</time>
      </trkpt>
      <trkpt lat="44.34396" lon="6.20535">
        <ele>1147</ele>
        <time>2014-08-31T13:25:15.1Z</time>
      </trkpt>
      <trkpt lat="44.34423" lon="6.20526">
        <ele>1145</ele>
        <time>2014-08-31T13:25:20.1Z</time>
      </trkpt>
      <trkpt lat="44.34458" lon="6.20509">
        <ele>1141</ele>
        <time>2014-08-31T13:25:26.1Z</time>
      </trkpt>
      <trkpt lat="44.34485" lon="6.20493">
        <ele>1137</ele>
        <time>2014-08-31T13:25:31.1Z</time>
      </trkpt>
      <trkpt lat="44.34506" lon="6.20483">
        <ele>1135</ele>
        <time>2014-08-31T13:25:37.1Z</time>
      </trkpt>
      <trkpt lat="44.34521" lon="6.2045">
        <ele>1132</ele>
        <time>2014-08-31T13:25:43.1Z</time>
      </trkpt>
      <trkpt lat="44.34535" lon="6.20432">
        <ele>1129</ele>
        <time>2014-08-31T13:25:49.1Z</time>
      </trkpt>
      <trkpt lat="44.34554" lon="6.20426">
        <ele>1128</ele>
        <time>2014-08-31T13:25:54.1Z</time>
      </trkpt>
      <trkpt lat="44.3458" lon="6.20428">
        <ele>1124</ele>
        <time>2014-08-31T13:26:00.1Z</time>
      </trkpt>
      <trkpt lat="44.34595" lon="6.20404">
        <ele>1122</ele>
        <time>2014-08-31T13:26:06.1Z</time>
      </trkpt>
      <trkpt lat="44.34598" lon="6.20383">
        <ele>1119</ele>
        <time>2014-08-31T13:26:12.1Z</time>
      </trkpt>
      <trkpt lat="44.34606" lon="6.20371">
        <ele>1117</ele>
        <time>2014-08-31T13:26:17.1Z</time>
      </trkpt>
      <trkpt lat="44.34618" lon="6.20368">
        <ele>1116</ele>
        <time>2014-08-31T13:26:22.1Z</time>
      </trkpt>
      <trkpt lat="44.34635" lon="6.20374">
        <ele>1115</ele>
        <time>2014-08-31T13:26:28.1Z</time>
      </trkpt>
      <trkpt lat="44.34656" lon="6.20376">
        <ele>1112</ele>
        <time>2014-08-31T13:26:34.1Z</time>
      </trkpt>
      <trkpt lat="44.34678" lon="6.20364">
        <ele>1110</ele>
        <time>2014-08-31T13:26:39.1Z</time>
      </trkpt>
      <trkpt lat="44.34697" lon="6.20351">
        <ele>1110</ele>
        <time>2014-08-31T13:26:44.1Z</time>
      </trkpt>
      <trkpt lat="44.3469" lon="6.20321">
        <ele>1109</ele>
        <time>2014-08-31T13:26:50.1Z</time>
      </trkpt>
      <trkpt lat="44.34693" lon="6.2029">
        <ele>1109</ele>
        <time>2014-08-31T13:26:56.1Z</time>
      </trkpt>
      <trkpt lat="44.34706" lon="6.20249">
        <ele>1106</ele>
        <time>2014-08-31T13:27:02.1Z</time>
      </trkpt>
      <trkpt lat="44.34718" lon="6.20211">
        <ele>1104</ele>
        <time>2014-08-31T13:27:08.1Z</time>
      </trkpt>
      <trkpt lat="44.3474" lon="6.20188">
        <ele>1101</ele>
        <time>2014-08-31T13:27:14.1Z</time>
      </trkpt>
      <trkpt lat="44.34756" lon="6.20165">
        <ele>1099</ele>
        <time>2014-08-31T13:27:19.1Z</time>
      </trkpt>
      <trkpt lat="44.34766" lon="6.20135">
        <ele>1097</ele>
        <time>2014-08-31T13:27:24.1Z</time>
      </trkpt>
      <trkpt lat="44.34779" lon="6.20103">
        <ele>1094</ele>
        <time>2014-08-31T13:27:30.1Z</time>
      </trkpt>
      <trkpt lat="44.34795" lon="6.20078">
        <ele>1092</ele>
        <time>2014-08-31T13:27:36.1Z</time>
      </trkpt>
      <trkpt lat="44.34798" lon="6.20041">
        <ele>1089</ele>
        <time>2014-08-31T13:27:42.1Z</time>
      </trkpt>
      <trkpt lat="44.348" lon="6.19996">
        <ele>1086</ele>
        <time>2014-08-31T13:27:48.1Z</time>
      </trkpt>
      <trkpt lat="44.34808" lon="6.1995">
        <ele>1083</ele>
        <time>2014-08-31T13:27:53.1Z</time>
      </trkpt>
      <trkpt lat="44.34808" lon="6.19917">
        <ele>1082</ele>
        <time>2014-08-31T13:27:58.1Z</time>
      </trkpt>
      <trkpt lat="44.34806" lon="6.19868">
        <ele>1081</ele>
        <time>2014-08-31T13:28:04.1Z</time>
      </trkpt>
      <trkpt lat="44.34804" lon="6.19824">
        <ele>1078</ele>
        <time>2014-08-31T13:28:09.1Z</time>
      </trkpt>
      <trkpt lat="44.34806" lon="6.198">
        <ele>1077</ele>
        <time>2014-08-31T13:28:15.1Z</time>
      </trkpt>
      <trkpt lat="44.348" lon="6.19787">
        <ele>1077</ele>
        <time>2014-08-31T13:28:21.1Z</time>
      </trkpt>
      <trkpt lat="44.3479" lon="6.19779">
        <ele>1077</ele>
        <time>2014-08-31T13:28:27.1Z</time>
      </trkpt>
      <trkpt lat="44.3478" lon="6.19777">
        <ele>1077</ele>
        <time>2014-08-31T13:28:32.1Z</time>
      </trkpt>
      <trkpt lat="44.34767" lon="6.19775">
        <ele>1077</ele>
        <time>2014-08-31T13:28:37.1Z</time>
      </trkpt>
      <trkpt lat="44.34752" lon="6.19777">
        <ele>1077</ele>
        <time>2014-08-31T13:28:43.1Z</time>
      </trkpt>
      <trkpt lat="44.34746" lon="6.19779">
        <ele>1077</ele>
        <time>2014-08-31T13:28:48.1Z</time>
      </trkpt>
      <trkpt lat="44.34747" lon="6.19779">
        <ele>1078</ele>
        <time>2014-08-31T13:28:54.1Z</time>
      </trkpt>
      <trkpt lat="44.34746" lon="6.19779">
        <ele>1078</ele>
        <time>2014-08-31T13:29:00.1Z</time>
      </trkpt>
      <trkpt lat="44.34746" lon="6.19779">
        <ele>1078</ele>
        <time>2014-08-31T13:29:05.1Z</time>
      </trkpt>
      <trkpt lat="44.34745" lon="6.19779">
        <ele>1078</ele>
        <time>2014-08-31T13:29:11.1Z</time>
      </trkpt>
      <trkpt lat="44.34745" lon="6.19779">
        <ele>1078</ele>
        <time>2014-08-31T13:29:18.1Z</time>
      </trkpt>
      <trkpt lat="44.34745" lon="6.19779">
        <ele>1078</ele>
        <time>2014-08-31T13:29:24.1Z</time>
      </trkpt>
      <trkpt lat="44.34746" lon="6.1978">
        <ele>1078</ele>
        <time>2014-08-31T13:29:30.1Z</time>
      </trkpt>
      <trkpt lat="44.34746" lon="6.1978">
        <ele>1078</ele>
        <time>2014-08-31T13:29:36.1Z</time>
      </trkpt>
      <trkpt lat="44.34745" lon="6.19781">
        <ele>1078</ele>
        <time>2014-08-31T13:29:42.1Z</time>
      </trkpt>
      <trkpt lat="44.34736" lon="6.19783">
        <ele>1078</ele>
        <time>2014-08-31T13:29:48.1Z</time>
      </trkpt>
      <trkpt lat="44.34724" lon="6.19782">
        <ele>1078</ele>
        <time>2014-08-31T13:29:54.1Z</time>
      </trkpt>
      <trkpt lat="44.34713" lon="6.19782">
        <ele>1078</ele>
        <time>2014-08-31T13:30:00.1Z</time>
      </trkpt>
      <trkpt lat="44.34703" lon="6.19783">
        <ele>1078</ele>
        <time>2014-08-31T13:30:05.1Z</time>
      </trkpt>
      <trkpt lat="44.3469" lon="6.19788">
        <ele>1078</ele>
        <time>2014-08-31T13:30:11.1Z</time>
      </trkpt>
      <trkpt lat="44.34682" lon="6.19783">
        <ele>1079</ele>
        <time>2014-08-31T13:30:16.1Z</time>
      </trkpt>
      <trkpt lat="44.34681" lon="6.19768">
        <ele>1079</ele>
        <time>2014-08-31T13:30:22.1Z</time>
      </trkpt>
      <trkpt lat="44.34677" lon="6.19748">
        <ele>1079</ele>
        <time>2014-08-31T13:30:27.1Z</time>
      </trkpt>
      <trkpt lat="44.3467" lon="6.1973">
        <ele>1079</ele>
        <time>2014-08-31T13:30:32.1Z</time>
      </trkpt>
      <trkpt lat="44.34655" lon="6.19715">
        <ele>1079</ele>
        <time>2014-08-31T13:30:38.1Z</time>
      </trkpt>
      <trkpt lat="44.34656" lon="6.19703">
        <ele>1080</ele>
        <time>2014-08-31T13:30:43.1Z</time>
      </trkpt>
      <trkpt lat="44.34661" lon="6.19686">
        <ele>1080</ele>
        <time>2014-08-31T13:30:49.1Z</time>
      </trkpt>
      <trkpt lat="44.3466" lon="6.19665">
        <ele>1080</ele>
        <time>2014-08-31T13:30:55.1Z</time>
      </trkpt>
      <trkpt lat="44.34651" lon="6.19647">
        <ele>1082</ele>
        <time>2014-08-31T13:31:01.1Z</time>
      </trkpt>
      <trkpt lat="44.34646" lon="6.19632">
        <ele>1082</ele>
        <time>2014-08-31T13:31:06.1Z</time>
      </trkpt>
      <trkpt lat="44.34642" lon="6.19616">
        <ele>1082</ele>
        <time>2014-08-31T13:31:11.1Z</time>
      </trkpt>
      <trkpt lat="44.34634" lon="6.19598">
        <ele>1082</ele>
        <time>2014-08-31T13:31:16.1Z</time>
      </trkpt>
      <trkpt lat="44.34625" lon="6.19583">
        <ele>1082</ele>
        <time>2014-08-31T13:31:21.1Z</time>
      </trkpt>
      <trkpt lat="44.34614" lon="6.19564">
        <ele>1082</ele>
        <time>2014-08-31T13:31:27.1Z</time>
      </trkpt>
      <trkpt lat="44.3461" lon="6.19549">
        <ele>1082</ele>
        <time>2014-08-31T13:31:32.1Z</time>
      </trkpt>
      <trkpt lat="44.346" lon="6.19534">
        <ele>1082</ele>
        <time>2014-08-31T13:31:38.1Z</time>
      </trkpt>
      <trkpt lat="44.34587" lon="6.19523">
        <ele>1082</ele>
        <time>2014-08-31T13:31:44.1Z</time>
      </trkpt>
      <trkpt lat="44.34576" lon="6.19514">
        <ele>1082</ele>
        <time>2014-08-31T13:31:49.1Z</time>
      </trkpt>
      <trkpt lat="44.34565" lon="6.19499">
        <ele>1081</ele>
        <time>2014-08-31T13:31:54.1Z</time>
      </trkpt>
      <trkpt lat="44.34557" lon="6.19481">
        <ele>1079</ele>
        <time>2014-08-31T13:32:00.1Z</time>
      </trkpt>
      <trkpt lat="44.34551" lon="6.19456">
        <ele>1077</ele>
        <time>2014-08-31T13:32:06.1Z</time>
      </trkpt>
      <trkpt lat="44.34551" lon="6.19431">
        <ele>1075</ele>
        <time>2014-08-31T13:32:12.1Z</time>
      </trkpt>
      <trkpt lat="44.34551" lon="6.19403">
        <ele>1072</ele>
        <time>2014-08-31T13:32:18.1Z</time>
      </trkpt>
      <trkpt lat="44.34555" lon="6.19377">
        <ele>1069</ele>
        <time>2014-08-31T13:32:24.1Z</time>
      </trkpt>
      <trkpt lat="44.3456" lon="6.19355">
        <ele>1068</ele>
        <time>2014-08-31T13:32:29.1Z</time>
      </trkpt>
      <trkpt lat="44.34564" lon="6.1933">
        <ele>1067</ele>
        <time>2014-08-31T13:32:35.1Z</time>
      </trkpt>
      <trkpt lat="44.3457" lon="6.19305">
        <ele>1065</ele>
        <time>2014-08-31T13:32:41.1Z</time>
      </trkpt>
      <trkpt lat="44.34578" lon="6.19284">
        <ele>1063</ele>
        <time>2014-08-31T13:32:46.1Z</time>
      </trkpt>
      <trkpt lat="44.34577" lon="6.19272">
        <ele>1061</ele>
        <time>2014-08-31T13:32:52.1Z</time>
      </trkpt>
      <trkpt lat="44.34565" lon="6.19284">
        <ele>1060</ele>
        <time>2014-08-31T13:32:58.1Z</time>
      </trkpt>
      <trkpt lat="44.34548" lon="6.19306">
        <ele>1058</ele>
        <time>2014-08-31T13:33:04.1Z</time>
      </trkpt>
      <trkpt lat="44.34528" lon="6.19328">
        <ele>1057</ele>
        <time>2014-08-31T13:33:10.1Z</time>
      </trkpt>
      <trkpt lat="44.34515" lon="6.1935">
        <ele>1055</ele>
        <time>2014-08-31T13:33:15.1Z</time>
      </trkpt>
      <trkpt lat="44.34507" lon="6.19377">
        <ele>1054</ele>
        <time>2014-08-31T13:33:21.1Z</time>
      </trkpt>
      <trkpt lat="44.34501" lon="6.19368">
        <ele>1052</ele>
        <time>2014-08-31T13:33:26.1Z</time>
      </trkpt>
      <trkpt lat="44.34504" lon="6.19351">
        <ele>1050</ele>
        <time>2014-08-31T13:33:32.1Z</time>
      </trkpt>
      <trkpt lat="44.34509" lon="6.19332">
        <ele>1049</ele>
        <time>2014-08-31T13:33:38.1Z</time>
      </trkpt>
      <trkpt lat="44.34516" lon="6.19313">
        <ele>1048</ele>
        <time>2014-08-31T13:33:44.1Z</time>
      </trkpt>
      <trkpt lat="44.34522" lon="6.19295">
        <ele>1047</ele>
        <time>2014-08-31T13:33:49.1Z</time>
      </trkpt>
      <trkpt lat="44.34527" lon="6.19275">
        <ele>1046</ele>
        <time>2014-08-31T13:33:54.1Z</time>
      </trkpt>
      <trkpt lat="44.34529" lon="6.19249">
        <ele>1044</ele>
        <time>2014-08-31T13:34:00.1Z</time>
      </trkpt>
      <trkpt lat="44.3453" lon="6.19223">
        <ele>1042</ele>
        <time>2014-08-31T13:34:06.1Z</time>
      </trkpt>
      <trkpt lat="44.34537" lon="6.19205">
        <ele>1041</ele>
        <time>2014-08-31T13:34:11.1Z</time>
      </trkpt>
      <trkpt lat="44.34542" lon="6.19188">
        <ele>1039</ele>
        <time>2014-08-31T13:34:16.1Z</time>
      </trkpt>
      <trkpt lat="44.34547" lon="6.19166">
        <ele>1037</ele>
        <time>2014-08-31T13:34:22.1Z</time>
      </trkpt>
      <trkpt lat="44.3455" lon="6.19147">
        <ele>1035</ele>
        <time>2014-08-31T13:34:27.1Z</time>
      </trkpt>
      <trkpt lat="44.34554" lon="6.19126">
        <ele>1034</ele>
        <time>2014-08-31T13:34:33.1Z</time>
      </trkpt>
      <trkpt lat="44.34557" lon="6.19108">
        <ele>1033</ele>
        <time>2014-08-31T13:34:38.1Z</time>
      </trkpt>
      <trkpt lat="44.34563" lon="6.1909">
        <ele>1031</ele>
        <time>2014-08-31T13:34:44.1Z</time>
      </trkpt>
      <trkpt lat="44.34564" lon="6.19089">
        <ele>1031</ele>
        <time>2014-08-31T13:34:49.1Z</time>
      </trkpt>
      <trkpt lat="44.34563" lon="6.19088">
        <ele>1031</ele>
        <time>2014-08-31T13:34:54.1Z</time>
      </trkpt>
      <trkpt lat="44.34563" lon="6.19087">
        <ele>1031</ele>
        <time>2014-08-31T13:35:01.1Z</time>
      </trkpt>
      <trkpt lat="44.34563" lon="6.19087">
        <ele>1031</ele>
        <time>2014-08-31T13:35:06.1Z</time>
      </trkpt>
      <trkpt lat="44.34562" lon="6.19087">
        <ele>1031</ele>
        <time>2014-08-31T13:35:11.1Z</time>
      </trkpt>
      <trkpt lat="44.34562" lon="6.19086">
        <ele>1030</ele>
        <time>2014-08-31T13:35:17.1Z</time>
      </trkpt>
      <trkpt lat="44.34561" lon="6.19086">
        <ele>1030</ele>
        <time>2014-08-31T13:35:23.1Z</time>
      </trkpt>
      <trkpt lat="44.3456" lon="6.19086">
        <ele>1031</ele>
        <time>2014-08-31T13:35:29.1Z</time>
      </trkpt>
      <trkpt lat="44.3456" lon="6.19086">
        <ele>1030</ele>
        <time>2014-08-31T13:35:34.1Z</time>
      </trkpt>
      <trkpt lat="44.3456" lon="6.19086">
        <ele>1030</ele>
        <time>2014-08-31T13:35:40.1Z</time>
      </trkpt>
      <trkpt lat="44.3456" lon="6.19086">
        <ele>1031</ele>
        <time>2014-08-31T13:35:45.1Z</time>
      </trkpt>
      <trkpt lat="44.3456" lon="6.19087">
        <ele>1030</ele>
        <time>2014-08-31T13:35:52.1Z</time>
      </trkpt>
      <trkpt lat="44.3456" lon="6.19087">
        <ele>1030</ele>
        <time>2014-08-31T13:35:58.1Z</time>
      </trkpt>
      <trkpt lat="44.34561" lon="6.19087">
        <ele>1030</ele>
        <time>2014-08-31T13:36:03.1Z</time>
      </trkpt>
      <trkpt lat="44.3456" lon="6.19087">
        <ele>1030</ele>
        <time>2014-08-31T13:36:08.1Z</time>
      </trkpt>
      <trkpt lat="44.3456" lon="6.19088">
        <ele>1030</ele>
        <time>2014-08-31T13:36:14.1Z</time>
      </trkpt>
      <trkpt lat="44.34561" lon="6.19089">
        <ele>1030</ele>
        <time>2014-08-31T13:36:20.1Z</time>
      </trkpt>
      <trkpt lat="44.34561" lon="6.19089">
        <ele>1030</ele>
        <time>2014-08-31T13:36:27.1Z</time>
      </trkpt>
      <trkpt lat="44.34561" lon="6.19089">
        <ele>1030</ele>
        <time>2014-08-31T13:36:32.1Z</time>
      </trkpt>
      <trkpt lat="44.34562" lon="6.1909">
        <ele>1030</ele>
        <time>2014-08-31T13:36:38.1Z</time>
      </trkpt>
      <trkpt lat="44.34562" lon="6.1909">
        <ele>1031</ele>
        <time>2014-08-31T13:36:44.1Z</time>
      </trkpt>
      <trkpt lat="44.34562" lon="6.1909">
        <ele>1031</ele>
        <time>2014-08-31T13:36:51.1Z</time>
      </trkpt>
      <trkpt lat="44.34562" lon="6.19089">
        <ele>1030</ele>
        <time>2014-08-31T13:36:56.1Z</time>
      </trkpt>
      <trkpt lat="44.34565" lon="6.19078">
        <ele>1029</ele>
        <time>2014-08-31T13:37:02.1Z</time>
      </trkpt>
      <trkpt lat="44.34568" lon="6.19062">
        <ele>1028</ele>
        <time>2014-08-31T13:37:07.1Z</time>
      </trkpt>
      <trkpt lat="44.3457" lon="6.19044">
        <ele>1027</ele>
        <time>2014-08-31T13:37:12.1Z</time>
      </trkpt>
      <trkpt lat="44.34572" lon="6.19026">
        <ele>1026</ele>
        <time>2014-08-31T13:37:18.1Z</time>
      </trkpt>
      <trkpt lat="44.34572" lon="6.19007">
        <ele>1023</ele>
        <time>2014-08-31T13:37:23.1Z</time>
      </trkpt>
      <trkpt lat="44.34574" lon="6.18989">
        <ele>1022</ele>
        <time>2014-08-31T13:37:28.1Z</time>
      </trkpt>
      <trkpt lat="44.3458" lon="6.18969">
        <ele>1020</ele>
        <time>2014-08-31T13:37:34.1Z</time>
      </trkpt>
      <trkpt lat="44.34587" lon="6.18954">
        <ele>1020</ele>
        <time>2014-08-31T13:37:40.1Z</time>
      </trkpt>
      <trkpt lat="44.34595" lon="6.1894">
        <ele>1020</ele>
        <time>2014-08-31T13:37:45.1Z</time>
      </trkpt>
      <trkpt lat="44.34605" lon="6.18925">
        <ele>1019</ele>
        <time>2014-08-31T13:37:50.1Z</time>
      </trkpt>
      <trkpt lat="44.34604" lon="6.18915">
        <ele>1017</ele>
        <time>2014-08-31T13:37:56.1Z</time>
      </trkpt>
      <trkpt lat="44.34598" lon="6.18922">
        <ele>1016</ele>
        <time>2014-08-31T13:38:02.1Z</time>
      </trkpt>
      <trkpt lat="44.34597" lon="6.18924">
        <ele>1015</ele>
        <time>2014-08-31T13:38:07.1Z</time>
      </trkpt>
      <trkpt lat="44.34597" lon="6.18924">
        <ele>1015</ele>
        <time>2014-08-31T13:38:13.1Z</time>
      </trkpt>
      <trkpt lat="44.34597" lon="6.18924">
        <ele>1015</ele>
        <time>2014-08-31T13:38:19.1Z</time>
      </trkpt>
      <trkpt lat="44.34597" lon="6.18924">
        <ele>1015</ele>
        <time>2014-08-31T13:38:24.1Z</time>
      </trkpt>
      <trkpt lat="44.34597" lon="6.18924">
        <ele>1015</ele>
        <time>2014-08-31T13:38:29.1Z</time>
      </trkpt>
      <trkpt lat="44.34596" lon="6.18924">
        <ele>1015</ele>
        <time>2014-08-31T13:38:35.1Z</time>
      </trkpt>
      <trkpt lat="44.34595" lon="6.18924">
        <ele>1015</ele>
        <time>2014-08-31T13:38:40.1Z</time>
      </trkpt>
      <trkpt lat="44.34593" lon="6.18926">
        <ele>1015</ele>
        <time>2014-08-31T13:38:46.1Z</time>
      </trkpt>
      <trkpt lat="44.34584" lon="6.18935">
        <ele>1014</ele>
        <time>2014-08-31T13:38:51.1Z</time>
      </trkpt>
      <trkpt lat="44.34575" lon="6.18944">
        <ele>1013</ele>
        <time>2014-08-31T13:38:56.1Z</time>
      </trkpt>
      <trkpt lat="44.34564" lon="6.18958">
        <ele>1012</ele>
        <time>2014-08-31T13:39:02.1Z</time>
      </trkpt>
      <trkpt lat="44.34558" lon="6.18971">
        <ele>1011</ele>
        <time>2014-08-31T13:39:07.1Z</time>
      </trkpt>
      <trkpt lat="44.34547" lon="6.18988">
        <ele>1008</ele>
        <time>2014-08-31T13:39:12.1Z</time>
      </trkpt>
      <trkpt lat="44.34533" lon="6.19003">
        <ele>1007</ele>
        <time>2014-08-31T13:39:18.1Z</time>
      </trkpt>
      <trkpt lat="44.34522" lon="6.19011">
        <ele>1005</ele>
        <time>2014-08-31T13:39:23.1Z</time>
      </trkpt>
      <trkpt lat="44.34508" lon="6.19027">
        <ele>1002</ele>
        <time>2014-08-31T13:39:29.1Z</time>
      </trkpt>
      <trkpt lat="44.34494" lon="6.19047">
        <ele>1001</ele>
        <time>2014-08-31T13:39:35.1Z</time>
      </trkpt>
      <trkpt lat="44.34484" lon="6.19067">
        <ele>1001</ele>
        <time>2014-08-31T13:39:40.1Z</time>
      </trkpt>
      <trkpt lat="44.34476" lon="6.19084">
        <ele>1000</ele>
        <time>2014-08-31T13:39:45.1Z</time>
      </trkpt>
      <trkpt lat="44.34465" lon="6.19097">
        <ele>999</ele>
        <time>2014-08-31T13:39:51.1Z</time>
      </trkpt>
      <trkpt lat="44.34449" lon="6.19114">
        <ele>997</ele>
        <time>2014-08-31T13:39:57.1Z</time>
      </trkpt>
      <trkpt lat="44.34433" lon="6.19129">
        <ele>995</ele>
        <time>2014-08-31T13:40:03.1Z</time>
      </trkpt>
      <trkpt lat="44.34424" lon="6.19143">
        <ele>994</ele>
        <time>2014-08-31T13:40:08.1Z</time>
      </trkpt>
      <trkpt lat="44.34412" lon="6.19151">
        <ele>994</ele>
        <time>2014-08-31T13:40:14.1Z</time>
      </trkpt>
      <trkpt lat="44.34412" lon="6.1914">
        <ele>993</ele>
        <time>2014-08-31T13:40:19.1Z</time>
      </trkpt>
      <trkpt lat="44.34411" lon="6.19139">
        <ele>992</ele>
        <time>2014-08-31T13:40:26.1Z</time>
      </trkpt>
      <trkpt lat="44.34411" lon="6.19139">
        <ele>992</ele>
        <time>2014-08-31T13:40:33.1Z</time>
      </trkpt>
      <trkpt lat="44.34411" lon="6.1914">
        <ele>992</ele>
        <time>2014-08-31T13:40:38.1Z</time>
      </trkpt>
      <trkpt lat="44.34411" lon="6.19139">
        <ele>993</ele>
        <time>2014-08-31T13:40:43.1Z</time>
      </trkpt>
      <trkpt lat="44.3441" lon="6.19138">
        <ele>993</ele>
        <time>2014-08-31T13:40:48.1Z</time>
      </trkpt>
      <trkpt lat="44.34409" lon="6.19137">
        <ele>994</ele>
        <time>2014-08-31T13:40:54.1Z</time>
      </trkpt>
      <trkpt lat="44.34409" lon="6.19136">
        <ele>993</ele>
        <time>2014-08-31T13:40:59.1Z</time>
      </trkpt>
      <trkpt lat="44.34408" lon="6.19135">
        <ele>992</ele>
        <time>2014-08-31T13:41:04.1Z</time>
      </trkpt>
      <trkpt lat="44.34412" lon="6.19123">
        <ele>992</ele>
        <time>2014-08-31T13:41:10.1Z</time>
      </trkpt>
      <trkpt lat="44.34419" lon="6.19111">
        <ele>991</ele>
        <time>2014-08-31T13:41:15.1Z</time>
      </trkpt>
      <trkpt lat="44.34427" lon="6.19095">
        <ele>989</ele>
        <time>2014-08-31T13:41:21.1Z</time>
      </trkpt>
      <trkpt lat="44.34436" lon="6.19079">
        <ele>986</ele>
        <time>2014-08-31T13:41:26.1Z</time>
      </trkpt>
      <trkpt lat="44.34442" lon="6.19067">
        <ele>985</ele>
        <time>2014-08-31T13:41:32.1Z</time>
      </trkpt>
      <trkpt lat="44.34448" lon="6.19049">
        <ele>984</ele>
        <time>2014-08-31T13:41:38.1Z</time>
      </trkpt>
      <trkpt lat="44.34452" lon="6.1903">
        <ele>982</ele>
        <time>2014-08-31T13:41:44.1Z</time>
      </trkpt>
      <trkpt lat="44.34461" lon="6.19005">
        <ele>979</ele>
        <time>2014-08-31T13:41:49.1Z</time>
      </trkpt>
      <trkpt lat="44.34468" lon="6.18984">
        <ele>976</ele>
        <time>2014-08-31T13:41:55.1Z</time>
      </trkpt>
      <trkpt lat="44.34477" lon="6.1896">
        <ele>976</ele>
        <time>2014-08-31T13:42:01.1Z</time>
      </trkpt>
      <trkpt lat="44.34487" lon="6.18936">
        <ele>974</ele>
        <time>2014-08-31T13:42:06.1Z</time>
      </trkpt>
      <trkpt lat="44.34498" lon="6.18914">
        <ele>972</ele>
        <time>2014-08-31T13:42:11.1Z</time>
      </trkpt>
      <trkpt lat="44.3451" lon="6.18893">
        <ele>970</ele>
        <time>2014-08-31T13:42:17.1Z</time>
      </trkpt>
      <trkpt lat="44.34519" lon="6.18877">
        <ele>968</ele>
        <time>2014-08-31T13:42:22.1Z</time>
      </trkpt>
      <trkpt lat="44.34526" lon="6.18852">
        <ele>964</ele>
        <time>2014-08-31T13:42:27.1Z</time>
      </trkpt>
      <trkpt lat="44.34532" lon="6.18828">
        <ele>964</ele>
        <time>2014-08-31T13:42:33.1Z</time>
      </trkpt>
      <trkpt lat="44.34536" lon="6.188">
        <ele>962</ele>
        <time>2014-08-31T13:42:39.1Z</time>
      </trkpt>
      <trkpt lat="44.3454" lon="6.18773">
        <ele>959</ele>
        <time>2014-08-31T13:42:45.1Z</time>
      </trkpt>
      <trkpt lat="44.34542" lon="6.18747">
        <ele>958</ele>
        <time>2014-08-31T13:42:51.1Z</time>
      </trkpt>
      <trkpt lat="44.34544" lon="6.18724">
        <ele>956</ele>
        <time>2014-08-31T13:42:56.1Z</time>
      </trkpt>
      <trkpt lat="44.34543" lon="6.18692">
        <ele>955</ele>
        <time>2014-08-31T13:43:02.1Z</time>
      </trkpt>
      <trkpt lat="44.34549" lon="6.18657">
        <ele>954</ele>
        <time>2014-08-31T13:43:08.1Z</time>
      </trkpt>
      <trkpt lat="44.34558" lon="6.18636">
        <ele>953</ele>
        <time>2014-08-31T13:43:13.1Z</time>
      </trkpt>
      <trkpt lat="44.34573" lon="6.18619">
        <ele>951</ele>
        <time>2014-08-31T13:43:18.1Z</time>
      </trkpt>
      <trkpt lat="44.34577" lon="6.18612">
        <ele>950</ele>
        <time>2014-08-31T13:43:24.1Z</time>
      </trkpt>
      <trkpt lat="44.34576" lon="6.1861">
        <ele>951</ele>
        <time>2014-08-31T13:43:30.1Z</time>
      </trkpt>
      <trkpt lat="44.34575" lon="6.18609">
        <ele>951</ele>
        <time>2014-08-31T13:43:35.1Z</time>
      </trkpt>
      <trkpt lat="44.34575" lon="6.18608">
        <ele>950</ele>
        <time>2014-08-31T13:43:41.1Z</time>
      </trkpt>
      <trkpt lat="44.34575" lon="6.18608">
        <ele>951</ele>
        <time>2014-08-31T13:43:47.1Z</time>
      </trkpt>
      <trkpt lat="44.34575" lon="6.18607">
        <ele>951</ele>
        <time>2014-08-31T13:43:52.1Z</time>
      </trkpt>
      <trkpt lat="44.34574" lon="6.18606">
        <ele>951</ele>
        <time>2014-08-31T13:43:58.1Z</time>
      </trkpt>
      <trkpt lat="44.34573" lon="6.18605">
        <ele>950</ele>
        <time>2014-08-31T13:44:04.1Z</time>
      </trkpt>
      <trkpt lat="44.34571" lon="6.18604">
        <ele>951</ele>
        <time>2014-08-31T13:44:10.1Z</time>
      </trkpt>
      <trkpt lat="44.3457" lon="6.18602">
        <ele>951</ele>
        <time>2014-08-31T13:44:16.1Z</time>
      </trkpt>
      <trkpt lat="44.34569" lon="6.18601">
        <ele>950</ele>
        <time>2014-08-31T13:44:21.1Z</time>
      </trkpt>
      <trkpt lat="44.34569" lon="6.18602">
        <ele>950</ele>
        <time>2014-08-31T13:44:28.1Z</time>
      </trkpt>
      <trkpt lat="44.3457" lon="6.18603">
        <ele>950</ele>
        <time>2014-08-31T13:44:33.1Z</time>
      </trkpt>
      <trkpt lat="44.3457" lon="6.18604">
        <ele>950</ele>
        <time>2014-08-31T13:44:39.1Z</time>
      </trkpt>
      <trkpt lat="44.34568" lon="6.18602">
        <ele>951</ele>
        <time>2014-08-31T13:44:45.1Z</time>
      </trkpt>
      <trkpt lat="44.34559" lon="6.186">
        <ele>950</ele>
        <time>2014-08-31T13:44:50.1Z</time>
      </trkpt>
      <trkpt lat="44.34556" lon="6.18591">
        <ele>950</ele>
        <time>2014-08-31T13:44:56.1Z</time>
      </trkpt>
      <trkpt lat="44.34557" lon="6.18583">
        <ele>949</ele>
        <time>2014-08-31T13:45:01.1Z</time>
      </trkpt>
      <trkpt lat="44.34557" lon="6.18583">
        <ele>948</ele>
        <time>2014-08-31T13:45:06.1Z</time>
      </trkpt>
      <trkpt lat="44.34558" lon="6.18583">
        <ele>948</ele>
        <time>2014-08-31T13:45:12.1Z</time>
      </trkpt>
      <trkpt lat="44.34559" lon="6.18583">
        <ele>948</ele>
        <time>2014-08-31T13:45:17.1Z</time>
      </trkpt>
      <trkpt lat="44.34559" lon="6.18584">
        <ele>948</ele>
        <time>2014-08-31T13:45:23.1Z</time>
      </trkpt>
      <trkpt lat="44.3456" lon="6.18594">
        <ele>948</ele>
        <time>2014-08-31T13:45:29.1Z</time>
      </trkpt>
      <trkpt lat="44.3456" lon="6.18596">
        <ele>948</ele>
        <time>2014-08-31T13:45:35.1Z</time>
      </trkpt>
      <trkpt lat="44.34559" lon="6.18595">
        <ele>949</ele>
        <time>2014-08-31T13:45:41.1Z</time>
      </trkpt>
      <trkpt lat="44.34558" lon="6.18593">
        <ele>949</ele>
        <time>2014-08-31T13:45:46.1Z</time>
      </trkpt>
      <trkpt lat="44.34559" lon="6.18587">
        <ele>949</ele>
        <time>2014-08-31T13:45:52.1Z</time>
      </trkpt>
      <trkpt lat="44.34559" lon="6.18581">
        <ele>948</ele>
        <time>2014-08-31T13:45:57.1Z</time>
      </trkpt>
      <trkpt lat="44.34559" lon="6.18576">
        <ele>948</ele>
        <time>2014-08-31T13:46:03.1Z</time>
      </trkpt>
      <trkpt lat="44.34562" lon="6.18573">
        <ele>949</ele>
        <time>2014-08-31T13:46:08.1Z</time>
      </trkpt>
      <trkpt lat="44.34563" lon="6.18572">
        <ele>949</ele>
        <time>2014-08-31T13:46:14.1Z</time>
      </trkpt>
      <trkpt lat="44.34563" lon="6.18572">
        <ele>950</ele>
        <time>2014-08-31T13:46:19.1Z</time>
      </trkpt>
      <trkpt lat="44.34565" lon="6.18569">
        <ele>949</ele>
        <time>2014-08-31T13:46:24.1Z</time>
      </trkpt>
      <trkpt lat="44.34569" lon="6.18561">
        <ele>949</ele>
        <time>2014-08-31T13:46:30.1Z</time>
      </trkpt>
      <trkpt lat="44.34567" lon="6.18549">
        <ele>950</ele>
        <time>2014-08-31T13:46:35.1Z</time>
      </trkpt>
      <trkpt lat="44.3456" lon="6.1854">
        <ele>951</ele>
        <time>2014-08-31T13:46:40.1Z</time>
      </trkpt>
      <trkpt lat="44.34551" lon="6.1853">
        <ele>951</ele>
        <time>2014-08-31T13:46:46.1Z</time>
      </trkpt>
      <trkpt lat="44.34541" lon="6.18517">
        <ele>951</ele>
        <time>2014-08-31T13:46:51.1Z</time>
      </trkpt>
      <trkpt lat="44.34526" lon="6.18494">
        <ele>950</ele>
        <time>2014-08-31T13:46:57.1Z</time>
      </trkpt>
      <trkpt lat="44.34508" lon="6.18467">
        <ele>949</ele>
        <time>2014-08-31T13:47:03.1Z</time>
      </trkpt>
      <trkpt lat="44.34487" lon="6.18439">
        <ele>948</ele>
        <time>2014-08-31T13:47:09.1Z</time>
      </trkpt>
      <trkpt lat="44.34465" lon="6.18408">
        <ele>946</ele>
        <time>2014-08-31T13:47:14.1Z</time>
      </trkpt>
      <trkpt lat="44.34452" lon="6.1838">
        <ele>945</ele>
        <time>2014-08-31T13:47:19.1Z</time>
      </trkpt>
      <trkpt lat="44.34439" lon="6.18354">
        <ele>945</ele>
        <time>2014-08-31T13:47:25.1Z</time>
      </trkpt>
      <trkpt lat="44.34425" lon="6.18331">
        <ele>945</ele>
        <time>2014-08-31T13:47:30.1Z</time>
      </trkpt>
      <trkpt lat="44.34407" lon="6.18303">
        <ele>945</ele>
        <time>2014-08-31T13:47:36.1Z</time>
      </trkpt>
      <trkpt lat="44.34393" lon="6.18278">
        <ele>944</ele>
        <time>2014-08-31T13:47:41.1Z</time>
      </trkpt>
      <trkpt lat="44.34377" lon="6.18253">
        <ele>944</ele>
        <time>2014-08-31T13:47:46.1Z</time>
      </trkpt>
      <trkpt lat="44.34365" lon="6.18224">
        <ele>942</ele>
        <time>2014-08-31T13:47:51.1Z</time>
      </trkpt>
      <trkpt lat="44.34356" lon="6.18185">
        <ele>942</ele>
        <time>2014-08-31T13:47:57.1Z</time>
      </trkpt>
      <trkpt lat="44.34343" lon="6.1815">
        <ele>941</ele>
        <time>2014-08-31T13:48:02.1Z</time>
      </trkpt>
      <trkpt lat="44.3433" lon="6.18121">
        <ele>941</ele>
        <time>2014-08-31T13:48:08.1Z</time>
      </trkpt>
      <trkpt lat="44.34319" lon="6.1809">
        <ele>940</ele>
        <time>2014-08-31T13:48:13.1Z</time>
      </trkpt>
      <trkpt lat="44.34305" lon="6.18049">
        <ele>939</ele>
        <time>2014-08-31T13:48:19.1Z</time>
      </trkpt>
      <trkpt lat="44.3429" lon="6.18011">
        <ele>939</ele>
        <time>2014-08-31T13:48:25.1Z</time>
      </trkpt>
      <trkpt lat="44.34277" lon="6.17972">
        <ele>938</ele>
        <time>2014-08-31T13:48:31.1Z</time>
      </trkpt>
      <trkpt lat="44.34264" lon="6.17936">
        <ele>938</ele>
        <time>2014-08-31T13:48:37.1Z</time>
      </trkpt>
      <trkpt lat="44.34254" lon="6.1791">
        <ele>937</ele>
        <time>2014-08-31T13:48:42.1Z</time>
      </trkpt>
      <trkpt lat="44.34242" lon="6.17875">
        <ele>936</ele>
        <time>2014-08-31T13:48:48.1Z</time>
      </trkpt>
      <trkpt lat="44.34232" lon="6.17846">
        <ele>936</ele>
        <time>2014-08-31T13:48:53.1Z</time>
      </trkpt>
      <trkpt lat="44.34222" lon="6.17817">
        <ele>935</ele>
        <time>2014-08-31T13:48:58.1Z</time>
      </trkpt>
      <trkpt lat="44.34211" lon="6.17791">
        <ele>935</ele>
        <time>2014-08-31T13:49:03.1Z</time>
      </trkpt>
      <trkpt lat="44.34196" lon="6.17759">
        <ele>934</ele>
        <time>2014-08-31T13:49:08.1Z</time>
      </trkpt>
      <trkpt lat="44.34179" lon="6.17732">
        <ele>932</ele>
        <time>2014-08-31T13:49:14.1Z</time>
      </trkpt>
      <trkpt lat="44.34162" lon="6.17701">
        <ele>932</ele>
        <time>2014-08-31T13:49:19.1Z</time>
      </trkpt>
      <trkpt lat="44.34151" lon="6.17674">
        <ele>932</ele>
        <time>2014-08-31T13:49:25.1Z</time>
      </trkpt>
      <trkpt lat="44.34142" lon="6.17645">
        <ele>931</ele>
        <time>2014-08-31T13:49:30.1Z</time>
      </trkpt>
      <trkpt lat="44.34128" lon="6.17608">
        <ele>931</ele>
        <time>2014-08-31T13:49:36.1Z</time>
      </trkpt>
      <trkpt lat="44.34121" lon="6.17574">
        <ele>930</ele>
        <time>2014-08-31T13:49:41.1Z</time>
      </trkpt>
      <trkpt lat="44.3413" lon="6.17548">
        <ele>930</ele>
        <time>2014-08-31T13:49:46.1Z</time>
      </trkpt>
      <trkpt lat="44.34138" lon="6.17536">
        <ele>931</ele>
        <time>2014-08-31T13:49:52.1Z</time>
      </trkpt>
      <trkpt lat="44.34149" lon="6.17521">
        <ele>932</ele>
        <time>2014-08-31T13:49:58.1Z</time>
      </trkpt>
      <trkpt lat="44.3416" lon="6.17503">
        <ele>932</ele>
        <time>2014-08-31T13:50:04.1Z</time>
      </trkpt>
      <trkpt lat="44.34162" lon="6.17482">
        <ele>932</ele>
        <time>2014-08-31T13:50:09.1Z</time>
      </trkpt>
      <trkpt lat="44.34164" lon="6.17461">
        <ele>933</ele>
        <time>2014-08-31T13:50:15.1Z</time>
      </trkpt>
      <trkpt lat="44.34166" lon="6.17439">
        <ele>933</ele>
        <time>2014-08-31T13:50:20.1Z</time>
      </trkpt>
      <trkpt lat="44.34167" lon="6.17419">
        <ele>933</ele>
        <time>2014-08-31T13:50:26.1Z</time>
      </trkpt>
      <trkpt lat="44.34171" lon="6.17396">
        <ele>933</ele>
        <time>2014-08-31T13:50:32.1Z</time>
      </trkpt>
      <trkpt lat="44.34184" lon="6.17388">
        <ele>934</ele>
        <time>2014-08-31T13:50:38.1Z</time>
      </trkpt>
      <trkpt lat="44.34195" lon="6.17388">
        <ele>934</ele>
        <time>2014-08-31T13:50:44.1Z</time>
      </trkpt>
      <trkpt lat="44.34206" lon="6.17385">
        <ele>935</ele>
        <time>2014-08-31T13:50:50.1Z</time>
      </trkpt>
      <trkpt lat="44.34216" lon="6.17382">
        <ele>935</ele>
        <time>2014-08-31T13:50:56.1Z</time>
      </trkpt>
      <trkpt lat="44.34226" lon="6.17378">
        <ele>936</ele>
        <time>2014-08-31T13:51:02.1Z</time>
      </trkpt>
      <trkpt lat="44.34235" lon="6.17374">
        <ele>937</ele>
        <time>2014-08-31T13:51:08.1Z</time>
      </trkpt>
      <trkpt lat="44.34245" lon="6.1737">
        <ele>938</ele>
        <time>2014-08-31T13:51:13.1Z</time>
      </trkpt>
      <trkpt lat="44.34254" lon="6.17367">
        <ele>938</ele>
        <time>2014-08-31T13:51:19.1Z</time>
      </trkpt>
      <trkpt lat="44.34261" lon="6.17363">
        <ele>939</ele>
        <time>2014-08-31T13:51:24.1Z</time>
      </trkpt>
      <trkpt lat="44.34269" lon="6.1736">
        <ele>940</ele>
        <time>2014-08-31T13:51:30.1Z</time>
      </trkpt>
      <trkpt lat="44.34279" lon="6.17357">
        <ele>940</ele>
        <time>2014-08-31T13:51:36.1Z</time>
      </trkpt>
      <trkpt lat="44.34288" lon="6.17354">
        <ele>941</ele>
        <time>2014-08-31T13:51:42.1Z</time>
      </trkpt>
      <trkpt lat="44.34298" lon="6.17355">
        <ele>941</ele>
        <time>2014-08-31T13:51:47.1Z</time>
      </trkpt>
      <trkpt lat="44.34306" lon="6.17356">
        <ele>942</ele>
        <time>2014-08-31T13:51:53.1Z</time>
      </trkpt>
      <trkpt lat="44.34315" lon="6.17358">
        <ele>943</ele>
        <time>2014-08-31T13:51:59.1Z</time>
      </trkpt>
      <trkpt lat="44.34323" lon="6.17357">
        <ele>943</ele>
        <time>2014-08-31T13:52:04.1Z</time>
      </trkpt>
      <trkpt lat="44.34333" lon="6.17358">
        <ele>944</ele>
        <time>2014-08-31T13:52:09.1Z</time>
      </trkpt>
      <trkpt lat="44.34341" lon="6.1736">
        <ele>944</ele>
        <time>2014-08-31T13:52:14.1Z</time>
      </trkpt>
      <trkpt lat="44.34349" lon="6.17361">
        <ele>944</ele>
        <time>2014-08-31T13:52:19.1Z</time>
      </trkpt>
      <trkpt lat="44.34357" lon="6.17362">
        <ele>945</ele>
        <time>2014-08-31T13:52:24.1Z</time>
      </trkpt>
      <trkpt lat="44.34367" lon="6.17363">
        <ele>946</ele>
        <time>2014-08-31T13:52:30.1Z</time>
      </trkpt>
      <trkpt lat="44.34375" lon="6.17363">
        <ele>946</ele>
        <time>2014-08-31T13:52:35.1Z</time>
      </trkpt>
      <trkpt lat="44.34383" lon="6.17363">
        <ele>947</ele>
        <time>2014-08-31T13:52:41.1Z</time>
      </trkpt>
      <trkpt lat="44.34391" lon="6.17364">
        <ele>947</ele>
        <time>2014-08-31T13:52:46.1Z</time>
      </trkpt>
      <trkpt lat="44.34401" lon="6.17363">
        <ele>948</ele>
        <time>2014-08-31T13:52:52.1Z</time>
      </trkpt>
      <trkpt lat="44.3441" lon="6.17362">
        <ele>949</ele>
        <time>2014-08-31T13:52:57.1Z</time>
      </trkpt>
      <trkpt lat="44.34419" lon="6.1736">
        <ele>949</ele>
        <time>2014-08-31T13:53:03.1Z</time>
      </trkpt>
      <trkpt lat="44.34428" lon="6.17358">
        <ele>950</ele>
        <time>2014-08-31T13:53:09.1Z</time>
      </trkpt>
      <trkpt lat="44.34438" lon="6.17356">
        <ele>951</ele>
        <time>2014-08-31T13:53:15.1Z</time>
      </trkpt>
      <trkpt lat="44.34447" lon="6.17353">
        <ele>952</ele>
        <time>2014-08-31T13:53:21.1Z</time>
      </trkpt>
      <trkpt lat="44.34454" lon="6.17348">
        <ele>952</ele>
        <time>2014-08-31T13:53:26.1Z</time>
      </trkpt>
      <trkpt lat="44.34463" lon="6.17344">
        <ele>953</ele>
        <time>2014-08-31T13:53:32.1Z</time>
      </trkpt>
      <trkpt lat="44.34473" lon="6.17342">
        <ele>953</ele>
        <time>2014-08-31T13:53:38.1Z</time>
      </trkpt>
      <trkpt lat="44.3448" lon="6.17341">
        <ele>954</ele>
        <time>2014-08-31T13:53:43.1Z</time>
      </trkpt>
      <trkpt lat="44.3449" lon="6.17342">
        <ele>955</ele>
        <time>2014-08-31T13:53:49.1Z</time>
      </trkpt>
      <trkpt lat="44.34497" lon="6.17346">
        <ele>955</ele>
        <time>2014-08-31T13:53:54.1Z</time>
      </trkpt>
      <trkpt lat="44.34506" lon="6.1735">
        <ele>955</ele>
        <time>2014-08-31T13:53:59.1Z</time>
      </trkpt>
      <trkpt lat="44.34518" lon="6.17355">
        <ele>955</ele>
        <time>2014-08-31T13:54:05.1Z</time>
      </trkpt>
      <trkpt lat="44.34529" lon="6.17357">
        <ele>956</ele>
        <time>2014-08-31T13:54:11.1Z</time>
      </trkpt>
      <trkpt lat="44.34538" lon="6.17353">
        <ele>956</ele>
        <time>2014-08-31T13:54:16.1Z</time>
      </trkpt>
      <trkpt lat="44.34547" lon="6.17348">
        <ele>957</ele>
        <time>2014-08-31T13:54:21.1Z</time>
      </trkpt>
      <trkpt lat="44.34557" lon="6.17341">
        <ele>958</ele>
        <time>2014-08-31T13:54:27.1Z</time>
      </trkpt>
      <trkpt lat="44.34567" lon="6.17335">
        <ele>958</ele>
        <time>2014-08-31T13:54:33.1Z</time>
      </trkpt>
      <trkpt lat="44.34577" lon="6.17327">
        <ele>958</ele>
        <time>2014-08-31T13:54:39.1Z</time>
      </trkpt>
      <trkpt lat="44.34585" lon="6.17321">
        <ele>959</ele>
        <time>2014-08-31T13:54:44.1Z</time>
      </trkpt>
      <trkpt lat="44.34593" lon="6.17315">
        <ele>960</ele>
        <time>2014-08-31T13:54:50.1Z</time>
      </trkpt>
      <trkpt lat="44.34603" lon="6.17309">
        <ele>960</ele>
        <time>2014-08-31T13:54:55.1Z</time>
      </trkpt>
      <trkpt lat="44.34611" lon="6.17303">
        <ele>960</ele>
        <time>2014-08-31T13:55:00.1Z</time>
      </trkpt>
      <trkpt lat="44.34619" lon="6.17298">
        <ele>960</ele>
        <time>2014-08-31T13:55:05.1Z</time>
      </trkpt>
      <trkpt lat="44.34629" lon="6.17291">
        <ele>961</ele>
        <time>2014-08-31T13:55:12.1Z</time>
      </trkpt>
      <trkpt lat="44.34636" lon="6.17286">
        <ele>962</ele>
        <time>2014-08-31T13:55:17.1Z</time>
      </trkpt>
      <trkpt lat="44.34645" lon="6.17279">
        <ele>962</ele>
        <time>2014-08-31T13:55:22.1Z</time>
      </trkpt>
      <trkpt lat="44.34653" lon="6.17273">
        <ele>963</ele>
        <time>2014-08-31T13:55:28.1Z</time>
      </trkpt>
      <trkpt lat="44.34661" lon="6.17266">
        <ele>964</ele>
        <time>2014-08-31T13:55:34.1Z</time>
      </trkpt>
      <trkpt lat="44.3467" lon="6.1726">
        <ele>964</ele>
        <time>2014-08-31T13:55:40.1Z</time>
      </trkpt>
      <trkpt lat="44.34679" lon="6.17255">
        <ele>965</ele>
        <time>2014-08-31T13:55:46.1Z</time>
      </trkpt>
      <trkpt lat="44.34687" lon="6.17251">
        <ele>966</ele>
        <time>2014-08-31T13:55:52.1Z</time>
      </trkpt>
      <trkpt lat="44.34697" lon="6.17248">
        <ele>966</ele>
        <time>2014-08-31T13:55:58.1Z</time>
      </trkpt>
      <trkpt lat="44.34706" lon="6.17245">
        <ele>966</ele>
        <time>2014-08-31T13:56:04.1Z</time>
      </trkpt>
      <trkpt lat="44.34715" lon="6.17243">
        <ele>967</ele>
        <time>2014-08-31T13:56:10.1Z</time>
      </trkpt>
      <trkpt lat="44.34723" lon="6.1724">
        <ele>968</ele>
        <time>2014-08-31T13:56:16.1Z</time>
      </trkpt>
      <trkpt lat="44.34729" lon="6.17237">
        <ele>968</ele>
        <time>2014-08-31T13:56:21.1Z</time>
      </trkpt>
      <trkpt lat="44.34737" lon="6.17234">
        <ele>969</ele>
        <time>2014-08-31T13:56:27.1Z</time>
      </trkpt>
      <trkpt lat="44.34746" lon="6.17232">
        <ele>969</ele>
        <time>2014-08-31T13:56:33.1Z</time>
      </trkpt>
      <trkpt lat="44.34754" lon="6.17229">
        <ele>970</ele>
        <time>2014-08-31T13:56:39.1Z</time>
      </trkpt>
      <trkpt lat="44.34762" lon="6.17227">
        <ele>971</ele>
        <time>2014-08-31T13:56:45.1Z</time>
      </trkpt>
      <trkpt lat="44.3477" lon="6.17224">
        <ele>971</ele>
        <time>2014-08-31T13:56:51.1Z</time>
      </trkpt>
      <trkpt lat="44.34777" lon="6.17222">
        <ele>971</ele>
        <time>2014-08-31T13:56:56.1Z</time>
      </trkpt>
      <trkpt lat="44.34785" lon="6.1722">
        <ele>972</ele>
        <time>2014-08-31T13:57:02.1Z</time>
      </trkpt>
      <trkpt lat="44.34792" lon="6.17217">
        <ele>973</ele>
        <time>2014-08-31T13:57:07.1Z</time>
      </trkpt>
      <trkpt lat="44.348" lon="6.17214">
        <ele>973</ele>
        <time>2014-08-31T13:57:13.1Z</time>
      </trkpt>
      <trkpt lat="44.34807" lon="6.17213">
        <ele>973</ele>
        <time>2014-08-31T13:57:19.1Z</time>
      </trkpt>
      <trkpt lat="44.34815" lon="6.17211">
        <ele>974</ele>
        <time>2014-08-31T13:57:25.1Z</time>
      </trkpt>
      <trkpt lat="44.34822" lon="6.1721">
        <ele>974</ele>
        <time>2014-08-31T13:57:30.1Z</time>
      </trkpt>
      <trkpt lat="44.34829" lon="6.17209">
        <ele>975</ele>
        <time>2014-08-31T13:57:35.1Z</time>
      </trkpt>
      <trkpt lat="44.34836" lon="6.17208">
        <ele>974</ele>
        <time>2014-08-31T13:57:41.1Z</time>
      </trkpt>
      <trkpt lat="44.34844" lon="6.17208">
        <ele>976</ele>
        <time>2014-08-31T13:57:46.1Z</time>
      </trkpt>
      <trkpt lat="44.34853" lon="6.17207">
        <ele>976</ele>
        <time>2014-08-31T13:57:52.1Z</time>
      </trkpt>
      <trkpt lat="44.3486" lon="6.17207">
        <ele>976</ele>
        <time>2014-08-31T13:57:57.1Z</time>
      </trkpt>
      <trkpt lat="44.34868" lon="6.17206">
        <ele>977</ele>
        <time>2014-08-31T13:58:03.1Z</time>
      </trkpt>
      <trkpt lat="44.34875" lon="6.17204">
        <ele>977</ele>
        <time>2014-08-31T13:58:08.1Z</time>
      </trkpt>
      <trkpt lat="44.34884" lon="6.17203">
        <ele>978</ele>
        <time>2014-08-31T13:58:14.1Z</time>
      </trkpt>
      <trkpt lat="44.34891" lon="6.17202">
        <ele>978</ele>
        <time>2014-08-31T13:58:19.1Z</time>
      </trkpt>
      <trkpt lat="44.34899" lon="6.17199">
        <ele>979</ele>
        <time>2014-08-31T13:58:25.1Z</time>
      </trkpt>
      <trkpt lat="44.34908" lon="6.17196">
        <ele>980</ele>
        <time>2014-08-31T13:58:31.1Z</time>
      </trkpt>
      <trkpt lat="44.34916" lon="6.17193">
        <ele>980</ele>
        <time>2014-08-31T13:58:37.1Z</time>
      </trkpt>
      <trkpt lat="44.34922" lon="6.1719">
        <ele>981</ele>
        <time>2014-08-31T13:58:42.1Z</time>
      </trkpt>
      <trkpt lat="44.3493" lon="6.17186">
        <ele>981</ele>
        <time>2014-08-31T13:58:48.1Z</time>
      </trkpt>
      <trkpt lat="44.34938" lon="6.17182">
        <ele>981</ele>
        <time>2014-08-31T13:58:54.1Z</time>
      </trkpt>
      <trkpt lat="44.34945" lon="6.17178">
        <ele>982</ele>
        <time>2014-08-31T13:58:59.1Z</time>
      </trkpt>
      <trkpt lat="44.34953" lon="6.17174">
        <ele>983</ele>
        <time>2014-08-31T13:59:05.1Z</time>
      </trkpt>
      <trkpt lat="44.34959" lon="6.17171">
        <ele>983</ele>
        <time>2014-08-31T13:59:10.1Z</time>
      </trkpt>
      <trkpt lat="44.34967" lon="6.17168">
        <ele>984</ele>
        <time>2014-08-31T13:59:16.1Z</time>
      </trkpt>
      <trkpt lat="44.34975" lon="6.17165">
        <ele>984</ele>
        <time>2014-08-31T13:59:21.1Z</time>
      </trkpt>
      <trkpt lat="44.34982" lon="6.1716">
        <ele>985</ele>
        <time>2014-08-31T13:59:27.1Z</time>
      </trkpt>
      <trkpt lat="44.34989" lon="6.17155">
        <ele>985</ele>
        <time>2014-08-31T13:59:33.1Z</time>
      </trkpt>
      <trkpt lat="44.34995" lon="6.17151">
        <ele>985</ele>
        <time>2014-08-31T13:59:38.1Z</time>
      </trkpt>
      <trkpt lat="44.35002" lon="6.17145">
        <ele>986</ele>
        <time>2014-08-31T13:59:44.1Z</time>
      </trkpt>
      <trkpt lat="44.35008" lon="6.17141">
        <ele>987</ele>
        <time>2014-08-31T13:59:49.1Z</time>
      </trkpt>
      <trkpt lat="44.35015" lon="6.17135">
        <ele>987</ele>
        <time>2014-08-31T13:59:55.1Z</time>
      </trkpt>
      <trkpt lat="44.35021" lon="6.17131">
        <ele>987</ele>
        <time>2014-08-31T14:00:00.1Z</time>
      </trkpt>
      <trkpt lat="44.35027" lon="6.17127">
        <ele>987</ele>
        <time>2014-08-31T14:00:05.1Z</time>
      </trkpt>
      <trkpt lat="44.35033" lon="6.1712">
        <ele>988</ele>
        <time>2014-08-31T14:00:11.1Z</time>
      </trkpt>
      <trkpt lat="44.35041" lon="6.17116">
        <ele>989</ele>
        <time>2014-08-31T14:00:17.1Z</time>
      </trkpt>
      <trkpt lat="44.35049" lon="6.1711">
        <ele>989</ele>
        <time>2014-08-31T14:00:23.1Z</time>
      </trkpt>
      <trkpt lat="44.35055" lon="6.17106">
        <ele>989</ele>
        <time>2014-08-31T14:00:28.1Z</time>
      </trkpt>
      <trkpt lat="44.35063" lon="6.17101">
        <ele>990</ele>
        <time>2014-08-31T14:00:34.1Z</time>
      </trkpt>
      <trkpt lat="44.35069" lon="6.17096">
        <ele>991</ele>
        <time>2014-08-31T14:00:40.1Z</time>
      </trkpt>
      <trkpt lat="44.35077" lon="6.17091">
        <ele>991</ele>
        <time>2014-08-31T14:00:45.1Z</time>
      </trkpt>
      <trkpt lat="44.35083" lon="6.17087">
        <ele>992</ele>
        <time>2014-08-31T14:00:50.1Z</time>
      </trkpt>
      <trkpt lat="44.3509" lon="6.17083">
        <ele>993</ele>
        <time>2014-08-31T14:00:55.1Z</time>
      </trkpt>
      <trkpt lat="44.35096" lon="6.17079">
        <ele>993</ele>
        <time>2014-08-31T14:01:00.1Z</time>
      </trkpt>
      <trkpt lat="44.35103" lon="6.17074">
        <ele>993</ele>
        <time>2014-08-31T14:01:06.1Z</time>
      </trkpt>
      <trkpt lat="44.35109" lon="6.17071">
        <ele>994</ele>
        <time>2014-08-31T14:01:11.1Z</time>
      </trkpt>
      <trkpt lat="44.35117" lon="6.17067">
        <ele>994</ele>
        <time>2014-08-31T14:01:17.1Z</time>
      </trkpt>
      <trkpt lat="44.35123" lon="6.17063">
        <ele>994</ele>
        <time>2014-08-31T14:01:22.1Z</time>
      </trkpt>
      <trkpt lat="44.35129" lon="6.17058">
        <ele>995</ele>
        <time>2014-08-31T14:01:27.1Z</time>
      </trkpt>
      <trkpt lat="44.35135" lon="6.17054">
        <ele>996</ele>
        <time>2014-08-31T14:01:32.1Z</time>
      </trkpt>
      <trkpt lat="44.35143" lon="6.17049">
        <ele>996</ele>
        <time>2014-08-31T14:01:38.1Z</time>
      </trkpt>
      <trkpt lat="44.35151" lon="6.17042">
        <ele>997</ele>
        <time>2014-08-31T14:01:44.1Z</time>
      </trkpt>
      <trkpt lat="44.35158" lon="6.17036">
        <ele>997</ele>
        <time>2014-08-31T14:01:50.1Z</time>
      </trkpt>
      <trkpt lat="44.35164" lon="6.17032">
        <ele>997</ele>
        <time>2014-08-31T14:01:55.1Z</time>
      </trkpt>
      <trkpt lat="44.3517" lon="6.17028">
        <ele>998</ele>
        <time>2014-08-31T14:02:01.1Z</time>
      </trkpt>
      <trkpt lat="44.35177" lon="6.17022">
        <ele>998</ele>
        <time>2014-08-31T14:02:07.1Z</time>
      </trkpt>
      <trkpt lat="44.35183" lon="6.17017">
        <ele>999</ele>
        <time>2014-08-31T14:02:13.1Z</time>
      </trkpt>
      <trkpt lat="44.35189" lon="6.17011">
        <ele>1000</ele>
        <time>2014-08-31T14:02:18.1Z</time>
      </trkpt>
      <trkpt lat="44.35196" lon="6.17005">
        <ele>1000</ele>
        <time>2014-08-31T14:02:24.1Z</time>
      </trkpt>
      <trkpt lat="44.35202" lon="6.16999">
        <ele>1001</ele>
        <time>2014-08-31T14:02:29.1Z</time>
      </trkpt>
      <trkpt lat="44.35207" lon="6.16994">
        <ele>1001</ele>
        <time>2014-08-31T14:02:34.1Z</time>
      </trkpt>
      <trkpt lat="44.35213" lon="6.16988">
        <ele>1002</ele>
        <time>2014-08-31T14:02:40.1Z</time>
      </trkpt>
      <trkpt lat="44.35219" lon="6.16982">
        <ele>1002</ele>
        <time>2014-08-31T14:02:45.1Z</time>
      </trkpt>
      <trkpt lat="44.35224" lon="6.16977">
        <ele>1002</ele>
        <time>2014-08-31T14:02:50.1Z</time>
      </trkpt>
      <trkpt lat="44.3523" lon="6.1697">
        <ele>1003</ele>
        <time>2014-08-31T14:02:56.1Z</time>
      </trkpt>
      <trkpt lat="44.35236" lon="6.16965">
        <ele>1004</ele>
        <time>2014-08-31T14:03:01.1Z</time>
      </trkpt>
      <trkpt lat="44.35242" lon="6.16959">
        <ele>1005</ele>
        <time>2014-08-31T14:03:07.1Z</time>
      </trkpt>
      <trkpt lat="44.35249" lon="6.16954">
        <ele>1005</ele>
        <time>2014-08-31T14:03:13.1Z</time>
      </trkpt>
      <trkpt lat="44.35256" lon="6.1695">
        <ele>1005</ele>
        <time>2014-08-31T14:03:19.1Z</time>
      </trkpt>
      <trkpt lat="44.35262" lon="6.16947">
        <ele>1006</ele>
        <time>2014-08-31T14:03:24.1Z</time>
      </trkpt>
      <trkpt lat="44.35269" lon="6.16945">
        <ele>1006</ele>
        <time>2014-08-31T14:03:30.1Z</time>
      </trkpt>
      <trkpt lat="44.35276" lon="6.16942">
        <ele>1007</ele>
        <time>2014-08-31T14:03:36.1Z</time>
      </trkpt>
      <trkpt lat="44.35284" lon="6.1694">
        <ele>1007</ele>
        <time>2014-08-31T14:03:42.1Z</time>
      </trkpt>
      <trkpt lat="44.35291" lon="6.16938">
        <ele>1008</ele>
        <time>2014-08-31T14:03:48.1Z</time>
      </trkpt>
      <trkpt lat="44.35298" lon="6.16936">
        <ele>1009</ele>
        <time>2014-08-31T14:03:54.1Z</time>
      </trkpt>
      <trkpt lat="44.35305" lon="6.16934">
        <ele>1010</ele>
        <time>2014-08-31T14:04:00.1Z</time>
      </trkpt>
      <trkpt lat="44.35312" lon="6.16932">
        <ele>1010</ele>
        <time>2014-08-31T14:04:05.1Z</time>
      </trkpt>
      <trkpt lat="44.35319" lon="6.1693">
        <ele>1010</ele>
        <time>2014-08-31T14:04:11.1Z</time>
      </trkpt>
      <trkpt lat="44.35325" lon="6.16928">
        <ele>1011</ele>
        <time>2014-08-31T14:04:16.1Z</time>
      </trkpt>
      <trkpt lat="44.35332" lon="6.16925">
        <ele>1012</ele>
        <time>2014-08-31T14:04:22.1Z</time>
      </trkpt>
      <trkpt lat="44.35339" lon="6.16923">
        <ele>1012</ele>
        <time>2014-08-31T14:04:28.1Z</time>
      </trkpt>
      <trkpt lat="44.35346" lon="6.1692">
        <ele>1013</ele>
        <time>2014-08-31T14:04:34.1Z</time>
      </trkpt>
      <trkpt lat="44.35352" lon="6.16918">
        <ele>1013</ele>
        <time>2014-08-31T14:04:39.1Z</time>
      </trkpt>
      <trkpt lat="44.35358" lon="6.16915">
        <ele>1014</ele>
        <time>2014-08-31T14:04:44.1Z</time>
      </trkpt>
      <trkpt lat="44.35364" lon="6.16912">
        <ele>1014</ele>
        <time>2014-08-31T14:04:49.1Z</time>
      </trkpt>
      <trkpt lat="44.35371" lon="6.1691">
        <ele>1015</ele>
        <time>2014-08-31T14:04:55.1Z</time>
      </trkpt>
      <trkpt lat="44.35378" lon="6.16906">
        <ele>1016</ele>
        <time>2014-08-31T14:05:01.1Z</time>
      </trkpt>
      <trkpt lat="44.35384" lon="6.16903">
        <ele>1017</ele>
        <time>2014-08-31T14:05:06.1Z</time>
      </trkpt>
      <trkpt lat="44.3539" lon="6.169">
        <ele>1017</ele>
        <time>2014-08-31T14:05:12.1Z</time>
      </trkpt>
      <trkpt lat="44.35397" lon="6.16896">
        <ele>1018</ele>
        <time>2014-08-31T14:05:18.1Z</time>
      </trkpt>
      <trkpt lat="44.35403" lon="6.16892">
        <ele>1018</ele>
        <time>2014-08-31T14:05:23.1Z</time>
      </trkpt>
      <trkpt lat="44.3541" lon="6.16887">
        <ele>1019</ele>
        <time>2014-08-31T14:05:29.1Z</time>
      </trkpt>
      <trkpt lat="44.35416" lon="6.16882">
        <ele>1019</ele>
        <time>2014-08-31T14:05:35.1Z</time>
      </trkpt>
      <trkpt lat="44.35422" lon="6.16878">
        <ele>1020</ele>
        <time>2014-08-31T14:05:40.1Z</time>
      </trkpt>
      <trkpt lat="44.35428" lon="6.16872">
        <ele>1021</ele>
        <time>2014-08-31T14:05:46.1Z</time>
      </trkpt>
      <trkpt lat="44.35434" lon="6.16868">
        <ele>1021</ele>
        <time>2014-08-31T14:05:51.1Z</time>
      </trkpt>
      <trkpt lat="44.3544" lon="6.16864">
        <ele>1022</ele>
        <time>2014-08-31T14:05:57.1Z</time>
      </trkpt>
      <trkpt lat="44.35447" lon="6.16859">
        <ele>1023</ele>
        <time>2014-08-31T14:06:02.1Z</time>
      </trkpt>
      <trkpt lat="44.35452" lon="6.16855">
        <ele>1023</ele>
        <time>2014-08-31T14:06:07.1Z</time>
      </trkpt>
      <trkpt lat="44.35458" lon="6.16851">
        <ele>1024</ele>
        <time>2014-08-31T14:06:12.1Z</time>
      </trkpt>
      <trkpt lat="44.35463" lon="6.16848">
        <ele>1024</ele>
        <time>2014-08-31T14:06:17.1Z</time>
      </trkpt>
      <trkpt lat="44.35469" lon="6.16843">
        <ele>1024</ele>
        <time>2014-08-31T14:06:23.1Z</time>
      </trkpt>
      <trkpt lat="44.35474" lon="6.16837">
        <ele>1025</ele>
        <time>2014-08-31T14:06:28.1Z</time>
      </trkpt>
      <trkpt lat="44.35477" lon="6.16826">
        <ele>1026</ele>
        <time>2014-08-31T14:06:34.1Z</time>
      </trkpt>
      <trkpt lat="44.35478" lon="6.16815">
        <ele>1027</ele>
        <time>2014-08-31T14:06:40.1Z</time>
      </trkpt>
      <trkpt lat="44.35475" lon="6.16805">
        <ele>1028</ele>
        <time>2014-08-31T14:06:46.1Z</time>
      </trkpt>
      <trkpt lat="44.35471" lon="6.16798">
        <ele>1028</ele>
        <time>2014-08-31T14:06:51.1Z</time>
      </trkpt>
      <trkpt lat="44.35465" lon="6.16795">
        <ele>1028</ele>
        <time>2014-08-31T14:06:56.1Z</time>
      </trkpt>
      <trkpt lat="44.35457" lon="6.16795">
        <ele>1029</ele>
        <time>2014-08-31T14:07:02.1Z</time>
      </trkpt>
      <trkpt lat="44.3545" lon="6.16795">
        <ele>1030</ele>
        <time>2014-08-31T14:07:07.1Z</time>
      </trkpt>
      <trkpt lat="44.35442" lon="6.16789">
        <ele>1031</ele>
        <time>2014-08-31T14:07:13.1Z</time>
      </trkpt>
      <trkpt lat="44.35442" lon="6.16778">
        <ele>1030</ele>
        <time>2014-08-31T14:07:19.1Z</time>
      </trkpt>
      <trkpt lat="44.35449" lon="6.16772">
        <ele>1032</ele>
        <time>2014-08-31T14:07:25.1Z</time>
      </trkpt>
      <trkpt lat="44.35457" lon="6.16771">
        <ele>1032</ele>
        <time>2014-08-31T14:07:31.1Z</time>
      </trkpt>
      <trkpt lat="44.35464" lon="6.16773">
        <ele>1033</ele>
        <time>2014-08-31T14:07:37.1Z</time>
      </trkpt>
      <trkpt lat="44.35471" lon="6.16774">
        <ele>1034</ele>
        <time>2014-08-31T14:07:42.1Z</time>
      </trkpt>
      <trkpt lat="44.35478" lon="6.16775">
        <ele>1034</ele>
        <time>2014-08-31T14:07:48.1Z</time>
      </trkpt>
      <trkpt lat="44.35486" lon="6.16775">
        <ele>1034</ele>
        <time>2014-08-31T14:07:54.1Z</time>
      </trkpt>
      <trkpt lat="44.35492" lon="6.16775">
        <ele>1035</ele>
        <time>2014-08-31T14:07:59.1Z</time>
      </trkpt>
      <trkpt lat="44.35499" lon="6.16775">
        <ele>1036</ele>
        <time>2014-08-31T14:08:05.1Z</time>
      </trkpt>
      <trkpt lat="44.35505" lon="6.16774">
        <ele>1036</ele>
        <time>2014-08-31T14:08:10.1Z</time>
      </trkpt>
      <trkpt lat="44.35512" lon="6.16772">
        <ele>1037</ele>
        <time>2014-08-31T14:08:16.1Z</time>
      </trkpt>
      <trkpt lat="44.3552" lon="6.16771">
        <ele>1038</ele>
        <time>2014-08-31T14:08:22.1Z</time>
      </trkpt>
      <trkpt lat="44.35526" lon="6.1677">
        <ele>1038</ele>
        <time>2014-08-31T14:08:27.1Z</time>
      </trkpt>
      <trkpt lat="44.35532" lon="6.16769">
        <ele>1038</ele>
        <time>2014-08-31T14:08:32.1Z</time>
      </trkpt>
      <trkpt lat="44.35539" lon="6.16768">
        <ele>1039</ele>
        <time>2014-08-31T14:08:37.1Z</time>
      </trkpt>
      <trkpt lat="44.35545" lon="6.16766">
        <ele>1040</ele>
        <time>2014-08-31T14:08:42.1Z</time>
      </trkpt>
      <trkpt lat="44.35553" lon="6.16763">
        <ele>1040</ele>
        <time>2014-08-31T14:08:48.1Z</time>
      </trkpt>
      <trkpt lat="44.35561" lon="6.1676">
        <ele>1041</ele>
        <time>2014-08-31T14:08:54.1Z</time>
      </trkpt>
      <trkpt lat="44.35569" lon="6.16757">
        <ele>1042</ele>
        <time>2014-08-31T14:09:00.1Z</time>
      </trkpt>
      <trkpt lat="44.35577" lon="6.16754">
        <ele>1042</ele>
        <time>2014-08-31T14:09:06.1Z</time>
      </trkpt>
      <trkpt lat="44.35585" lon="6.1675">
        <ele>1043</ele>
        <time>2014-08-31T14:09:12.1Z</time>
      </trkpt>
      <trkpt lat="44.35592" lon="6.1675">
        <ele>1044</ele>
        <time>2014-08-31T14:09:17.1Z</time>
      </trkpt>
      <trkpt lat="44.35599" lon="6.16751">
        <ele>1044</ele>
        <time>2014-08-31T14:09:22.1Z</time>
      </trkpt>
      <trkpt lat="44.35609" lon="6.16751">
        <ele>1044</ele>
        <time>2014-08-31T14:09:28.1Z</time>
      </trkpt>
      <trkpt lat="44.35618" lon="6.16751">
        <ele>1045</ele>
        <time>2014-08-31T14:09:34.1Z</time>
      </trkpt>
      <trkpt lat="44.35626" lon="6.16748">
        <ele>1045</ele>
        <time>2014-08-31T14:09:40.1Z</time>
      </trkpt>
      <trkpt lat="44.35632" lon="6.16744">
        <ele>1046</ele>
        <time>2014-08-31T14:09:45.1Z</time>
      </trkpt>
      <trkpt lat="44.35637" lon="6.16738">
        <ele>1047</ele>
        <time>2014-08-31T14:09:50.1Z</time>
      </trkpt>
      <trkpt lat="44.35644" lon="6.16733">
        <ele>1048</ele>
        <time>2014-08-31T14:09:56.1Z</time>
      </trkpt>
      <trkpt lat="44.35651" lon="6.16726">
        <ele>1048</ele>
        <time>2014-08-31T14:10:02.1Z</time>
      </trkpt>
      <trkpt lat="44.35657" lon="6.1672">
        <ele>1049</ele>
        <time>2014-08-31T14:10:07.1Z</time>
      </trkpt>
      <trkpt lat="44.35664" lon="6.16713">
        <ele>1050</ele>
        <time>2014-08-31T14:10:13.1Z</time>
      </trkpt>
      <trkpt lat="44.3567" lon="6.16706">
        <ele>1051</ele>
        <time>2014-08-31T14:10:19.1Z</time>
      </trkpt>
      <trkpt lat="44.35675" lon="6.167">
        <ele>1051</ele>
        <time>2014-08-31T14:10:24.1Z</time>
      </trkpt>
      <trkpt lat="44.35682" lon="6.16694">
        <ele>1052</ele>
        <time>2014-08-31T14:10:30.1Z</time>
      </trkpt>
      <trkpt lat="44.35688" lon="6.16689">
        <ele>1052</ele>
        <time>2014-08-31T14:10:35.1Z</time>
      </trkpt>
      <trkpt lat="44.35695" lon="6.16685">
        <ele>1053</ele>
        <time>2014-08-31T14:10:40.1Z</time>
      </trkpt>
      <trkpt lat="44.35703" lon="6.16683">
        <ele>1053</ele>
        <time>2014-08-31T14:10:46.1Z</time>
      </trkpt>
      <trkpt lat="44.3571" lon="6.16685">
        <ele>1054</ele>
        <time>2014-08-31T14:10:51.1Z</time>
      </trkpt>
      <trkpt lat="44.35719" lon="6.1669">
        <ele>1055</ele>
        <time>2014-08-31T14:10:57.1Z</time>
      </trkpt>
      <trkpt lat="44.35725" lon="6.16695">
        <ele>1056</ele>
        <time>2014-08-31T14:11:02.1Z</time>
      </trkpt>
      <trkpt lat="44.35732" lon="6.16699">
        <ele>1056</ele>
        <time>2014-08-31T14:11:08.1Z</time>
      </trkpt>
      <trkpt lat="44.35738" lon="6.16701">
        <ele>1057</ele>
        <time>2014-08-31T14:11:14.1Z</time>
      </trkpt>
      <trkpt lat="44.35745" lon="6.16701">
        <ele>1058</ele>
        <time>2014-08-31T14:11:20.1Z</time>
      </trkpt>
      <trkpt lat="44.35751" lon="6.16702">
        <ele>1059</ele>
        <time>2014-08-31T14:11:26.1Z</time>
      </trkpt>
      <trkpt lat="44.35757" lon="6.16705">
        <ele>1059</ele>
        <time>2014-08-31T14:11:32.1Z</time>
      </trkpt>
      <trkpt lat="44.35763" lon="6.1671">
        <ele>1060</ele>
        <time>2014-08-31T14:11:38.1Z</time>
      </trkpt>
      <trkpt lat="44.35769" lon="6.16713">
        <ele>1061</ele>
        <time>2014-08-31T14:11:44.1Z</time>
      </trkpt>
      <trkpt lat="44.35775" lon="6.16719">
        <ele>1061</ele>
        <time>2014-08-31T14:11:50.1Z</time>
      </trkpt>
      <trkpt lat="44.3578" lon="6.16723">
        <ele>1062</ele>
        <time>2014-08-31T14:11:55.1Z</time>
      </trkpt>
      <trkpt lat="44.35786" lon="6.1673">
        <ele>1062</ele>
        <time>2014-08-31T14:12:01.1Z</time>
      </trkpt>
      <trkpt lat="44.3579" lon="6.16736">
        <ele>1062</ele>
        <time>2014-08-31T14:12:06.1Z</time>
      </trkpt>
      <trkpt lat="44.35793" lon="6.16745">
        <ele>1063</ele>
        <time>2014-08-31T14:12:12.1Z</time>
      </trkpt>
      <trkpt lat="44.35795" lon="6.16755">
        <ele>1064</ele>
        <time>2014-08-31T14:12:18.1Z</time>
      </trkpt>
      <trkpt lat="44.35798" lon="6.16764">
        <ele>1065</ele>
        <time>2014-08-31T14:12:24.1Z</time>
      </trkpt>
      <trkpt lat="44.35802" lon="6.16765">
        <ele>1065</ele>
        <time>2014-08-31T14:12:29.1Z</time>
      </trkpt>
      <trkpt lat="44.35806" lon="6.16759">
        <ele>1066</ele>
        <time>2014-08-31T14:12:35.1Z</time>
      </trkpt>
      <trkpt lat="44.35804" lon="6.16749">
        <ele>1067</ele>
        <time>2014-08-31T14:12:41.1Z</time>
      </trkpt>
      <trkpt lat="44.35803" lon="6.1674">
        <ele>1068</ele>
        <time>2014-08-31T14:12:46.1Z</time>
      </trkpt>
      <trkpt lat="44.35801" lon="6.16732">
        <ele>1068</ele>
        <time>2014-08-31T14:12:51.1Z</time>
      </trkpt>
      <trkpt lat="44.35798" lon="6.16721">
        <ele>1069</ele>
        <time>2014-08-31T14:12:57.1Z</time>
      </trkpt>
      <trkpt lat="44.35794" lon="6.16712">
        <ele>1070</ele>
        <time>2014-08-31T14:13:03.1Z</time>
      </trkpt>
      <trkpt lat="44.3579" lon="6.16703">
        <ele>1070</ele>
        <time>2014-08-31T14:13:09.1Z</time>
      </trkpt>
      <trkpt lat="44.35784" lon="6.16697">
        <ele>1071</ele>
        <time>2014-08-31T14:13:15.1Z</time>
      </trkpt>
      <trkpt lat="44.35778" lon="6.16692">
        <ele>1071</ele>
        <time>2014-08-31T14:13:20.1Z</time>
      </trkpt>
      <trkpt lat="44.35775" lon="6.16684">
        <ele>1071</ele>
        <time>2014-08-31T14:13:25.1Z</time>
      </trkpt>
      <trkpt lat="44.35782" lon="6.16681">
        <ele>1072</ele>
        <time>2014-08-31T14:13:31.1Z</time>
      </trkpt>
      <trkpt lat="44.35788" lon="6.16685">
        <ele>1073</ele>
        <time>2014-08-31T14:13:36.1Z</time>
      </trkpt>
      <trkpt lat="44.35794" lon="6.16692">
        <ele>1073</ele>
        <time>2014-08-31T14:13:41.1Z</time>
      </trkpt>
      <trkpt lat="44.35799" lon="6.16698">
        <ele>1074</ele>
        <time>2014-08-31T14:13:46.1Z</time>
      </trkpt>
      <trkpt lat="44.35803" lon="6.16705">
        <ele>1074</ele>
        <time>2014-08-31T14:13:51.1Z</time>
      </trkpt>
      <trkpt lat="44.35808" lon="6.16712">
        <ele>1075</ele>
        <time>2014-08-31T14:13:56.1Z</time>
      </trkpt>
      <trkpt lat="44.35813" lon="6.16722">
        <ele>1075</ele>
        <time>2014-08-31T14:14:02.1Z</time>
      </trkpt>
      <trkpt lat="44.35816" lon="6.16731">
        <ele>1076</ele>
        <time>2014-08-31T14:14:07.1Z</time>
      </trkpt>
      <trkpt lat="44.35818" lon="6.16741">
        <ele>1076</ele>
        <time>2014-08-31T14:14:12.1Z</time>
      </trkpt>
      <trkpt lat="44.35821" lon="6.16752">
        <ele>1077</ele>
        <time>2014-08-31T14:14:18.1Z</time>
      </trkpt>
      <trkpt lat="44.35822" lon="6.16764">
        <ele>1078</ele>
        <time>2014-08-31T14:14:24.1Z</time>
      </trkpt>
      <trkpt lat="44.35824" lon="6.16774">
        <ele>1079</ele>
        <time>2014-08-31T14:14:29.1Z</time>
      </trkpt>
      <trkpt lat="44.35827" lon="6.16782">
        <ele>1079</ele>
        <time>2014-08-31T14:14:34.1Z</time>
      </trkpt>
      <trkpt lat="44.35833" lon="6.1678">
        <ele>1079</ele>
        <time>2014-08-31T14:14:39.1Z</time>
      </trkpt>
      <trkpt lat="44.35831" lon="6.16767">
        <ele>1080</ele>
        <time>2014-08-31T14:14:45.1Z</time>
      </trkpt>
      <trkpt lat="44.3583" lon="6.16755">
        <ele>1082</ele>
        <time>2014-08-31T14:14:50.1Z</time>
      </trkpt>
      <trkpt lat="44.35828" lon="6.16741">
        <ele>1082</ele>
        <time>2014-08-31T14:14:56.1Z</time>
      </trkpt>
      <trkpt lat="44.35826" lon="6.16726">
        <ele>1083</ele>
        <time>2014-08-31T14:15:02.1Z</time>
      </trkpt>
      <trkpt lat="44.35825" lon="6.16713">
        <ele>1084</ele>
        <time>2014-08-31T14:15:07.1Z</time>
      </trkpt>
      <trkpt lat="44.35823" lon="6.16698">
        <ele>1084</ele>
        <time>2014-08-31T14:15:13.1Z</time>
      </trkpt>
      <trkpt lat="44.35818" lon="6.16687">
        <ele>1085</ele>
        <time>2014-08-31T14:15:18.1Z</time>
      </trkpt>
      <trkpt lat="44.3581" lon="6.16678">
        <ele>1085</ele>
        <time>2014-08-31T14:15:23.1Z</time>
      </trkpt>
      <trkpt lat="44.35801" lon="6.16674">
        <ele>1086</ele>
        <time>2014-08-31T14:15:28.1Z</time>
      </trkpt>
      <trkpt lat="44.3579" lon="6.16672">
        <ele>1087</ele>
        <time>2014-08-31T14:15:34.1Z</time>
      </trkpt>
      <trkpt lat="44.35781" lon="6.16668">
        <ele>1088</ele>
        <time>2014-08-31T14:15:39.1Z</time>
      </trkpt>
      <trkpt lat="44.35786" lon="6.16657">
        <ele>1088</ele>
        <time>2014-08-31T14:15:45.1Z</time>
      </trkpt>
      <trkpt lat="44.35796" lon="6.1666">
        <ele>1089</ele>
        <time>2014-08-31T14:15:51.1Z</time>
      </trkpt>
      <trkpt lat="44.35805" lon="6.16665">
        <ele>1089</ele>
        <time>2014-08-31T14:15:57.1Z</time>
      </trkpt>
      <trkpt lat="44.35813" lon="6.16668">
        <ele>1091</ele>
        <time>2014-08-31T14:16:02.1Z</time>
      </trkpt>
      <trkpt lat="44.35822" lon="6.16675">
        <ele>1092</ele>
        <time>2014-08-31T14:16:08.1Z</time>
      </trkpt>
      <trkpt lat="44.35829" lon="6.1668">
        <ele>1092</ele>
        <time>2014-08-31T14:16:13.1Z</time>
      </trkpt>
      <trkpt lat="44.35835" lon="6.16687">
        <ele>1093</ele>
        <time>2014-08-31T14:16:18.1Z</time>
      </trkpt>
      <trkpt lat="44.35841" lon="6.16698">
        <ele>1094</ele>
        <time>2014-08-31T14:16:24.1Z</time>
      </trkpt>
      <trkpt lat="44.35844" lon="6.16708">
        <ele>1095</ele>
        <time>2014-08-31T14:16:30.1Z</time>
      </trkpt>
      <trkpt lat="44.35846" lon="6.16716">
        <ele>1096</ele>
        <time>2014-08-31T14:16:35.1Z</time>
      </trkpt>
      <trkpt lat="44.35848" lon="6.16726">
        <ele>1096</ele>
        <time>2014-08-31T14:16:41.1Z</time>
      </trkpt>
      <trkpt lat="44.35849" lon="6.16737">
        <ele>1097</ele>
        <time>2014-08-31T14:16:47.1Z</time>
      </trkpt>
      <trkpt lat="44.35847" lon="6.16746">
        <ele>1098</ele>
        <time>2014-08-31T14:16:52.1Z</time>
      </trkpt>
      <trkpt lat="44.35845" lon="6.16756">
        <ele>1098</ele>
        <time>2014-08-31T14:16:58.1Z</time>
      </trkpt>
      <trkpt lat="44.35845" lon="6.16765">
        <ele>1099</ele>
        <time>2014-08-31T14:17:03.1Z</time>
      </trkpt>
      <trkpt lat="44.35845" lon="6.16774">
        <ele>1100</ele>
        <time>2014-08-31T14:17:08.1Z</time>
      </trkpt>
      <trkpt lat="44.35846" lon="6.16784">
        <ele>1100</ele>
        <time>2014-08-31T14:17:14.1Z</time>
      </trkpt>
      <trkpt lat="44.35849" lon="6.16794">
        <ele>1101</ele>
        <time>2014-08-31T14:17:20.1Z</time>
      </trkpt>
      <trkpt lat="44.35853" lon="6.16802">
        <ele>1102</ele>
        <time>2014-08-31T14:17:25.1Z</time>
      </trkpt>
      <trkpt lat="44.35857" lon="6.16809">
        <ele>1102</ele>
        <time>2014-08-31T14:17:30.1Z</time>
      </trkpt>
      <trkpt lat="44.35863" lon="6.16817">
        <ele>1103</ele>
        <time>2014-08-31T14:17:36.1Z</time>
      </trkpt>
      <trkpt lat="44.35868" lon="6.16822">
        <ele>1103</ele>
        <time>2014-08-31T14:17:41.1Z</time>
      </trkpt>
      <trkpt lat="44.35873" lon="6.16829">
        <ele>1104</ele>
        <time>2014-08-31T14:17:46.1Z</time>
      </trkpt>
      <trkpt lat="44.35876" lon="6.16842">
        <ele>1105</ele>
        <time>2014-08-31T14:17:52.1Z</time>
      </trkpt>
      <trkpt lat="44.35877" lon="6.16856">
        <ele>1105</ele>
        <time>2014-08-31T14:17:58.1Z</time>
      </trkpt>
      <trkpt lat="44.35874" lon="6.16872">
        <ele>1107</ele>
        <time>2014-08-31T14:18:04.1Z</time>
      </trkpt>
      <trkpt lat="44.35872" lon="6.16886">
        <ele>1107</ele>
        <time>2014-08-31T14:18:10.1Z</time>
      </trkpt>
      <trkpt lat="44.3587" lon="6.16898">
        <ele>1108</ele>
        <time>2014-08-31T14:18:16.1Z</time>
      </trkpt>
      <trkpt lat="44.35877" lon="6.16906">
        <ele>1109</ele>
        <time>2014-08-31T14:18:22.1Z</time>
      </trkpt>
      <trkpt lat="44.35884" lon="6.16904">
        <ele>1109</ele>
        <time>2014-08-31T14:18:27.1Z</time>
      </trkpt>
      <trkpt lat="44.35891" lon="6.16898">
        <ele>1110</ele>
        <time>2014-08-31T14:18:32.1Z</time>
      </trkpt>
      <trkpt lat="44.359" lon="6.16889">
        <ele>1111</ele>
        <time>2014-08-31T14:18:38.1Z</time>
      </trkpt>
      <trkpt lat="44.35909" lon="6.16883">
        <ele>1112</ele>
        <time>2014-08-31T14:18:44.1Z</time>
      </trkpt>
      <trkpt lat="44.35914" lon="6.1688">
        <ele>1112</ele>
        <time>2014-08-31T14:18:50.1Z</time>
      </trkpt>
      <trkpt lat="44.3592" lon="6.16872">
        <ele>1113</ele>
        <time>2014-08-31T14:18:56.1Z</time>
      </trkpt>
      <trkpt lat="44.35927" lon="6.16868">
        <ele>1114</ele>
        <time>2014-08-31T14:19:02.1Z</time>
      </trkpt>
      <trkpt lat="44.35934" lon="6.16864">
        <ele>1115</ele>
        <time>2014-08-31T14:19:08.1Z</time>
      </trkpt>
      <trkpt lat="44.35938" lon="6.1686">
        <ele>1115</ele>
        <time>2014-08-31T14:19:13.1Z</time>
      </trkpt>
      <trkpt lat="44.35943" lon="6.16858">
        <ele>1116</ele>
        <time>2014-08-31T14:19:18.1Z</time>
      </trkpt>
      <trkpt lat="44.35948" lon="6.16858">
        <ele>1117</ele>
        <time>2014-08-31T14:19:24.1Z</time>
      </trkpt>
      <trkpt lat="44.35953" lon="6.1686">
        <ele>1117</ele>
        <time>2014-08-31T14:19:29.1Z</time>
      </trkpt>
      <trkpt lat="44.3596" lon="6.16865">
        <ele>1118</ele>
        <time>2014-08-31T14:19:35.1Z</time>
      </trkpt>
      <trkpt lat="44.3597" lon="6.16871">
        <ele>1119</ele>
        <time>2014-08-31T14:19:41.1Z</time>
      </trkpt>
      <trkpt lat="44.35977" lon="6.16875">
        <ele>1119</ele>
        <time>2014-08-31T14:19:46.1Z</time>
      </trkpt>
      <trkpt lat="44.35986" lon="6.1688">
        <ele>1119</ele>
        <time>2014-08-31T14:19:52.1Z</time>
      </trkpt>
      <trkpt lat="44.35993" lon="6.16885">
        <ele>1120</ele>
        <time>2014-08-31T14:19:57.1Z</time>
      </trkpt>
      <trkpt lat="44.36002" lon="6.1689">
        <ele>1120</ele>
        <time>2014-08-31T14:20:03.1Z</time>
      </trkpt>
      <trkpt lat="44.36011" lon="6.16896">
        <ele>1121</ele>
        <time>2014-08-31T14:20:09.1Z</time>
      </trkpt>
      <trkpt lat="44.36019" lon="6.16904">
        <ele>1122</ele>
        <time>2014-08-31T14:20:15.1Z</time>
      </trkpt>
      <trkpt lat="44.36028" lon="6.16912">
        <ele>1123</ele>
        <time>2014-08-31T14:20:21.1Z</time>
      </trkpt>
      <trkpt lat="44.36035" lon="6.16919">
        <ele>1123</ele>
        <time>2014-08-31T14:20:26.1Z</time>
      </trkpt>
      <trkpt lat="44.36044" lon="6.16925">
        <ele>1124</ele>
        <time>2014-08-31T14:20:32.1Z</time>
      </trkpt>
      <trkpt lat="44.36053" lon="6.16928">
        <ele>1125</ele>
        <time>2014-08-31T14:20:38.1Z</time>
      </trkpt>
      <trkpt lat="44.36061" lon="6.16929">
        <ele>1126</ele>
        <time>2014-08-31T14:20:43.1Z</time>
      </trkpt>
      <trkpt lat="44.3607" lon="6.1693">
        <ele>1127</ele>
        <time>2014-08-31T14:20:49.1Z</time>
      </trkpt>
      <trkpt lat="44.36076" lon="6.16935">
        <ele>1127</ele>
        <time>2014-08-31T14:20:54.1Z</time>
      </trkpt>
      <trkpt lat="44.36084" lon="6.16943">
        <ele>1128</ele>
        <time>2014-08-31T14:21:00.1Z</time>
      </trkpt>
      <trkpt lat="44.3609" lon="6.16947">
        <ele>1129</ele>
        <time>2014-08-31T14:21:05.1Z</time>
      </trkpt>
      <trkpt lat="44.36098" lon="6.16951">
        <ele>1129</ele>
        <time>2014-08-31T14:21:11.1Z</time>
      </trkpt>
      <trkpt lat="44.36106" lon="6.16953">
        <ele>1130</ele>
        <time>2014-08-31T14:21:17.1Z</time>
      </trkpt>
      <trkpt lat="44.36115" lon="6.16955">
        <ele>1131</ele>
        <time>2014-08-31T14:21:23.1Z</time>
      </trkpt>
      <trkpt lat="44.36122" lon="6.16955">
        <ele>1131</ele>
        <time>2014-08-31T14:21:28.1Z</time>
      </trkpt>
      <trkpt lat="44.3613" lon="6.16957">
        <ele>1132</ele>
        <time>2014-08-31T14:21:34.1Z</time>
      </trkpt>
      <trkpt lat="44.36138" lon="6.16961">
        <ele>1132</ele>
        <time>2014-08-31T14:21:40.1Z</time>
      </trkpt>
      <trkpt lat="44.36146" lon="6.16966">
        <ele>1133</ele>
        <time>2014-08-31T14:21:46.1Z</time>
      </trkpt>
      <trkpt lat="44.36152" lon="6.1697">
        <ele>1135</ele>
        <time>2014-08-31T14:21:51.1Z</time>
      </trkpt>
      <trkpt lat="44.36159" lon="6.16974">
        <ele>1135</ele>
        <time>2014-08-31T14:21:56.1Z</time>
      </trkpt>
      <trkpt lat="44.36166" lon="6.16977">
        <ele>1135</ele>
        <time>2014-08-31T14:22:02.1Z</time>
      </trkpt>
      <trkpt lat="44.36172" lon="6.16979">
        <ele>1136</ele>
        <time>2014-08-31T14:22:07.1Z</time>
      </trkpt>
      <trkpt lat="44.36178" lon="6.1698">
        <ele>1136</ele>
        <time>2014-08-31T14:22:13.1Z</time>
      </trkpt>
      <trkpt lat="44.36184" lon="6.1698">
        <ele>1137</ele>
        <time>2014-08-31T14:22:18.1Z</time>
      </trkpt>
      <trkpt lat="44.36192" lon="6.1698">
        <ele>1138</ele>
        <time>2014-08-31T14:22:24.1Z</time>
      </trkpt>
      <trkpt lat="44.362" lon="6.16982">
        <ele>1138</ele>
        <time>2014-08-31T14:22:30.1Z</time>
      </trkpt>
      <trkpt lat="44.36207" lon="6.16983">
        <ele>1139</ele>
        <time>2014-08-31T14:22:36.1Z</time>
      </trkpt>
      <trkpt lat="44.36214" lon="6.16986">
        <ele>1140</ele>
        <time>2014-08-31T14:22:42.1Z</time>
      </trkpt>
      <trkpt lat="44.36219" lon="6.1699">
        <ele>1140</ele>
        <time>2014-08-31T14:22:47.1Z</time>
      </trkpt>
      <trkpt lat="44.36225" lon="6.16993">
        <ele>1140</ele>
        <time>2014-08-31T14:22:52.1Z</time>
      </trkpt>
      <trkpt lat="44.36231" lon="6.16997">
        <ele>1141</ele>
        <time>2014-08-31T14:22:58.1Z</time>
      </trkpt>
      <trkpt lat="44.36236" lon="6.17002">
        <ele>1141</ele>
        <time>2014-08-31T14:23:03.1Z</time>
      </trkpt>
      <trkpt lat="44.36242" lon="6.1701">
        <ele>1142</ele>
        <time>2014-08-31T14:23:09.1Z</time>
      </trkpt>
      <trkpt lat="44.36247" lon="6.17016">
        <ele>1142</ele>
        <time>2014-08-31T14:23:14.1Z</time>
      </trkpt>
      <trkpt lat="44.36253" lon="6.17025">
        <ele>1143</ele>
        <time>2014-08-31T14:23:20.1Z</time>
      </trkpt>
      <trkpt lat="44.36259" lon="6.17031">
        <ele>1144</ele>
        <time>2014-08-31T14:23:25.1Z</time>
      </trkpt>
      <trkpt lat="44.36264" lon="6.17038">
        <ele>1144</ele>
        <time>2014-08-31T14:23:30.1Z</time>
      </trkpt>
      <trkpt lat="44.3627" lon="6.17044">
        <ele>1145</ele>
        <time>2014-08-31T14:23:35.1Z</time>
      </trkpt>
      <trkpt lat="44.36277" lon="6.17052">
        <ele>1145</ele>
        <time>2014-08-31T14:23:41.1Z</time>
      </trkpt>
      <trkpt lat="44.36282" lon="6.17059">
        <ele>1146</ele>
        <time>2014-08-31T14:23:46.1Z</time>
      </trkpt>
      <trkpt lat="44.36288" lon="6.17066">
        <ele>1147</ele>
        <time>2014-08-31T14:23:52.1Z</time>
      </trkpt>
      <trkpt lat="44.36296" lon="6.17072">
        <ele>1148</ele>
        <time>2014-08-31T14:23:58.1Z</time>
      </trkpt>
      <trkpt lat="44.36303" lon="6.17078">
        <ele>1148</ele>
        <time>2014-08-31T14:24:04.1Z</time>
      </trkpt>
      <trkpt lat="44.36311" lon="6.17083">
        <ele>1149</ele>
        <time>2014-08-31T14:24:10.1Z</time>
      </trkpt>
      <trkpt lat="44.3632" lon="6.17085">
        <ele>1149</ele>
        <time>2014-08-31T14:24:16.1Z</time>
      </trkpt>
      <trkpt lat="44.36328" lon="6.17086">
        <ele>1149</ele>
        <time>2014-08-31T14:24:22.1Z</time>
      </trkpt>
      <trkpt lat="44.36337" lon="6.17087">
        <ele>1150</ele>
        <time>2014-08-31T14:24:28.1Z</time>
      </trkpt>
      <trkpt lat="44.36346" lon="6.17088">
        <ele>1151</ele>
        <time>2014-08-31T14:24:34.1Z</time>
      </trkpt>
      <trkpt lat="44.36355" lon="6.17089">
        <ele>1152</ele>
        <time>2014-08-31T14:24:40.1Z</time>
      </trkpt>
      <trkpt lat="44.36365" lon="6.17091">
        <ele>1153</ele>
        <time>2014-08-31T14:24:46.1Z</time>
      </trkpt>
      <trkpt lat="44.36375" lon="6.17093">
        <ele>1154</ele>
        <time>2014-08-31T14:24:52.1Z</time>
      </trkpt>
      <trkpt lat="44.36385" lon="6.17096">
        <ele>1155</ele>
        <time>2014-08-31T14:24:58.1Z</time>
      </trkpt>
      <trkpt lat="44.36395" lon="6.17098">
        <ele>1155</ele>
        <time>2014-08-31T14:25:03.1Z</time>
      </trkpt>
      <trkpt lat="44.36406" lon="6.171">
        <ele>1155</ele>
        <time>2014-08-31T14:25:09.1Z</time>
      </trkpt>
      <trkpt lat="44.36416" lon="6.17103">
        <ele>1156</ele>
        <time>2014-08-31T14:25:14.1Z</time>
      </trkpt>
      <trkpt lat="44.36425" lon="6.17104">
        <ele>1156</ele>
        <time>2014-08-31T14:25:19.1Z</time>
      </trkpt>
      <trkpt lat="44.36438" lon="6.17108">
        <ele>1157</ele>
        <time>2014-08-31T14:25:25.1Z</time>
      </trkpt>
      <trkpt lat="44.36451" lon="6.17108">
        <ele>1157</ele>
        <time>2014-08-31T14:25:31.1Z</time>
      </trkpt>
      <trkpt lat="44.36463" lon="6.17108">
        <ele>1158</ele>
        <time>2014-08-31T14:25:37.1Z</time>
      </trkpt>
      <trkpt lat="44.36475" lon="6.17106">
        <ele>1158</ele>
        <time>2014-08-31T14:25:42.1Z</time>
      </trkpt>
      <trkpt lat="44.36486" lon="6.17102">
        <ele>1160</ele>
        <time>2014-08-31T14:25:48.1Z</time>
      </trkpt>
      <trkpt lat="44.36496" lon="6.17101">
        <ele>1160</ele>
        <time>2014-08-31T14:25:53.1Z</time>
      </trkpt>
      <trkpt lat="44.36505" lon="6.17099">
        <ele>1160</ele>
        <time>2014-08-31T14:25:58.1Z</time>
      </trkpt>
      <trkpt lat="44.36515" lon="6.17095">
        <ele>1161</ele>
        <time>2014-08-31T14:26:04.1Z</time>
      </trkpt>
      <trkpt lat="44.36523" lon="6.1709">
        <ele>1163</ele>
        <time>2014-08-31T14:26:10.1Z</time>
      </trkpt>
      <trkpt lat="44.36533" lon="6.17088">
        <ele>1163</ele>
        <time>2014-08-31T14:26:15.1Z</time>
      </trkpt>
      <trkpt lat="44.36543" lon="6.17084">
        <ele>1164</ele>
        <time>2014-08-31T14:26:21.1Z</time>
      </trkpt>
      <trkpt lat="44.36552" lon="6.17079">
        <ele>1165</ele>
        <time>2014-08-31T14:26:26.1Z</time>
      </trkpt>
      <trkpt lat="44.36563" lon="6.17072">
        <ele>1166</ele>
        <time>2014-08-31T14:26:32.1Z</time>
      </trkpt>
      <trkpt lat="44.36575" lon="6.17064">
        <ele>1166</ele>
        <time>2014-08-31T14:26:37.1Z</time>
      </trkpt>
      <trkpt lat="44.36586" lon="6.17058">
        <ele>1167</ele>
        <time>2014-08-31T14:26:42.1Z</time>
      </trkpt>
      <trkpt lat="44.36594" lon="6.17053">
        <ele>1168</ele>
        <time>2014-08-31T14:26:48.1Z</time>
      </trkpt>
      <trkpt lat="44.36601" lon="6.17051">
        <ele>1169</ele>
        <time>2014-08-31T14:26:54.1Z</time>
      </trkpt>
      <trkpt lat="44.36607" lon="6.17048">
        <ele>1169</ele>
        <time>2014-08-31T14:26:59.1Z</time>
      </trkpt>
      <trkpt lat="44.36615" lon="6.17046">
        <ele>1170</ele>
        <time>2014-08-31T14:27:05.1Z</time>
      </trkpt>
      <trkpt lat="44.36622" lon="6.17041">
        <ele>1170</ele>
        <time>2014-08-31T14:27:11.1Z</time>
      </trkpt>
      <trkpt lat="44.36628" lon="6.17038">
        <ele>1171</ele>
        <time>2014-08-31T14:27:16.1Z</time>
      </trkpt>
      <trkpt lat="44.36634" lon="6.17032">
        <ele>1171</ele>
        <time>2014-08-31T14:27:22.1Z</time>
      </trkpt>
      <trkpt lat="44.36641" lon="6.17027">
        <ele>1172</ele>
        <time>2014-08-31T14:27:28.1Z</time>
      </trkpt>
      <trkpt lat="44.36647" lon="6.17021">
        <ele>1173</ele>
        <time>2014-08-31T14:27:33.1Z</time>
      </trkpt>
      <trkpt lat="44.36653" lon="6.17015">
        <ele>1173</ele>
        <time>2014-08-31T14:27:38.1Z</time>
      </trkpt>
      <trkpt lat="44.36659" lon="6.17007">
        <ele>1173</ele>
        <time>2014-08-31T14:27:43.1Z</time>
      </trkpt>
      <trkpt lat="44.36665" lon="6.16996">
        <ele>1174</ele>
        <time>2014-08-31T14:27:49.1Z</time>
      </trkpt>
      <trkpt lat="44.3667" lon="6.16988">
        <ele>1174</ele>
        <time>2014-08-31T14:27:54.1Z</time>
      </trkpt>
      <trkpt lat="44.36675" lon="6.16982">
        <ele>1174</ele>
        <time>2014-08-31T14:27:59.1Z</time>
      </trkpt>
      <trkpt lat="44.36679" lon="6.16976">
        <ele>1175</ele>
        <time>2014-08-31T14:28:04.1Z</time>
      </trkpt>
      <trkpt lat="44.36685" lon="6.1697">
        <ele>1176</ele>
        <time>2014-08-31T14:28:10.1Z</time>
      </trkpt>
      <trkpt lat="44.36692" lon="6.16965">
        <ele>1175</ele>
        <time>2014-08-31T14:28:16.1Z</time>
      </trkpt>
      <trkpt lat="44.367" lon="6.16961">
        <ele>1176</ele>
        <time>2014-08-31T14:28:22.1Z</time>
      </trkpt>
      <trkpt lat="44.36707" lon="6.16959">
        <ele>1177</ele>
        <time>2014-08-31T14:28:27.1Z</time>
      </trkpt>
      <trkpt lat="44.36715" lon="6.16957">
        <ele>1177</ele>
        <time>2014-08-31T14:28:33.1Z</time>
      </trkpt>
      <trkpt lat="44.36723" lon="6.16957">
        <ele>1177</ele>
        <time>2014-08-31T14:28:38.1Z</time>
      </trkpt>
      <trkpt lat="44.3673" lon="6.16955">
        <ele>1178</ele>
        <time>2014-08-31T14:28:43.1Z</time>
      </trkpt>
      <trkpt lat="44.36738" lon="6.16951">
        <ele>1178</ele>
        <time>2014-08-31T14:28:49.1Z</time>
      </trkpt>
      <trkpt lat="44.36746" lon="6.16948">
        <ele>1179</ele>
        <time>2014-08-31T14:28:55.1Z</time>
      </trkpt>
      <trkpt lat="44.36753" lon="6.16946">
        <ele>1179</ele>
        <time>2014-08-31T14:29:00.1Z</time>
      </trkpt>
      <trkpt lat="44.3676" lon="6.16943">
        <ele>1180</ele>
        <time>2014-08-31T14:29:05.1Z</time>
      </trkpt>
      <trkpt lat="44.36768" lon="6.1694">
        <ele>1180</ele>
        <time>2014-08-31T14:29:10.1Z</time>
      </trkpt>
      <trkpt lat="44.36776" lon="6.16937">
        <ele>1181</ele>
        <time>2014-08-31T14:29:16.1Z</time>
      </trkpt>
      <trkpt lat="44.36784" lon="6.16933">
        <ele>1181</ele>
        <time>2014-08-31T14:29:22.1Z</time>
      </trkpt>
      <trkpt lat="44.36793" lon="6.16929">
        <ele>1182</ele>
        <time>2014-08-31T14:29:28.1Z</time>
      </trkpt>
      <trkpt lat="44.368" lon="6.16926">
        <ele>1182</ele>
        <time>2014-08-31T14:29:33.1Z</time>
      </trkpt>
      <trkpt lat="44.36808" lon="6.16922">
        <ele>1183</ele>
        <time>2014-08-31T14:29:38.1Z</time>
      </trkpt>
      <trkpt lat="44.36815" lon="6.16919">
        <ele>1183</ele>
        <time>2014-08-31T14:29:43.1Z</time>
      </trkpt>
      <trkpt lat="44.36821" lon="6.16915">
        <ele>1184</ele>
        <time>2014-08-31T14:29:48.1Z</time>
      </trkpt>
      <trkpt lat="44.3683" lon="6.16911">
        <ele>1184</ele>
        <time>2014-08-31T14:29:54.1Z</time>
      </trkpt>
      <trkpt lat="44.36838" lon="6.16906">
        <ele>1185</ele>
        <time>2014-08-31T14:30:00.1Z</time>
      </trkpt>
      <trkpt lat="44.36847" lon="6.16902">
        <ele>1186</ele>
        <time>2014-08-31T14:30:06.1Z</time>
      </trkpt>
      <trkpt lat="44.36853" lon="6.16899">
        <ele>1187</ele>
        <time>2014-08-31T14:30:11.1Z</time>
      </trkpt>
      <trkpt lat="44.36861" lon="6.16895">
        <ele>1187</ele>
        <time>2014-08-31T14:30:17.1Z</time>
      </trkpt>
      <trkpt lat="44.36869" lon="6.1689">
        <ele>1188</ele>
        <time>2014-08-31T14:30:23.1Z</time>
      </trkpt>
      <trkpt lat="44.36876" lon="6.16887">
        <ele>1189</ele>
        <time>2014-08-31T14:30:28.1Z</time>
      </trkpt>
      <trkpt lat="44.36883" lon="6.16882">
        <ele>1189</ele>
        <time>2014-08-31T14:30:33.1Z</time>
      </trkpt>
      <trkpt lat="44.36891" lon="6.16877">
        <ele>1189</ele>
        <time>2014-08-31T14:30:39.1Z</time>
      </trkpt>
      <trkpt lat="44.36898" lon="6.16872">
        <ele>1189</ele>
        <time>2014-08-31T14:30:44.1Z</time>
      </trkpt>
      <trkpt lat="44.36906" lon="6.16864">
        <ele>1189</ele>
        <time>2014-08-31T14:30:50.1Z</time>
      </trkpt>
      <trkpt lat="44.36913" lon="6.16856">
        <ele>1189</ele>
        <time>2014-08-31T14:30:56.1Z</time>
      </trkpt>
      <trkpt lat="44.36921" lon="6.16848">
        <ele>1189</ele>
        <time>2014-08-31T14:31:02.1Z</time>
      </trkpt>
      <trkpt lat="44.36926" lon="6.1684">
        <ele>1190</ele>
        <time>2014-08-31T14:31:07.1Z</time>
      </trkpt>
      <trkpt lat="44.36932" lon="6.16831">
        <ele>1190</ele>
        <time>2014-08-31T14:31:12.1Z</time>
      </trkpt>
      <trkpt lat="44.36939" lon="6.16822">
        <ele>1191</ele>
        <time>2014-08-31T14:31:18.1Z</time>
      </trkpt>
      <trkpt lat="44.36944" lon="6.16813">
        <ele>1192</ele>
        <time>2014-08-31T14:31:23.1Z</time>
      </trkpt>
      <trkpt lat="44.36951" lon="6.16806">
        <ele>1192</ele>
        <time>2014-08-31T14:31:28.1Z</time>
      </trkpt>
      <trkpt lat="44.3696" lon="6.16798">
        <ele>1193</ele>
        <time>2014-08-31T14:31:34.1Z</time>
      </trkpt>
      <trkpt lat="44.36967" lon="6.16793">
        <ele>1193</ele>
        <time>2014-08-31T14:31:39.1Z</time>
      </trkpt>
      <trkpt lat="44.36977" lon="6.16788">
        <ele>1193</ele>
        <time>2014-08-31T14:31:45.1Z</time>
      </trkpt>
      <trkpt lat="44.36987" lon="6.16784">
        <ele>1194</ele>
        <time>2014-08-31T14:31:51.1Z</time>
      </trkpt>
      <trkpt lat="44.36998" lon="6.16778">
        <ele>1194</ele>
        <time>2014-08-31T14:31:57.1Z</time>
      </trkpt>
      <trkpt lat="44.37009" lon="6.16772">
        <ele>1195</ele>
        <time>2014-08-31T14:32:03.1Z</time>
      </trkpt>
      <trkpt lat="44.37021" lon="6.16767">
        <ele>1195</ele>
        <time>2014-08-31T14:32:09.1Z</time>
      </trkpt>
      <trkpt lat="44.3703" lon="6.16761">
        <ele>1195</ele>
        <time>2014-08-31T14:32:14.1Z</time>
      </trkpt>
      <trkpt lat="44.37043" lon="6.16754">
        <ele>1197</ele>
        <time>2014-08-31T14:32:20.1Z</time>
      </trkpt>
      <trkpt lat="44.37055" lon="6.16748">
        <ele>1197</ele>
        <time>2014-08-31T14:32:26.1Z</time>
      </trkpt>
      <trkpt lat="44.37067" lon="6.16741">
        <ele>1199</ele>
        <time>2014-08-31T14:32:32.1Z</time>
      </trkpt>
      <trkpt lat="44.37078" lon="6.16738">
        <ele>1200</ele>
        <time>2014-08-31T14:32:37.1Z</time>
      </trkpt>
      <trkpt lat="44.37092" lon="6.1674">
        <ele>1201</ele>
        <time>2014-08-31T14:32:43.1Z</time>
      </trkpt>
      <trkpt lat="44.37103" lon="6.16741">
        <ele>1202</ele>
        <time>2014-08-31T14:32:48.1Z</time>
      </trkpt>
      <trkpt lat="44.37112" lon="6.16741">
        <ele>1203</ele>
        <time>2014-08-31T14:32:53.1Z</time>
      </trkpt>
      <trkpt lat="44.37119" lon="6.16734">
        <ele>1204</ele>
        <time>2014-08-31T14:32:58.1Z</time>
      </trkpt>
      <trkpt lat="44.37121" lon="6.1672">
        <ele>1205</ele>
        <time>2014-08-31T14:33:04.1Z</time>
      </trkpt>
      <trkpt lat="44.37122" lon="6.16707">
        <ele>1206</ele>
        <time>2014-08-31T14:33:09.1Z</time>
      </trkpt>
      <trkpt lat="44.3712" lon="6.16693">
        <ele>1207</ele>
        <time>2014-08-31T14:33:15.1Z</time>
      </trkpt>
      <trkpt lat="44.37117" lon="6.16679">
        <ele>1207</ele>
        <time>2014-08-31T14:33:20.1Z</time>
      </trkpt>
      <trkpt lat="44.37115" lon="6.16663">
        <ele>1207</ele>
        <time>2014-08-31T14:33:26.1Z</time>
      </trkpt>
      <trkpt lat="44.37114" lon="6.16644">
        <ele>1208</ele>
        <time>2014-08-31T14:33:32.1Z</time>
      </trkpt>
      <trkpt lat="44.37118" lon="6.16628">
        <ele>1207</ele>
        <time>2014-08-31T14:33:38.1Z</time>
      </trkpt>
      <trkpt lat="44.37125" lon="6.16616">
        <ele>1208</ele>
        <time>2014-08-31T14:33:44.1Z</time>
      </trkpt>
      <trkpt lat="44.3713" lon="6.1661">
        <ele>1209</ele>
        <time>2014-08-31T14:33:49.1Z</time>
      </trkpt>
      <trkpt lat="44.37134" lon="6.16607">
        <ele>1209</ele>
        <time>2014-08-31T14:33:55.1Z</time>
      </trkpt>
      <trkpt lat="44.37135" lon="6.16607">
        <ele>1209</ele>
        <time>2014-08-31T14:34:01.1Z</time>
      </trkpt>
      <trkpt lat="44.37135" lon="6.16607">
        <ele>1209</ele>
        <time>2014-08-31T14:34:10.1Z</time>
      </trkpt>
      <trkpt lat="44.37135" lon="6.16608">
        <ele>1209</ele>
        <time>2014-08-31T14:34:15.1Z</time>
      </trkpt>
      <trkpt lat="44.37135" lon="6.16608">
        <ele>1210</ele>
        <time>2014-08-31T14:34:20.1Z</time>
      </trkpt>
      <trkpt lat="44.37135" lon="6.16608">
        <ele>1210</ele>
        <time>2014-08-31T14:34:25.1Z</time>
      </trkpt>
      <trkpt lat="44.37136" lon="6.16608">
        <ele>1209</ele>
        <time>2014-08-31T14:34:31.1Z</time>
      </trkpt>
      <trkpt lat="44.37137" lon="6.16609">
        <ele>1209</ele>
        <time>2014-08-31T14:34:37.1Z</time>
      </trkpt>
      <trkpt lat="44.37136" lon="6.16609">
        <ele>1210</ele>
        <time>2014-08-31T14:34:42.1Z</time>
      </trkpt>
      <trkpt lat="44.37137" lon="6.16609">
        <ele>1209</ele>
        <time>2014-08-31T14:34:48.1Z</time>
      </trkpt>
      <trkpt lat="44.37139" lon="6.1661">
        <ele>1209</ele>
        <time>2014-08-31T14:34:53.1Z</time>
      </trkpt>
      <trkpt lat="44.3714" lon="6.16611">
        <ele>1209</ele>
        <time>2014-08-31T14:34:58.1Z</time>
      </trkpt>
      <trkpt lat="44.37142" lon="6.1661">
        <ele>1209</ele>
        <time>2014-08-31T14:35:06.1Z</time>
      </trkpt>
      <trkpt lat="44.37141" lon="6.1661">
        <ele>1209</ele>
        <time>2014-08-31T14:35:11.1Z</time>
      </trkpt>
      <trkpt lat="44.37141" lon="6.1661">
        <ele>1209</ele>
        <time>2014-08-31T14:35:16.1Z</time>
      </trkpt>
      <trkpt lat="44.3714" lon="6.1661">
        <ele>1209</ele>
        <time>2014-08-31T14:35:22.1Z</time>
      </trkpt>
      <trkpt lat="44.37139" lon="6.1661">
        <ele>1209</ele>
        <time>2014-08-31T14:35:28.1Z</time>
      </trkpt>
      <trkpt lat="44.37138" lon="6.1661">
        <ele>1210</ele>
        <time>2014-08-31T14:35:35.1Z</time>
      </trkpt>
      <trkpt lat="44.37138" lon="6.1661">
        <ele>1210</ele>
        <time>2014-08-31T14:35:40.1Z</time>
      </trkpt>
      <trkpt lat="44.37137" lon="6.16609">
        <ele>1209</ele>
        <time>2014-08-31T14:35:46.1Z</time>
      </trkpt>
      <trkpt lat="44.37136" lon="6.16609">
        <ele>1210</ele>
        <time>2014-08-31T14:35:51.1Z</time>
      </trkpt>
      <trkpt lat="44.37136" lon="6.16609">
        <ele>1209</ele>
        <time>2014-08-31T14:35:57.1Z</time>
      </trkpt>
      <trkpt lat="44.37135" lon="6.16609">
        <ele>1209</ele>
        <time>2014-08-31T14:36:04.1Z</time>
      </trkpt>
      <trkpt lat="44.37135" lon="6.16609">
        <ele>1209</ele>
        <time>2014-08-31T14:36:09.1Z</time>
      </trkpt>
      <trkpt lat="44.37135" lon="6.16609">
        <ele>1210</ele>
        <time>2014-08-31T14:36:18.1Z</time>
      </trkpt>
      <trkpt lat="44.37134" lon="6.16608">
        <ele>1209</ele>
        <time>2014-08-31T14:36:46.1Z</time>
      </trkpt>
      <trkpt lat="44.37134" lon="6.16608">
        <ele>1210</ele>
        <time>2014-08-31T14:36:53.1Z</time>
      </trkpt>
      <trkpt lat="44.37135" lon="6.16608">
        <ele>1209</ele>
        <time>2014-08-31T14:36:58.1Z</time>
      </trkpt>
      <trkpt lat="44.37129" lon="6.16618">
        <ele>1209</ele>
        <time>2014-08-31T14:37:04.1Z</time>
      </trkpt>
      <trkpt lat="44.3712" lon="6.16629">
        <ele>1209</ele>
        <time>2014-08-31T14:37:09.1Z</time>
      </trkpt>
      <trkpt lat="44.37114" lon="6.16632">
        <ele>1208</ele>
        <time>2014-08-31T14:37:15.1Z</time>
      </trkpt>
      <trkpt lat="44.37122" lon="6.16623">
        <ele>1208</ele>
        <time>2014-08-31T14:37:21.1Z</time>
      </trkpt>
      <trkpt lat="44.3713" lon="6.16615">
        <ele>1208</ele>
        <time>2014-08-31T14:37:26.1Z</time>
      </trkpt>
      <trkpt lat="44.37138" lon="6.16608">
        <ele>1208</ele>
        <time>2014-08-31T14:37:31.1Z</time>
      </trkpt>
      <trkpt lat="44.37139" lon="6.16608">
        <ele>1209</ele>
        <time>2014-08-31T14:37:37.1Z</time>
      </trkpt>
      <trkpt lat="44.37139" lon="6.16607">
        <ele>1209</ele>
        <time>2014-08-31T14:37:43.1Z</time>
      </trkpt>
      <trkpt lat="44.37139" lon="6.16607">
        <ele>1209</ele>
        <time>2014-08-31T14:37:48.1Z</time>
      </trkpt>
      <trkpt lat="44.3714" lon="6.16607">
        <ele>1209</ele>
        <time>2014-08-31T14:37:56.1Z</time>
      </trkpt>
      <trkpt lat="44.37139" lon="6.16607">
        <ele>1209</ele>
        <time>2014-08-31T14:38:01.1Z</time>
      </trkpt>
      <trkpt lat="44.3714" lon="6.16607">
        <ele>1209</ele>
        <time>2014-08-31T14:38:06.1Z</time>
      </trkpt>
      <trkpt lat="44.3714" lon="6.16607">
        <ele>1209</ele>
        <time>2014-08-31T14:38:13.1Z</time>
      </trkpt>
      <trkpt lat="44.3714" lon="6.16607">
        <ele>1209</ele>
        <time>2014-08-31T14:38:19.1Z</time>
      </trkpt>
      <trkpt lat="44.3714" lon="6.16607">
        <ele>1209</ele>
        <time>2014-08-31T14:38:24.1Z</time>
      </trkpt>
      <trkpt lat="44.3714" lon="6.16607">
        <ele>1209</ele>
        <time>2014-08-31T14:38:32.1Z</time>
      </trkpt>
      <trkpt lat="44.3714" lon="6.16608">
        <ele>1209</ele>
        <time>2014-08-31T14:38:38.1Z</time>
      </trkpt>
      <trkpt lat="44.3714" lon="6.16607">
        <ele>1209</ele>
        <time>2014-08-31T14:38:44.1Z</time>
      </trkpt>
      <trkpt lat="44.37144" lon="6.166">
        <ele>1209</ele>
        <time>2014-08-31T14:38:49.1Z</time>
      </trkpt>
      <trkpt lat="44.37154" lon="6.16593">
        <ele>1209</ele>
        <time>2014-08-31T14:38:55.1Z</time>
      </trkpt>
      <trkpt lat="44.37167" lon="6.16585">
        <ele>1210</ele>
        <time>2014-08-31T14:39:01.1Z</time>
      </trkpt>
      <trkpt lat="44.37177" lon="6.16579">
        <ele>1210</ele>
        <time>2014-08-31T14:39:06.1Z</time>
      </trkpt>
      <trkpt lat="44.37189" lon="6.16572">
        <ele>1210</ele>
        <time>2014-08-31T14:39:11.1Z</time>
      </trkpt>
      <trkpt lat="44.37202" lon="6.16563">
        <ele>1210</ele>
        <time>2014-08-31T14:39:17.1Z</time>
      </trkpt>
      <trkpt lat="44.37213" lon="6.16551">
        <ele>1211</ele>
        <time>2014-08-31T14:39:23.1Z</time>
      </trkpt>
      <trkpt lat="44.37221" lon="6.1654">
        <ele>1212</ele>
        <time>2014-08-31T14:39:28.1Z</time>
      </trkpt>
      <trkpt lat="44.37233" lon="6.16528">
        <ele>1213</ele>
        <time>2014-08-31T14:39:34.1Z</time>
      </trkpt>
      <trkpt lat="44.37245" lon="6.16518">
        <ele>1213</ele>
        <time>2014-08-31T14:39:39.1Z</time>
      </trkpt>
      <trkpt lat="44.3726" lon="6.16509">
        <ele>1213</ele>
        <time>2014-08-31T14:39:45.1Z</time>
      </trkpt>
      <trkpt lat="44.37275" lon="6.165">
        <ele>1214</ele>
        <time>2014-08-31T14:39:51.1Z</time>
      </trkpt>
      <trkpt lat="44.37287" lon="6.16495">
        <ele>1214</ele>
        <time>2014-08-31T14:39:56.1Z</time>
      </trkpt>
      <trkpt lat="44.37296" lon="6.16491">
        <ele>1215</ele>
        <time>2014-08-31T14:40:02.1Z</time>
      </trkpt>
      <trkpt lat="44.37302" lon="6.16486">
        <ele>1216</ele>
        <time>2014-08-31T14:40:08.1Z</time>
      </trkpt>
      <trkpt lat="44.37306" lon="6.16488">
        <ele>1216</ele>
        <time>2014-08-31T14:40:13.1Z</time>
      </trkpt>
      <trkpt lat="44.37307" lon="6.16489">
        <ele>1216</ele>
        <time>2014-08-31T14:40:18.1Z</time>
      </trkpt>
      <trkpt lat="44.37307" lon="6.16489">
        <ele>1216</ele>
        <time>2014-08-31T14:40:26.1Z</time>
      </trkpt>
      <trkpt lat="44.37307" lon="6.16489">
        <ele>1216</ele>
        <time>2014-08-31T14:40:31.1Z</time>
      </trkpt>
      <trkpt lat="44.37307" lon="6.16489">
        <ele>1216</ele>
        <time>2014-08-31T14:40:37.1Z</time>
      </trkpt>
      <trkpt lat="44.37306" lon="6.16489">
        <ele>1216</ele>
        <time>2014-08-31T14:40:43.1Z</time>
      </trkpt>
      <trkpt lat="44.37306" lon="6.16489">
        <ele>1216</ele>
        <time>2014-08-31T14:40:50.1Z</time>
      </trkpt>
      <trkpt lat="44.37305" lon="6.16488">
        <ele>1216</ele>
        <time>2014-08-31T14:40:57.1Z</time>
      </trkpt>
      <trkpt lat="44.37305" lon="6.16488">
        <ele>1216</ele>
        <time>2014-08-31T14:41:02.1Z</time>
      </trkpt>
      <trkpt lat="44.37305" lon="6.16488">
        <ele>1216</ele>
        <time>2014-08-31T14:41:10.1Z</time>
      </trkpt>
      <trkpt lat="44.37305" lon="6.16488">
        <ele>1216</ele>
        <time>2014-08-31T14:41:16.1Z</time>
      </trkpt>
      <trkpt lat="44.37304" lon="6.16488">
        <ele>1216</ele>
        <time>2014-08-31T14:41:22.1Z</time>
      </trkpt>
      <trkpt lat="44.37305" lon="6.16487">
        <ele>1216</ele>
        <time>2014-08-31T14:41:28.1Z</time>
      </trkpt>
      <trkpt lat="44.3731" lon="6.16483">
        <ele>1216</ele>
        <time>2014-08-31T14:41:33.1Z</time>
      </trkpt>
      <trkpt lat="44.37325" lon="6.16477">
        <ele>1216</ele>
        <time>2014-08-31T14:41:39.1Z</time>
      </trkpt>
      <trkpt lat="44.37341" lon="6.1647">
        <ele>1215</ele>
        <time>2014-08-31T14:41:44.1Z</time>
      </trkpt>
      <trkpt lat="44.37362" lon="6.16461">
        <ele>1215</ele>
        <time>2014-08-31T14:41:50.1Z</time>
      </trkpt>
      <trkpt lat="44.37383" lon="6.16452">
        <ele>1216</ele>
        <time>2014-08-31T14:41:56.1Z</time>
      </trkpt>
      <trkpt lat="44.37404" lon="6.16443">
        <ele>1216</ele>
        <time>2014-08-31T14:42:02.1Z</time>
      </trkpt>
      <trkpt lat="44.3742" lon="6.16437">
        <ele>1217</ele>
        <time>2014-08-31T14:42:07.1Z</time>
      </trkpt>
      <trkpt lat="44.37437" lon="6.16431">
        <ele>1218</ele>
        <time>2014-08-31T14:42:13.1Z</time>
      </trkpt>
      <trkpt lat="44.37453" lon="6.16429">
        <ele>1218</ele>
        <time>2014-08-31T14:42:19.1Z</time>
      </trkpt>
      <trkpt lat="44.37466" lon="6.16421">
        <ele>1219</ele>
        <time>2014-08-31T14:42:25.1Z</time>
      </trkpt>
      <trkpt lat="44.37482" lon="6.16413">
        <ele>1219</ele>
        <time>2014-08-31T14:42:31.1Z</time>
      </trkpt>
      <trkpt lat="44.37496" lon="6.16406">
        <ele>1219</ele>
        <time>2014-08-31T14:42:36.1Z</time>
      </trkpt>
      <trkpt lat="44.37515" lon="6.16395">
        <ele>1218</ele>
        <time>2014-08-31T14:42:42.1Z</time>
      </trkpt>
      <trkpt lat="44.37537" lon="6.16383">
        <ele>1217</ele>
        <time>2014-08-31T14:42:47.1Z</time>
      </trkpt>
      <trkpt lat="44.37569" lon="6.16365">
        <ele>1214</ele>
        <time>2014-08-31T14:42:53.1Z</time>
      </trkpt>
      <trkpt lat="44.37606" lon="6.16341">
        <ele>1213</ele>
        <time>2014-08-31T14:42:59.1Z</time>
      </trkpt>
      <trkpt lat="44.37639" lon="6.16327">
        <ele>1211</ele>
        <time>2014-08-31T14:43:04.1Z</time>
      </trkpt>
      <trkpt lat="44.37683" lon="6.16313">
        <ele>1208</ele>
        <time>2014-08-31T14:43:10.1Z</time>
      </trkpt>
      <trkpt lat="44.37732" lon="6.16319">
        <ele>1204</ele>
        <time>2014-08-31T14:43:16.1Z</time>
      </trkpt>
      <trkpt lat="44.37783" lon="6.16315">
        <ele>1201</ele>
        <time>2014-08-31T14:43:22.1Z</time>
      </trkpt>
      <trkpt lat="44.37841" lon="6.1631">
        <ele>1198</ele>
        <time>2014-08-31T14:43:28.1Z</time>
      </trkpt>
      <trkpt lat="44.37903" lon="6.1631">
        <ele>1192</ele>
        <time>2014-08-31T14:43:34.1Z</time>
      </trkpt>
      <trkpt lat="44.37952" lon="6.16295">
        <ele>1189</ele>
        <time>2014-08-31T14:43:40.1Z</time>
      </trkpt>
      <trkpt lat="44.37969" lon="6.16283">
        <ele>1187</ele>
        <time>2014-08-31T14:43:45.1Z</time>
      </trkpt>
      <trkpt lat="44.37987" lon="6.16276">
        <ele>1185</ele>
        <time>2014-08-31T14:43:51.1Z</time>
      </trkpt>
      <trkpt lat="44.37999" lon="6.16302">
        <ele>1182</ele>
        <time>2014-08-31T14:43:57.1Z</time>
      </trkpt>
      <trkpt lat="44.37992" lon="6.16354">
        <ele>1178</ele>
        <time>2014-08-31T14:44:03.1Z</time>
      </trkpt>
      <trkpt lat="44.38025" lon="6.16397">
        <ele>1175</ele>
        <time>2014-08-31T14:44:09.1Z</time>
      </trkpt>
      <trkpt lat="44.38058" lon="6.16424">
        <ele>1174</ele>
        <time>2014-08-31T14:44:14.1Z</time>
      </trkpt>
      <trkpt lat="44.38103" lon="6.16442">
        <ele>1172</ele>
        <time>2014-08-31T14:44:20.1Z</time>
      </trkpt>
      <trkpt lat="44.38133" lon="6.16455">
        <ele>1171</ele>
        <time>2014-08-31T14:44:25.1Z</time>
      </trkpt>
      <trkpt lat="44.38165" lon="6.16438">
        <ele>1170</ele>
        <time>2014-08-31T14:44:31.1Z</time>
      </trkpt>
      <trkpt lat="44.38193" lon="6.16417">
        <ele>1169</ele>
        <time>2014-08-31T14:44:36.1Z</time>
      </trkpt>
      <trkpt lat="44.3823" lon="6.16399">
        <ele>1166</ele>
        <time>2014-08-31T14:44:41.1Z</time>
      </trkpt>
      <trkpt lat="44.38276" lon="6.16362">
        <ele>1161</ele>
        <time>2014-08-31T14:44:47.1Z</time>
      </trkpt>
      <trkpt lat="44.38316" lon="6.16302">
        <ele>1157</ele>
        <time>2014-08-31T14:44:53.1Z</time>
      </trkpt>
      <trkpt lat="44.3837" lon="6.16253">
        <ele>1151</ele>
        <time>2014-08-31T14:44:59.1Z</time>
      </trkpt>
      <trkpt lat="44.38426" lon="6.1624">
        <ele>1147</ele>
        <time>2014-08-31T14:45:04.1Z</time>
      </trkpt>
      <trkpt lat="44.3849" lon="6.16235">
        <ele>1145</ele>
        <time>2014-08-31T14:45:10.1Z</time>
      </trkpt>
      <trkpt lat="44.38543" lon="6.16228">
        <ele>1144</ele>
        <time>2014-08-31T14:45:16.1Z</time>
      </trkpt>
      <trkpt lat="44.38578" lon="6.16222">
        <ele>1145</ele>
        <time>2014-08-31T14:45:21.1Z</time>
      </trkpt>
      <trkpt lat="44.38613" lon="6.16216">
        <ele>1146</ele>
        <time>2014-08-31T14:45:27.1Z</time>
      </trkpt>
      <trkpt lat="44.38644" lon="6.16228">
        <ele>1145</ele>
        <time>2014-08-31T14:45:32.1Z</time>
      </trkpt>
      <trkpt lat="44.3868" lon="6.16251">
        <ele>1143</ele>
        <time>2014-08-31T14:45:37.1Z</time>
      </trkpt>
      <trkpt lat="44.38736" lon="6.16253">
        <ele>1139</ele>
        <time>2014-08-31T14:45:43.1Z</time>
      </trkpt>
      <trkpt lat="44.38791" lon="6.1627">
        <ele>1134</ele>
        <time>2014-08-31T14:45:48.1Z</time>
      </trkpt>
      <trkpt lat="44.3885" lon="6.1632">
        <ele>1129</ele>
        <time>2014-08-31T14:45:54.1Z</time>
      </trkpt>
      <trkpt lat="44.38897" lon="6.16345">
        <ele>1126</ele>
        <time>2014-08-31T14:45:59.1Z</time>
      </trkpt>
      <trkpt lat="44.38942" lon="6.16357">
        <ele>1122</ele>
        <time>2014-08-31T14:46:04.1Z</time>
      </trkpt>
      <trkpt lat="44.38997" lon="6.1638">
        <ele>1119</ele>
        <time>2014-08-31T14:46:10.1Z</time>
      </trkpt>
      <trkpt lat="44.39048" lon="6.16403">
        <ele>1116</ele>
        <time>2014-08-31T14:46:16.1Z</time>
      </trkpt>
      <trkpt lat="44.39083" lon="6.16429">
        <ele>1116</ele>
        <time>2014-08-31T14:46:21.1Z</time>
      </trkpt>
      <trkpt lat="44.39124" lon="6.1645">
        <ele>1116</ele>
        <time>2014-08-31T14:46:27.1Z</time>
      </trkpt>
      <trkpt lat="44.39157" lon="6.16451">
        <ele>1114</ele>
        <time>2014-08-31T14:46:32.1Z</time>
      </trkpt>
      <trkpt lat="44.39173" lon="6.16485">
        <ele>1112</ele>
        <time>2014-08-31T14:46:37.1Z</time>
      </trkpt>
      <trkpt lat="44.3918" lon="6.16533">
        <ele>1109</ele>
        <time>2014-08-31T14:46:42.1Z</time>
      </trkpt>
      <trkpt lat="44.392" lon="6.16561">
        <ele>1106</ele>
        <time>2014-08-31T14:46:47.1Z</time>
      </trkpt>
      <trkpt lat="44.39237" lon="6.16529">
        <ele>1103</ele>
        <time>2014-08-31T14:46:53.1Z</time>
      </trkpt>
      <trkpt lat="44.39269" lon="6.16498">
        <ele>1101</ele>
        <time>2014-08-31T14:46:58.1Z</time>
      </trkpt>
      <trkpt lat="44.39284" lon="6.16491">
        <ele>1100</ele>
        <time>2014-08-31T14:47:03.1Z</time>
      </trkpt>
      <trkpt lat="44.39286" lon="6.16514">
        <ele>1098</ele>
        <time>2014-08-31T14:47:08.1Z</time>
      </trkpt>
      <trkpt lat="44.39273" lon="6.16538">
        <ele>1097</ele>
        <time>2014-08-31T14:47:13.1Z</time>
      </trkpt>
      <trkpt lat="44.39263" lon="6.16583">
        <ele>1095</ele>
        <time>2014-08-31T14:47:19.1Z</time>
      </trkpt>
      <trkpt lat="44.39261" lon="6.16628">
        <ele>1093</ele>
        <time>2014-08-31T14:47:24.1Z</time>
      </trkpt>
      <trkpt lat="44.39263" lon="6.16675">
        <ele>1091</ele>
        <time>2014-08-31T14:47:29.1Z</time>
      </trkpt>
      <trkpt lat="44.39292" lon="6.16694">
        <ele>1086</ele>
        <time>2014-08-31T14:47:34.1Z</time>
      </trkpt>
      <trkpt lat="44.39331" lon="6.16734">
        <ele>1082</ele>
        <time>2014-08-31T14:47:40.1Z</time>
      </trkpt>
      <trkpt lat="44.39351" lon="6.16782">
        <ele>1078</ele>
        <time>2014-08-31T14:47:45.1Z</time>
      </trkpt>
      <trkpt lat="44.39351" lon="6.16866">
        <ele>1072</ele>
        <time>2014-08-31T14:47:51.1Z</time>
      </trkpt>
      <trkpt lat="44.3934" lon="6.16939">
        <ele>1069</ele>
        <time>2014-08-31T14:47:56.1Z</time>
      </trkpt>
      <trkpt lat="44.39332" lon="6.17016">
        <ele>1067</ele>
        <time>2014-08-31T14:48:02.1Z</time>
      </trkpt>
      <trkpt lat="44.39363" lon="6.1706">
        <ele>1063</ele>
        <time>2014-08-31T14:48:07.1Z</time>
      </trkpt>
      <trkpt lat="44.39385" lon="6.17118">
        <ele>1057</ele>
        <time>2014-08-31T14:48:13.1Z</time>
      </trkpt>
      <trkpt lat="44.39418" lon="6.17097">
        <ele>1053</ele>
        <time>2014-08-31T14:48:18.1Z</time>
      </trkpt>
      <trkpt lat="44.39467" lon="6.17063">
        <ele>1050</ele>
        <time>2014-08-31T14:48:24.1Z</time>
      </trkpt>
      <trkpt lat="44.39511" lon="6.17034">
        <ele>1047</ele>
        <time>2014-08-31T14:48:29.1Z</time>
      </trkpt>
      <trkpt lat="44.3956" lon="6.17012">
        <ele>1045</ele>
        <time>2014-08-31T14:48:35.1Z</time>
      </trkpt>
      <trkpt lat="44.39574" lon="6.17011">
        <ele>1045</ele>
        <time>2014-08-31T14:48:40.1Z</time>
      </trkpt>
      <trkpt lat="44.39574" lon="6.1701">
        <ele>1045</ele>
        <time>2014-08-31T14:48:46.1Z</time>
      </trkpt>
      <trkpt lat="44.39575" lon="6.17009">
        <ele>1045</ele>
        <time>2014-08-31T14:48:52.1Z</time>
      </trkpt>
      <trkpt lat="44.39575" lon="6.17009">
        <ele>1045</ele>
        <time>2014-08-31T14:48:58.1Z</time>
      </trkpt>
      <trkpt lat="44.39576" lon="6.17009">
        <ele>1045</ele>
        <time>2014-08-31T14:49:03.1Z</time>
      </trkpt>
      <trkpt lat="44.39575" lon="6.17008">
        <ele>1046</ele>
        <time>2014-08-31T14:49:09.1Z</time>
      </trkpt>
      <trkpt lat="44.39575" lon="6.17008">
        <ele>1046</ele>
        <time>2014-08-31T14:49:15.1Z</time>
      </trkpt>
      <trkpt lat="44.39575" lon="6.17008">
        <ele>1046</ele>
        <time>2014-08-31T14:49:21.1Z</time>
      </trkpt>
      <trkpt lat="44.39574" lon="6.17008">
        <ele>1046</ele>
        <time>2014-08-31T14:49:27.1Z</time>
      </trkpt>
      <trkpt lat="44.39574" lon="6.17007">
        <ele>1046</ele>
        <time>2014-08-31T14:49:32.1Z</time>
      </trkpt>
      <trkpt lat="44.39575" lon="6.17006">
        <ele>1046</ele>
        <time>2014-08-31T14:49:38.1Z</time>
      </trkpt>
      <trkpt lat="44.39576" lon="6.17006">
        <ele>1046</ele>
        <time>2014-08-31T14:49:43.1Z</time>
      </trkpt>
      <trkpt lat="44.3958" lon="6.17002">
        <ele>1046</ele>
        <time>2014-08-31T14:49:48.1Z</time>
      </trkpt>
      <trkpt lat="44.3959" lon="6.16991">
        <ele>1046</ele>
        <time>2014-08-31T14:49:53.1Z</time>
      </trkpt>
      <trkpt lat="44.39599" lon="6.16973">
        <ele>1045</ele>
        <time>2014-08-31T14:49:58.1Z</time>
      </trkpt>
      <trkpt lat="44.39608" lon="6.1694">
        <ele>1044</ele>
        <time>2014-08-31T14:50:04.1Z</time>
      </trkpt>
      <trkpt lat="44.39616" lon="6.169">
        <ele>1042</ele>
        <time>2014-08-31T14:50:10.1Z</time>
      </trkpt>
      <trkpt lat="44.39624" lon="6.16862">
        <ele>1041</ele>
        <time>2014-08-31T14:50:15.1Z</time>
      </trkpt>
      <trkpt lat="44.39633" lon="6.1682">
        <ele>1040</ele>
        <time>2014-08-31T14:50:20.1Z</time>
      </trkpt>
      <trkpt lat="44.3965" lon="6.1677">
        <ele>1038</ele>
        <time>2014-08-31T14:50:26.1Z</time>
      </trkpt>
      <trkpt lat="44.39671" lon="6.16728">
        <ele>1036</ele>
        <time>2014-08-31T14:50:31.1Z</time>
      </trkpt>
      <trkpt lat="44.39702" lon="6.16678">
        <ele>1033</ele>
        <time>2014-08-31T14:50:37.1Z</time>
      </trkpt>
      <trkpt lat="44.39729" lon="6.16634">
        <ele>1031</ele>
        <time>2014-08-31T14:50:42.1Z</time>
      </trkpt>
      <trkpt lat="44.39761" lon="6.16579">
        <ele>1029</ele>
        <time>2014-08-31T14:50:48.1Z</time>
      </trkpt>
      <trkpt lat="44.39789" lon="6.16532">
        <ele>1026</ele>
        <time>2014-08-31T14:50:53.1Z</time>
      </trkpt>
      <trkpt lat="44.39805" lon="6.16477">
        <ele>1025</ele>
        <time>2014-08-31T14:50:58.1Z</time>
      </trkpt>
      <trkpt lat="44.39797" lon="6.16413">
        <ele>1024</ele>
        <time>2014-08-31T14:51:04.1Z</time>
      </trkpt>
      <trkpt lat="44.39822" lon="6.16375">
        <ele>1024</ele>
        <time>2014-08-31T14:51:10.1Z</time>
      </trkpt>
      <trkpt lat="44.39855" lon="6.16355">
        <ele>1023</ele>
        <time>2014-08-31T14:51:16.1Z</time>
      </trkpt>
      <trkpt lat="44.39884" lon="6.16359">
        <ele>1022</ele>
        <time>2014-08-31T14:51:21.1Z</time>
      </trkpt>
      <trkpt lat="44.39921" lon="6.16368">
        <ele>1021</ele>
        <time>2014-08-31T14:51:27.1Z</time>
      </trkpt>
      <trkpt lat="44.39959" lon="6.16372">
        <ele>1020</ele>
        <time>2014-08-31T14:51:33.1Z</time>
      </trkpt>
      <trkpt lat="44.39991" lon="6.16369">
        <ele>1020</ele>
        <time>2014-08-31T14:51:38.1Z</time>
      </trkpt>
      <trkpt lat="44.40028" lon="6.16365">
        <ele>1020</ele>
        <time>2014-08-31T14:51:44.1Z</time>
      </trkpt>
      <trkpt lat="44.40063" lon="6.16364">
        <ele>1020</ele>
        <time>2014-08-31T14:51:50.1Z</time>
      </trkpt>
      <trkpt lat="44.40091" lon="6.16364">
        <ele>1020</ele>
        <time>2014-08-31T14:51:55.1Z</time>
      </trkpt>
      <trkpt lat="44.40128" lon="6.1637">
        <ele>1019</ele>
        <time>2014-08-31T14:52:01.1Z</time>
      </trkpt>
      <trkpt lat="44.40173" lon="6.16386">
        <ele>1017</ele>
        <time>2014-08-31T14:52:07.1Z</time>
      </trkpt>
      <trkpt lat="44.40219" lon="6.16399">
        <ele>1015</ele>
        <time>2014-08-31T14:52:12.1Z</time>
      </trkpt>
      <trkpt lat="44.40277" lon="6.16418">
        <ele>1012</ele>
        <time>2014-08-31T14:52:18.1Z</time>
      </trkpt>
      <trkpt lat="44.40324" lon="6.1644">
        <ele>1010</ele>
        <time>2014-08-31T14:52:23.1Z</time>
      </trkpt>
      <trkpt lat="44.40368" lon="6.16469">
        <ele>1008</ele>
        <time>2014-08-31T14:52:28.1Z</time>
      </trkpt>
      <trkpt lat="44.40427" lon="6.16486">
        <ele>1004</ele>
        <time>2014-08-31T14:52:34.1Z</time>
      </trkpt>
      <trkpt lat="44.40475" lon="6.16527">
        <ele>1000</ele>
        <time>2014-08-31T14:52:39.1Z</time>
      </trkpt>
      <trkpt lat="44.40544" lon="6.16551">
        <ele>996</ele>
        <time>2014-08-31T14:52:45.1Z</time>
      </trkpt>
      <trkpt lat="44.40614" lon="6.16577">
        <ele>990</ele>
        <time>2014-08-31T14:52:51.1Z</time>
      </trkpt>
      <trkpt lat="44.40667" lon="6.16639">
        <ele>986</ele>
        <time>2014-08-31T14:52:57.1Z</time>
      </trkpt>
      <trkpt lat="44.40696" lon="6.16709">
        <ele>984</ele>
        <time>2014-08-31T14:53:02.1Z</time>
      </trkpt>
      <trkpt lat="44.40749" lon="6.16779">
        <ele>979</ele>
        <time>2014-08-31T14:53:08.1Z</time>
      </trkpt>
      <trkpt lat="44.40821" lon="6.16805">
        <ele>975</ele>
        <time>2014-08-31T14:53:14.1Z</time>
      </trkpt>
      <trkpt lat="44.409" lon="6.16798">
        <ele>970</ele>
        <time>2014-08-31T14:53:20.1Z</time>
      </trkpt>
      <trkpt lat="44.40952" lon="6.16815">
        <ele>969</ele>
        <time>2014-08-31T14:53:25.1Z</time>
      </trkpt>
      <trkpt lat="44.40993" lon="6.16845">
        <ele>971</ele>
        <time>2014-08-31T14:53:31.1Z</time>
      </trkpt>
      <trkpt lat="44.41031" lon="6.16865">
        <ele>971</ele>
        <time>2014-08-31T14:53:37.1Z</time>
      </trkpt>
      <trkpt lat="44.41069" lon="6.16894">
        <ele>970</ele>
        <time>2014-08-31T14:53:43.1Z</time>
      </trkpt>
      <trkpt lat="44.411" lon="6.16926">
        <ele>968</ele>
        <time>2014-08-31T14:53:48.1Z</time>
      </trkpt>
      <trkpt lat="44.41142" lon="6.16932">
        <ele>966</ele>
        <time>2014-08-31T14:53:53.1Z</time>
      </trkpt>
      <trkpt lat="44.4119" lon="6.16927">
        <ele>962</ele>
        <time>2014-08-31T14:53:58.1Z</time>
      </trkpt>
      <trkpt lat="44.41251" lon="6.16925">
        <ele>959</ele>
        <time>2014-08-31T14:54:04.1Z</time>
      </trkpt>
      <trkpt lat="44.41311" lon="6.16954">
        <ele>955</ele>
        <time>2014-08-31T14:54:10.1Z</time>
      </trkpt>
      <trkpt lat="44.41353" lon="6.17015">
        <ele>953</ele>
        <time>2014-08-31T14:54:16.1Z</time>
      </trkpt>
      <trkpt lat="44.41387" lon="6.17085">
        <ele>950</ele>
        <time>2014-08-31T14:54:22.1Z</time>
      </trkpt>
      <trkpt lat="44.41413" lon="6.17147">
        <ele>947</ele>
        <time>2014-08-31T14:54:27.1Z</time>
      </trkpt>
      <trkpt lat="44.41432" lon="6.17209">
        <ele>945</ele>
        <time>2014-08-31T14:54:33.1Z</time>
      </trkpt>
      <trkpt lat="44.41454" lon="6.17249">
        <ele>944</ele>
        <time>2014-08-31T14:54:39.1Z</time>
      </trkpt>
      <trkpt lat="44.41483" lon="6.17291">
        <ele>942</ele>
        <time>2014-08-31T14:54:45.1Z</time>
      </trkpt>
      <trkpt lat="44.41505" lon="6.17336">
        <ele>940</ele>
        <time>2014-08-31T14:54:51.1Z</time>
      </trkpt>
      <trkpt lat="44.41532" lon="6.17377">
        <ele>939</ele>
        <time>2014-08-31T14:54:57.1Z</time>
      </trkpt>
      <trkpt lat="44.41564" lon="6.17397">
        <ele>937</ele>
        <time>2014-08-31T14:55:02.1Z</time>
      </trkpt>
      <trkpt lat="44.41608" lon="6.17404">
        <ele>935</ele>
        <time>2014-08-31T14:55:08.1Z</time>
      </trkpt>
      <trkpt lat="44.41656" lon="6.17421">
        <ele>932</ele>
        <time>2014-08-31T14:55:14.1Z</time>
      </trkpt>
      <trkpt lat="44.41703" lon="6.17443">
        <ele>928</ele>
        <time>2014-08-31T14:55:20.1Z</time>
      </trkpt>
      <trkpt lat="44.41742" lon="6.17456">
        <ele>925</ele>
        <time>2014-08-31T14:55:25.1Z</time>
      </trkpt>
      <trkpt lat="44.41777" lon="6.17464">
        <ele>923</ele>
        <time>2014-08-31T14:55:30.1Z</time>
      </trkpt>
      <trkpt lat="44.41813" lon="6.17472">
        <ele>920</ele>
        <time>2014-08-31T14:55:35.1Z</time>
      </trkpt>
      <trkpt lat="44.41857" lon="6.17485">
        <ele>918</ele>
        <time>2014-08-31T14:55:41.1Z</time>
      </trkpt>
      <trkpt lat="44.41873" lon="6.17486">
        <ele>917</ele>
        <time>2014-08-31T14:55:46.1Z</time>
      </trkpt>
      <trkpt lat="44.41882" lon="6.17502">
        <ele>917</ele>
        <time>2014-08-31T14:55:52.1Z</time>
      </trkpt>
      <trkpt lat="44.41894" lon="6.17535">
        <ele>916</ele>
        <time>2014-08-31T14:55:57.1Z</time>
      </trkpt>
      <trkpt lat="44.41908" lon="6.17569">
        <ele>914</ele>
        <time>2014-08-31T14:56:02.1Z</time>
      </trkpt>
      <trkpt lat="44.41918" lon="6.17605">
        <ele>915</ele>
        <time>2014-08-31T14:56:08.1Z</time>
      </trkpt>
      <trkpt lat="44.41922" lon="6.17623">
        <ele>916</ele>
        <time>2014-08-31T14:56:13.1Z</time>
      </trkpt>
      <trkpt lat="44.41918" lon="6.17637">
        <ele>918</ele>
        <time>2014-08-31T14:56:18.1Z</time>
      </trkpt>
      <trkpt lat="44.41914" lon="6.17656">
        <ele>919</ele>
        <time>2014-08-31T14:56:24.1Z</time>
      </trkpt>
      <trkpt lat="44.4191" lon="6.17668">
        <ele>920</ele>
        <time>2014-08-31T14:56:30.1Z</time>
      </trkpt>
      <trkpt lat="44.41907" lon="6.17692">
        <ele>918</ele>
        <time>2014-08-31T14:56:36.1Z</time>
      </trkpt>
      <trkpt lat="44.41914" lon="6.17722">
        <ele>915</ele>
        <time>2014-08-31T14:56:42.1Z</time>
      </trkpt>
      <trkpt lat="44.41921" lon="6.17746">
        <ele>913</ele>
        <time>2014-08-31T14:56:47.1Z</time>
      </trkpt>
      <trkpt lat="44.41929" lon="6.17768">
        <ele>912</ele>
        <time>2014-08-31T14:56:52.1Z</time>
      </trkpt>
      <trkpt lat="44.4194" lon="6.17794">
        <ele>908</ele>
        <time>2014-08-31T14:56:58.1Z</time>
      </trkpt>
      <trkpt lat="44.41953" lon="6.17796">
        <ele>906</ele>
        <time>2014-08-31T14:57:03.1Z</time>
      </trkpt>
      <trkpt lat="44.41953" lon="6.17797">
        <ele>907</ele>
        <time>2014-08-31T14:57:09.1Z</time>
      </trkpt>
      <trkpt lat="44.41947" lon="6.17801">
        <ele>907</ele>
        <time>2014-08-31T14:57:15.1Z</time>
      </trkpt>
      <trkpt lat="44.4195" lon="6.17812">
        <ele>906</ele>
        <time>2014-08-31T14:57:20.1Z</time>
      </trkpt>
      <trkpt lat="44.4196" lon="6.17831">
        <ele>904</ele>
        <time>2014-08-31T14:57:26.1Z</time>
      </trkpt>
      <trkpt lat="44.41968" lon="6.17853">
        <ele>901</ele>
        <time>2014-08-31T14:57:32.1Z</time>
      </trkpt>
      <trkpt lat="44.41974" lon="6.17871">
        <ele>898</ele>
        <time>2014-08-31T14:57:37.1Z</time>
      </trkpt>
      <trkpt lat="44.4198" lon="6.17894">
        <ele>896</ele>
        <time>2014-08-31T14:57:43.1Z</time>
      </trkpt>
      <trkpt lat="44.41985" lon="6.17912">
        <ele>893</ele>
        <time>2014-08-31T14:57:48.1Z</time>
      </trkpt>
      <trkpt lat="44.41991" lon="6.17929">
        <ele>889</ele>
        <time>2014-08-31T14:57:53.1Z</time>
      </trkpt>
      <trkpt lat="44.41996" lon="6.17939">
        <ele>887</ele>
        <time>2014-08-31T14:57:59.1Z</time>
      </trkpt>
      <trkpt lat="44.41997" lon="6.1794">
        <ele>886</ele>
        <time>2014-08-31T14:58:05.1Z</time>
      </trkpt>
      <trkpt lat="44.41997" lon="6.17941">
        <ele>886</ele>
        <time>2014-08-31T14:58:10.1Z</time>
      </trkpt>
      <trkpt lat="44.41998" lon="6.17941">
        <ele>886</ele>
        <time>2014-08-31T14:58:16.1Z</time>
      </trkpt>
      <trkpt lat="44.41998" lon="6.17941">
        <ele>886</ele>
        <time>2014-08-31T14:58:21.1Z</time>
      </trkpt>
      <trkpt lat="44.41998" lon="6.1794">
        <ele>887</ele>
        <time>2014-08-31T14:58:27.1Z</time>
      </trkpt>
      <trkpt lat="44.41998" lon="6.17941">
        <ele>887</ele>
        <time>2014-08-31T14:58:32.1Z</time>
      </trkpt>
      <trkpt lat="44.41999" lon="6.17941">
        <ele>887</ele>
        <time>2014-08-31T14:58:37.1Z</time>
      </trkpt>
      <trkpt lat="44.41997" lon="6.17944">
        <ele>887</ele>
        <time>2014-08-31T14:58:42.1Z</time>
      </trkpt>
      <trkpt lat="44.41982" lon="6.17956">
        <ele>885</ele>
        <time>2014-08-31T14:58:48.1Z</time>
      </trkpt>
      <trkpt lat="44.41964" lon="6.17965">
        <ele>883</ele>
        <time>2014-08-31T14:58:54.1Z</time>
      </trkpt>
      <trkpt lat="44.41943" lon="6.17975">
        <ele>881</ele>
        <time>2014-08-31T14:59:00.1Z</time>
      </trkpt>
      <trkpt lat="44.41916" lon="6.17984">
        <ele>878</ele>
        <time>2014-08-31T14:59:06.1Z</time>
      </trkpt>
      <trkpt lat="44.41891" lon="6.1799">
        <ele>876</ele>
        <time>2014-08-31T14:59:11.1Z</time>
      </trkpt>
      <trkpt lat="44.41865" lon="6.17993">
        <ele>875</ele>
        <time>2014-08-31T14:59:16.1Z</time>
      </trkpt>
      <trkpt lat="44.41839" lon="6.17992">
        <ele>872</ele>
        <time>2014-08-31T14:59:21.1Z</time>
      </trkpt>
      <trkpt lat="44.41812" lon="6.17985">
        <ele>870</ele>
        <time>2014-08-31T14:59:27.1Z</time>
      </trkpt>
      <trkpt lat="44.41797" lon="6.17978">
        <ele>868</ele>
        <time>2014-08-31T14:59:32.1Z</time>
      </trkpt>
      <trkpt lat="44.41777" lon="6.17991">
        <ele>864</ele>
        <time>2014-08-31T14:59:38.1Z</time>
      </trkpt>
      <trkpt lat="44.41754" lon="6.18018">
        <ele>862</ele>
        <time>2014-08-31T14:59:44.1Z</time>
      </trkpt>
      <trkpt lat="44.4174" lon="6.1803">
        <ele>861</ele>
        <time>2014-08-31T14:59:49.1Z</time>
      </trkpt>
      <trkpt lat="44.41739" lon="6.18049">
        <ele>861</ele>
        <time>2014-08-31T14:59:55.1Z</time>
      </trkpt>
      <trkpt lat="44.41738" lon="6.1806">
        <ele>862</ele>
        <time>2014-08-31T15:00:01.1Z</time>
      </trkpt>
      <trkpt lat="44.41738" lon="6.18067">
        <ele>863</ele>
        <time>2014-08-31T15:00:06.1Z</time>
      </trkpt>
      <trkpt lat="44.41742" lon="6.18074">
        <ele>864</ele>
        <time>2014-08-31T15:00:12.1Z</time>
      </trkpt>
      <trkpt lat="44.41742" lon="6.1808">
        <ele>864</ele>
        <time>2014-08-31T15:00:17.1Z</time>
      </trkpt>
      <trkpt lat="44.41741" lon="6.18086">
        <ele>865</ele>
        <time>2014-08-31T15:00:22.1Z</time>
      </trkpt>
      <trkpt lat="44.41741" lon="6.18093">
        <ele>866</ele>
        <time>2014-08-31T15:00:28.1Z</time>
      </trkpt>
      <trkpt lat="44.4174" lon="6.18099">
        <ele>866</ele>
        <time>2014-08-31T15:00:33.1Z</time>
      </trkpt>
      <trkpt lat="44.41738" lon="6.18105">
        <ele>867</ele>
        <time>2014-08-31T15:00:38.1Z</time>
      </trkpt>
      <trkpt lat="44.41738" lon="6.18112">
        <ele>866</ele>
        <time>2014-08-31T15:00:43.1Z</time>
      </trkpt>
      <trkpt lat="44.41737" lon="6.1812">
        <ele>867</ele>
        <time>2014-08-31T15:00:49.1Z</time>
      </trkpt>
      <trkpt lat="44.41735" lon="6.18128">
        <ele>867</ele>
        <time>2014-08-31T15:00:55.1Z</time>
      </trkpt>
      <trkpt lat="44.41734" lon="6.18134">
        <ele>868</ele>
        <time>2014-08-31T15:01:00.1Z</time>
      </trkpt>
      <trkpt lat="44.41733" lon="6.18142">
        <ele>868</ele>
        <time>2014-08-31T15:01:05.1Z</time>
      </trkpt>
      <trkpt lat="44.41734" lon="6.18149">
        <ele>869</ele>
        <time>2014-08-31T15:01:10.1Z</time>
      </trkpt>
      <trkpt lat="44.41735" lon="6.18156">
        <ele>869</ele>
        <time>2014-08-31T15:01:16.1Z</time>
      </trkpt>
      <trkpt lat="44.41734" lon="6.18161">
        <ele>870</ele>
        <time>2014-08-31T15:01:21.1Z</time>
      </trkpt>
      <trkpt lat="44.41736" lon="6.18168">
        <ele>870</ele>
        <time>2014-08-31T15:01:27.1Z</time>
      </trkpt>
      <trkpt lat="44.41736" lon="6.18174">
        <ele>871</ele>
        <time>2014-08-31T15:01:32.1Z</time>
      </trkpt>
      <trkpt lat="44.41736" lon="6.1818">
        <ele>871</ele>
        <time>2014-08-31T15:01:37.1Z</time>
      </trkpt>
      <trkpt lat="44.41735" lon="6.18187">
        <ele>872</ele>
        <time>2014-08-31T15:01:43.1Z</time>
      </trkpt>
      <trkpt lat="44.41731" lon="6.18189">
        <ele>873</ele>
        <time>2014-08-31T15:01:49.1Z</time>
      </trkpt>
      <trkpt lat="44.41727" lon="6.18188">
        <ele>873</ele>
        <time>2014-08-31T15:01:54.1Z</time>
      </trkpt>
      <trkpt lat="44.41723" lon="6.18186">
        <ele>874</ele>
        <time>2014-08-31T15:01:59.1Z</time>
      </trkpt>
      <trkpt lat="44.41719" lon="6.18182">
        <ele>875</ele>
        <time>2014-08-31T15:02:05.1Z</time>
      </trkpt>
      <trkpt lat="44.41715" lon="6.1818">
        <ele>875</ele>
        <time>2014-08-31T15:02:11.1Z</time>
      </trkpt>
      <trkpt lat="44.41711" lon="6.1818">
        <ele>876</ele>
        <time>2014-08-31T15:02:16.1Z</time>
      </trkpt>
      <trkpt lat="44.41706" lon="6.18181">
        <ele>876</ele>
        <time>2014-08-31T15:02:21.1Z</time>
      </trkpt>
      <trkpt lat="44.41705" lon="6.18186">
        <ele>877</ele>
        <time>2014-08-31T15:02:27.1Z</time>
      </trkpt>
      <trkpt lat="44.41707" lon="6.18189">
        <ele>878</ele>
        <time>2014-08-31T15:02:32.1Z</time>
      </trkpt>
      <trkpt lat="44.41709" lon="6.18193">
        <ele>879</ele>
        <time>2014-08-31T15:02:37.1Z</time>
      </trkpt>
      <trkpt lat="44.4171" lon="6.18199">
        <ele>880</ele>
        <time>2014-08-31T15:02:43.1Z</time>
      </trkpt>
      <trkpt lat="44.4171" lon="6.18206">
        <ele>880</ele>
        <time>2014-08-31T15:02:49.1Z</time>
      </trkpt>
      <trkpt lat="44.41712" lon="6.18212">
        <ele>880</ele>
        <time>2014-08-31T15:02:55.1Z</time>
      </trkpt>
      <trkpt lat="44.41712" lon="6.18217">
        <ele>881</ele>
        <time>2014-08-31T15:03:00.1Z</time>
      </trkpt>
      <trkpt lat="44.41712" lon="6.18223">
        <ele>881</ele>
        <time>2014-08-31T15:03:06.1Z</time>
      </trkpt>
      <trkpt lat="44.41712" lon="6.18228">
        <ele>882</ele>
        <time>2014-08-31T15:03:11.1Z</time>
      </trkpt>
      <trkpt lat="44.41711" lon="6.18232">
        <ele>882</ele>
        <time>2014-08-31T15:03:16.1Z</time>
      </trkpt>
      <trkpt lat="44.41711" lon="6.18237">
        <ele>883</ele>
        <time>2014-08-31T15:03:21.1Z</time>
      </trkpt>
      <trkpt lat="44.41709" lon="6.18242">
        <ele>883</ele>
        <time>2014-08-31T15:03:27.1Z</time>
      </trkpt>
      <trkpt lat="44.41707" lon="6.18247">
        <ele>884</ele>
        <time>2014-08-31T15:03:32.1Z</time>
      </trkpt>
      <trkpt lat="44.41705" lon="6.18252">
        <ele>884</ele>
        <time>2014-08-31T15:03:38.1Z</time>
      </trkpt>
      <trkpt lat="44.41705" lon="6.18257">
        <ele>885</ele>
        <time>2014-08-31T15:03:43.1Z</time>
      </trkpt>
      <trkpt lat="44.41707" lon="6.18261">
        <ele>885</ele>
        <time>2014-08-31T15:03:48.1Z</time>
      </trkpt>
      <trkpt lat="44.4171" lon="6.18264">
        <ele>886</ele>
        <time>2014-08-31T15:03:54.1Z</time>
      </trkpt>
      <trkpt lat="44.41711" lon="6.18266">
        <ele>886</ele>
        <time>2014-08-31T15:03:59.1Z</time>
      </trkpt>
      <trkpt lat="44.41715" lon="6.18267">
        <ele>887</ele>
        <time>2014-08-31T15:04:04.1Z</time>
      </trkpt>
      <trkpt lat="44.41719" lon="6.1827">
        <ele>888</ele>
        <time>2014-08-31T15:04:10.1Z</time>
      </trkpt>
      <trkpt lat="44.41721" lon="6.18276">
        <ele>888</ele>
        <time>2014-08-31T15:04:16.1Z</time>
      </trkpt>
      <trkpt lat="44.41721" lon="6.18282">
        <ele>888</ele>
        <time>2014-08-31T15:04:22.1Z</time>
      </trkpt>
      <trkpt lat="44.41721" lon="6.1829">
        <ele>888</ele>
        <time>2014-08-31T15:04:28.1Z</time>
      </trkpt>
      <trkpt lat="44.41721" lon="6.18291">
        <ele>889</ele>
        <time>2014-08-31T15:04:33.1Z</time>
      </trkpt>
      <trkpt lat="44.41719" lon="6.18298">
        <ele>889</ele>
        <time>2014-08-31T15:04:39.1Z</time>
      </trkpt>
      <trkpt lat="44.41718" lon="6.18304">
        <ele>889</ele>
        <time>2014-08-31T15:04:44.1Z</time>
      </trkpt>
      <trkpt lat="44.41717" lon="6.1831">
        <ele>890</ele>
        <time>2014-08-31T15:04:50.1Z</time>
      </trkpt>
      <trkpt lat="44.41716" lon="6.18316">
        <ele>891</ele>
        <time>2014-08-31T15:04:55.1Z</time>
      </trkpt>
      <trkpt lat="44.41714" lon="6.18322">
        <ele>892</ele>
        <time>2014-08-31T15:05:01.1Z</time>
      </trkpt>
      <trkpt lat="44.41713" lon="6.18328">
        <ele>893</ele>
        <time>2014-08-31T15:05:06.1Z</time>
      </trkpt>
      <trkpt lat="44.41713" lon="6.18334">
        <ele>893</ele>
        <time>2014-08-31T15:05:12.1Z</time>
      </trkpt>
      <trkpt lat="44.41713" lon="6.1834">
        <ele>894</ele>
        <time>2014-08-31T15:05:17.1Z</time>
      </trkpt>
      <trkpt lat="44.41713" lon="6.18346">
        <ele>894</ele>
        <time>2014-08-31T15:05:23.1Z</time>
      </trkpt>
      <trkpt lat="44.41713" lon="6.18353">
        <ele>895</ele>
        <time>2014-08-31T15:05:29.1Z</time>
      </trkpt>
      <trkpt lat="44.41711" lon="6.1836">
        <ele>895</ele>
        <time>2014-08-31T15:05:35.1Z</time>
      </trkpt>
      <trkpt lat="44.41708" lon="6.18364">
        <ele>896</ele>
        <time>2014-08-31T15:05:41.1Z</time>
      </trkpt>
      <trkpt lat="44.41704" lon="6.18369">
        <ele>897</ele>
        <time>2014-08-31T15:05:47.1Z</time>
      </trkpt>
      <trkpt lat="44.417" lon="6.1837">
        <ele>898</ele>
        <time>2014-08-31T15:05:52.1Z</time>
      </trkpt>
      <trkpt lat="44.41696" lon="6.18375">
        <ele>898</ele>
        <time>2014-08-31T15:05:57.1Z</time>
      </trkpt>
      <trkpt lat="44.41692" lon="6.18379">
        <ele>898</ele>
        <time>2014-08-31T15:06:03.1Z</time>
      </trkpt>
      <trkpt lat="44.41689" lon="6.18384">
        <ele>899</ele>
        <time>2014-08-31T15:06:08.1Z</time>
      </trkpt>
      <trkpt lat="44.41684" lon="6.18388">
        <ele>899</ele>
        <time>2014-08-31T15:06:14.1Z</time>
      </trkpt>
      <trkpt lat="44.4168" lon="6.18392">
        <ele>900</ele>
        <time>2014-08-31T15:06:19.1Z</time>
      </trkpt>
      <trkpt lat="44.41675" lon="6.18396">
        <ele>900</ele>
        <time>2014-08-31T15:06:25.1Z</time>
      </trkpt>
      <trkpt lat="44.41671" lon="6.184">
        <ele>900</ele>
        <time>2014-08-31T15:06:30.1Z</time>
      </trkpt>
      <trkpt lat="44.41668" lon="6.18404">
        <ele>900</ele>
        <time>2014-08-31T15:06:35.1Z</time>
      </trkpt>
      <trkpt lat="44.41664" lon="6.18409">
        <ele>901</ele>
        <time>2014-08-31T15:06:41.1Z</time>
      </trkpt>
      <trkpt lat="44.4166" lon="6.18414">
        <ele>902</ele>
        <time>2014-08-31T15:06:46.1Z</time>
      </trkpt>
      <trkpt lat="44.41657" lon="6.18418">
        <ele>902</ele>
        <time>2014-08-31T15:06:51.1Z</time>
      </trkpt>
      <trkpt lat="44.41654" lon="6.18424">
        <ele>903</ele>
        <time>2014-08-31T15:06:57.1Z</time>
      </trkpt>
      <trkpt lat="44.4165" lon="6.18431">
        <ele>903</ele>
        <time>2014-08-31T15:07:03.1Z</time>
      </trkpt>
      <trkpt lat="44.41647" lon="6.18438">
        <ele>904</ele>
        <time>2014-08-31T15:07:09.1Z</time>
      </trkpt>
      <trkpt lat="44.41643" lon="6.18444">
        <ele>904</ele>
        <time>2014-08-31T15:07:15.1Z</time>
      </trkpt>
      <trkpt lat="44.4164" lon="6.18449">
        <ele>904</ele>
        <time>2014-08-31T15:07:20.1Z</time>
      </trkpt>
      <trkpt lat="44.41637" lon="6.18456">
        <ele>904</ele>
        <time>2014-08-31T15:07:26.1Z</time>
      </trkpt>
      <trkpt lat="44.41637" lon="6.18461">
        <ele>906</ele>
        <time>2014-08-31T15:07:32.1Z</time>
      </trkpt>
      <trkpt lat="44.41637" lon="6.18461">
        <ele>905</ele>
        <time>2014-08-31T15:07:38.1Z</time>
      </trkpt>
      <trkpt lat="44.41637" lon="6.18462">
        <ele>905</ele>
        <time>2014-08-31T15:07:44.1Z</time>
      </trkpt>
      <trkpt lat="44.41637" lon="6.18462">
        <ele>906</ele>
        <time>2014-08-31T15:07:50.1Z</time>
      </trkpt>
      <trkpt lat="44.41637" lon="6.18462">
        <ele>906</ele>
        <time>2014-08-31T15:07:56.1Z</time>
      </trkpt>
      <trkpt lat="44.41635" lon="6.18466">
        <ele>905</ele>
        <time>2014-08-31T15:08:01.1Z</time>
      </trkpt>
      <trkpt lat="44.41629" lon="6.18473">
        <ele>906</ele>
        <time>2014-08-31T15:08:06.1Z</time>
      </trkpt>
      <trkpt lat="44.41624" lon="6.18484">
        <ele>906</ele>
        <time>2014-08-31T15:08:12.1Z</time>
      </trkpt>
      <trkpt lat="44.41619" lon="6.18493">
        <ele>907</ele>
        <time>2014-08-31T15:08:17.1Z</time>
      </trkpt>
      <trkpt lat="44.41615" lon="6.18503">
        <ele>907</ele>
        <time>2014-08-31T15:08:23.1Z</time>
      </trkpt>
      <trkpt lat="44.41611" lon="6.18511">
        <ele>908</ele>
        <time>2014-08-31T15:08:28.1Z</time>
      </trkpt>
      <trkpt lat="44.41608" lon="6.18519">
        <ele>909</ele>
        <time>2014-08-31T15:08:33.1Z</time>
      </trkpt>
      <trkpt lat="44.41605" lon="6.1853">
        <ele>910</ele>
        <time>2014-08-31T15:08:39.1Z</time>
      </trkpt>
      <trkpt lat="44.41603" lon="6.18539">
        <ele>910</ele>
        <time>2014-08-31T15:08:44.1Z</time>
      </trkpt>
      <trkpt lat="44.416" lon="6.1855">
        <ele>911</ele>
        <time>2014-08-31T15:08:50.1Z</time>
      </trkpt>
      <trkpt lat="44.41598" lon="6.18563">
        <ele>911</ele>
        <time>2014-08-31T15:08:56.1Z</time>
      </trkpt>
      <trkpt lat="44.41596" lon="6.18572">
        <ele>912</ele>
        <time>2014-08-31T15:09:01.1Z</time>
      </trkpt>
      <trkpt lat="44.41593" lon="6.18582">
        <ele>912</ele>
        <time>2014-08-31T15:09:07.1Z</time>
      </trkpt>
      <trkpt lat="44.41588" lon="6.1859">
        <ele>913</ele>
        <time>2014-08-31T15:09:13.1Z</time>
      </trkpt>
      <trkpt lat="44.41583" lon="6.18596">
        <ele>914</ele>
        <time>2014-08-31T15:09:18.1Z</time>
      </trkpt>
      <trkpt lat="44.41577" lon="6.18601">
        <ele>914</ele>
        <time>2014-08-31T15:09:24.1Z</time>
      </trkpt>
      <trkpt lat="44.41571" lon="6.18604">
        <ele>914</ele>
        <time>2014-08-31T15:09:30.1Z</time>
      </trkpt>
      <trkpt lat="44.41565" lon="6.18607">
        <ele>915</ele>
        <time>2014-08-31T15:09:36.1Z</time>
      </trkpt>
      <trkpt lat="44.4156" lon="6.18609">
        <ele>916</ele>
        <time>2014-08-31T15:09:41.1Z</time>
      </trkpt>
      <trkpt lat="44.41554" lon="6.18613">
        <ele>917</ele>
        <time>2014-08-31T15:09:47.1Z</time>
      </trkpt>
      <trkpt lat="44.41549" lon="6.18618">
        <ele>917</ele>
        <time>2014-08-31T15:09:53.1Z</time>
      </trkpt>
      <trkpt lat="44.41544" lon="6.18622">
        <ele>918</ele>
        <time>2014-08-31T15:09:58.1Z</time>
      </trkpt>
      <trkpt lat="44.41539" lon="6.18627">
        <ele>919</ele>
        <time>2014-08-31T15:10:04.1Z</time>
      </trkpt>
      <trkpt lat="44.41535" lon="6.18632">
        <ele>920</ele>
        <time>2014-08-31T15:10:09.1Z</time>
      </trkpt>
      <trkpt lat="44.41529" lon="6.18636">
        <ele>920</ele>
        <time>2014-08-31T15:10:15.1Z</time>
      </trkpt>
      <trkpt lat="44.41524" lon="6.18641">
        <ele>921</ele>
        <time>2014-08-31T15:10:21.1Z</time>
      </trkpt>
      <trkpt lat="44.4152" lon="6.18644">
        <ele>922</ele>
        <time>2014-08-31T15:10:26.1Z</time>
      </trkpt>
      <trkpt lat="44.41514" lon="6.18647">
        <ele>923</ele>
        <time>2014-08-31T15:10:32.1Z</time>
      </trkpt>
      <trkpt lat="44.41509" lon="6.18647">
        <ele>924</ele>
        <time>2014-08-31T15:10:37.1Z</time>
      </trkpt>
      <trkpt lat="44.41502" lon="6.18646">
        <ele>924</ele>
        <time>2014-08-31T15:10:43.1Z</time>
      </trkpt>
      <trkpt lat="44.41496" lon="6.18647">
        <ele>924</ele>
        <time>2014-08-31T15:10:49.1Z</time>
      </trkpt>
      <trkpt lat="44.41491" lon="6.18649">
        <ele>925</ele>
        <time>2014-08-31T15:10:55.1Z</time>
      </trkpt>
      <trkpt lat="44.41486" lon="6.18652">
        <ele>926</ele>
        <time>2014-08-31T15:11:00.1Z</time>
      </trkpt>
      <trkpt lat="44.41481" lon="6.18656">
        <ele>927</ele>
        <time>2014-08-31T15:11:06.1Z</time>
      </trkpt>
      <trkpt lat="44.41476" lon="6.18662">
        <ele>927</ele>
        <time>2014-08-31T15:11:12.1Z</time>
      </trkpt>
      <trkpt lat="44.41472" lon="6.18667">
        <ele>928</ele>
        <time>2014-08-31T15:11:17.1Z</time>
      </trkpt>
      <trkpt lat="44.41467" lon="6.18672">
        <ele>928</ele>
        <time>2014-08-31T15:11:23.1Z</time>
      </trkpt>
      <trkpt lat="44.41464" lon="6.18678">
        <ele>929</ele>
        <time>2014-08-31T15:11:28.1Z</time>
      </trkpt>
      <trkpt lat="44.41459" lon="6.18683">
        <ele>930</ele>
        <time>2014-08-31T15:11:34.1Z</time>
      </trkpt>
      <trkpt lat="44.41455" lon="6.18688">
        <ele>930</ele>
        <time>2014-08-31T15:11:39.1Z</time>
      </trkpt>
      <trkpt lat="44.4145" lon="6.18693">
        <ele>931</ele>
        <time>2014-08-31T15:11:45.1Z</time>
      </trkpt>
      <trkpt lat="44.41446" lon="6.18697">
        <ele>931</ele>
        <time>2014-08-31T15:11:50.1Z</time>
      </trkpt>
      <trkpt lat="44.41441" lon="6.187">
        <ele>932</ele>
        <time>2014-08-31T15:11:55.1Z</time>
      </trkpt>
      <trkpt lat="44.41437" lon="6.18704">
        <ele>932</ele>
        <time>2014-08-31T15:12:00.1Z</time>
      </trkpt>
      <trkpt lat="44.41433" lon="6.18707">
        <ele>933</ele>
        <time>2014-08-31T15:12:05.1Z</time>
      </trkpt>
      <trkpt lat="44.41427" lon="6.18711">
        <ele>933</ele>
        <time>2014-08-31T15:12:11.1Z</time>
      </trkpt>
      <trkpt lat="44.41422" lon="6.18715">
        <ele>934</ele>
        <time>2014-08-31T15:12:17.1Z</time>
      </trkpt>
      <trkpt lat="44.41416" lon="6.1872">
        <ele>935</ele>
        <time>2014-08-31T15:12:23.1Z</time>
      </trkpt>
      <trkpt lat="44.41411" lon="6.18724">
        <ele>935</ele>
        <time>2014-08-31T15:12:29.1Z</time>
      </trkpt>
      <trkpt lat="44.41405" lon="6.18729">
        <ele>936</ele>
        <time>2014-08-31T15:12:35.1Z</time>
      </trkpt>
      <trkpt lat="44.41401" lon="6.18734">
        <ele>936</ele>
        <time>2014-08-31T15:12:40.1Z</time>
      </trkpt>
      <trkpt lat="44.41397" lon="6.18739">
        <ele>937</ele>
        <time>2014-08-31T15:12:45.1Z</time>
      </trkpt>
      <trkpt lat="44.41392" lon="6.18745">
        <ele>937</ele>
        <time>2014-08-31T15:12:51.1Z</time>
      </trkpt>
      <trkpt lat="44.41387" lon="6.18751">
        <ele>938</ele>
        <time>2014-08-31T15:12:57.1Z</time>
      </trkpt>
      <trkpt lat="44.41383" lon="6.18757">
        <ele>939</ele>
        <time>2014-08-31T15:13:03.1Z</time>
      </trkpt>
      <trkpt lat="44.41379" lon="6.18762">
        <ele>940</ele>
        <time>2014-08-31T15:13:08.1Z</time>
      </trkpt>
      <trkpt lat="44.41376" lon="6.1877">
        <ele>940</ele>
        <time>2014-08-31T15:13:14.1Z</time>
      </trkpt>
      <trkpt lat="44.41372" lon="6.18777">
        <ele>941</ele>
        <time>2014-08-31T15:13:20.1Z</time>
      </trkpt>
      <trkpt lat="44.4137" lon="6.18784">
        <ele>942</ele>
        <time>2014-08-31T15:13:25.1Z</time>
      </trkpt>
      <trkpt lat="44.41367" lon="6.18792">
        <ele>942</ele>
        <time>2014-08-31T15:13:31.1Z</time>
      </trkpt>
      <trkpt lat="44.41363" lon="6.188">
        <ele>943</ele>
        <time>2014-08-31T15:13:37.1Z</time>
      </trkpt>
      <trkpt lat="44.41361" lon="6.18807">
        <ele>945</ele>
        <time>2014-08-31T15:13:43.1Z</time>
      </trkpt>
      <trkpt lat="44.41358" lon="6.18813">
        <ele>945</ele>
        <time>2014-08-31T15:13:48.1Z</time>
      </trkpt>
      <trkpt lat="44.41354" lon="6.1882">
        <ele>945</ele>
        <time>2014-08-31T15:13:54.1Z</time>
      </trkpt>
      <trkpt lat="44.41349" lon="6.18826">
        <ele>946</ele>
        <time>2014-08-31T15:14:00.1Z</time>
      </trkpt>
      <trkpt lat="44.41345" lon="6.1883">
        <ele>946</ele>
        <time>2014-08-31T15:14:05.1Z</time>
      </trkpt>
      <trkpt lat="44.41341" lon="6.18835">
        <ele>947</ele>
        <time>2014-08-31T15:14:11.1Z</time>
      </trkpt>
      <trkpt lat="44.41337" lon="6.18838">
        <ele>947</ele>
        <time>2014-08-31T15:14:17.1Z</time>
      </trkpt>
      <trkpt lat="44.41337" lon="6.18838">
        <ele>949</ele>
        <time>2014-08-31T15:14:24.1Z</time>
      </trkpt>
      <trkpt lat="44.41337" lon="6.18838">
        <ele>948</ele>
        <time>2014-08-31T15:14:31.1Z</time>
      </trkpt>
      <trkpt lat="44.41337" lon="6.18838">
        <ele>948</ele>
        <time>2014-08-31T15:14:39.1Z</time>
      </trkpt>
      <trkpt lat="44.41338" lon="6.18838">
        <ele>948</ele>
        <time>2014-08-31T15:14:46.1Z</time>
      </trkpt>
      <trkpt lat="44.41338" lon="6.18839">
        <ele>948</ele>
        <time>2014-08-31T15:14:57.1Z</time>
      </trkpt>
      <trkpt lat="44.41338" lon="6.18839">
        <ele>949</ele>
        <time>2014-08-31T15:15:03.1Z</time>
      </trkpt>
      <trkpt lat="44.41338" lon="6.1884">
        <ele>949</ele>
        <time>2014-08-31T15:15:09.1Z</time>
      </trkpt>
      <trkpt lat="44.41336" lon="6.18844">
        <ele>949</ele>
        <time>2014-08-31T15:15:14.1Z</time>
      </trkpt>
      <trkpt lat="44.41331" lon="6.18851">
        <ele>949</ele>
        <time>2014-08-31T15:15:20.1Z</time>
      </trkpt>
      <trkpt lat="44.41326" lon="6.18857">
        <ele>950</ele>
        <time>2014-08-31T15:15:25.1Z</time>
      </trkpt>
      <trkpt lat="44.41322" lon="6.18865">
        <ele>951</ele>
        <time>2014-08-31T15:15:30.1Z</time>
      </trkpt>
      <trkpt lat="44.41316" lon="6.18875">
        <ele>951</ele>
        <time>2014-08-31T15:15:36.1Z</time>
      </trkpt>
      <trkpt lat="44.41311" lon="6.18884">
        <ele>951</ele>
        <time>2014-08-31T15:15:41.1Z</time>
      </trkpt>
      <trkpt lat="44.41303" lon="6.18894">
        <ele>952</ele>
        <time>2014-08-31T15:15:47.1Z</time>
      </trkpt>
      <trkpt lat="44.41296" lon="6.18904">
        <ele>952</ele>
        <time>2014-08-31T15:15:53.1Z</time>
      </trkpt>
      <trkpt lat="44.4129" lon="6.18915">
        <ele>953</ele>
        <time>2014-08-31T15:15:59.1Z</time>
      </trkpt>
      <trkpt lat="44.41285" lon="6.18924">
        <ele>954</ele>
        <time>2014-08-31T15:16:04.1Z</time>
      </trkpt>
      <trkpt lat="44.4128" lon="6.18934">
        <ele>955</ele>
        <time>2014-08-31T15:16:10.1Z</time>
      </trkpt>
      <trkpt lat="44.41276" lon="6.18941">
        <ele>956</ele>
        <time>2014-08-31T15:16:15.1Z</time>
      </trkpt>
      <trkpt lat="44.4127" lon="6.18948">
        <ele>956</ele>
        <time>2014-08-31T15:16:21.1Z</time>
      </trkpt>
      <trkpt lat="44.41265" lon="6.18954">
        <ele>956</ele>
        <time>2014-08-31T15:16:27.1Z</time>
      </trkpt>
      <trkpt lat="44.41259" lon="6.18961">
        <ele>957</ele>
        <time>2014-08-31T15:16:33.1Z</time>
      </trkpt>
      <trkpt lat="44.41254" lon="6.18967">
        <ele>958</ele>
        <time>2014-08-31T15:16:39.1Z</time>
      </trkpt>
      <trkpt lat="44.41248" lon="6.18975">
        <ele>959</ele>
        <time>2014-08-31T15:16:45.1Z</time>
      </trkpt>
      <trkpt lat="44.41244" lon="6.18981">
        <ele>959</ele>
        <time>2014-08-31T15:16:50.1Z</time>
      </trkpt>
      <trkpt lat="44.4124" lon="6.18987">
        <ele>959</ele>
        <time>2014-08-31T15:16:55.1Z</time>
      </trkpt>
      <trkpt lat="44.41235" lon="6.18996">
        <ele>960</ele>
        <time>2014-08-31T15:17:01.1Z</time>
      </trkpt>
      <trkpt lat="44.41229" lon="6.19003">
        <ele>961</ele>
        <time>2014-08-31T15:17:06.1Z</time>
      </trkpt>
      <trkpt lat="44.41222" lon="6.19014">
        <ele>961</ele>
        <time>2014-08-31T15:17:12.1Z</time>
      </trkpt>
      <trkpt lat="44.41215" lon="6.19026">
        <ele>962</ele>
        <time>2014-08-31T15:17:18.1Z</time>
      </trkpt>
      <trkpt lat="44.41208" lon="6.19036">
        <ele>962</ele>
        <time>2014-08-31T15:17:24.1Z</time>
      </trkpt>
      <trkpt lat="44.41203" lon="6.19045">
        <ele>962</ele>
        <time>2014-08-31T15:17:29.1Z</time>
      </trkpt>
      <trkpt lat="44.41199" lon="6.19053">
        <ele>962</ele>
        <time>2014-08-31T15:17:34.1Z</time>
      </trkpt>
      <trkpt lat="44.41194" lon="6.19063">
        <ele>962</ele>
        <time>2014-08-31T15:17:40.1Z</time>
      </trkpt>
      <trkpt lat="44.4119" lon="6.19071">
        <ele>963</ele>
        <time>2014-08-31T15:17:45.1Z</time>
      </trkpt>
      <trkpt lat="44.41185" lon="6.19082">
        <ele>963</ele>
        <time>2014-08-31T15:17:51.1Z</time>
      </trkpt>
      <trkpt lat="44.41182" lon="6.19092">
        <ele>965</ele>
        <time>2014-08-31T15:17:56.1Z</time>
      </trkpt>
      <trkpt lat="44.41179" lon="6.19102">
        <ele>965</ele>
        <time>2014-08-31T15:18:01.1Z</time>
      </trkpt>
      <trkpt lat="44.41175" lon="6.19111">
        <ele>965</ele>
        <time>2014-08-31T15:18:06.1Z</time>
      </trkpt>
      <trkpt lat="44.41172" lon="6.19122">
        <ele>967</ele>
        <time>2014-08-31T15:18:12.1Z</time>
      </trkpt>
      <trkpt lat="44.41175" lon="6.19128">
        <ele>967</ele>
        <time>2014-08-31T15:18:17.1Z</time>
      </trkpt>
      <trkpt lat="44.41177" lon="6.19129">
        <ele>967</ele>
        <time>2014-08-31T15:18:26.1Z</time>
      </trkpt>
      <trkpt lat="44.41177" lon="6.19129">
        <ele>967</ele>
        <time>2014-08-31T15:18:31.1Z</time>
      </trkpt>
      <trkpt lat="44.41178" lon="6.1913">
        <ele>967</ele>
        <time>2014-08-31T15:18:37.1Z</time>
      </trkpt>
      <trkpt lat="44.41178" lon="6.1913">
        <ele>967</ele>
        <time>2014-08-31T15:18:44.1Z</time>
      </trkpt>
      <trkpt lat="44.41179" lon="6.1913">
        <ele>966</ele>
        <time>2014-08-31T15:18:51.1Z</time>
      </trkpt>
      <trkpt lat="44.41183" lon="6.19128">
        <ele>966</ele>
        <time>2014-08-31T15:18:56.1Z</time>
      </trkpt>
      <trkpt lat="44.41195" lon="6.19122">
        <ele>966</ele>
        <time>2014-08-31T15:19:02.1Z</time>
      </trkpt>
      <trkpt lat="44.41213" lon="6.19119">
        <ele>965</ele>
        <time>2014-08-31T15:19:08.1Z</time>
      </trkpt>
      <trkpt lat="44.41233" lon="6.19121">
        <ele>964</ele>
        <time>2014-08-31T15:19:14.1Z</time>
      </trkpt>
      <trkpt lat="44.41257" lon="6.19118">
        <ele>962</ele>
        <time>2014-08-31T15:19:20.1Z</time>
      </trkpt>
      <trkpt lat="44.41283" lon="6.19123">
        <ele>961</ele>
        <time>2014-08-31T15:19:26.1Z</time>
      </trkpt>
      <trkpt lat="44.41298" lon="6.19135">
        <ele>960</ele>
        <time>2014-08-31T15:19:31.1Z</time>
      </trkpt>
      <trkpt lat="44.41309" lon="6.19163">
        <ele>958</ele>
        <time>2014-08-31T15:19:37.1Z</time>
      </trkpt>
      <trkpt lat="44.41321" lon="6.19187">
        <ele>955</ele>
        <time>2014-08-31T15:19:43.1Z</time>
      </trkpt>
      <trkpt lat="44.41332" lon="6.19211">
        <ele>953</ele>
        <time>2014-08-31T15:19:49.1Z</time>
      </trkpt>
      <trkpt lat="44.41352" lon="6.19218">
        <ele>951</ele>
        <time>2014-08-31T15:19:55.1Z</time>
      </trkpt>
      <trkpt lat="44.41369" lon="6.19218">
        <ele>949</ele>
        <time>2014-08-31T15:20:01.1Z</time>
      </trkpt>
      <trkpt lat="44.41382" lon="6.1922">
        <ele>947</ele>
        <time>2014-08-31T15:20:06.1Z</time>
      </trkpt>
      <trkpt lat="44.41396" lon="6.19219">
        <ele>945</ele>
        <time>2014-08-31T15:20:11.1Z</time>
      </trkpt>
      <trkpt lat="44.4141" lon="6.19209">
        <ele>943</ele>
        <time>2014-08-31T15:20:16.1Z</time>
      </trkpt>
      <trkpt lat="44.41428" lon="6.19194">
        <ele>941</ele>
        <time>2014-08-31T15:20:22.1Z</time>
      </trkpt>
      <trkpt lat="44.41442" lon="6.19181">
        <ele>940</ele>
        <time>2014-08-31T15:20:27.1Z</time>
      </trkpt>
      <trkpt lat="44.41454" lon="6.1917">
        <ele>939</ele>
        <time>2014-08-31T15:20:32.1Z</time>
      </trkpt>
      <trkpt lat="44.41463" lon="6.19158">
        <ele>938</ele>
        <time>2014-08-31T15:20:37.1Z</time>
      </trkpt>
      <trkpt lat="44.41475" lon="6.19151">
        <ele>937</ele>
        <time>2014-08-31T15:20:42.1Z</time>
      </trkpt>
      <trkpt lat="44.41492" lon="6.19144">
        <ele>934</ele>
        <time>2014-08-31T15:20:48.1Z</time>
      </trkpt>
      <trkpt lat="44.41508" lon="6.19137">
        <ele>933</ele>
        <time>2014-08-31T15:20:54.1Z</time>
      </trkpt>
      <trkpt lat="44.41525" lon="6.19128">
        <ele>931</ele>
        <time>2014-08-31T15:20:59.1Z</time>
      </trkpt>
      <trkpt lat="44.41544" lon="6.19127">
        <ele>930</ele>
        <time>2014-08-31T15:21:05.1Z</time>
      </trkpt>
      <trkpt lat="44.41549" lon="6.19146">
        <ele>929</ele>
        <time>2014-08-31T15:21:10.1Z</time>
      </trkpt>
      <trkpt lat="44.41551" lon="6.19161">
        <ele>929</ele>
        <time>2014-08-31T15:21:16.1Z</time>
      </trkpt>
      <trkpt lat="44.41552" lon="6.19177">
        <ele>929</ele>
        <time>2014-08-31T15:21:22.1Z</time>
      </trkpt>
      <trkpt lat="44.41554" lon="6.19191">
        <ele>929</ele>
        <time>2014-08-31T15:21:27.1Z</time>
      </trkpt>
      <trkpt lat="44.4156" lon="6.19195">
        <ele>929</ele>
        <time>2014-08-31T15:21:32.1Z</time>
      </trkpt>
      <trkpt lat="44.41563" lon="6.19196">
        <ele>929</ele>
        <time>2014-08-31T15:21:37.1Z</time>
      </trkpt>
      <trkpt lat="44.41564" lon="6.19197">
        <ele>929</ele>
        <time>2014-08-31T15:21:43.1Z</time>
      </trkpt>
      <trkpt lat="44.41564" lon="6.19198">
        <ele>929</ele>
        <time>2014-08-31T15:21:48.1Z</time>
      </trkpt>
      <trkpt lat="44.41564" lon="6.19198">
        <ele>929</ele>
        <time>2014-08-31T15:21:55.1Z</time>
      </trkpt>
      <trkpt lat="44.41563" lon="6.19198">
        <ele>929</ele>
        <time>2014-08-31T15:22:01.1Z</time>
      </trkpt>
      <trkpt lat="44.41563" lon="6.19198">
        <ele>929</ele>
        <time>2014-08-31T15:22:06.1Z</time>
      </trkpt>
      <trkpt lat="44.41562" lon="6.19197">
        <ele>929</ele>
        <time>2014-08-31T15:22:12.1Z</time>
      </trkpt>
      <trkpt lat="44.41563" lon="6.19197">
        <ele>929</ele>
        <time>2014-08-31T15:22:17.1Z</time>
      </trkpt>
      <trkpt lat="44.4157" lon="6.19199">
        <ele>929</ele>
        <time>2014-08-31T15:22:22.1Z</time>
      </trkpt>
      <trkpt lat="44.41578" lon="6.19193">
        <ele>927</ele>
        <time>2014-08-31T15:22:27.1Z</time>
      </trkpt>
      <trkpt lat="44.41586" lon="6.19184">
        <ele>927</ele>
        <time>2014-08-31T15:22:32.1Z</time>
      </trkpt>
      <trkpt lat="44.41598" lon="6.19171">
        <ele>925</ele>
        <time>2014-08-31T15:22:38.1Z</time>
      </trkpt>
      <trkpt lat="44.41608" lon="6.1915">
        <ele>923</ele>
        <time>2014-08-31T15:22:44.1Z</time>
      </trkpt>
      <trkpt lat="44.4162" lon="6.19136">
        <ele>922</ele>
        <time>2014-08-31T15:22:49.1Z</time>
      </trkpt>
      <trkpt lat="44.41636" lon="6.19124">
        <ele>920</ele>
        <time>2014-08-31T15:22:55.1Z</time>
      </trkpt>
      <trkpt lat="44.4165" lon="6.19118">
        <ele>919</ele>
        <time>2014-08-31T15:23:00.1Z</time>
      </trkpt>
      <trkpt lat="44.41668" lon="6.19123">
        <ele>917</ele>
        <time>2014-08-31T15:23:06.1Z</time>
      </trkpt>
      <trkpt lat="44.41689" lon="6.19127">
        <ele>916</ele>
        <time>2014-08-31T15:23:12.1Z</time>
      </trkpt>
      <trkpt lat="44.41703" lon="6.19134">
        <ele>914</ele>
        <time>2014-08-31T15:23:17.1Z</time>
      </trkpt>
      <trkpt lat="44.41717" lon="6.19142">
        <ele>912</ele>
        <time>2014-08-31T15:23:23.1Z</time>
      </trkpt>
      <trkpt lat="44.41732" lon="6.19152">
        <ele>911</ele>
        <time>2014-08-31T15:23:29.1Z</time>
      </trkpt>
      <trkpt lat="44.41746" lon="6.1916">
        <ele>909</ele>
        <time>2014-08-31T15:23:35.1Z</time>
      </trkpt>
      <trkpt lat="44.4176" lon="6.1917">
        <ele>908</ele>
        <time>2014-08-31T15:23:41.1Z</time>
      </trkpt>
      <trkpt lat="44.41768" lon="6.19181">
        <ele>907</ele>
        <time>2014-08-31T15:23:46.1Z</time>
      </trkpt>
      <trkpt lat="44.41771" lon="6.19184">
        <ele>906</ele>
        <time>2014-08-31T15:23:51.1Z</time>
      </trkpt>
      <trkpt lat="44.41772" lon="6.19184">
        <ele>906</ele>
        <time>2014-08-31T15:23:59.1Z</time>
      </trkpt>
      <trkpt lat="44.41772" lon="6.19184">
        <ele>906</ele>
        <time>2014-08-31T15:24:05.1Z</time>
      </trkpt>
      <trkpt lat="44.41772" lon="6.19183">
        <ele>906</ele>
        <time>2014-08-31T15:24:11.1Z</time>
      </trkpt>
      <trkpt lat="44.41775" lon="6.19185">
        <ele>905</ele>
        <time>2014-08-31T15:24:16.1Z</time>
      </trkpt>
      <trkpt lat="44.41779" lon="6.19192">
        <ele>905</ele>
        <time>2014-08-31T15:24:21.1Z</time>
      </trkpt>
      <trkpt lat="44.41785" lon="6.19195">
        <ele>903</ele>
        <time>2014-08-31T15:24:26.1Z</time>
      </trkpt>
      <trkpt lat="44.41796" lon="6.19197">
        <ele>900</ele>
        <time>2014-08-31T15:24:32.1Z</time>
      </trkpt>
      <trkpt lat="44.41809" lon="6.19199">
        <ele>897</ele>
        <time>2014-08-31T15:24:38.1Z</time>
      </trkpt>
      <trkpt lat="44.41822" lon="6.1921">
        <ele>895</ele>
        <time>2014-08-31T15:24:44.1Z</time>
      </trkpt>
      <trkpt lat="44.41831" lon="6.1922">
        <ele>893</ele>
        <time>2014-08-31T15:24:49.1Z</time>
      </trkpt>
      <trkpt lat="44.41842" lon="6.19231">
        <ele>891</ele>
        <time>2014-08-31T15:24:55.1Z</time>
      </trkpt>
      <trkpt lat="44.41852" lon="6.19236">
        <ele>888</ele>
        <time>2014-08-31T15:25:00.1Z</time>
      </trkpt>
      <trkpt lat="44.41859" lon="6.19247">
        <ele>886</ele>
        <time>2014-08-31T15:25:06.1Z</time>
      </trkpt>
      <trkpt lat="44.4186" lon="6.19258">
        <ele>884</ele>
        <time>2014-08-31T15:25:11.1Z</time>
      </trkpt>
      <trkpt lat="44.41862" lon="6.1927">
        <ele>883</ele>
        <time>2014-08-31T15:25:16.1Z</time>
      </trkpt>
      <trkpt lat="44.41867" lon="6.1928">
        <ele>881</ele>
        <time>2014-08-31T15:25:22.1Z</time>
      </trkpt>
      <trkpt lat="44.41872" lon="6.19293">
        <ele>878</ele>
        <time>2014-08-31T15:25:27.1Z</time>
      </trkpt>
      <trkpt lat="44.41877" lon="6.19306">
        <ele>877</ele>
        <time>2014-08-31T15:25:33.1Z</time>
      </trkpt>
      <trkpt lat="44.41878" lon="6.19315">
        <ele>874</ele>
        <time>2014-08-31T15:25:38.1Z</time>
      </trkpt>
      <trkpt lat="44.4188" lon="6.19326">
        <ele>872</ele>
        <time>2014-08-31T15:25:44.1Z</time>
      </trkpt>
      <trkpt lat="44.4188" lon="6.19335">
        <ele>869</ele>
        <time>2014-08-31T15:25:49.1Z</time>
      </trkpt>
      <trkpt lat="44.41878" lon="6.19341">
        <ele>868</ele>
        <time>2014-08-31T15:25:54.1Z</time>
      </trkpt>
      <trkpt lat="44.41879" lon="6.19344">
        <ele>868</ele>
        <time>2014-08-31T15:26:00.1Z</time>
      </trkpt>
      <trkpt lat="44.41879" lon="6.19346">
        <ele>867</ele>
        <time>2014-08-31T15:26:05.1Z</time>
      </trkpt>
      <trkpt lat="44.4188" lon="6.19348">
        <ele>867</ele>
        <time>2014-08-31T15:26:10.1Z</time>
      </trkpt>
      <trkpt lat="44.4188" lon="6.19355">
        <ele>868</ele>
        <time>2014-08-31T15:26:16.1Z</time>
      </trkpt>
      <trkpt lat="44.41884" lon="6.19365">
        <ele>867</ele>
        <time>2014-08-31T15:26:21.1Z</time>
      </trkpt>
      <trkpt lat="44.4189" lon="6.19374">
        <ele>866</ele>
        <time>2014-08-31T15:26:27.1Z</time>
      </trkpt>
      <trkpt lat="44.41892" lon="6.19387">
        <ele>865</ele>
        <time>2014-08-31T15:26:33.1Z</time>
      </trkpt>
      <trkpt lat="44.41893" lon="6.19391">
        <ele>864</ele>
        <time>2014-08-31T15:26:38.1Z</time>
      </trkpt>
      <trkpt lat="44.41894" lon="6.19396">
        <ele>864</ele>
        <time>2014-08-31T15:26:43.1Z</time>
      </trkpt>
      <trkpt lat="44.41896" lon="6.19398">
        <ele>864</ele>
        <time>2014-08-31T15:26:49.1Z</time>
      </trkpt>
      <trkpt lat="44.41895" lon="6.19399">
        <ele>865</ele>
        <time>2014-08-31T15:26:55.1Z</time>
      </trkpt>
      <trkpt lat="44.41896" lon="6.19402">
        <ele>865</ele>
        <time>2014-08-31T15:27:00.1Z</time>
      </trkpt>
      <trkpt lat="44.41895" lon="6.19406">
        <ele>865</ele>
        <time>2014-08-31T15:27:05.1Z</time>
      </trkpt>
      <trkpt lat="44.41895" lon="6.19411">
        <ele>865</ele>
        <time>2014-08-31T15:27:11.1Z</time>
      </trkpt>
      <trkpt lat="44.41892" lon="6.19416">
        <ele>865</ele>
        <time>2014-08-31T15:27:17.1Z</time>
      </trkpt>
      <trkpt lat="44.41889" lon="6.19421">
        <ele>864</ele>
        <time>2014-08-31T15:27:22.1Z</time>
      </trkpt>
      <trkpt lat="44.41888" lon="6.19426">
        <ele>864</ele>
        <time>2014-08-31T15:27:27.1Z</time>
      </trkpt>
      <trkpt lat="44.41888" lon="6.19431">
        <ele>863</ele>
        <time>2014-08-31T15:27:32.1Z</time>
      </trkpt>
      <trkpt lat="44.41888" lon="6.19436">
        <ele>863</ele>
        <time>2014-08-31T15:27:38.1Z</time>
      </trkpt>
      <trkpt lat="44.4189" lon="6.19443">
        <ele>864</ele>
        <time>2014-08-31T15:27:44.1Z</time>
      </trkpt>
      <trkpt lat="44.41892" lon="6.1945">
        <ele>864</ele>
        <time>2014-08-31T15:27:50.1Z</time>
      </trkpt>
      <trkpt lat="44.41894" lon="6.19452">
        <ele>865</ele>
        <time>2014-08-31T15:27:57.1Z</time>
      </trkpt>
      <trkpt lat="44.41892" lon="6.19454">
        <ele>866</ele>
        <time>2014-08-31T15:28:03.1Z</time>
      </trkpt>
      <trkpt lat="44.41893" lon="6.19455">
        <ele>866</ele>
        <time>2014-08-31T15:28:08.1Z</time>
      </trkpt>
      <trkpt lat="44.41895" lon="6.19454">
        <ele>865</ele>
        <time>2014-08-31T15:28:14.1Z</time>
      </trkpt>
      <trkpt lat="44.41897" lon="6.19452">
        <ele>865</ele>
        <time>2014-08-31T15:28:19.1Z</time>
      </trkpt>
      <trkpt lat="44.41897" lon="6.19452">
        <ele>865</ele>
        <time>2014-08-31T15:28:25.1Z</time>
      </trkpt>
      <trkpt lat="44.41899" lon="6.1945">
        <ele>865</ele>
        <time>2014-08-31T15:28:30.1Z</time>
      </trkpt>
      <trkpt lat="44.419" lon="6.19449">
        <ele>865</ele>
        <time>2014-08-31T15:28:36.1Z</time>
      </trkpt>
      <trkpt lat="44.41901" lon="6.19449">
        <ele>865</ele>
        <time>2014-08-31T15:28:41.1Z</time>
      </trkpt>
      <trkpt lat="44.41901" lon="6.19448">
        <ele>865</ele>
        <time>2014-08-31T15:28:47.1Z</time>
      </trkpt>
      <trkpt lat="44.419" lon="6.19447">
        <ele>865</ele>
        <time>2014-08-31T15:28:53.1Z</time>
      </trkpt>
      <trkpt lat="44.41903" lon="6.19441">
        <ele>865</ele>
        <time>2014-08-31T15:28:58.1Z</time>
      </trkpt>
      <trkpt lat="44.41909" lon="6.19434">
        <ele>865</ele>
        <time>2014-08-31T15:29:04.1Z</time>
      </trkpt>
      <trkpt lat="44.41917" lon="6.1943">
        <ele>866</ele>
        <time>2014-08-31T15:29:09.1Z</time>
      </trkpt>
      <trkpt lat="44.41924" lon="6.1943">
        <ele>866</ele>
        <time>2014-08-31T15:29:14.1Z</time>
      </trkpt>
      <trkpt lat="44.41932" lon="6.19433">
        <ele>866</ele>
        <time>2014-08-31T15:29:20.1Z</time>
      </trkpt>
      <trkpt lat="44.41939" lon="6.19437">
        <ele>867</ele>
        <time>2014-08-31T15:29:26.1Z</time>
      </trkpt>
      <trkpt lat="44.41947" lon="6.19439">
        <ele>868</ele>
        <time>2014-08-31T15:29:32.1Z</time>
      </trkpt>
      <trkpt lat="44.41953" lon="6.19441">
        <ele>869</ele>
        <time>2014-08-31T15:29:37.1Z</time>
      </trkpt>
      <trkpt lat="44.41959" lon="6.19442">
        <ele>869</ele>
        <time>2014-08-31T15:29:42.1Z</time>
      </trkpt>
      <trkpt lat="44.41967" lon="6.19443">
        <ele>870</ele>
        <time>2014-08-31T15:29:48.1Z</time>
      </trkpt>
      <trkpt lat="44.41974" lon="6.19443">
        <ele>871</ele>
        <time>2014-08-31T15:29:53.1Z</time>
      </trkpt>
      <trkpt lat="44.41981" lon="6.19444">
        <ele>871</ele>
        <time>2014-08-31T15:29:58.1Z</time>
      </trkpt>
      <trkpt lat="44.41988" lon="6.19444">
        <ele>872</ele>
        <time>2014-08-31T15:30:03.1Z</time>
      </trkpt>
      <trkpt lat="44.41997" lon="6.19444">
        <ele>873</ele>
        <time>2014-08-31T15:30:09.1Z</time>
      </trkpt>
      <trkpt lat="44.42006" lon="6.19447">
        <ele>873</ele>
        <time>2014-08-31T15:30:15.1Z</time>
      </trkpt>
      <trkpt lat="44.42016" lon="6.19452">
        <ele>873</ele>
        <time>2014-08-31T15:30:21.1Z</time>
      </trkpt>
      <trkpt lat="44.42025" lon="6.19456">
        <ele>872</ele>
        <time>2014-08-31T15:30:26.1Z</time>
      </trkpt>
      <trkpt lat="44.42035" lon="6.19464">
        <ele>873</ele>
        <time>2014-08-31T15:30:32.1Z</time>
      </trkpt>
      <trkpt lat="44.42044" lon="6.19475">
        <ele>872</ele>
        <time>2014-08-31T15:30:38.1Z</time>
      </trkpt>
      <trkpt lat="44.42053" lon="6.19486">
        <ele>873</ele>
        <time>2014-08-31T15:30:44.1Z</time>
      </trkpt>
      <trkpt lat="44.4206" lon="6.19499">
        <ele>873</ele>
        <time>2014-08-31T15:30:50.1Z</time>
      </trkpt>
      <trkpt lat="44.42065" lon="6.19511">
        <ele>873</ele>
        <time>2014-08-31T15:30:55.1Z</time>
      </trkpt>
      <trkpt lat="44.42068" lon="6.19522">
        <ele>873</ele>
        <time>2014-08-31T15:31:00.1Z</time>
      </trkpt>
      <trkpt lat="44.42072" lon="6.19535">
        <ele>874</ele>
        <time>2014-08-31T15:31:06.1Z</time>
      </trkpt>
      <trkpt lat="44.42075" lon="6.19547">
        <ele>874</ele>
        <time>2014-08-31T15:31:12.1Z</time>
      </trkpt>
      <trkpt lat="44.42078" lon="6.19558">
        <ele>874</ele>
        <time>2014-08-31T15:31:18.1Z</time>
      </trkpt>
      <trkpt lat="44.42083" lon="6.19567">
        <ele>875</ele>
        <time>2014-08-31T15:31:24.1Z</time>
      </trkpt>
      <trkpt lat="44.4209" lon="6.19576">
        <ele>875</ele>
        <time>2014-08-31T15:31:30.1Z</time>
      </trkpt>
      <trkpt lat="44.42097" lon="6.19584">
        <ele>875</ele>
        <time>2014-08-31T15:31:36.1Z</time>
      </trkpt>
      <trkpt lat="44.42104" lon="6.1959">
        <ele>875</ele>
        <time>2014-08-31T15:31:42.1Z</time>
      </trkpt>
      <trkpt lat="44.42109" lon="6.19593">
        <ele>875</ele>
        <time>2014-08-31T15:31:47.1Z</time>
      </trkpt>
      <trkpt lat="44.42113" lon="6.19596">
        <ele>876</ele>
        <time>2014-08-31T15:31:52.1Z</time>
      </trkpt>
      <trkpt lat="44.4212" lon="6.19603">
        <ele>876</ele>
        <time>2014-08-31T15:31:58.1Z</time>
      </trkpt>
      <trkpt lat="44.4212" lon="6.19603">
        <ele>876</ele>
        <time>2014-08-31T15:32:05.1Z</time>
      </trkpt>
      <trkpt lat="44.4212" lon="6.19603">
        <ele>876</ele>
        <time>2014-08-31T15:32:11.1Z</time>
      </trkpt>
      <trkpt lat="44.42121" lon="6.19603">
        <ele>875</ele>
        <time>2014-08-31T15:32:17.1Z</time>
      </trkpt>
      <trkpt lat="44.42132" lon="6.19612">
        <ele>875</ele>
        <time>2014-08-31T15:32:23.1Z</time>
      </trkpt>
      <trkpt lat="44.42147" lon="6.19623">
        <ele>875</ele>
        <time>2014-08-31T15:32:29.1Z</time>
      </trkpt>
      <trkpt lat="44.42163" lon="6.19628">
        <ele>875</ele>
        <time>2014-08-31T15:32:34.1Z</time>
      </trkpt>
      <trkpt lat="44.42179" lon="6.19627">
        <ele>875</ele>
        <time>2014-08-31T15:32:40.1Z</time>
      </trkpt>
      <trkpt lat="44.42184" lon="6.19628">
        <ele>875</ele>
        <time>2014-08-31T15:32:46.1Z</time>
      </trkpt>
      <trkpt lat="44.42185" lon="6.19628">
        <ele>875</ele>
        <time>2014-08-31T15:32:51.1Z</time>
      </trkpt>
      <trkpt lat="44.42191" lon="6.19628">
        <ele>875</ele>
        <time>2014-08-31T15:32:56.1Z</time>
      </trkpt>
      <trkpt lat="44.42203" lon="6.19631">
        <ele>874</ele>
        <time>2014-08-31T15:33:01.1Z</time>
      </trkpt>
      <trkpt lat="44.42218" lon="6.19643">
        <ele>874</ele>
        <time>2014-08-31T15:33:07.1Z</time>
      </trkpt>
      <trkpt lat="44.42229" lon="6.19656">
        <ele>874</ele>
        <time>2014-08-31T15:33:12.1Z</time>
      </trkpt>
      <trkpt lat="44.42241" lon="6.19673">
        <ele>875</ele>
        <time>2014-08-31T15:33:18.1Z</time>
      </trkpt>
      <trkpt lat="44.42252" lon="6.19686">
        <ele>876</ele>
        <time>2014-08-31T15:33:24.1Z</time>
      </trkpt>
      <trkpt lat="44.42265" lon="6.19694">
        <ele>875</ele>
        <time>2014-08-31T15:33:29.1Z</time>
      </trkpt>
      <trkpt lat="44.42281" lon="6.19689">
        <ele>875</ele>
        <time>2014-08-31T15:33:34.1Z</time>
      </trkpt>
      <trkpt lat="44.42289" lon="6.19664">
        <ele>875</ele>
        <time>2014-08-31T15:33:40.1Z</time>
      </trkpt>
      <trkpt lat="44.42295" lon="6.19652">
        <ele>876</ele>
        <time>2014-08-31T15:33:45.1Z</time>
      </trkpt>
      <trkpt lat="44.42305" lon="6.19643">
        <ele>877</ele>
        <time>2014-08-31T15:33:50.1Z</time>
      </trkpt>
      <trkpt lat="44.42312" lon="6.19645">
        <ele>879</ele>
        <time>2014-08-31T15:33:55.1Z</time>
      </trkpt>
      <trkpt lat="44.42315" lon="6.19656">
        <ele>879</ele>
        <time>2014-08-31T15:34:01.1Z</time>
      </trkpt>
      <trkpt lat="44.4232" lon="6.19666">
        <ele>880</ele>
        <time>2014-08-31T15:34:07.1Z</time>
      </trkpt>
      <trkpt lat="44.42326" lon="6.19678">
        <ele>881</ele>
        <time>2014-08-31T15:34:13.1Z</time>
      </trkpt>
      <trkpt lat="44.4233" lon="6.1969">
        <ele>881</ele>
        <time>2014-08-31T15:34:19.1Z</time>
      </trkpt>
      <trkpt lat="44.42335" lon="6.19703">
        <ele>881</ele>
        <time>2014-08-31T15:34:25.1Z</time>
      </trkpt>
      <trkpt lat="44.42341" lon="6.19715">
        <ele>882</ele>
        <time>2014-08-31T15:34:31.1Z</time>
      </trkpt>
      <trkpt lat="44.42348" lon="6.1973">
        <ele>882</ele>
        <time>2014-08-31T15:34:37.1Z</time>
      </trkpt>
      <trkpt lat="44.42355" lon="6.19743">
        <ele>882</ele>
        <time>2014-08-31T15:34:42.1Z</time>
      </trkpt>
      <trkpt lat="44.42365" lon="6.19759">
        <ele>883</ele>
        <time>2014-08-31T15:34:48.1Z</time>
      </trkpt>
      <trkpt lat="44.42377" lon="6.19773">
        <ele>883</ele>
        <time>2014-08-31T15:34:54.1Z</time>
      </trkpt>
      <trkpt lat="44.42387" lon="6.19786">
        <ele>883</ele>
        <time>2014-08-31T15:34:59.1Z</time>
      </trkpt>
      <trkpt lat="44.42398" lon="6.19799">
        <ele>883</ele>
        <time>2014-08-31T15:35:05.1Z</time>
      </trkpt>
      <trkpt lat="44.42406" lon="6.19809">
        <ele>884</ele>
        <time>2014-08-31T15:35:10.1Z</time>
      </trkpt>
      <trkpt lat="44.42415" lon="6.19818">
        <ele>884</ele>
        <time>2014-08-31T15:35:15.1Z</time>
      </trkpt>
      <trkpt lat="44.42426" lon="6.19825">
        <ele>884</ele>
        <time>2014-08-31T15:35:20.1Z</time>
      </trkpt>
      <trkpt lat="44.42437" lon="6.19826">
        <ele>884</ele>
        <time>2014-08-31T15:35:26.1Z</time>
      </trkpt>
      <trkpt lat="44.42443" lon="6.19834">
        <ele>885</ele>
        <time>2014-08-31T15:35:31.1Z</time>
      </trkpt>
      <trkpt lat="44.4244" lon="6.19841">
        <ele>885</ele>
        <time>2014-08-31T15:35:36.1Z</time>
      </trkpt>
      <trkpt lat="44.42436" lon="6.19832">
        <ele>885</ele>
        <time>2014-08-31T15:35:42.1Z</time>
      </trkpt>
      <trkpt lat="44.42446" lon="6.19822">
        <ele>885</ele>
        <time>2014-08-31T15:35:48.1Z</time>
      </trkpt>
      <trkpt lat="44.42455" lon="6.19817">
        <ele>885</ele>
        <time>2014-08-31T15:35:54.1Z</time>
      </trkpt>
      <trkpt lat="44.42464" lon="6.19807">
        <ele>886</ele>
        <time>2014-08-31T15:36:00.1Z</time>
      </trkpt>
      <trkpt lat="44.42472" lon="6.19795">
        <ele>887</ele>
        <time>2014-08-31T15:36:06.1Z</time>
      </trkpt>
      <trkpt lat="44.42479" lon="6.19785">
        <ele>887</ele>
        <time>2014-08-31T15:36:11.1Z</time>
      </trkpt>
      <trkpt lat="44.42487" lon="6.19774">
        <ele>888</ele>
        <time>2014-08-31T15:36:17.1Z</time>
      </trkpt>
      <trkpt lat="44.42493" lon="6.19766">
        <ele>888</ele>
        <time>2014-08-31T15:36:22.1Z</time>
      </trkpt>
      <trkpt lat="44.425" lon="6.19757">
        <ele>889</ele>
        <time>2014-08-31T15:36:28.1Z</time>
      </trkpt>
      <trkpt lat="44.42507" lon="6.19749">
        <ele>889</ele>
        <time>2014-08-31T15:36:33.1Z</time>
      </trkpt>
      <trkpt lat="44.42516" lon="6.19738">
        <ele>889</ele>
        <time>2014-08-31T15:36:39.1Z</time>
      </trkpt>
      <trkpt lat="44.42524" lon="6.1973">
        <ele>890</ele>
        <time>2014-08-31T15:36:44.1Z</time>
      </trkpt>
      <trkpt lat="44.42534" lon="6.19722">
        <ele>890</ele>
        <time>2014-08-31T15:36:49.1Z</time>
      </trkpt>
      <trkpt lat="44.42544" lon="6.19714">
        <ele>891</ele>
        <time>2014-08-31T15:36:54.1Z</time>
      </trkpt>
      <trkpt lat="44.42555" lon="6.19706">
        <ele>891</ele>
        <time>2014-08-31T15:36:59.1Z</time>
      </trkpt>
      <trkpt lat="44.42569" lon="6.197">
        <ele>892</ele>
        <time>2014-08-31T15:37:05.1Z</time>
      </trkpt>
      <trkpt lat="44.4258" lon="6.19695">
        <ele>892</ele>
        <time>2014-08-31T15:37:10.1Z</time>
      </trkpt>
      <trkpt lat="44.42594" lon="6.19688">
        <ele>893</ele>
        <time>2014-08-31T15:37:16.1Z</time>
      </trkpt>
      <trkpt lat="44.42606" lon="6.19681">
        <ele>893</ele>
        <time>2014-08-31T15:37:22.1Z</time>
      </trkpt>
      <trkpt lat="44.42617" lon="6.19675">
        <ele>893</ele>
        <time>2014-08-31T15:37:27.1Z</time>
      </trkpt>
      <trkpt lat="44.4263" lon="6.1967">
        <ele>893</ele>
        <time>2014-08-31T15:37:33.1Z</time>
      </trkpt>
      <trkpt lat="44.42641" lon="6.19667">
        <ele>894</ele>
        <time>2014-08-31T15:37:38.1Z</time>
      </trkpt>
      <trkpt lat="44.42652" lon="6.19665">
        <ele>894</ele>
        <time>2014-08-31T15:37:43.1Z</time>
      </trkpt>
      <trkpt lat="44.42662" lon="6.19665">
        <ele>894</ele>
        <time>2014-08-31T15:37:48.1Z</time>
      </trkpt>
      <trkpt lat="44.42674" lon="6.19668">
        <ele>895</ele>
        <time>2014-08-31T15:37:54.1Z</time>
      </trkpt>
      <trkpt lat="44.42683" lon="6.1967">
        <ele>896</ele>
        <time>2014-08-31T15:37:59.1Z</time>
      </trkpt>
      <trkpt lat="44.42692" lon="6.19674">
        <ele>897</ele>
        <time>2014-08-31T15:38:04.1Z</time>
      </trkpt>
      <trkpt lat="44.42701" lon="6.19679">
        <ele>897</ele>
        <time>2014-08-31T15:38:09.1Z</time>
      </trkpt>
      <trkpt lat="44.42709" lon="6.19684">
        <ele>897</ele>
        <time>2014-08-31T15:38:15.1Z</time>
      </trkpt>
      <trkpt lat="44.42717" lon="6.19689">
        <ele>898</ele>
        <time>2014-08-31T15:38:20.1Z</time>
      </trkpt>
      <trkpt lat="44.42725" lon="6.19695">
        <ele>899</ele>
        <time>2014-08-31T15:38:26.1Z</time>
      </trkpt>
      <trkpt lat="44.42733" lon="6.19702">
        <ele>899</ele>
        <time>2014-08-31T15:38:32.1Z</time>
      </trkpt>
      <trkpt lat="44.42739" lon="6.19709">
        <ele>900</ele>
        <time>2014-08-31T15:38:37.1Z</time>
      </trkpt>
      <trkpt lat="44.42746" lon="6.19715">
        <ele>901</ele>
        <time>2014-08-31T15:38:42.1Z</time>
      </trkpt>
      <trkpt lat="44.42754" lon="6.19723">
        <ele>901</ele>
        <time>2014-08-31T15:38:48.1Z</time>
      </trkpt>
      <trkpt lat="44.42761" lon="6.19733">
        <ele>901</ele>
        <time>2014-08-31T15:38:54.1Z</time>
      </trkpt>
      <trkpt lat="44.42768" lon="6.19738">
        <ele>902</ele>
        <time>2014-08-31T15:38:59.1Z</time>
      </trkpt>
      <trkpt lat="44.42776" lon="6.19745">
        <ele>904</ele>
        <time>2014-08-31T15:39:05.1Z</time>
      </trkpt>
      <trkpt lat="44.42783" lon="6.19752">
        <ele>904</ele>
        <time>2014-08-31T15:39:10.1Z</time>
      </trkpt>
      <trkpt lat="44.42791" lon="6.1976">
        <ele>905</ele>
        <time>2014-08-31T15:39:16.1Z</time>
      </trkpt>
      <trkpt lat="44.42798" lon="6.19767">
        <ele>906</ele>
        <time>2014-08-31T15:39:21.1Z</time>
      </trkpt>
      <trkpt lat="44.42805" lon="6.19774">
        <ele>906</ele>
        <time>2014-08-31T15:39:26.1Z</time>
      </trkpt>
      <trkpt lat="44.42815" lon="6.19781">
        <ele>906</ele>
        <time>2014-08-31T15:39:32.1Z</time>
      </trkpt>
      <trkpt lat="44.42822" lon="6.19786">
        <ele>907</ele>
        <time>2014-08-31T15:39:37.1Z</time>
      </trkpt>
      <trkpt lat="44.42829" lon="6.19795">
        <ele>906</ele>
        <time>2014-08-31T15:39:42.1Z</time>
      </trkpt>
      <trkpt lat="44.42836" lon="6.19802">
        <ele>906</ele>
        <time>2014-08-31T15:39:47.1Z</time>
      </trkpt>
      <trkpt lat="44.42845" lon="6.19813">
        <ele>905</ele>
        <time>2014-08-31T15:39:52.1Z</time>
      </trkpt>
      <trkpt lat="44.42857" lon="6.19826">
        <ele>904</ele>
        <time>2014-08-31T15:39:58.1Z</time>
      </trkpt>
      <trkpt lat="44.42866" lon="6.19842">
        <ele>904</ele>
        <time>2014-08-31T15:40:04.1Z</time>
      </trkpt>
      <trkpt lat="44.42875" lon="6.19852">
        <ele>904</ele>
        <time>2014-08-31T15:40:09.1Z</time>
      </trkpt>
      <trkpt lat="44.42883" lon="6.19863">
        <ele>903</ele>
        <time>2014-08-31T15:40:14.1Z</time>
      </trkpt>
      <trkpt lat="44.42893" lon="6.19876">
        <ele>903</ele>
        <time>2014-08-31T15:40:20.1Z</time>
      </trkpt>
      <trkpt lat="44.42902" lon="6.19887">
        <ele>904</ele>
        <time>2014-08-31T15:40:26.1Z</time>
      </trkpt>
      <trkpt lat="44.4291" lon="6.19901">
        <ele>903</ele>
        <time>2014-08-31T15:40:31.1Z</time>
      </trkpt>
      <trkpt lat="44.42927" lon="6.19922">
        <ele>903</ele>
        <time>2014-08-31T15:40:37.1Z</time>
      </trkpt>
      <trkpt lat="44.4295" lon="6.19947">
        <ele>903</ele>
        <time>2014-08-31T15:40:43.1Z</time>
      </trkpt>
      <trkpt lat="44.42974" lon="6.1997">
        <ele>901</ele>
        <time>2014-08-31T15:40:49.1Z</time>
      </trkpt>
      <trkpt lat="44.42996" lon="6.19985">
        <ele>901</ele>
        <time>2014-08-31T15:40:54.1Z</time>
      </trkpt>
      <trkpt lat="44.43018" lon="6.20002">
        <ele>900</ele>
        <time>2014-08-31T15:40:59.1Z</time>
      </trkpt>
      <trkpt lat="44.43042" lon="6.20018">
        <ele>899</ele>
        <time>2014-08-31T15:41:04.1Z</time>
      </trkpt>
      <trkpt lat="44.43068" lon="6.20039">
        <ele>897</ele>
        <time>2014-08-31T15:41:10.1Z</time>
      </trkpt>
      <trkpt lat="44.43093" lon="6.20066">
        <ele>894</ele>
        <time>2014-08-31T15:41:15.1Z</time>
      </trkpt>
      <trkpt lat="44.43127" lon="6.20106">
        <ele>892</ele>
        <time>2014-08-31T15:41:21.1Z</time>
      </trkpt>
      <trkpt lat="44.43163" lon="6.20121">
        <ele>890</ele>
        <time>2014-08-31T15:41:26.1Z</time>
      </trkpt>
      <trkpt lat="44.43201" lon="6.20123">
        <ele>888</ele>
        <time>2014-08-31T15:41:31.1Z</time>
      </trkpt>
      <trkpt lat="44.43247" lon="6.20125">
        <ele>886</ele>
        <time>2014-08-31T15:41:37.1Z</time>
      </trkpt>
      <trkpt lat="44.43284" lon="6.20129">
        <ele>886</ele>
        <time>2014-08-31T15:41:42.1Z</time>
      </trkpt>
      <trkpt lat="44.43328" lon="6.20145">
        <ele>883</ele>
        <time>2014-08-31T15:41:48.1Z</time>
      </trkpt>
      <trkpt lat="44.43372" lon="6.20174">
        <ele>880</ele>
        <time>2014-08-31T15:41:54.1Z</time>
      </trkpt>
      <trkpt lat="44.4342" lon="6.2021">
        <ele>876</ele>
        <time>2014-08-31T15:42:00.1Z</time>
      </trkpt>
      <trkpt lat="44.43458" lon="6.20246">
        <ele>874</ele>
        <time>2014-08-31T15:42:05.1Z</time>
      </trkpt>
      <trkpt lat="44.4351" lon="6.20255">
        <ele>871</ele>
        <time>2014-08-31T15:42:11.1Z</time>
      </trkpt>
      <trkpt lat="44.43545" lon="6.2021">
        <ele>867</ele>
        <time>2014-08-31T15:42:16.1Z</time>
      </trkpt>
      <trkpt lat="44.43586" lon="6.20242">
        <ele>862</ele>
        <time>2014-08-31T15:42:21.1Z</time>
      </trkpt>
      <trkpt lat="44.43631" lon="6.20306">
        <ele>858</ele>
        <time>2014-08-31T15:42:27.1Z</time>
      </trkpt>
      <trkpt lat="44.43683" lon="6.20336">
        <ele>853</ele>
        <time>2014-08-31T15:42:32.1Z</time>
      </trkpt>
      <trkpt lat="44.43722" lon="6.20379">
        <ele>847</ele>
        <time>2014-08-31T15:42:38.1Z</time>
      </trkpt>
      <trkpt lat="44.43776" lon="6.20374">
        <ele>844</ele>
        <time>2014-08-31T15:42:44.1Z</time>
      </trkpt>
      <trkpt lat="44.43814" lon="6.20344">
        <ele>839</ele>
        <time>2014-08-31T15:42:49.1Z</time>
      </trkpt>
      <trkpt lat="44.43858" lon="6.20378">
        <ele>836</ele>
        <time>2014-08-31T15:42:55.1Z</time>
      </trkpt>
      <trkpt lat="44.43898" lon="6.20348">
        <ele>833</ele>
        <time>2014-08-31T15:43:00.1Z</time>
      </trkpt>
      <trkpt lat="44.43955" lon="6.20373">
        <ele>830</ele>
        <time>2014-08-31T15:43:06.1Z</time>
      </trkpt>
      <trkpt lat="44.4401" lon="6.20391">
        <ele>825</ele>
        <time>2014-08-31T15:43:11.1Z</time>
      </trkpt>
      <trkpt lat="44.44069" lon="6.20399">
        <ele>819</ele>
        <time>2014-08-31T15:43:16.1Z</time>
      </trkpt>
      <trkpt lat="44.44112" lon="6.20412">
        <ele>816</ele>
        <time>2014-08-31T15:43:22.1Z</time>
      </trkpt>
      <trkpt lat="44.44125" lon="6.20407">
        <ele>814</ele>
        <time>2014-08-31T15:43:27.1Z</time>
      </trkpt>
      <trkpt lat="44.44151" lon="6.20399">
        <ele>812</ele>
        <time>2014-08-31T15:43:33.1Z</time>
      </trkpt>
      <trkpt lat="44.44177" lon="6.20372">
        <ele>810</ele>
        <time>2014-08-31T15:43:39.1Z</time>
      </trkpt>
      <trkpt lat="44.44185" lon="6.2037">
        <ele>809</ele>
        <time>2014-08-31T15:43:44.1Z</time>
      </trkpt>
      <trkpt lat="44.44188" lon="6.2037">
        <ele>809</ele>
        <time>2014-08-31T15:43:50.1Z</time>
      </trkpt>
      <trkpt lat="44.44202" lon="6.20374">
        <ele>808</ele>
        <time>2014-08-31T15:43:55.1Z</time>
      </trkpt>
      <trkpt lat="44.44225" lon="6.20381">
        <ele>808</ele>
        <time>2014-08-31T15:44:00.1Z</time>
      </trkpt>
      <trkpt lat="44.44253" lon="6.20374">
        <ele>806</ele>
        <time>2014-08-31T15:44:05.1Z</time>
      </trkpt>
      <trkpt lat="44.44283" lon="6.20335">
        <ele>805</ele>
        <time>2014-08-31T15:44:11.1Z</time>
      </trkpt>
      <trkpt lat="44.44323" lon="6.20317">
        <ele>803</ele>
        <time>2014-08-31T15:44:17.1Z</time>
      </trkpt>
      <trkpt lat="44.44364" lon="6.203">
        <ele>802</ele>
        <time>2014-08-31T15:44:23.1Z</time>
      </trkpt>
      <trkpt lat="44.44407" lon="6.20303">
        <ele>798</ele>
        <time>2014-08-31T15:44:28.1Z</time>
      </trkpt>
      <trkpt lat="44.44461" lon="6.20264">
        <ele>794</ele>
        <time>2014-08-31T15:44:34.1Z</time>
      </trkpt>
      <trkpt lat="44.44517" lon="6.20246">
        <ele>789</ele>
        <time>2014-08-31T15:44:39.1Z</time>
      </trkpt>
      <trkpt lat="44.44591" lon="6.20234">
        <ele>782</ele>
        <time>2014-08-31T15:44:45.1Z</time>
      </trkpt>
      <trkpt lat="44.44669" lon="6.20218">
        <ele>776</ele>
        <time>2014-08-31T15:44:51.1Z</time>
      </trkpt>
      <trkpt lat="44.44743" lon="6.20213">
        <ele>769</ele>
        <time>2014-08-31T15:44:57.1Z</time>
      </trkpt>
      <trkpt lat="44.44814" lon="6.20198">
        <ele>764</ele>
        <time>2014-08-31T15:45:03.1Z</time>
      </trkpt>
      <trkpt lat="44.44882" lon="6.20178">
        <ele>759</ele>
        <time>2014-08-31T15:45:09.1Z</time>
      </trkpt>
      <trkpt lat="44.44934" lon="6.20161">
        <ele>757</ele>
        <time>2014-08-31T15:45:14.1Z</time>
      </trkpt>
      <trkpt lat="44.44995" lon="6.20144">
        <ele>754</ele>
        <time>2014-08-31T15:45:20.1Z</time>
      </trkpt>
      <trkpt lat="44.45056" lon="6.20124">
        <ele>751</ele>
        <time>2014-08-31T15:45:26.1Z</time>
      </trkpt>
      <trkpt lat="44.45115" lon="6.20101">
        <ele>746</ele>
        <time>2014-08-31T15:45:32.1Z</time>
      </trkpt>
      <trkpt lat="44.45167" lon="6.20072">
        <ele>745</ele>
        <time>2014-08-31T15:45:38.1Z</time>
      </trkpt>
      <trkpt lat="44.45206" lon="6.20047">
        <ele>744</ele>
        <time>2014-08-31T15:45:43.1Z</time>
      </trkpt>
      <trkpt lat="44.4524" lon="6.20025">
        <ele>744</ele>
        <time>2014-08-31T15:45:49.1Z</time>
      </trkpt>
      <trkpt lat="44.45269" lon="6.19996">
        <ele>743</ele>
        <time>2014-08-31T15:45:55.1Z</time>
      </trkpt>
      <trkpt lat="44.45298" lon="6.19953">
        <ele>740</ele>
        <time>2014-08-31T15:46:01.1Z</time>
      </trkpt>
      <trkpt lat="44.45322" lon="6.19922">
        <ele>739</ele>
        <time>2014-08-31T15:46:07.1Z</time>
      </trkpt>
      <trkpt lat="44.45343" lon="6.19895">
        <ele>737</ele>
        <time>2014-08-31T15:46:12.1Z</time>
      </trkpt>
      <trkpt lat="44.45375" lon="6.19859">
        <ele>734</ele>
        <time>2014-08-31T15:46:18.1Z</time>
      </trkpt>
      <trkpt lat="44.45417" lon="6.19831">
        <ele>730</ele>
        <time>2014-08-31T15:46:24.1Z</time>
      </trkpt>
      <trkpt lat="44.45453" lon="6.19815">
        <ele>729</ele>
        <time>2014-08-31T15:46:29.1Z</time>
      </trkpt>
      <trkpt lat="44.45495" lon="6.198">
        <ele>728</ele>
        <time>2014-08-31T15:46:35.1Z</time>
      </trkpt>
      <trkpt lat="44.45527" lon="6.19789">
        <ele>727</ele>
        <time>2014-08-31T15:46:40.1Z</time>
      </trkpt>
      <trkpt lat="44.45564" lon="6.19782">
        <ele>727</ele>
        <time>2014-08-31T15:46:46.1Z</time>
      </trkpt>
      <trkpt lat="44.45598" lon="6.19786">
        <ele>726</ele>
        <time>2014-08-31T15:46:52.1Z</time>
      </trkpt>
      <trkpt lat="44.4561" lon="6.19827">
        <ele>726</ele>
        <time>2014-08-31T15:46:58.1Z</time>
      </trkpt>
      <trkpt lat="44.45615" lon="6.19873">
        <ele>727</ele>
        <time>2014-08-31T15:47:04.1Z</time>
      </trkpt>
      <trkpt lat="44.4562" lon="6.19921">
        <ele>726</ele>
        <time>2014-08-31T15:47:10.1Z</time>
      </trkpt>
      <trkpt lat="44.45626" lon="6.19963">
        <ele>725</ele>
        <time>2014-08-31T15:47:15.1Z</time>
      </trkpt>
      <trkpt lat="44.45638" lon="6.20003">
        <ele>725</ele>
        <time>2014-08-31T15:47:20.1Z</time>
      </trkpt>
      <trkpt lat="44.4565" lon="6.20043">
        <ele>724</ele>
        <time>2014-08-31T15:47:25.1Z</time>
      </trkpt>
      <trkpt lat="44.45659" lon="6.20083">
        <ele>723</ele>
        <time>2014-08-31T15:47:30.1Z</time>
      </trkpt>
      <trkpt lat="44.45669" lon="6.20125">
        <ele>723</ele>
        <time>2014-08-31T15:47:36.1Z</time>
      </trkpt>
      <trkpt lat="44.45679" lon="6.20167">
        <ele>723</ele>
        <time>2014-08-31T15:47:42.1Z</time>
      </trkpt>
      <trkpt lat="44.45687" lon="6.20202">
        <ele>724</ele>
        <time>2014-08-31T15:47:47.1Z</time>
      </trkpt>
      <trkpt lat="44.45696" lon="6.20239">
        <ele>724</ele>
        <time>2014-08-31T15:47:53.1Z</time>
      </trkpt>
      <trkpt lat="44.45703" lon="6.2027">
        <ele>724</ele>
        <time>2014-08-31T15:47:58.1Z</time>
      </trkpt>
      <trkpt lat="44.45712" lon="6.20308">
        <ele>724</ele>
        <time>2014-08-31T15:48:04.1Z</time>
      </trkpt>
      <trkpt lat="44.4572" lon="6.20341">
        <ele>724</ele>
        <time>2014-08-31T15:48:09.1Z</time>
      </trkpt>
      <trkpt lat="44.45729" lon="6.20379">
        <ele>724</ele>
        <time>2014-08-31T15:48:15.1Z</time>
      </trkpt>
      <trkpt lat="44.45737" lon="6.20417">
        <ele>724</ele>
        <time>2014-08-31T15:48:21.1Z</time>
      </trkpt>
      <trkpt lat="44.45745" lon="6.20448">
        <ele>724</ele>
        <time>2014-08-31T15:48:26.1Z</time>
      </trkpt>
      <trkpt lat="44.45754" lon="6.20487">
        <ele>724</ele>
        <time>2014-08-31T15:48:32.1Z</time>
      </trkpt>
      <trkpt lat="44.45763" lon="6.20522">
        <ele>724</ele>
        <time>2014-08-31T15:48:38.1Z</time>
      </trkpt>
      <trkpt lat="44.45769" lon="6.20549">
        <ele>724</ele>
        <time>2014-08-31T15:48:43.1Z</time>
      </trkpt>
      <trkpt lat="44.45776" lon="6.20576">
        <ele>724</ele>
        <time>2014-08-31T15:48:48.1Z</time>
      </trkpt>
      <trkpt lat="44.45785" lon="6.20611">
        <ele>724</ele>
        <time>2014-08-31T15:48:54.1Z</time>
      </trkpt>
      <trkpt lat="44.45792" lon="6.20642">
        <ele>724</ele>
        <time>2014-08-31T15:48:59.1Z</time>
      </trkpt>
      <trkpt lat="44.45801" lon="6.20677">
        <ele>724</ele>
        <time>2014-08-31T15:49:05.1Z</time>
      </trkpt>
      <trkpt lat="44.45808" lon="6.20707">
        <ele>724</ele>
        <time>2014-08-31T15:49:10.1Z</time>
      </trkpt>
      <trkpt lat="44.45816" lon="6.20743">
        <ele>724</ele>
        <time>2014-08-31T15:49:16.1Z</time>
      </trkpt>
      <trkpt lat="44.45824" lon="6.20775">
        <ele>724</ele>
        <time>2014-08-31T15:49:21.1Z</time>
      </trkpt>
      <trkpt lat="44.45832" lon="6.20813">
        <ele>724</ele>
        <time>2014-08-31T15:49:27.1Z</time>
      </trkpt>
      <trkpt lat="44.45842" lon="6.20855">
        <ele>724</ele>
        <time>2014-08-31T15:49:33.1Z</time>
      </trkpt>
      <trkpt lat="44.45848" lon="6.20888">
        <ele>724</ele>
        <time>2014-08-31T15:49:38.1Z</time>
      </trkpt>
      <trkpt lat="44.45853" lon="6.2092">
        <ele>724</ele>
        <time>2014-08-31T15:49:43.1Z</time>
      </trkpt>
      <trkpt lat="44.45856" lon="6.20957">
        <ele>724</ele>
        <time>2014-08-31T15:49:49.1Z</time>
      </trkpt>
      <trkpt lat="44.45859" lon="6.20993">
        <ele>724</ele>
        <time>2014-08-31T15:49:55.1Z</time>
      </trkpt>
      <trkpt lat="44.45859" lon="6.21029">
        <ele>724</ele>
        <time>2014-08-31T15:50:01.1Z</time>
      </trkpt>
      <trkpt lat="44.45858" lon="6.2106">
        <ele>724</ele>
        <time>2014-08-31T15:50:06.1Z</time>
      </trkpt>
      <trkpt lat="44.45856" lon="6.211">
        <ele>724</ele>
        <time>2014-08-31T15:50:12.1Z</time>
      </trkpt>
      <trkpt lat="44.45854" lon="6.21134">
        <ele>724</ele>
        <time>2014-08-31T15:50:17.1Z</time>
      </trkpt>
      <trkpt lat="44.45852" lon="6.21174">
        <ele>725</ele>
        <time>2014-08-31T15:50:23.1Z</time>
      </trkpt>
      <trkpt lat="44.45849" lon="6.21215">
        <ele>724</ele>
        <time>2014-08-31T15:50:29.1Z</time>
      </trkpt>
      <trkpt lat="44.45847" lon="6.2125">
        <ele>725</ele>
        <time>2014-08-31T15:50:34.1Z</time>
      </trkpt>
      <trkpt lat="44.45845" lon="6.21281">
        <ele>725</ele>
        <time>2014-08-31T15:50:39.1Z</time>
      </trkpt>
      <trkpt lat="44.45843" lon="6.21314">
        <ele>725</ele>
        <time>2014-08-31T15:50:44.1Z</time>
      </trkpt>
      <trkpt lat="44.45842" lon="6.21348">
        <ele>725</ele>
        <time>2014-08-31T15:50:49.1Z</time>
      </trkpt>
      <trkpt lat="44.45839" lon="6.21389">
        <ele>725</ele>
        <time>2014-08-31T15:50:55.1Z</time>
      </trkpt>
      <trkpt lat="44.45837" lon="6.21423">
        <ele>725</ele>
        <time>2014-08-31T15:51:00.1Z</time>
      </trkpt>
      <trkpt lat="44.45836" lon="6.21456">
        <ele>725</ele>
        <time>2014-08-31T15:51:05.1Z</time>
      </trkpt>
      <trkpt lat="44.45834" lon="6.21494">
        <ele>725</ele>
        <time>2014-08-31T15:51:11.1Z</time>
      </trkpt>
      <trkpt lat="44.45832" lon="6.21532">
        <ele>725</ele>
        <time>2014-08-31T15:51:17.1Z</time>
      </trkpt>
      <trkpt lat="44.45828" lon="6.21568">
        <ele>724</ele>
        <time>2014-08-31T15:51:22.1Z</time>
      </trkpt>
      <trkpt lat="44.45821" lon="6.21621">
        <ele>722</ele>
        <time>2014-08-31T15:51:27.1Z</time>
      </trkpt>
      <trkpt lat="44.4581" lon="6.21699">
        <ele>719</ele>
        <time>2014-08-31T15:51:33.1Z</time>
      </trkpt>
      <trkpt lat="44.45806" lon="6.21763">
        <ele>716</ele>
        <time>2014-08-31T15:51:38.1Z</time>
      </trkpt>
      <trkpt lat="44.45806" lon="6.21816">
        <ele>717</ele>
        <time>2014-08-31T15:51:43.1Z</time>
      </trkpt>
      <trkpt lat="44.45808" lon="6.21871">
        <ele>717</ele>
        <time>2014-08-31T15:51:49.1Z</time>
      </trkpt>
      <trkpt lat="44.45811" lon="6.2191">
        <ele>718</ele>
        <time>2014-08-31T15:51:54.1Z</time>
      </trkpt>
      <trkpt lat="44.45815" lon="6.21943">
        <ele>719</ele>
        <time>2014-08-31T15:51:59.1Z</time>
      </trkpt>
      <trkpt lat="44.45819" lon="6.2197">
        <ele>720</ele>
        <time>2014-08-31T15:52:04.1Z</time>
      </trkpt>
      <trkpt lat="44.45825" lon="6.21996">
        <ele>722</ele>
        <time>2014-08-31T15:52:10.1Z</time>
      </trkpt>
      <trkpt lat="44.45828" lon="6.22021">
        <ele>723</ele>
        <time>2014-08-31T15:52:16.1Z</time>
      </trkpt>
      <trkpt lat="44.45836" lon="6.22066">
        <ele>722</ele>
        <time>2014-08-31T15:52:22.1Z</time>
      </trkpt>
      <trkpt lat="44.45845" lon="6.22103">
        <ele>721</ele>
        <time>2014-08-31T15:52:27.1Z</time>
      </trkpt>
      <trkpt lat="44.45852" lon="6.22132">
        <ele>722</ele>
        <time>2014-08-31T15:52:32.1Z</time>
      </trkpt>
      <trkpt lat="44.4585" lon="6.22153">
        <ele>723</ele>
        <time>2014-08-31T15:52:37.1Z</time>
      </trkpt>
      <trkpt lat="44.45842" lon="6.22173">
        <ele>724</ele>
        <time>2014-08-31T15:52:43.1Z</time>
      </trkpt>
      <trkpt lat="44.45836" lon="6.2219">
        <ele>725</ele>
        <time>2014-08-31T15:52:48.1Z</time>
      </trkpt>
      <trkpt lat="44.45827" lon="6.22207">
        <ele>727</ele>
        <time>2014-08-31T15:52:54.1Z</time>
      </trkpt>
      <trkpt lat="44.45821" lon="6.2222">
        <ele>728</ele>
        <time>2014-08-31T15:52:59.1Z</time>
      </trkpt>
      <trkpt lat="44.45817" lon="6.2224">
        <ele>728</ele>
        <time>2014-08-31T15:53:05.1Z</time>
      </trkpt>
      <trkpt lat="44.45829" lon="6.2228">
        <ele>726</ele>
        <time>2014-08-31T15:53:10.1Z</time>
      </trkpt>
      <trkpt lat="44.45849" lon="6.22349">
        <ele>720</ele>
        <time>2014-08-31T15:53:16.1Z</time>
      </trkpt>
      <trkpt lat="44.45875" lon="6.22395">
        <ele>718</ele>
        <time>2014-08-31T15:53:21.1Z</time>
      </trkpt>
      <trkpt lat="44.45895" lon="6.2243">
        <ele>719</ele>
        <time>2014-08-31T15:53:26.1Z</time>
      </trkpt>
      <trkpt lat="44.45908" lon="6.22463">
        <ele>721</ele>
        <time>2014-08-31T15:53:32.1Z</time>
      </trkpt>
      <trkpt lat="44.45918" lon="6.22482">
        <ele>722</ele>
        <time>2014-08-31T15:53:37.1Z</time>
      </trkpt>
      <trkpt lat="44.45927" lon="6.22499">
        <ele>722</ele>
        <time>2014-08-31T15:53:42.1Z</time>
      </trkpt>
      <trkpt lat="44.45937" lon="6.22516">
        <ele>723</ele>
        <time>2014-08-31T15:53:47.1Z</time>
      </trkpt>
      <trkpt lat="44.45945" lon="6.22528">
        <ele>725</ele>
        <time>2014-08-31T15:53:52.1Z</time>
      </trkpt>
      <trkpt lat="44.45954" lon="6.22543">
        <ele>724</ele>
        <time>2014-08-31T15:53:57.1Z</time>
      </trkpt>
      <trkpt lat="44.45971" lon="6.22572">
        <ele>722</ele>
        <time>2014-08-31T15:54:02.1Z</time>
      </trkpt>
      <trkpt lat="44.45984" lon="6.22617">
        <ele>721</ele>
        <time>2014-08-31T15:54:08.1Z</time>
      </trkpt>
      <trkpt lat="44.4598" lon="6.22682">
        <ele>719</ele>
        <time>2014-08-31T15:54:14.1Z</time>
      </trkpt>
      <trkpt lat="44.45988" lon="6.22738">
        <ele>718</ele>
        <time>2014-08-31T15:54:20.1Z</time>
      </trkpt>
      <trkpt lat="44.46" lon="6.22774">
        <ele>719</ele>
        <time>2014-08-31T15:54:26.1Z</time>
      </trkpt>
      <trkpt lat="44.46008" lon="6.22795">
        <ele>720</ele>
        <time>2014-08-31T15:54:31.1Z</time>
      </trkpt>
      <trkpt lat="44.46012" lon="6.22809">
        <ele>722</ele>
        <time>2014-08-31T15:54:36.1Z</time>
      </trkpt>
      <trkpt lat="44.46014" lon="6.22826">
        <ele>723</ele>
        <time>2014-08-31T15:54:42.1Z</time>
      </trkpt>
      <trkpt lat="44.46019" lon="6.22842">
        <ele>724</ele>
        <time>2014-08-31T15:54:48.1Z</time>
      </trkpt>
      <trkpt lat="44.46027" lon="6.22857">
        <ele>725</ele>
        <time>2014-08-31T15:54:53.1Z</time>
      </trkpt>
      <trkpt lat="44.46038" lon="6.22872">
        <ele>725</ele>
        <time>2014-08-31T15:54:59.1Z</time>
      </trkpt>
      <trkpt lat="44.46048" lon="6.22884">
        <ele>725</ele>
        <time>2014-08-31T15:55:04.1Z</time>
      </trkpt>
      <trkpt lat="44.46064" lon="6.229">
        <ele>725</ele>
        <time>2014-08-31T15:55:10.1Z</time>
      </trkpt>
      <trkpt lat="44.46075" lon="6.22917">
        <ele>725</ele>
        <time>2014-08-31T15:55:15.1Z</time>
      </trkpt>
      <trkpt lat="44.46083" lon="6.22935">
        <ele>725</ele>
        <time>2014-08-31T15:55:20.1Z</time>
      </trkpt>
      <trkpt lat="44.4609" lon="6.22957">
        <ele>726</ele>
        <time>2014-08-31T15:55:26.1Z</time>
      </trkpt>
      <trkpt lat="44.46095" lon="6.22971">
        <ele>728</ele>
        <time>2014-08-31T15:55:31.1Z</time>
      </trkpt>
      <trkpt lat="44.461" lon="6.22983">
        <ele>728</ele>
        <time>2014-08-31T15:55:36.1Z</time>
      </trkpt>
      <trkpt lat="44.46101" lon="6.23006">
        <ele>727</ele>
        <time>2014-08-31T15:55:42.1Z</time>
      </trkpt>
      <trkpt lat="44.46101" lon="6.23028">
        <ele>727</ele>
        <time>2014-08-31T15:55:47.1Z</time>
      </trkpt>
      <trkpt lat="44.46097" lon="6.23049">
        <ele>727</ele>
        <time>2014-08-31T15:55:52.1Z</time>
      </trkpt>
      <trkpt lat="44.46088" lon="6.23066">
        <ele>727</ele>
        <time>2014-08-31T15:55:57.1Z</time>
      </trkpt>
      <trkpt lat="44.46077" lon="6.23086">
        <ele>727</ele>
        <time>2014-08-31T15:56:03.1Z</time>
      </trkpt>
      <trkpt lat="44.46065" lon="6.23102">
        <ele>728</ele>
        <time>2014-08-31T15:56:08.1Z</time>
      </trkpt>
      <trkpt lat="44.46052" lon="6.23118">
        <ele>728</ele>
        <time>2014-08-31T15:56:13.1Z</time>
      </trkpt>
      <trkpt lat="44.46038" lon="6.23126">
        <ele>729</ele>
        <time>2014-08-31T15:56:18.1Z</time>
      </trkpt>
      <trkpt lat="44.46021" lon="6.23136">
        <ele>729</ele>
        <time>2014-08-31T15:56:24.1Z</time>
      </trkpt>
      <trkpt lat="44.46009" lon="6.23145">
        <ele>730</ele>
        <time>2014-08-31T15:56:29.1Z</time>
      </trkpt>
      <trkpt lat="44.46005" lon="6.2315">
        <ele>731</ele>
        <time>2014-08-31T15:56:34.1Z</time>
      </trkpt>
      <trkpt lat="44.46005" lon="6.23152">
        <ele>732</ele>
        <time>2014-08-31T15:56:40.1Z</time>
      </trkpt>
      <trkpt lat="44.46004" lon="6.23153">
        <ele>732</ele>
        <time>2014-08-31T15:56:46.1Z</time>
      </trkpt>
      <trkpt lat="44.46005" lon="6.23154">
        <ele>731</ele>
        <time>2014-08-31T15:56:52.1Z</time>
      </trkpt>
      <trkpt lat="44.46005" lon="6.23155">
        <ele>731</ele>
        <time>2014-08-31T15:56:58.1Z</time>
      </trkpt>
      <trkpt lat="44.46005" lon="6.23156">
        <ele>731</ele>
        <time>2014-08-31T15:57:03.1Z</time>
      </trkpt>
      <trkpt lat="44.46006" lon="6.23156">
        <ele>732</ele>
        <time>2014-08-31T15:57:08.1Z</time>
      </trkpt>
      <trkpt lat="44.46006" lon="6.23157">
        <ele>732</ele>
        <time>2014-08-31T15:57:14.1Z</time>
      </trkpt>
      <trkpt lat="44.46007" lon="6.23158">
        <ele>732</ele>
        <time>2014-08-31T15:57:20.1Z</time>
      </trkpt>
      <trkpt lat="44.46007" lon="6.23158">
        <ele>732</ele>
        <time>2014-08-31T15:57:26.1Z</time>
      </trkpt>
      <trkpt lat="44.46008" lon="6.23158">
        <ele>732</ele>
        <time>2014-08-31T15:57:31.1Z</time>
      </trkpt>
      <trkpt lat="44.46008" lon="6.23156">
        <ele>732</ele>
        <time>2014-08-31T15:57:37.1Z</time>
      </trkpt>
      <trkpt lat="44.46008" lon="6.23156">
        <ele>732</ele>
        <time>2014-08-31T15:57:42.1Z</time>
      </trkpt>
      <trkpt lat="44.46009" lon="6.23155">
        <ele>732</ele>
        <time>2014-08-31T15:57:48.1Z</time>
      </trkpt>
      <trkpt lat="44.46009" lon="6.23155">
        <ele>732</ele>
        <time>2014-08-31T15:57:54.1Z</time>
      </trkpt>
      <trkpt lat="44.46009" lon="6.23155">
        <ele>732</ele>
        <time>2014-08-31T15:58:00.1Z</time>
      </trkpt>
      <trkpt lat="44.46009" lon="6.23155">
        <ele>732</ele>
        <time>2014-08-31T15:58:05.1Z</time>
      </trkpt>
      <trkpt lat="44.46009" lon="6.23155">
        <ele>731</ele>
        <time>2014-08-31T15:58:12.1Z</time>
      </trkpt>
      <trkpt lat="44.46008" lon="6.23154">
        <ele>731</ele>
        <time>2014-08-31T15:58:18.1Z</time>
      </trkpt>
      <trkpt lat="44.46008" lon="6.23154">
        <ele>732</ele>
        <time>2014-08-31T15:58:24.1Z</time>
      </trkpt>
      <trkpt lat="44.46006" lon="6.23156">
        <ele>732</ele>
        <time>2014-08-31T15:58:30.1Z</time>
      </trkpt>
      <trkpt lat="44.46003" lon="6.2316">
        <ele>732</ele>
        <time>2014-08-31T15:58:35.1Z</time>
      </trkpt>
      <trkpt lat="44.45996" lon="6.23167">
        <ele>732</ele>
        <time>2014-08-31T15:58:41.1Z</time>
      </trkpt>
      <trkpt lat="44.45986" lon="6.23183">
        <ele>731</ele>
        <time>2014-08-31T15:58:47.1Z</time>
      </trkpt>
      <trkpt lat="44.45974" lon="6.23205">
        <ele>732</ele>
        <time>2014-08-31T15:58:53.1Z</time>
      </trkpt>
      <trkpt lat="44.45962" lon="6.23227">
        <ele>732</ele>
        <time>2014-08-31T15:58:58.1Z</time>
      </trkpt>
      <trkpt lat="44.45958" lon="6.23248">
        <ele>731</ele>
        <time>2014-08-31T15:59:03.1Z</time>
      </trkpt>
      <trkpt lat="44.45957" lon="6.2324">
        <ele>732</ele>
        <time>2014-08-31T15:59:09.1Z</time>
      </trkpt>
      <trkpt lat="44.45963" lon="6.2325">
        <ele>731</ele>
        <time>2014-08-31T15:59:15.1Z</time>
      </trkpt>
      <trkpt lat="44.45962" lon="6.23263">
        <ele>731</ele>
        <time>2014-08-31T15:59:20.1Z</time>
      </trkpt>
      <trkpt lat="44.45967" lon="6.23277">
        <ele>731</ele>
        <time>2014-08-31T15:59:25.1Z</time>
      </trkpt>
      <trkpt lat="44.45974" lon="6.23293">
        <ele>731</ele>
        <time>2014-08-31T15:59:31.1Z</time>
      </trkpt>
      <trkpt lat="44.45979" lon="6.23306">
        <ele>732</ele>
        <time>2014-08-31T15:59:36.1Z</time>
      </trkpt>
      <trkpt lat="44.45985" lon="6.23319">
        <ele>732</ele>
        <time>2014-08-31T15:59:42.1Z</time>
      </trkpt>
      <trkpt lat="44.4599" lon="6.23331">
        <ele>732</ele>
        <time>2014-08-31T15:59:48.1Z</time>
      </trkpt>
      <trkpt lat="44.4599" lon="6.23332">
        <ele>732</ele>
        <time>2014-08-31T15:59:53.1Z</time>
      </trkpt>
      <trkpt lat="44.45995" lon="6.23345">
        <ele>732</ele>
        <time>2014-08-31T15:59:59.1Z</time>
      </trkpt>
      <trkpt lat="44.46" lon="6.23354">
        <ele>732</ele>
        <time>2014-08-31T16:00:04.1Z</time>
      </trkpt>
      <trkpt lat="44.46003" lon="6.23351">
        <ele>733</ele>
        <time>2014-08-31T16:00:10.1Z</time>
      </trkpt>
      <trkpt lat="44.46005" lon="6.23349">
        <ele>733</ele>
        <time>2014-08-31T16:00:16.1Z</time>
      </trkpt>
      <trkpt lat="44.46006" lon="6.23349">
        <ele>732</ele>
        <time>2014-08-31T16:00:22.1Z</time>
      </trkpt>
      <trkpt lat="44.46006" lon="6.23349">
        <ele>733</ele>
        <time>2014-08-31T16:00:29.1Z</time>
      </trkpt>
      <trkpt lat="44.46006" lon="6.23348">
        <ele>732</ele>
        <time>2014-08-31T16:00:34.1Z</time>
      </trkpt>
      <trkpt lat="44.46002" lon="6.2335">
        <ele>732</ele>
        <time>2014-08-31T16:00:40.1Z</time>
      </trkpt>
      <trkpt lat="44.45999" lon="6.23352">
        <ele>733</ele>
        <time>2014-08-31T16:00:45.1Z</time>
      </trkpt>
      <trkpt lat="44.46" lon="6.23353">
        <ele>733</ele>
        <time>2014-08-31T16:00:51.1Z</time>
      </trkpt>
      <trkpt lat="44.46003" lon="6.23361">
        <ele>732</ele>
        <time>2014-08-31T16:00:56.1Z</time>
      </trkpt>
      <trkpt lat="44.46009" lon="6.23375">
        <ele>732</ele>
        <time>2014-08-31T16:01:02.1Z</time>
      </trkpt>
      <trkpt lat="44.46014" lon="6.23386">
        <ele>733</ele>
        <time>2014-08-31T16:01:07.1Z</time>
      </trkpt>
      <trkpt lat="44.46022" lon="6.23401">
        <ele>732</ele>
        <time>2014-08-31T16:01:13.1Z</time>
      </trkpt>
      <trkpt lat="44.46016" lon="6.23407">
        <ele>733</ele>
        <time>2014-08-31T16:01:19.1Z</time>
      </trkpt>
      <trkpt lat="44.46012" lon="6.2341">
        <ele>735</ele>
        <time>2014-08-31T16:01:24.1Z</time>
      </trkpt>
      <trkpt lat="44.46014" lon="6.23423">
        <ele>735</ele>
        <time>2014-08-31T16:01:30.1Z</time>
      </trkpt>
      <trkpt lat="44.46016" lon="6.23429">
        <ele>735</ele>
        <time>2014-08-31T16:01:35.1Z</time>
      </trkpt>
      <trkpt lat="44.4601" lon="6.23451">
        <ele>735</ele>
        <time>2014-08-31T16:01:41.1Z</time>
      </trkpt>
      <trkpt lat="44.46003" lon="6.23477">
        <ele>734</ele>
        <time>2014-08-31T16:01:46.1Z</time>
      </trkpt>
      <trkpt lat="44.45995" lon="6.23504">
        <ele>734</ele>
        <time>2014-08-31T16:01:51.1Z</time>
      </trkpt>
      <trkpt lat="44.45985" lon="6.23535">
        <ele>733</ele>
        <time>2014-08-31T16:01:57.1Z</time>
      </trkpt>
      <trkpt lat="44.45977" lon="6.23562">
        <ele>733</ele>
        <time>2014-08-31T16:02:02.1Z</time>
      </trkpt>
      <trkpt lat="44.45966" lon="6.23594">
        <ele>733</ele>
        <time>2014-08-31T16:02:08.1Z</time>
      </trkpt>
      <trkpt lat="44.45961" lon="6.23623">
        <ele>733</ele>
        <time>2014-08-31T16:02:13.1Z</time>
      </trkpt>
      <trkpt lat="44.45961" lon="6.23649">
        <ele>733</ele>
        <time>2014-08-31T16:02:18.1Z</time>
      </trkpt>
      <trkpt lat="44.45968" lon="6.23675">
        <ele>734</ele>
        <time>2014-08-31T16:02:24.1Z</time>
      </trkpt>
      <trkpt lat="44.45975" lon="6.23699">
        <ele>736</ele>
        <time>2014-08-31T16:02:29.1Z</time>
      </trkpt>
      <trkpt lat="44.45982" lon="6.23726">
        <ele>735</ele>
        <time>2014-08-31T16:02:34.1Z</time>
      </trkpt>
      <trkpt lat="44.45995" lon="6.23749">
        <ele>734</ele>
        <time>2014-08-31T16:02:40.1Z</time>
      </trkpt>
      <trkpt lat="44.46014" lon="6.23749">
        <ele>734</ele>
        <time>2014-08-31T16:02:45.1Z</time>
      </trkpt>
      <trkpt lat="44.4604" lon="6.23744">
        <ele>733</ele>
        <time>2014-08-31T16:02:51.1Z</time>
      </trkpt>
      <trkpt lat="44.46067" lon="6.23731">
        <ele>732</ele>
        <time>2014-08-31T16:02:56.1Z</time>
      </trkpt>
      <trkpt lat="44.46095" lon="6.23717">
        <ele>731</ele>
        <time>2014-08-31T16:03:01.1Z</time>
      </trkpt>
      <trkpt lat="44.46123" lon="6.23704">
        <ele>730</ele>
        <time>2014-08-31T16:03:06.1Z</time>
      </trkpt>
      <trkpt lat="44.46155" lon="6.23689">
        <ele>729</ele>
        <time>2014-08-31T16:03:12.1Z</time>
      </trkpt>
      <trkpt lat="44.46186" lon="6.23673">
        <ele>730</ele>
        <time>2014-08-31T16:03:18.1Z</time>
      </trkpt>
      <trkpt lat="44.46214" lon="6.23659">
        <ele>730</ele>
        <time>2014-08-31T16:03:24.1Z</time>
      </trkpt>
      <trkpt lat="44.46236" lon="6.23648">
        <ele>729</ele>
        <time>2014-08-31T16:03:29.1Z</time>
      </trkpt>
      <trkpt lat="44.46261" lon="6.23635">
        <ele>729</ele>
        <time>2014-08-31T16:03:35.1Z</time>
      </trkpt>
      <trkpt lat="44.46287" lon="6.23621">
        <ele>729</ele>
        <time>2014-08-31T16:03:41.1Z</time>
      </trkpt>
      <trkpt lat="44.46308" lon="6.23609">
        <ele>729</ele>
        <time>2014-08-31T16:03:46.1Z</time>
      </trkpt>
      <trkpt lat="44.4633" lon="6.23598">
        <ele>729</ele>
        <time>2014-08-31T16:03:51.1Z</time>
      </trkpt>
      <trkpt lat="44.46356" lon="6.23584">
        <ele>730</ele>
        <time>2014-08-31T16:03:57.1Z</time>
      </trkpt>
      <trkpt lat="44.46378" lon="6.23571">
        <ele>730</ele>
        <time>2014-08-31T16:04:02.1Z</time>
      </trkpt>
      <trkpt lat="44.46406" lon="6.23556">
        <ele>729</ele>
        <time>2014-08-31T16:04:08.1Z</time>
      </trkpt>
      <trkpt lat="44.46432" lon="6.23542">
        <ele>730</ele>
        <time>2014-08-31T16:04:14.1Z</time>
      </trkpt>
      <trkpt lat="44.46453" lon="6.2353">
        <ele>730</ele>
        <time>2014-08-31T16:04:19.1Z</time>
      </trkpt>
      <trkpt lat="44.4648" lon="6.23516">
        <ele>730</ele>
        <time>2014-08-31T16:04:25.1Z</time>
      </trkpt>
      <trkpt lat="44.46501" lon="6.23506">
        <ele>731</ele>
        <time>2014-08-31T16:04:30.1Z</time>
      </trkpt>
      <trkpt lat="44.4652" lon="6.23501">
        <ele>731</ele>
        <time>2014-08-31T16:04:35.1Z</time>
      </trkpt>
      <trkpt lat="44.46528" lon="6.23478">
        <ele>731</ele>
        <time>2014-08-31T16:04:40.1Z</time>
      </trkpt>
      <trkpt lat="44.46531" lon="6.23443">
        <ele>732</ele>
        <time>2014-08-31T16:04:46.1Z</time>
      </trkpt>
      <trkpt lat="44.46532" lon="6.23415">
        <ele>732</ele>
        <time>2014-08-31T16:04:51.1Z</time>
      </trkpt>
      <trkpt lat="44.46533" lon="6.23386">
        <ele>732</ele>
        <time>2014-08-31T16:04:56.1Z</time>
      </trkpt>
      <trkpt lat="44.46534" lon="6.23356">
        <ele>733</ele>
        <time>2014-08-31T16:05:02.1Z</time>
      </trkpt>
      <trkpt lat="44.46533" lon="6.23327">
        <ele>733</ele>
        <time>2014-08-31T16:05:08.1Z</time>
      </trkpt>
      <trkpt lat="44.4653" lon="6.23298">
        <ele>734</ele>
        <time>2014-08-31T16:05:14.1Z</time>
      </trkpt>
      <trkpt lat="44.46526" lon="6.23271">
        <ele>736</ele>
        <time>2014-08-31T16:05:20.1Z</time>
      </trkpt>
      <trkpt lat="44.46522" lon="6.23244">
        <ele>737</ele>
        <time>2014-08-31T16:05:26.1Z</time>
      </trkpt>
      <trkpt lat="44.46519" lon="6.23219">
        <ele>738</ele>
        <time>2014-08-31T16:05:31.1Z</time>
      </trkpt>
      <trkpt lat="44.46516" lon="6.23188">
        <ele>737</ele>
        <time>2014-08-31T16:05:37.1Z</time>
      </trkpt>
      <trkpt lat="44.46512" lon="6.23153">
        <ele>736</ele>
        <time>2014-08-31T16:05:43.1Z</time>
      </trkpt>
      <trkpt lat="44.46508" lon="6.23123">
        <ele>736</ele>
        <time>2014-08-31T16:05:48.1Z</time>
      </trkpt>
      <trkpt lat="44.46505" lon="6.23091">
        <ele>736</ele>
        <time>2014-08-31T16:05:53.1Z</time>
      </trkpt>
      <trkpt lat="44.46501" lon="6.23059">
        <ele>735</ele>
        <time>2014-08-31T16:05:58.1Z</time>
      </trkpt>
      <trkpt lat="44.46495" lon="6.23028">
        <ele>735</ele>
        <time>2014-08-31T16:06:03.1Z</time>
      </trkpt>
      <trkpt lat="44.46487" lon="6.22996">
        <ele>735</ele>
        <time>2014-08-31T16:06:09.1Z</time>
      </trkpt>
      <trkpt lat="44.46476" lon="6.22969">
        <ele>735</ele>
        <time>2014-08-31T16:06:15.1Z</time>
      </trkpt>
      <trkpt lat="44.46457" lon="6.22962">
        <ele>734</ele>
        <time>2014-08-31T16:06:20.1Z</time>
      </trkpt>
      <trkpt lat="44.46432" lon="6.22961">
        <ele>731</ele>
        <time>2014-08-31T16:06:25.1Z</time>
      </trkpt>
      <trkpt lat="44.46425" lon="6.22941">
        <ele>730</ele>
        <time>2014-08-31T16:06:31.1Z</time>
      </trkpt>
      <trkpt lat="44.46423" lon="6.22916">
        <ele>729</ele>
        <time>2014-08-31T16:06:36.1Z</time>
      </trkpt>
      <trkpt lat="44.46423" lon="6.22891">
        <ele>729</ele>
        <time>2014-08-31T16:06:41.1Z</time>
      </trkpt>
      <trkpt lat="44.46428" lon="6.22873">
        <ele>729</ele>
        <time>2014-08-31T16:06:47.1Z</time>
      </trkpt>
      <trkpt lat="44.46428" lon="6.2287">
        <ele>729</ele>
        <time>2014-08-31T16:06:53.1Z</time>
      </trkpt>
      <trkpt lat="44.46428" lon="6.22866">
        <ele>729</ele>
        <time>2014-08-31T16:06:58.1Z</time>
      </trkpt>
      <trkpt lat="44.46428" lon="6.22867">
        <ele>729</ele>
        <time>2014-08-31T16:07:04.1Z</time>
      </trkpt>
      <trkpt lat="44.46428" lon="6.22866">
        <ele>729</ele>
        <time>2014-08-31T16:07:09.1Z</time>
      </trkpt>
      <trkpt lat="44.46429" lon="6.22864">
        <ele>729</ele>
        <time>2014-08-31T16:07:15.1Z</time>
      </trkpt>
      <trkpt lat="44.4643" lon="6.22866">
        <ele>731</ele>
        <time>2014-08-31T16:07:21.1Z</time>
      </trkpt>
      <trkpt lat="44.46429" lon="6.22868">
        <ele>732</ele>
        <time>2014-08-31T16:07:26.1Z</time>
      </trkpt>
      <trkpt lat="44.46427" lon="6.22867">
        <ele>732</ele>
        <time>2014-08-31T16:07:27.1Z</time>
      </trkpt>
    </trkseg>
  </trk>
</gpx>